<?xml version='1.0' encoding='UTF-8'?><gpx version="1.1" creator="JPX - https://github.com/jenetics/jpx" xmlns="http://www.topografix.com/GPX/1/1"><trk><trkseg><trkpt lat="40.01216583572204" lon="18.17774436445584"><ele>144.0</ele><time>2026-04-26T09:49:43Z</time></trkpt><trkpt lat="40.0121353330511" lon="18.177646954655145"><ele>144.0</ele><time>2026-04-26T09:49:45Z</time></trkpt><trkpt lat="40.012087022496445" lon="18.177505998565927"><ele>144.0</ele><time>2026-04-26T09:49:47Z</time></trkpt><trkpt lat="40.012109831133486" lon="18.177418850836567"><ele>144.0</ele><time>2026-04-26T09:49:50Z</time></trkpt><trkpt lat="40.01219859074574" lon="18.17737445910854"><ele>144.0</ele><time>2026-04-26T09:49:52Z</time></trkpt><trkpt lat="40.01229633994018" lon="18.177335317866266"><ele>143.5</ele><time>2026-04-26T09:49:54Z</time></trkpt><trkpt lat="40.01238887762604" lon="18.177315461018274"><ele>143.0</ele><time>2026-04-26T09:49:56Z</time></trkpt><trkpt lat="40.01246575478408" lon="18.177276727996194"><ele>142.5</ele><time>2026-04-26T09:49:58Z</time></trkpt><trkpt lat="40.01252483718458" lon="18.177236897480892"><ele>142.0</ele><time>2026-04-26T09:50:05Z</time></trkpt><trkpt lat="40.01252480970441" lon="18.177122560850655"><ele>141.5</ele><time>2026-04-26T09:50:08Z</time></trkpt><trkpt lat="40.012484219451494" lon="18.17699162445145"><ele>141.0</ele><time>2026-04-26T09:50:10Z</time></trkpt><trkpt lat="40.01245956748849" lon="18.176906853252017"><ele>141.0</ele><time>2026-04-26T09:50:11Z</time></trkpt><trkpt lat="40.012429335072" lon="18.176813441949566"><ele>141.0</ele><time>2026-04-26T09:50:12Z</time></trkpt><trkpt lat="40.01240080653209" lon="18.176719850963767"><ele>141.0</ele><time>2026-04-26T09:50:13Z</time></trkpt><trkpt lat="40.01236902370097" lon="18.17662551441092"><ele>141.0</ele><time>2026-04-26T09:50:14Z</time></trkpt><trkpt lat="40.01233338084725" lon="18.17652422535681"><ele>141.0</ele><time>2026-04-26T09:50:15Z</time></trkpt><trkpt lat="40.01229439203642" lon="18.17642736715937"><ele>141.0</ele><time>2026-04-26T09:50:16Z</time></trkpt><trkpt lat="40.01226789051135" lon="18.176333604792806"><ele>140.5</ele><time>2026-04-26T09:50:17Z</time></trkpt><trkpt lat="40.01223562935298" lon="18.17625009455448"><ele>140.0</ele><time>2026-04-26T09:50:18Z</time></trkpt><trkpt lat="40.012205913166675" lon="18.17616677552456"><ele>139.5</ele><time>2026-04-26T09:50:19Z</time></trkpt><trkpt lat="40.01215813273167" lon="18.17604544717286"><ele>139.0</ele><time>2026-04-26T09:50:21Z</time></trkpt><trkpt lat="40.012148416505646" lon="18.17594677981807"><ele>138.5</ele><time>2026-04-26T09:50:49Z</time></trkpt><trkpt lat="40.012117548959495" lon="18.175850141835326"><ele>138.0</ele><time>2026-04-26T09:50:51Z</time></trkpt><trkpt lat="40.01205998636627" lon="18.175706111598192"><ele>137.5</ele><time>2026-04-26T09:50:53Z</time></trkpt><trkpt lat="40.012022131128546" lon="18.175618284966347"><ele>137.0</ele><time>2026-04-26T09:50:54Z</time></trkpt><trkpt lat="40.011981396936505" lon="18.175517472532174"><ele>136.5</ele><time>2026-04-26T09:50:55Z</time></trkpt><trkpt lat="40.011935309839785" lon="18.17541986922181"><ele>136.0</ele><time>2026-04-26T09:50:56Z</time></trkpt><trkpt lat="40.01188993296353" lon="18.17532521531423"><ele>135.5</ele><time>2026-04-26T09:50:57Z</time></trkpt><trkpt lat="40.011854139048765" lon="18.175243717685046"><ele>135.0</ele><time>2026-04-26T09:50:58Z</time></trkpt><trkpt lat="40.011821931720114" lon="18.175168449608723"><ele>135.0</ele><time>2026-04-26T09:50:59Z</time></trkpt><trkpt lat="40.011826973954" lon="18.174994638097157"><ele>135.0</ele><time>2026-04-26T09:51:01Z</time></trkpt><trkpt lat="40.011833440510046" lon="18.174897794343313"><ele>135.0</ele><time>2026-04-26T09:51:02Z</time></trkpt><trkpt lat="40.01183696414835" lon="18.1747962744274"><ele>135.0</ele><time>2026-04-26T09:51:03Z</time></trkpt><trkpt lat="40.011843578309666" lon="18.174675780580607"><ele>135.0</ele><time>2026-04-26T09:51:04Z</time></trkpt><trkpt lat="40.011844554212374" lon="18.174551862895648"><ele>134.6</ele><time>2026-04-26T09:51:05Z</time></trkpt><trkpt lat="40.01184261180762" lon="18.174416250006214"><ele>134.2</ele><time>2026-04-26T09:51:06Z</time></trkpt><trkpt lat="40.01184678350316" lon="18.174280397597656"><ele>133.8</ele><time>2026-04-26T09:51:07Z</time></trkpt><trkpt lat="40.01185998496998" lon="18.17413974896489"><ele>133.4</ele><time>2026-04-26T09:51:08Z</time></trkpt><trkpt lat="40.01186594818121" lon="18.173988175551404"><ele>133.0</ele><time>2026-04-26T09:51:09Z</time></trkpt><trkpt lat="40.01185102105181" lon="18.173840600998105"><ele>131.25</ele><time>2026-04-26T09:51:10Z</time></trkpt><trkpt lat="40.01182776647933" lon="18.173688653456136"><ele>129.5</ele><time>2026-04-26T09:51:11Z</time></trkpt><trkpt lat="40.01180163804821" lon="18.173537907326523"><ele>127.75</ele><time>2026-04-26T09:51:12Z</time></trkpt><trkpt lat="40.01177025021333" lon="18.173401446584624"><ele>126.0</ele><time>2026-04-26T09:51:13Z</time></trkpt><trkpt lat="40.01174052020734" lon="18.17327083938977"><ele>125.6</ele><time>2026-04-26T09:51:14Z</time></trkpt><trkpt lat="40.01170580533696" lon="18.1731627393413"><ele>125.19999999999999</ele><time>2026-04-26T09:51:15Z</time></trkpt><trkpt lat="40.011681162073835" lon="18.173049899418878"><ele>124.80000000000001</ele><time>2026-04-26T09:51:16Z</time></trkpt><trkpt lat="40.01165068209815" lon="18.17293292260367"><ele>124.4</ele><time>2026-04-26T09:51:17Z</time></trkpt><trkpt lat="40.01162754978237" lon="18.172819606858493"><ele>124.0</ele><time>2026-04-26T09:51:18Z</time></trkpt><trkpt lat="40.011607190439705" lon="18.172709165821356"><ele>123.83333333333334</ele><time>2026-04-26T09:51:19Z</time></trkpt><trkpt lat="40.01158570678623" lon="18.17260668385947"><ele>123.66666666666667</ele><time>2026-04-26T09:51:20Z</time></trkpt><trkpt lat="40.01156214284186" lon="18.172508681054826"><ele>123.5</ele><time>2026-04-26T09:51:21Z</time></trkpt><trkpt lat="40.011535236976435" lon="18.172411753822566"><ele>123.33333333333334</ele><time>2026-04-26T09:51:22Z</time></trkpt><trkpt lat="40.01151715468124" lon="18.172318515177235"><ele>123.16666666666667</ele><time>2026-04-26T09:51:23Z</time></trkpt><trkpt lat="40.011498096018194" lon="18.172233537953794"><ele>123.0</ele><time>2026-04-26T09:51:23.999Z</time></trkpt><trkpt lat="40.01147470759091" lon="18.172147170579812"><ele>122.57142857142858</ele><time>2026-04-26T09:51:24.999Z</time></trkpt><trkpt lat="40.01145886125758" lon="18.172055604985562"><ele>122.14285714285714</ele><time>2026-04-26T09:51:26Z</time></trkpt><trkpt lat="40.011437177601415" lon="18.171959569336096"><ele>121.71428571428572</ele><time>2026-04-26T09:51:26.999Z</time></trkpt><trkpt lat="40.011416183536504" lon="18.171865927282184"><ele>121.28571428571429</ele><time>2026-04-26T09:51:27.999Z</time></trkpt><trkpt lat="40.011396277177056" lon="18.171772894470177"><ele>120.85714285714286</ele><time>2026-04-26T09:51:29Z</time></trkpt><trkpt lat="40.01137938931904" lon="18.171679940498308"><ele>120.42857142857143</ele><time>2026-04-26T09:51:30Z</time></trkpt><trkpt lat="40.01136235555462" lon="18.17159811568047"><ele>120.0</ele><time>2026-04-26T09:51:31Z</time></trkpt><trkpt lat="40.0113497468478" lon="18.17151278651667"><ele>119.85714285714286</ele><time>2026-04-26T09:51:32Z</time></trkpt><trkpt lat="40.01132452783674" lon="18.171427746948787"><ele>119.71428571428571</ele><time>2026-04-26T09:51:32.999Z</time></trkpt><trkpt lat="40.011306022840834" lon="18.171324827951516"><ele>119.57142857142857</ele><time>2026-04-26T09:51:33.999Z</time></trkpt><trkpt lat="40.01128641504196" lon="18.171231573740478"><ele>119.42857142857143</ele><time>2026-04-26T09:51:35Z</time></trkpt><trkpt lat="40.01126532613883" lon="18.171144445239722"><ele>119.28571428571428</ele><time>2026-04-26T09:51:35.999Z</time></trkpt><trkpt lat="40.011246780074146" lon="18.171058233430514"><ele>119.14285714285714</ele><time>2026-04-26T09:51:36.999Z</time></trkpt><trkpt lat="40.011227504140486" lon="18.170976566750955"><ele>119.0</ele><time>2026-04-26T09:51:37.999Z</time></trkpt><trkpt lat="40.01119395661713" lon="18.17081594723302"><ele>118.6</ele><time>2026-04-26T09:51:39.999Z</time></trkpt><trkpt lat="40.0111642016223" lon="18.170666114467295"><ele>118.2</ele><time>2026-04-26T09:51:41.999Z</time></trkpt><trkpt lat="40.01112636403272" lon="18.17052200742343"><ele>117.79999999999998</ele><time>2026-04-26T09:51:43.999Z</time></trkpt><trkpt lat="40.011104165347156" lon="18.170403593001478"><ele>117.39999999999999</ele><time>2026-04-26T09:51:45.999Z</time></trkpt><trkpt lat="40.0110900347968" lon="18.170291092787053"><ele>117.0</ele><time>2026-04-26T09:51:47.999Z</time></trkpt><trkpt lat="40.01106245998862" lon="18.170170249221"><ele>117.0</ele><time>2026-04-26T09:51:49.999Z</time></trkpt><trkpt lat="40.01105807584307" lon="18.170028598988793"><ele>116.99999999999999</ele><time>2026-04-26T09:51:51.999Z</time></trkpt><trkpt lat="40.011063534148406" lon="18.16987972168328"><ele>116.99999999999999</ele><time>2026-04-26T09:51:53.999Z</time></trkpt><trkpt lat="40.0110996951965" lon="18.169733972210924"><ele>117.0</ele><time>2026-04-26T09:51:55.999Z</time></trkpt><trkpt lat="40.01111837199605" lon="18.16961047744618"><ele>117.0</ele><time>2026-04-26T09:51:57.999Z</time></trkpt><trkpt lat="40.0110732798782" lon="18.169517062366058"><ele>116.39999999999999</ele><time>2026-04-26T09:52:00.999Z</time></trkpt><trkpt lat="40.010977533948875" lon="18.16940746064244"><ele>115.79999999999998</ele><time>2026-04-26T09:52:02.999Z</time></trkpt><trkpt lat="40.01091428732427" lon="18.169361991354936"><ele>115.2</ele><time>2026-04-26T09:52:03.999Z</time></trkpt><trkpt lat="40.01085261672733" lon="18.169315873118837"><ele>114.6</ele><time>2026-04-26T09:52:04.999Z</time></trkpt><trkpt lat="40.01079312028794" lon="18.169270086131963"><ele>114.0</ele><time>2026-04-26T09:52:05.999Z</time></trkpt><trkpt lat="40.01067459174965" lon="18.16920467573402"><ele>113.66666666666667</ele><time>2026-04-26T09:52:07.999Z</time></trkpt><trkpt lat="40.01060848079095" lon="18.169188129797146"><ele>113.33333333333334</ele><time>2026-04-26T09:52:08.999Z</time></trkpt><trkpt lat="40.01054542486825" lon="18.169175186613494"><ele>113.0</ele><time>2026-04-26T09:52:09.999Z</time></trkpt><trkpt lat="40.01041373678574" lon="18.1691786496059"><ele>112.66666666666667</ele><time>2026-04-26T09:52:11.999Z</time></trkpt><trkpt lat="40.01033684863397" lon="18.16918634495044"><ele>112.33333333333334</ele><time>2026-04-26T09:52:12.999Z</time></trkpt><trkpt lat="40.01025029462284" lon="18.169199713841824"><ele>112.0</ele><time>2026-04-26T09:52:13.999Z</time></trkpt><trkpt lat="40.01017736885655" lon="18.169190468262506"><ele>112.0</ele><time>2026-04-26T09:52:14.999Z</time></trkpt><trkpt lat="40.01007018415107" lon="18.169165067090965"><ele>112.0</ele><time>2026-04-26T09:52:15.999Z</time></trkpt><trkpt lat="40.00996327972863" lon="18.169128763151743"><ele>112.0</ele><time>2026-04-26T09:52:16.999Z</time></trkpt><trkpt lat="40.009839270712305" lon="18.16905967644978"><ele>112.0</ele><time>2026-04-26T09:52:17.999Z</time></trkpt><trkpt lat="40.00972235598535" lon="18.168940075493808"><ele>110.0</ele><time>2026-04-26T09:52:18.999Z</time></trkpt><trkpt lat="40.00959345280361" lon="18.16879967765257"><ele>108.0</ele><time>2026-04-26T09:52:19.999Z</time></trkpt><trkpt lat="40.009459742909804" lon="18.168697636737868"><ele>106.0</ele><time>2026-04-26T09:52:20.999Z</time></trkpt><trkpt lat="40.00936005120257" lon="18.168626108351564"><ele>104.0</ele><time>2026-04-26T09:52:21.999Z</time></trkpt><trkpt lat="40.00928003447876" lon="18.168558526694884"><ele>103.99999999999999</ele><time>2026-04-26T09:52:22.999Z</time></trkpt><trkpt lat="40.00921867596847" lon="18.16850657474882"><ele>104.0</ele><time>2026-04-26T09:52:23.999Z</time></trkpt><trkpt lat="40.009143135290444" lon="18.168454526048237"><ele>104.0</ele><time>2026-04-26T09:52:25.999Z</time></trkpt><trkpt lat="40.00908785986518" lon="18.168407432823617"><ele>104.0</ele><time>2026-04-26T09:52:27.999Z</time></trkpt><trkpt lat="40.008978611560494" lon="18.16832870934465"><ele>103.99999999999999</ele><time>2026-04-26T09:52:29.999Z</time></trkpt><trkpt lat="40.0089035763859" lon="18.16828912442848"><ele>104.0</ele><time>2026-04-26T09:52:30.999Z</time></trkpt><trkpt lat="40.008810907689636" lon="18.16824720855426"><ele>103.0</ele><time>2026-04-26T09:52:31.999Z</time></trkpt><trkpt lat="40.00870027296728" lon="18.168182427396793"><ele>102.0</ele><time>2026-04-26T09:52:32.999Z</time></trkpt><trkpt lat="40.008596083066614" lon="18.16811546177166"><ele>101.0</ele><time>2026-04-26T09:52:33.999Z</time></trkpt><trkpt lat="40.00849482542583" lon="18.168064632889486"><ele>100.0</ele><time>2026-04-26T09:52:34.999Z</time></trkpt><trkpt lat="40.0083999806635" lon="18.168027344930554"><ele>99.0</ele><time>2026-04-26T09:52:35.999Z</time></trkpt><trkpt lat="40.00830553888939" lon="18.16799607636346"><ele>97.2</ele><time>2026-04-26T09:52:36.999Z</time></trkpt><trkpt lat="40.00821048759793" lon="18.167950717668884"><ele>95.4</ele><time>2026-04-26T09:52:37.999Z</time></trkpt><trkpt lat="40.008127652837906" lon="18.16791093524957"><ele>93.6</ele><time>2026-04-26T09:52:38.999Z</time></trkpt><trkpt lat="40.00804255812145" lon="18.167864817844485"><ele>91.8</ele><time>2026-04-26T09:52:39.999Z</time></trkpt><trkpt lat="40.00796532162194" lon="18.16780840561673"><ele>90.0</ele><time>2026-04-26T09:52:40.999Z</time></trkpt><trkpt lat="40.00789444911027" lon="18.16773835585455"><ele>90.0</ele><time>2026-04-26T09:52:41.999Z</time></trkpt><trkpt lat="40.007828396227076" lon="18.16765875796439"><ele>90.0</ele><time>2026-04-26T09:52:42.999Z</time></trkpt><trkpt lat="40.007768240525415" lon="18.167577233204792"><ele>90.0</ele><time>2026-04-26T09:52:43.999Z</time></trkpt><trkpt lat="40.007715784572355" lon="18.167504379251735"><ele>90.0</ele><time>2026-04-26T09:52:44.999Z</time></trkpt><trkpt lat="40.00767548493608" lon="18.16743208632393"><ele>90.0</ele><time>2026-04-26T09:52:45.999Z</time></trkpt><trkpt lat="40.00763236921298" lon="18.16731420959573"><ele>90.0</ele><time>2026-04-26T09:52:47.999Z</time></trkpt><trkpt lat="40.00759899581942" lon="18.16724236642553"><ele>90.2</ele><time>2026-04-26T09:52:49.999Z</time></trkpt><trkpt lat="40.00751058124691" lon="18.16712222546076"><ele>90.4</ele><time>2026-04-26T09:52:51.999Z</time></trkpt><trkpt lat="40.00745163714555" lon="18.16703840997973"><ele>90.6</ele><time>2026-04-26T09:52:52.999Z</time></trkpt><trkpt lat="40.0073778838949" lon="18.166944039785054"><ele>90.8</ele><time>2026-04-26T09:52:53.999Z</time></trkpt><trkpt lat="40.00728850249738" lon="18.16684489147066"><ele>91.0</ele><time>2026-04-26T09:52:54.999Z</time></trkpt><trkpt lat="40.00720960891017" lon="18.16676114526255"><ele>90.6</ele><time>2026-04-26T09:52:55.999Z</time></trkpt><trkpt lat="40.00714036947112" lon="18.166702875891968"><ele>90.19999999999999</ele><time>2026-04-26T09:52:56.999Z</time></trkpt><trkpt lat="40.007052471246176" lon="18.166642665109162"><ele>89.80000000000001</ele><time>2026-04-26T09:52:57.999Z</time></trkpt><trkpt lat="40.006962690812195" lon="18.166584009247742"><ele>89.4</ele><time>2026-04-26T09:52:58.999Z</time></trkpt><trkpt lat="40.006888865384475" lon="18.166526008784235"><ele>89.0</ele><time>2026-04-26T09:52:59.999Z</time></trkpt><trkpt lat="40.00680321822476" lon="18.166472135252395"><ele>89.0</ele><time>2026-04-26T09:53:00.999Z</time></trkpt><trkpt lat="40.00673012076318" lon="18.166422865955862"><ele>89.0</ele><time>2026-04-26T09:53:01.999Z</time></trkpt><trkpt lat="40.00664699738544" lon="18.16638102394714"><ele>89.0</ele><time>2026-04-26T09:53:02.999Z</time></trkpt><trkpt lat="40.006573321156225" lon="18.16628356418415"><ele>89.0</ele><time>2026-04-26T09:53:04.999Z</time></trkpt><trkpt lat="40.00653060085673" lon="18.166179633864672"><ele>89.0</ele><time>2026-04-26T09:53:06.999Z</time></trkpt><trkpt lat="40.00657656374885" lon="18.166094467261612"><ele>89.0</ele><time>2026-04-26T09:53:07.999Z</time></trkpt><trkpt lat="40.00671464506112" lon="18.165907620598365"><ele>89.0</ele><time>2026-04-26T09:53:08.999Z</time></trkpt><trkpt lat="40.006805569028565" lon="18.165789664747194"><ele>89.0</ele><time>2026-04-26T09:53:10.999Z</time></trkpt><trkpt lat="40.00686733404038" lon="18.1657541102956"><ele>89.0</ele><time>2026-04-26T09:53:11.999Z</time></trkpt><trkpt lat="40.006923147262185" lon="18.16569108931952"><ele>89.0</ele><time>2026-04-26T09:53:13.999Z</time></trkpt><trkpt lat="40.00693173058705" lon="18.16560023316635"><ele>89.0</ele><time>2026-04-26T09:53:15.999Z</time></trkpt><trkpt lat="40.00689028793311" lon="18.165437352792072"><ele>89.80000000000001</ele><time>2026-04-26T09:53:17.999Z</time></trkpt><trkpt lat="40.0068693153354" lon="18.16534293518517"><ele>90.60000000000001</ele><time>2026-04-26T09:53:18.999Z</time></trkpt><trkpt lat="40.00683856045704" lon="18.165249869900236"><ele>91.4</ele><time>2026-04-26T09:53:19.999Z</time></trkpt><trkpt lat="40.00680651213551" lon="18.165136537408063"><ele>92.2</ele><time>2026-04-26T09:53:20.999Z</time></trkpt><trkpt lat="40.006764538713355" lon="18.1649932824095"><ele>93.0</ele><time>2026-04-26T09:53:21.999Z</time></trkpt><trkpt lat="40.006731478228794" lon="18.16483121270734"><ele>93.75</ele><time>2026-04-26T09:53:22.999Z</time></trkpt><trkpt lat="40.006696486634965" lon="18.164652886530433"><ele>94.5</ele><time>2026-04-26T09:53:23.999Z</time></trkpt><trkpt lat="40.006671135950526" lon="18.16450533625427"><ele>95.25</ele><time>2026-04-26T09:53:24.999Z</time></trkpt><trkpt lat="40.00666347224879" lon="18.164393843495958"><ele>96.0</ele><time>2026-04-26T09:53:25.999Z</time></trkpt><trkpt lat="40.006652182492196" lon="18.164242401229078"><ele>96.0</ele><time>2026-04-26T09:53:27.999Z</time></trkpt><trkpt lat="40.006689173762545" lon="18.164110833757658"><ele>96.0</ele><time>2026-04-26T09:53:29.999Z</time></trkpt><trkpt lat="40.00673344264108" lon="18.164038881444863"><ele>96.0</ele><time>2026-04-26T09:53:31.999Z</time></trkpt><trkpt lat="40.00683359948436" lon="18.163987475735482"><ele>96.0</ele><time>2026-04-26T09:53:33.998Z</time></trkpt><trkpt lat="40.0069265472531" lon="18.16399672353311"><ele>96.0</ele><time>2026-04-26T09:53:35.998Z</time></trkpt><trkpt lat="40.00698171996495" lon="18.163942154014176"><ele>96.0</ele><time>2026-04-26T09:53:38.998Z</time></trkpt><trkpt lat="40.00693581538348" lon="18.163827516984078"><ele>96.16666666666667</ele><time>2026-04-26T09:53:40.999Z</time></trkpt><trkpt lat="40.00690438864161" lon="18.163751366184073"><ele>96.33333333333334</ele><time>2026-04-26T09:53:41.998Z</time></trkpt><trkpt lat="40.006860302902346" lon="18.16366559647582"><ele>96.5</ele><time>2026-04-26T09:53:42.999Z</time></trkpt><trkpt lat="40.006818302244234" lon="18.163569466356627"><ele>96.66666666666667</ele><time>2026-04-26T09:53:43.999Z</time></trkpt><trkpt lat="40.00678602153563" lon="18.163475440655798"><ele>96.83333333333334</ele><time>2026-04-26T09:53:44.999Z</time></trkpt><trkpt lat="40.00675589058333" lon="18.16339232927031"><ele>97.0</ele><time>2026-04-26T09:53:45.999Z</time></trkpt><trkpt lat="40.00671241635948" lon="18.163275812610543"><ele>97.16666666666667</ele><time>2026-04-26T09:53:47.999Z</time></trkpt><trkpt lat="40.006752128641544" lon="18.163176170419632"><ele>97.33333333333334</ele><time>2026-04-26T09:53:51.999Z</time></trkpt><trkpt lat="40.00682777382219" lon="18.16314454120989"><ele>97.5</ele><time>2026-04-26T09:53:54.999Z</time></trkpt><trkpt lat="40.00689144080275" lon="18.163081910176732"><ele>97.66666666666666</ele><time>2026-04-26T09:53:57.999Z</time></trkpt><trkpt lat="40.006926374152506" lon="18.162996201365882"><ele>97.83333333333333</ele><time>2026-04-26T09:53:59.999Z</time></trkpt><trkpt lat="40.00688880944746" lon="18.162907378764814"><ele>98.0</ele><time>2026-04-26T09:54:01.999Z</time></trkpt><trkpt lat="40.00675919496124" lon="18.16288096885744"><ele>98.0</ele><time>2026-04-26T09:54:03.999Z</time></trkpt><trkpt lat="40.006677499554534" lon="18.16286727112959"><ele>98.0</ele><time>2026-04-26T09:54:04.999Z</time></trkpt><trkpt lat="40.006594844981656" lon="18.16284250390271"><ele>98.0</ele><time>2026-04-26T09:54:05.999Z</time></trkpt><trkpt lat="40.006507698508344" lon="18.16281832511629"><ele>98.0</ele><time>2026-04-26T09:54:06.999Z</time></trkpt><trkpt lat="40.00641517573593" lon="18.162796699986206"><ele>98.0</ele><time>2026-04-26T09:54:07.999Z</time></trkpt><trkpt lat="40.00631490874753" lon="18.1627850009786"><ele>97.5</ele><time>2026-04-26T09:54:08.999Z</time></trkpt><trkpt lat="40.00621451597152" lon="18.162762190243935"><ele>97.0</ele><time>2026-04-26T09:54:09.999Z</time></trkpt><trkpt lat="40.00611699674676" lon="18.16272618529754"><ele>96.5</ele><time>2026-04-26T09:54:10.999Z</time></trkpt><trkpt lat="40.006007711765285" lon="18.162708827684806"><ele>96.0</ele><time>2026-04-26T09:54:11.999Z</time></trkpt><trkpt lat="40.00587251160088" lon="18.16268614235322"><ele>94.0</ele><time>2026-04-26T09:54:12.999Z</time></trkpt><trkpt lat="40.005728103226005" lon="18.162655688192125"><ele>92.0</ele><time>2026-04-26T09:54:13.999Z</time></trkpt><trkpt lat="40.00558944418285" lon="18.162618397838973"><ele>90.0</ele><time>2026-04-26T09:54:14.999Z</time></trkpt><trkpt lat="40.00547110378409" lon="18.162597633926037"><ele>88.0</ele><time>2026-04-26T09:54:15.999Z</time></trkpt><trkpt lat="40.00535793111432" lon="18.162573684111447"><ele>88.0</ele><time>2026-04-26T09:54:16.999Z</time></trkpt><trkpt lat="40.005248130693275" lon="18.162559812961153"><ele>88.0</ele><time>2026-04-26T09:54:17.999Z</time></trkpt><trkpt lat="40.005137323492995" lon="18.16253909243441"><ele>88.0</ele><time>2026-04-26T09:54:18.999Z</time></trkpt><trkpt lat="40.0050264105161" lon="18.16250010531106"><ele>88.0</ele><time>2026-04-26T09:54:19.999Z</time></trkpt><trkpt lat="40.004908957556374" lon="18.162475090449824"><ele>87.5</ele><time>2026-04-26T09:54:20.999Z</time></trkpt><trkpt lat="40.00479103390457" lon="18.162451193146385"><ele>87.0</ele><time>2026-04-26T09:54:21.999Z</time></trkpt><trkpt lat="40.00466759382039" lon="18.162427402879672"><ele>86.5</ele><time>2026-04-26T09:54:22.999Z</time></trkpt><trkpt lat="40.00453317721758" lon="18.16240342416726"><ele>86.0</ele><time>2026-04-26T09:54:23.999Z</time></trkpt><trkpt lat="40.00439475393013" lon="18.162359527687112"><ele>86.0</ele><time>2026-04-26T09:54:24.999Z</time></trkpt><trkpt lat="40.00426786036819" lon="18.16230080201881"><ele>86.0</ele><time>2026-04-26T09:54:25.999Z</time></trkpt><trkpt lat="40.004152907661016" lon="18.162241609170483"><ele>86.0</ele><time>2026-04-26T09:54:26.999Z</time></trkpt><trkpt lat="40.004055239886284" lon="18.16218109175157"><ele>86.0</ele><time>2026-04-26T09:54:27.999Z</time></trkpt><trkpt lat="40.003971464520696" lon="18.16212595962294"><ele>84.8</ele><time>2026-04-26T09:54:28.999Z</time></trkpt><trkpt lat="40.00387648094696" lon="18.16211737829875"><ele>83.6</ele><time>2026-04-26T09:54:29.999Z</time></trkpt><trkpt lat="40.0037812986347" lon="18.16214238606419"><ele>82.4</ele><time>2026-04-26T09:54:30.999Z</time></trkpt><trkpt lat="40.003697069378134" lon="18.162170544814764"><ele>81.2</ele><time>2026-04-26T09:54:31.999Z</time></trkpt><trkpt lat="40.003634311266474" lon="18.162216044390696"><ele>80.0</ele><time>2026-04-26T09:54:32.999Z</time></trkpt><trkpt lat="40.00352370066645" lon="18.162262410530253"><ele>80.0</ele><time>2026-04-26T09:54:34.999Z</time></trkpt><trkpt lat="40.003455636759604" lon="18.162351619415936"><ele>80.0</ele><time>2026-04-26T09:54:36.999Z</time></trkpt><trkpt lat="40.003445393828464" lon="18.16243401342844"><ele>80.0</ele><time>2026-04-26T09:54:37.999Z</time></trkpt><trkpt lat="40.003450675925116" lon="18.162549815308292"><ele>80.0</ele><time>2026-04-26T09:54:39.999Z</time></trkpt><trkpt lat="40.00340399666263" lon="18.162618740779806"><ele>80.0</ele><time>2026-04-26T09:54:41.999Z</time></trkpt><trkpt lat="40.00329545123187" lon="18.162648571695087"><ele>80.0</ele><time>2026-04-26T09:54:43.999Z</time></trkpt><trkpt lat="40.00319032056816" lon="18.162675770009766"><ele>79.4</ele><time>2026-04-26T09:54:45.999Z</time></trkpt><trkpt lat="40.00310089993547" lon="18.16273248324314"><ele>78.8</ele><time>2026-04-26T09:54:47.999Z</time></trkpt><trkpt lat="40.003006531014904" lon="18.16277617231343"><ele>78.2</ele><time>2026-04-26T09:54:49.999Z</time></trkpt><trkpt lat="40.00291004007623" lon="18.16282168118163"><ele>77.6</ele><time>2026-04-26T09:54:51.999Z</time></trkpt><trkpt lat="40.00279451651432" lon="18.16286388702102"><ele>77.0</ele><time>2026-04-26T09:54:53.999Z</time></trkpt><trkpt lat="40.00266767690497" lon="18.162879445708086"><ele>77.0</ele><time>2026-04-26T09:54:55.999Z</time></trkpt><trkpt lat="40.00259015928611" lon="18.162879550734896"><ele>77.0</ele><time>2026-04-26T09:54:56.999Z</time></trkpt><trkpt lat="40.0025141145816" lon="18.162894938867144"><ele>77.0</ele><time>2026-04-26T09:54:57.999Z</time></trkpt><trkpt lat="40.00242496903419" lon="18.162908296875045"><ele>77.0</ele><time>2026-04-26T09:54:58.999Z</time></trkpt><trkpt lat="40.00233760669797" lon="18.162931351610357"><ele>77.0</ele><time>2026-04-26T09:54:59.999Z</time></trkpt><trkpt lat="40.0022371412514" lon="18.16295970911064"><ele>77.0</ele><time>2026-04-26T09:55:00.999Z</time></trkpt><trkpt lat="40.00213405882085" lon="18.162973139998982"><ele>76.33333333333334</ele><time>2026-04-26T09:55:01.999Z</time></trkpt><trkpt lat="40.00204406822501" lon="18.162978953498634"><ele>75.66666666666667</ele><time>2026-04-26T09:55:02.999Z</time></trkpt><trkpt lat="40.00195931525184" lon="18.162967164374592"><ele>75.0</ele><time>2026-04-26T09:55:03.999Z</time></trkpt><trkpt lat="40.0018820818322" lon="18.162943188011198"><ele>74.33333333333333</ele><time>2026-04-26T09:55:04.999Z</time></trkpt><trkpt lat="40.001811704864814" lon="18.162914380898663"><ele>73.66666666666666</ele><time>2026-04-26T09:55:05.999Z</time></trkpt><trkpt lat="40.00175616942568" lon="18.162867486364775"><ele>73.0</ele><time>2026-04-26T09:55:06.999Z</time></trkpt><trkpt lat="40.001680719860246" lon="18.1627763899716"><ele>72.5</ele><time>2026-04-26T09:55:08.999Z</time></trkpt><trkpt lat="40.00162350692057" lon="18.16271555220033"><ele>72.0</ele><time>2026-04-26T09:55:10.999Z</time></trkpt><trkpt lat="40.0015327742424" lon="18.162720958473077"><ele>71.5</ele><time>2026-04-26T09:55:12.999Z</time></trkpt><trkpt lat="40.001483072414985" lon="18.16277891988867"><ele>71.0</ele><time>2026-04-26T09:55:13.999Z</time></trkpt><trkpt lat="40.00143252027586" lon="18.16285503274846"><ele>70.5</ele><time>2026-04-26T09:55:14.999Z</time></trkpt><trkpt lat="40.001377079025914" lon="18.162933039453822"><ele>70.0</ele><time>2026-04-26T09:55:15.999Z</time></trkpt><trkpt lat="40.00131463532713" lon="18.163014639627388"><ele>70.0</ele><time>2026-04-26T09:55:16.999Z</time></trkpt><trkpt lat="40.00125430449647" lon="18.163097754848973"><ele>70.0</ele><time>2026-04-26T09:55:17.999Z</time></trkpt><trkpt lat="40.00118912346233" lon="18.163189839260333"><ele>70.0</ele><time>2026-04-26T09:55:18.999Z</time></trkpt><trkpt lat="40.001124500669015" lon="18.16328066930715"><ele>70.0</ele><time>2026-04-26T09:55:19.999Z</time></trkpt><trkpt lat="40.00105948868454" lon="18.16336570396308"><ele>70.0</ele><time>2026-04-26T09:55:20.999Z</time></trkpt><trkpt lat="40.000995773561364" lon="18.163438907106038"><ele>70.0</ele><time>2026-04-26T09:55:21.999Z</time></trkpt><trkpt lat="40.000923903464816" lon="18.163498899215746"><ele>70.0</ele><time>2026-04-26T09:55:22.999Z</time></trkpt><trkpt lat="40.00083754110813" lon="18.163538176247393"><ele>70.0</ele><time>2026-04-26T09:55:23.999Z</time></trkpt><trkpt lat="40.00074512266919" lon="18.163564634234604"><ele>70.0</ele><time>2026-04-26T09:55:24.999Z</time></trkpt><trkpt lat="40.000648938117216" lon="18.16357651002244"><ele>70.0</ele><time>2026-04-26T09:55:25.999Z</time></trkpt><trkpt lat="40.000554052193884" lon="18.163579916151566"><ele>70.2</ele><time>2026-04-26T09:55:26.999Z</time></trkpt><trkpt lat="40.000452221797815" lon="18.163570572640555"><ele>70.4</ele><time>2026-04-26T09:55:27.999Z</time></trkpt><trkpt lat="40.00034298099009" lon="18.16354638740477"><ele>70.6</ele><time>2026-04-26T09:55:28.999Z</time></trkpt><trkpt lat="40.0002311679711" lon="18.163524846412667"><ele>70.8</ele><time>2026-04-26T09:55:29.999Z</time></trkpt><trkpt lat="40.00011916966675" lon="18.16349814701962"><ele>71.0</ele><time>2026-04-26T09:55:30.999Z</time></trkpt><trkpt lat="39.99999948002188" lon="18.1634749366155"><ele>71.0</ele><time>2026-04-26T09:55:31.999Z</time></trkpt><trkpt lat="39.999883284534405" lon="18.163453179522932"><ele>71.0</ele><time>2026-04-26T09:55:32.999Z</time></trkpt><trkpt lat="39.999764457157745" lon="18.16343292532305"><ele>71.0</ele><time>2026-04-26T09:55:33.999Z</time></trkpt><trkpt lat="39.99965232664619" lon="18.163413216919988"><ele>71.0</ele><time>2026-04-26T09:55:34.998Z</time></trkpt><trkpt lat="39.99954189618703" lon="18.16338503487196"><ele>71.0</ele><time>2026-04-26T09:55:35.998Z</time></trkpt><trkpt lat="39.999430739508526" lon="18.163354578839865"><ele>71.0</ele><time>2026-04-26T09:55:36.998Z</time></trkpt><trkpt lat="39.999316026047055" lon="18.16331359555292"><ele>71.0</ele><time>2026-04-26T09:55:37.998Z</time></trkpt><trkpt lat="39.9992044971219" lon="18.16326913156982"><ele>71.0</ele><time>2026-04-26T09:55:38.998Z</time></trkpt><trkpt lat="39.999091491490105" lon="18.163217725006263"><ele>70.0</ele><time>2026-04-26T09:55:39.998Z</time></trkpt><trkpt lat="39.99897854464972" lon="18.16316253758577"><ele>69.0</ele><time>2026-04-26T09:55:40.998Z</time></trkpt><trkpt lat="39.99885980753233" lon="18.163105897779122"><ele>68.0</ele><time>2026-04-26T09:55:41.998Z</time></trkpt><trkpt lat="39.998737812814376" lon="18.1630474873592"><ele>67.0</ele><time>2026-04-26T09:55:42.998Z</time></trkpt><trkpt lat="39.99861722283487" lon="18.162987164778734"><ele>67.0</ele><time>2026-04-26T09:55:43.998Z</time></trkpt><trkpt lat="39.99850096695926" lon="18.162926227032703"><ele>67.0</ele><time>2026-04-26T09:55:44.998Z</time></trkpt><trkpt lat="39.998384472028576" lon="18.162864055240185"><ele>67.0</ele><time>2026-04-26T09:55:45.998Z</time></trkpt><trkpt lat="39.99826892456874" lon="18.16280738603337"><ele>67.0</ele><time>2026-04-26T09:55:46.998Z</time></trkpt><trkpt lat="39.99815153962105" lon="18.16275243301482"><ele>66.75</ele><time>2026-04-26T09:55:47.998Z</time></trkpt><trkpt lat="39.99803287986776" lon="18.16269914707054"><ele>66.5</ele><time>2026-04-26T09:55:48.998Z</time></trkpt><trkpt lat="39.997914445993906" lon="18.162646118904636"><ele>66.25</ele><time>2026-04-26T09:55:49.998Z</time></trkpt><trkpt lat="39.9977947571638" lon="18.162593680261743"><ele>66.0</ele><time>2026-04-26T09:55:50.998Z</time></trkpt><trkpt lat="39.997675723575625" lon="18.162540023293303"><ele>66.0</ele><time>2026-04-26T09:55:51.998Z</time></trkpt><trkpt lat="39.997553020426" lon="18.16248191552508"><ele>66.0</ele><time>2026-04-26T09:55:52.998Z</time></trkpt><trkpt lat="39.997429237316474" lon="18.16242398863411"><ele>66.0</ele><time>2026-04-26T09:55:53.998Z</time></trkpt><trkpt lat="39.99730960380695" lon="18.162368690005454"><ele>66.0</ele><time>2026-04-26T09:55:54.998Z</time></trkpt><trkpt lat="39.99718461106746" lon="18.162311591325576"><ele>65.75</ele><time>2026-04-26T09:55:55.998Z</time></trkpt><trkpt lat="39.99705444765261" lon="18.16225478682188"><ele>65.5</ele><time>2026-04-26T09:55:56.998Z</time></trkpt><trkpt lat="39.996923260586954" lon="18.162194777199375"><ele>65.25</ele><time>2026-04-26T09:55:57.998Z</time></trkpt><trkpt lat="39.99678873662744" lon="18.16213138504302"><ele>65.0</ele><time>2026-04-26T09:55:58.998Z</time></trkpt><trkpt lat="39.99666044581403" lon="18.16207020390265"><ele>64.5</ele><time>2026-04-26T09:55:59.999Z</time></trkpt><trkpt lat="39.9965332281137" lon="18.162011277517895"><ele>64.0</ele><time>2026-04-26T09:56:00.999Z</time></trkpt><trkpt lat="39.99641529803316" lon="18.161957422851525"><ele>63.5</ele><time>2026-04-26T09:56:01.999Z</time></trkpt><trkpt lat="39.996297624557315" lon="18.16190294846311"><ele>63.0</ele><time>2026-04-26T09:56:02.999Z</time></trkpt><trkpt lat="39.996181184764794" lon="18.16185163812286"><ele>63.0</ele><time>2026-04-26T09:56:03.999Z</time></trkpt><trkpt lat="39.99606492875619" lon="18.161798583395193"><ele>63.0</ele><time>2026-04-26T09:56:04.999Z</time></trkpt><trkpt lat="39.99594579963031" lon="18.161746432699644"><ele>63.0</ele><time>2026-04-26T09:56:05.999Z</time></trkpt><trkpt lat="39.99582777486843" lon="18.16169763761891"><ele>63.0</ele><time>2026-04-26T09:56:06.999Z</time></trkpt><trkpt lat="39.9957103487729" lon="18.161640112150593"><ele>63.0</ele><time>2026-04-26T09:56:07.999Z</time></trkpt><trkpt lat="39.99558964790091" lon="18.161578854572447"><ele>63.0</ele><time>2026-04-26T09:56:08.999Z</time></trkpt><trkpt lat="39.9954620741581" lon="18.16152066805723"><ele>63.0</ele><time>2026-04-26T09:56:09.999Z</time></trkpt><trkpt lat="39.995333962573525" lon="18.16146699303487"><ele>63.0</ele><time>2026-04-26T09:56:10.999Z</time></trkpt><trkpt lat="39.99520525176527" lon="18.161413783144216"><ele>62.75</ele><time>2026-04-26T09:56:11.999Z</time></trkpt><trkpt lat="39.99507698543973" lon="18.161368729860467"><ele>62.5</ele><time>2026-04-26T09:56:12.999Z</time></trkpt><trkpt lat="39.99494715130925" lon="18.161333797159745"><ele>62.25</ele><time>2026-04-26T09:56:13.999Z</time></trkpt><trkpt lat="39.99480827721142" lon="18.1613057366945"><ele>62.0</ele><time>2026-04-26T09:56:14.999Z</time></trkpt><trkpt lat="39.994672172953734" lon="18.161283302213995"><ele>62.0</ele><time>2026-04-26T09:56:15.999Z</time></trkpt><trkpt lat="39.994531868435104" lon="18.16125933324691"><ele>62.0</ele><time>2026-04-26T09:56:16.999Z</time></trkpt><trkpt lat="39.99439381856756" lon="18.161236079203494"><ele>62.0</ele><time>2026-04-26T09:56:17.999Z</time></trkpt><trkpt lat="39.994254389225354" lon="18.161215463669574"><ele>62.0</ele><time>2026-04-26T09:56:18.999Z</time></trkpt><trkpt lat="39.99411546792683" lon="18.161201793250942"><ele>61.75</ele><time>2026-04-26T09:56:19.999Z</time></trkpt><trkpt lat="39.99397536376698" lon="18.161192207338612"><ele>61.5</ele><time>2026-04-26T09:56:20.999Z</time></trkpt><trkpt lat="39.9938341269958" lon="18.16118495887856"><ele>61.25</ele><time>2026-04-26T09:56:21.999Z</time></trkpt><trkpt lat="39.99369459728742" lon="18.16118783180035"><ele>61.0</ele><time>2026-04-26T09:56:22.999Z</time></trkpt><trkpt lat="39.99355029275909" lon="18.161196330224012"><ele>61.0</ele><time>2026-04-26T09:56:23.999Z</time></trkpt><trkpt lat="39.993402257217355" lon="18.161210253064507"><ele>61.0</ele><time>2026-04-26T09:56:24.999Z</time></trkpt><trkpt lat="39.993247575915404" lon="18.161226605941952"><ele>61.0</ele><time>2026-04-26T09:56:25.999Z</time></trkpt><trkpt lat="39.99308819646703" lon="18.161242439741386"><ele>61.0</ele><time>2026-04-26T09:56:26.999Z</time></trkpt><trkpt lat="39.992923798088704" lon="18.16126395538636"><ele>61.0</ele><time>2026-04-26T09:56:27.999Z</time></trkpt><trkpt lat="39.992760410210316" lon="18.161278307568622"><ele>61.0</ele><time>2026-04-26T09:56:28.999Z</time></trkpt><trkpt lat="39.99259430301301" lon="18.161289897767226"><ele>60.666666666666664</ele><time>2026-04-26T09:56:29.999Z</time></trkpt><trkpt lat="39.99242975914466" lon="18.16130298945679"><ele>60.33333333333333</ele><time>2026-04-26T09:56:30.999Z</time></trkpt><trkpt lat="39.99226421320614" lon="18.161320712822015"><ele>60.0</ele><time>2026-04-26T09:56:31.999Z</time></trkpt><trkpt lat="39.99209381577077" lon="18.16133370505285"><ele>60.0</ele><time>2026-04-26T09:56:32.999Z</time></trkpt><trkpt lat="39.99192544131183" lon="18.16134762810309"><ele>60.0</ele><time>2026-04-26T09:56:33.999Z</time></trkpt><trkpt lat="39.99175841740446" lon="18.161362102528663"><ele>60.0</ele><time>2026-04-26T09:56:34.999Z</time></trkpt><trkpt lat="39.99159244706128" lon="18.16138079576321"><ele>60.33333333333333</ele><time>2026-04-26T09:56:35.999Z</time></trkpt><trkpt lat="39.991422809195825" lon="18.161398846228554"><ele>60.666666666666664</ele><time>2026-04-26T09:56:36.999Z</time></trkpt><trkpt lat="39.99124819602766" lon="18.161412203495537"><ele>61.0</ele><time>2026-04-26T09:56:37.999Z</time></trkpt><trkpt lat="39.991072880188774" lon="18.161425473760996"><ele>61.0</ele><time>2026-04-26T09:56:38.999Z</time></trkpt><trkpt lat="39.99089718207672" lon="18.161437515650416"><ele>61.0</ele><time>2026-04-26T09:56:39.999Z</time></trkpt><trkpt lat="39.99071978932689" lon="18.161450475066054"><ele>61.0</ele><time>2026-04-26T09:56:40.999Z</time></trkpt><trkpt lat="39.99054288706729" lon="18.161460924641553"><ele>60.666666666666664</ele><time>2026-04-26T09:56:41.999Z</time></trkpt><trkpt lat="39.990363251163686" lon="18.161467732730134"><ele>60.33333333333333</ele><time>2026-04-26T09:56:42.999Z</time></trkpt><trkpt lat="39.990184873126886" lon="18.161467649504573"><ele>60.0</ele><time>2026-04-26T09:56:43.999Z</time></trkpt><trkpt lat="39.990012230873766" lon="18.161461423769662"><ele>59.66666666666667</ele><time>2026-04-26T09:56:44.999Z</time></trkpt><trkpt lat="39.98984069606841" lon="18.16145002128188"><ele>59.333333333333336</ele><time>2026-04-26T09:56:45.999Z</time></trkpt><trkpt lat="39.989670741018905" lon="18.161438328073075"><ele>59.0</ele><time>2026-04-26T09:56:46.999Z</time></trkpt><trkpt lat="39.98949883599055" lon="18.161429810138706"><ele>59.0</ele><time>2026-04-26T09:56:47.999Z</time></trkpt><trkpt lat="39.98932826493243" lon="18.161423342595434"><ele>59.0</ele><time>2026-04-26T09:56:48.999Z</time></trkpt><trkpt lat="39.98915838166826" lon="18.161418426457995"><ele>59.0</ele><time>2026-04-26T09:56:49.999Z</time></trkpt><trkpt lat="39.98898594850281" lon="18.161409013295543"><ele>58.66666666666667</ele><time>2026-04-26T09:56:50.999Z</time></trkpt><trkpt lat="39.98881388652385" lon="18.161394229181347"><ele>58.33333333333333</ele><time>2026-04-26T09:56:51.999Z</time></trkpt><trkpt lat="39.988636946993715" lon="18.16137452550879"><ele>58.0</ele><time>2026-04-26T09:56:52.999Z</time></trkpt><trkpt lat="39.98846051981801" lon="18.161345691418255"><ele>57.666666666666664</ele><time>2026-04-26T09:56:53.999Z</time></trkpt><trkpt lat="39.988281371740975" lon="18.16131380354257"><ele>57.33333333333333</ele><time>2026-04-26T09:56:54.999Z</time></trkpt><trkpt lat="39.98810487303679" lon="18.161283795248885"><ele>57.0</ele><time>2026-04-26T09:56:55.999Z</time></trkpt><trkpt lat="39.987926587240395" lon="18.16125871223588"><ele>57.0</ele><time>2026-04-26T09:56:56.999Z</time></trkpt><trkpt lat="39.98774514608641" lon="18.161235167871588"><ele>57.0</ele><time>2026-04-26T09:56:57.999Z</time></trkpt><trkpt lat="39.98755985350616" lon="18.16121599173486"><ele>57.0</ele><time>2026-04-26T09:56:58.999Z</time></trkpt><trkpt lat="39.987374797435955" lon="18.161202647945384"><ele>57.0</ele><time>2026-04-26T09:56:59.999Z</time></trkpt><trkpt lat="39.98718977866005" lon="18.16119155766881"><ele>57.0</ele><time>2026-04-26T09:57:00.999Z</time></trkpt><trkpt lat="39.987006558554405" lon="18.16118231622322"><ele>57.0</ele><time>2026-04-26T09:57:01.999Z</time></trkpt><trkpt lat="39.9868205908115" lon="18.161174614250058"><ele>57.0</ele><time>2026-04-26T09:57:02.999Z</time></trkpt><trkpt lat="39.98663794985832" lon="18.161166491868308"><ele>57.0</ele><time>2026-04-26T09:57:03.999Z</time></trkpt><trkpt lat="39.9864594173492" lon="18.161159714642746"><ele>57.0</ele><time>2026-04-26T09:57:04.999Z</time></trkpt><trkpt lat="39.986283098891064" lon="18.161148081450552"><ele>57.0</ele><time>2026-04-26T09:57:05.999Z</time></trkpt><trkpt lat="39.986109025663026" lon="18.161128849809767"><ele>57.0</ele><time>2026-04-26T09:57:06.999Z</time></trkpt><trkpt lat="39.98593572034299" lon="18.161097081076704"><ele>57.0</ele><time>2026-04-26T09:57:07.999Z</time></trkpt><trkpt lat="39.98576160202372" lon="18.161057714723874"><ele>57.0</ele><time>2026-04-26T09:57:08.999Z</time></trkpt><trkpt lat="39.98558854471809" lon="18.161011741719438"><ele>57.0</ele><time>2026-04-26T09:57:09.999Z</time></trkpt><trkpt lat="39.98541739540314" lon="18.160967769381436"><ele>57.0</ele><time>2026-04-26T09:57:10.999Z</time></trkpt><trkpt lat="39.98524376111235" lon="18.160924615004625"><ele>57.0</ele><time>2026-04-26T09:57:11.999Z</time></trkpt><trkpt lat="39.98507076219121" lon="18.160885542747042"><ele>57.0</ele><time>2026-04-26T09:57:12.999Z</time></trkpt><trkpt lat="39.984895558573406" lon="18.160851827519096"><ele>57.0</ele><time>2026-04-26T09:57:13.999Z</time></trkpt><trkpt lat="39.9847240109651" lon="18.1608221545745"><ele>57.0</ele><time>2026-04-26T09:57:14.999Z</time></trkpt><trkpt lat="39.9845503920481" lon="18.160796855027808"><ele>57.0</ele><time>2026-04-26T09:57:15.999Z</time></trkpt><trkpt lat="39.9843744530075" lon="18.160778641288235"><ele>57.0</ele><time>2026-04-26T09:57:16.999Z</time></trkpt><trkpt lat="39.984199446927185" lon="18.160761690444623"><ele>57.0</ele><time>2026-04-26T09:57:17.999Z</time></trkpt><trkpt lat="39.98402509286823" lon="18.16074246276243"><ele>57.0</ele><time>2026-04-26T09:57:18.999Z</time></trkpt><trkpt lat="39.98385160801997" lon="18.16071944676711"><ele>57.0</ele><time>2026-04-26T09:57:19.999Z</time></trkpt><trkpt lat="39.98367997816773" lon="18.160696757738965"><ele>57.0</ele><time>2026-04-26T09:57:20.999Z</time></trkpt><trkpt lat="39.98350713106869" lon="18.160675200333348"><ele>57.0</ele><time>2026-04-26T09:57:21.999Z</time></trkpt><trkpt lat="39.983333333677315" lon="18.160652265444565"><ele>57.0</ele><time>2026-04-26T09:57:22.999Z</time></trkpt><trkpt lat="39.983159320772415" lon="18.16063156441001"><ele>56.66666666666667</ele><time>2026-04-26T09:57:23.999Z</time></trkpt><trkpt lat="39.98298438782357" lon="18.16060785160385"><ele>56.333333333333336</ele><time>2026-04-26T09:57:24.999Z</time></trkpt><trkpt lat="39.982808103613124" lon="18.16058506568625"><ele>56.0</ele><time>2026-04-26T09:57:25.999Z</time></trkpt><trkpt lat="39.982629193333956" lon="18.160562981179282"><ele>56.0</ele><time>2026-04-26T09:57:26.999Z</time></trkpt><trkpt lat="39.98245040066662" lon="18.160540107162053"><ele>56.0</ele><time>2026-04-26T09:57:27.999Z</time></trkpt><trkpt lat="39.98227188841487" lon="18.160514407521262"><ele>56.0</ele><time>2026-04-26T09:57:28.999Z</time></trkpt><trkpt lat="39.98209283619469" lon="18.160487731696637"><ele>56.0</ele><time>2026-04-26T09:57:29.999Z</time></trkpt><trkpt lat="39.981912378623065" lon="18.16046732383151"><ele>56.0</ele><time>2026-04-26T09:57:30.999Z</time></trkpt><trkpt lat="39.98172900862596" lon="18.160443907632413"><ele>56.0</ele><time>2026-04-26T09:57:31.999Z</time></trkpt><trkpt lat="39.981544327460846" lon="18.16042308353387"><ele>56.333333333333336</ele><time>2026-04-26T09:57:32.999Z</time></trkpt><trkpt lat="39.98136397645704" lon="18.160398893110095"><ele>56.66666666666667</ele><time>2026-04-26T09:57:33.999Z</time></trkpt><trkpt lat="39.98118030366387" lon="18.160375482751462"><ele>57.0</ele><time>2026-04-26T09:57:34.999Z</time></trkpt><trkpt lat="39.98099506981009" lon="18.160350628615383"><ele>56.66666666666667</ele><time>2026-04-26T09:57:35.999Z</time></trkpt><trkpt lat="39.98081045415897" lon="18.160325659968404"><ele>56.333333333333336</ele><time>2026-04-26T09:57:36.999Z</time></trkpt><trkpt lat="39.98062496293204" lon="18.16030045231813"><ele>56.0</ele><time>2026-04-26T09:57:37.999Z</time></trkpt><trkpt lat="39.98044189492253" lon="18.160274861201216"><ele>56.0</ele><time>2026-04-26T09:57:38.999Z</time></trkpt><trkpt lat="39.98025858765068" lon="18.160252197672744"><ele>56.0</ele><time>2026-04-26T09:57:39.999Z</time></trkpt><trkpt lat="39.98007389716273" lon="18.160229264578444"><ele>56.0</ele><time>2026-04-26T09:57:40.998Z</time></trkpt><trkpt lat="39.979887637094414" lon="18.16020231213774"><ele>55.333333333333336</ele><time>2026-04-26T09:57:41.998Z</time></trkpt><trkpt lat="39.979699786532436" lon="18.160175639613602"><ele>54.66666666666667</ele><time>2026-04-26T09:57:42.998Z</time></trkpt><trkpt lat="39.97951314047565" lon="18.160149603726673"><ele>54.0</ele><time>2026-04-26T09:57:43.999Z</time></trkpt><trkpt lat="39.979327496877666" lon="18.16012511451321"><ele>54.66666666666667</ele><time>2026-04-26T09:57:44.998Z</time></trkpt><trkpt lat="39.97914245984799" lon="18.16010139493306"><ele>55.333333333333336</ele><time>2026-04-26T09:57:45.998Z</time></trkpt><trkpt lat="39.97895898325375" lon="18.160078335232964"><ele>56.0</ele><time>2026-04-26T09:57:46.999Z</time></trkpt><trkpt lat="39.978778512690546" lon="18.16005593155941"><ele>56.0</ele><time>2026-04-26T09:57:47.998Z</time></trkpt><trkpt lat="39.97860868566009" lon="18.1600339232172"><ele>56.0</ele><time>2026-04-26T09:57:48.998Z</time></trkpt><trkpt lat="39.978444122480674" lon="18.16001172068683"><ele>56.0</ele><time>2026-04-26T09:57:49.999Z</time></trkpt><trkpt lat="39.97828184222329" lon="18.159989282092436"><ele>56.0</ele><time>2026-04-26T09:57:50.998Z</time></trkpt><trkpt lat="39.97812027874596" lon="18.15996888758591"><ele>56.0</ele><time>2026-04-26T09:57:51.998Z</time></trkpt><trkpt lat="39.97795997570959" lon="18.159951065597202"><ele>56.0</ele><time>2026-04-26T09:57:52.999Z</time></trkpt><trkpt lat="39.97780093714582" lon="18.15993281247934"><ele>56.0</ele><time>2026-04-26T09:57:53.999Z</time></trkpt><trkpt lat="39.977637916477356" lon="18.159915806511783"><ele>56.0</ele><time>2026-04-26T09:57:54.999Z</time></trkpt><trkpt lat="39.977474022245445" lon="18.1598970671661"><ele>56.0</ele><time>2026-04-26T09:57:55.999Z</time></trkpt><trkpt lat="39.977311659262156" lon="18.159877968007176"><ele>55.66666666666667</ele><time>2026-04-26T09:57:56.999Z</time></trkpt><trkpt lat="39.97714708935221" lon="18.159854285854575"><ele>55.33333333333333</ele><time>2026-04-26T09:57:57.999Z</time></trkpt><trkpt lat="39.97697995841321" lon="18.159834763179163"><ele>55.0</ele><time>2026-04-26T09:57:58.999Z</time></trkpt><trkpt lat="39.97681569644239" lon="18.159811017797146"><ele>54.666666666666664</ele><time>2026-04-26T09:57:59.999Z</time></trkpt><trkpt lat="39.97664751550362" lon="18.159790154008846"><ele>54.33333333333333</ele><time>2026-04-26T09:58:00.999Z</time></trkpt><trkpt lat="39.97647321895788" lon="18.159765768752756"><ele>54.0</ele><time>2026-04-26T09:58:01.999Z</time></trkpt><trkpt lat="39.97630118725648" lon="18.159745579794976"><ele>54.0</ele><time>2026-04-26T09:58:02.999Z</time></trkpt><trkpt lat="39.97613039701505" lon="18.15972612982219"><ele>54.0</ele><time>2026-04-26T09:58:03.999Z</time></trkpt><trkpt lat="39.9759607464094" lon="18.159704203704997"><ele>54.0</ele><time>2026-04-26T09:58:04.999Z</time></trkpt><trkpt lat="39.97578896176637" lon="18.159674889524656"><ele>53.66666666666667</ele><time>2026-04-26T09:58:05.999Z</time></trkpt><trkpt lat="39.975618610095665" lon="18.159644566506405"><ele>53.333333333333336</ele><time>2026-04-26T09:58:06.999Z</time></trkpt><trkpt lat="39.975451929252394" lon="18.15961986212669"><ele>53.0</ele><time>2026-04-26T09:58:07.999Z</time></trkpt><trkpt lat="39.9752864102455" lon="18.159594188709995"><ele>53.0</ele><time>2026-04-26T09:58:08.999Z</time></trkpt><trkpt lat="39.97512102923893" lon="18.159578719643235"><ele>53.0</ele><time>2026-04-26T09:58:09.999Z</time></trkpt><trkpt lat="39.974953690803865" lon="18.159559556884826"><ele>53.0</ele><time>2026-04-26T09:58:10.999Z</time></trkpt><trkpt lat="39.9747839902497" lon="18.15953809756845"><ele>53.0</ele><time>2026-04-26T09:58:11.999Z</time></trkpt><trkpt lat="39.97461453814724" lon="18.159516798176767"><ele>53.0</ele><time>2026-04-26T09:58:12.999Z</time></trkpt><trkpt lat="39.974445846049186" lon="18.15949515330686"><ele>53.0</ele><time>2026-04-26T09:58:13.999Z</time></trkpt><trkpt lat="39.974277240742396" lon="18.15947452641579"><ele>53.0</ele><time>2026-04-26T09:58:14.999Z</time></trkpt><trkpt lat="39.97410540190299" lon="18.159457376006443"><ele>53.0</ele><time>2026-04-26T09:58:15.999Z</time></trkpt><trkpt lat="39.97393861102228" lon="18.159439035794264"><ele>53.0</ele><time>2026-04-26T09:58:16.999Z</time></trkpt><trkpt lat="39.97376971412012" lon="18.15941786539977"><ele>53.0</ele><time>2026-04-26T09:58:17.999Z</time></trkpt><trkpt lat="39.97360520519732" lon="18.1593983834065"><ele>53.0</ele><time>2026-04-26T09:58:18.999Z</time></trkpt><trkpt lat="39.97344155502715" lon="18.159375692024533"><ele>53.0</ele><time>2026-04-26T09:58:19.999Z</time></trkpt><trkpt lat="39.973276850813555" lon="18.159353368181208"><ele>53.0</ele><time>2026-04-26T09:58:20.999Z</time></trkpt><trkpt lat="39.97311400214081" lon="18.159328629510377"><ele>53.0</ele><time>2026-04-26T09:58:21.999Z</time></trkpt><trkpt lat="39.97295082954724" lon="18.159307129388754"><ele>53.0</ele><time>2026-04-26T09:58:22.999Z</time></trkpt><trkpt lat="39.97278839323454" lon="18.159288178453767"><ele>53.0</ele><time>2026-04-26T09:58:23.999Z</time></trkpt><trkpt lat="39.97262499488862" lon="18.159265419325763"><ele>53.0</ele><time>2026-04-26T09:58:24.999Z</time></trkpt><trkpt lat="39.97246127639286" lon="18.159239948749875"><ele>53.0</ele><time>2026-04-26T09:58:25.999Z</time></trkpt><trkpt lat="39.97229621279275" lon="18.159217435665997"><ele>53.333333333333336</ele><time>2026-04-26T09:58:26.999Z</time></trkpt><trkpt lat="39.97213505495483" lon="18.159195676066517"><ele>53.66666666666667</ele><time>2026-04-26T09:58:28Z</time></trkpt><trkpt lat="39.97197091352043" lon="18.159175420012687"><ele>54.0</ele><time>2026-04-26T09:58:29Z</time></trkpt><trkpt lat="39.971806480021435" lon="18.159152612811255"><ele>53.66666666666667</ele><time>2026-04-26T09:58:30Z</time></trkpt><trkpt lat="39.97164388906237" lon="18.15913065066426"><ele>53.333333333333336</ele><time>2026-04-26T09:58:31Z</time></trkpt><trkpt lat="39.97147880935324" lon="18.159108893010032"><ele>53.0</ele><time>2026-04-26T09:58:32Z</time></trkpt><trkpt lat="39.97131397992949" lon="18.159084557788645"><ele>53.0</ele><time>2026-04-26T09:58:33Z</time></trkpt><trkpt lat="39.971147382648525" lon="18.15906599673744"><ele>53.0</ele><time>2026-04-26T09:58:34Z</time></trkpt><trkpt lat="39.97098127447234" lon="18.159045880249888"><ele>53.0</ele><time>2026-04-26T09:58:35Z</time></trkpt><trkpt lat="39.97081449996751" lon="18.159022759543504"><ele>53.0</ele><time>2026-04-26T09:58:36Z</time></trkpt><trkpt lat="39.97064815526416" lon="18.15899902870103"><ele>53.0</ele><time>2026-04-26T09:58:37Z</time></trkpt><trkpt lat="39.97048373668957" lon="18.1589768697659"><ele>53.0</ele><time>2026-04-26T09:58:38Z</time></trkpt><trkpt lat="39.97031905099734" lon="18.158956669623382"><ele>53.0</ele><time>2026-04-26T09:58:39Z</time></trkpt><trkpt lat="39.97015466803043" lon="18.15893594437015"><ele>53.0</ele><time>2026-04-26T09:58:40Z</time></trkpt><trkpt lat="39.96998855801498" lon="18.15891454924101"><ele>53.0</ele><time>2026-04-26T09:58:41Z</time></trkpt><trkpt lat="39.9698150000886" lon="18.158892040642016"><ele>53.0</ele><time>2026-04-26T09:58:42Z</time></trkpt><trkpt lat="39.96963801150477" lon="18.15886625167058"><ele>53.0</ele><time>2026-04-26T09:58:43Z</time></trkpt><trkpt lat="39.969459218129295" lon="18.15883834510169"><ele>53.0</ele><time>2026-04-26T09:58:44Z</time></trkpt><trkpt lat="39.969283213599645" lon="18.158815404130543"><ele>53.0</ele><time>2026-04-26T09:58:45Z</time></trkpt><trkpt lat="39.96910517534603" lon="18.15879561614429"><ele>53.0</ele><time>2026-04-26T09:58:46Z</time></trkpt><trkpt lat="39.96892000553411" lon="18.15877127824014"><ele>53.0</ele><time>2026-04-26T09:58:47Z</time></trkpt><trkpt lat="39.96875089437223" lon="18.15875491419213"><ele>53.0</ele><time>2026-04-26T09:58:48Z</time></trkpt><trkpt lat="39.96858137523115" lon="18.158725853373724"><ele>53.0</ele><time>2026-04-26T09:58:49Z</time></trkpt><trkpt lat="39.968412018315355" lon="18.158701514364754"><ele>53.0</ele><time>2026-04-26T09:58:50Z</time></trkpt><trkpt lat="39.96823767502962" lon="18.15867574333944"><ele>53.333333333333336</ele><time>2026-04-26T09:58:51Z</time></trkpt><trkpt lat="39.968062614296144" lon="18.15865376669364"><ele>53.66666666666667</ele><time>2026-04-26T09:58:52Z</time></trkpt><trkpt lat="39.96788344736367" lon="18.158631987120973"><ele>54.0</ele><time>2026-04-26T09:58:53Z</time></trkpt><trkpt lat="39.96770264415689" lon="18.15861164386572"><ele>54.66666666666667</ele><time>2026-04-26T09:58:54Z</time></trkpt><trkpt lat="39.96752289617626" lon="18.15858732312392"><ele>55.333333333333336</ele><time>2026-04-26T09:58:55Z</time></trkpt><trkpt lat="39.96734428237123" lon="18.15856149838481"><ele>56.0</ele><time>2026-04-26T09:58:56Z</time></trkpt><trkpt lat="39.96716558710051" lon="18.15853432786707"><ele>56.0</ele><time>2026-04-26T09:58:57Z</time></trkpt><trkpt lat="39.96698765782938" lon="18.15851088521006"><ele>56.0</ele><time>2026-04-26T09:58:58Z</time></trkpt><trkpt lat="39.96680949928458" lon="18.158493573673884"><ele>56.0</ele><time>2026-04-26T09:58:59Z</time></trkpt><trkpt lat="39.96662989638819" lon="18.158474200727127"><ele>56.0</ele><time>2026-04-26T09:59:00Z</time></trkpt><trkpt lat="39.96644434052802" lon="18.158450299047015"><ele>56.0</ele><time>2026-04-26T09:59:01Z</time></trkpt><trkpt lat="39.96625945988468" lon="18.158423825422485"><ele>56.0</ele><time>2026-04-26T09:59:02Z</time></trkpt><trkpt lat="39.96607758486648" lon="18.158399450988878"><ele>56.0</ele><time>2026-04-26T09:59:03Z</time></trkpt><trkpt lat="39.965894481782485" lon="18.15837671936048"><ele>56.0</ele><time>2026-04-26T09:59:04Z</time></trkpt><trkpt lat="39.96571396577877" lon="18.158351378041186"><ele>56.0</ele><time>2026-04-26T09:59:05Z</time></trkpt><trkpt lat="39.965530341069744" lon="18.158329259286347"><ele>56.66666666666667</ele><time>2026-04-26T09:59:06Z</time></trkpt><trkpt lat="39.965345214464" lon="18.158305944141468"><ele>57.33333333333333</ele><time>2026-04-26T09:59:07Z</time></trkpt><trkpt lat="39.96516205266643" lon="18.15828447417222"><ele>58.0</ele><time>2026-04-26T09:59:08Z</time></trkpt><trkpt lat="39.96497929852558" lon="18.15826339352128"><ele>58.0</ele><time>2026-04-26T09:59:09Z</time></trkpt><trkpt lat="39.96479593435042" lon="18.15824088376363"><ele>58.0</ele><time>2026-04-26T09:59:10Z</time></trkpt><trkpt lat="39.964612905222715" lon="18.15821546361741"><ele>58.0</ele><time>2026-04-26T09:59:11Z</time></trkpt><trkpt lat="39.96443107388731" lon="18.15819341533969"><ele>58.0</ele><time>2026-04-26T09:59:12Z</time></trkpt><trkpt lat="39.96424948223952" lon="18.15817294751714"><ele>58.0</ele><time>2026-04-26T09:59:13Z</time></trkpt><trkpt lat="39.9640685251794" lon="18.15815233529846"><ele>58.0</ele><time>2026-04-26T09:59:14Z</time></trkpt><trkpt lat="39.96388732386719" lon="18.158130220586298"><ele>58.0</ele><time>2026-04-26T09:59:15Z</time></trkpt><trkpt lat="39.963705735749016" lon="18.158109671516442"><ele>58.0</ele><time>2026-04-26T09:59:16Z</time></trkpt><trkpt lat="39.96352322905657" lon="18.15808778727269"><ele>58.0</ele><time>2026-04-26T09:59:17Z</time></trkpt><trkpt lat="39.963341511528185" lon="18.158064890605864"><ele>58.0</ele><time>2026-04-26T09:59:18Z</time></trkpt><trkpt lat="39.96315835167171" lon="18.158039922406545"><ele>58.0</ele><time>2026-04-26T09:59:19Z</time></trkpt><trkpt lat="39.962976257980365" lon="18.158014672032134"><ele>58.0</ele><time>2026-04-26T09:59:20Z</time></trkpt><trkpt lat="39.962795764959445" lon="18.1579902454413"><ele>58.0</ele><time>2026-04-26T09:59:21Z</time></trkpt><trkpt lat="39.962617519838126" lon="18.157966407389925"><ele>58.0</ele><time>2026-04-26T09:59:22Z</time></trkpt><trkpt lat="39.96244205061906" lon="18.15794013068586"><ele>58.0</ele><time>2026-04-26T09:59:23Z</time></trkpt><trkpt lat="39.962267802059664" lon="18.157915795717102"><ele>58.33333333333333</ele><time>2026-04-26T09:59:24Z</time></trkpt><trkpt lat="39.96209447097861" lon="18.15789506206358"><ele>58.66666666666667</ele><time>2026-04-26T09:59:25Z</time></trkpt><trkpt lat="39.9619202293436" lon="18.157872493011293"><ele>59.0</ele><time>2026-04-26T09:59:26Z</time></trkpt><trkpt lat="39.96174665175103" lon="18.15785121299643"><ele>59.0</ele><time>2026-04-26T09:59:27Z</time></trkpt><trkpt lat="39.96157548698656" lon="18.15782638041421"><ele>59.0</ele><time>2026-04-26T09:59:28Z</time></trkpt><trkpt lat="39.961403737873184" lon="18.157802221033982"><ele>59.0</ele><time>2026-04-26T09:59:29Z</time></trkpt><trkpt lat="39.96123477472064" lon="18.15778323452795"><ele>59.0</ele><time>2026-04-26T09:59:30Z</time></trkpt><trkpt lat="39.9610659323479" lon="18.157762295899865"><ele>59.0</ele><time>2026-04-26T09:59:31Z</time></trkpt><trkpt lat="39.960896066334506" lon="18.15774176469738"><ele>59.0</ele><time>2026-04-26T09:59:32Z</time></trkpt><trkpt lat="39.96072830524285" lon="18.157719518053675"><ele>59.0</ele><time>2026-04-26T09:59:33Z</time></trkpt><trkpt lat="39.96055938036811" lon="18.157696615210142"><ele>59.0</ele><time>2026-04-26T09:59:34Z</time></trkpt><trkpt lat="39.96038762713985" lon="18.15767426611749"><ele>59.0</ele><time>2026-04-26T09:59:35Z</time></trkpt><trkpt lat="39.96021474207089" lon="18.157652092308645"><ele>59.0</ele><time>2026-04-26T09:59:36Z</time></trkpt><trkpt lat="39.96004330618425" lon="18.15762916479745"><ele>59.0</ele><time>2026-04-26T09:59:37Z</time></trkpt><trkpt lat="39.95987046005816" lon="18.157608574959372"><ele>59.0</ele><time>2026-04-26T09:59:38Z</time></trkpt><trkpt lat="39.95969167807947" lon="18.15758820914677"><ele>59.333333333333336</ele><time>2026-04-26T09:59:39Z</time></trkpt><trkpt lat="39.95950721336295" lon="18.1575659179611"><ele>59.66666666666667</ele><time>2026-04-26T09:59:40Z</time></trkpt><trkpt lat="39.95931773381029" lon="18.157543016672935"><ele>60.0</ele><time>2026-04-26T09:59:41Z</time></trkpt><trkpt lat="39.95911977806197" lon="18.1575164453193"><ele>60.0</ele><time>2026-04-26T09:59:42Z</time></trkpt><trkpt lat="39.958922361109614" lon="18.157488104717416"><ele>60.0</ele><time>2026-04-26T09:59:43Z</time></trkpt><trkpt lat="39.95872429788061" lon="18.157464172823712"><ele>60.0</ele><time>2026-04-26T09:59:44Z</time></trkpt><trkpt lat="39.95852700282306" lon="18.15745907962587"><ele>59.66666666666667</ele><time>2026-04-26T09:59:45Z</time></trkpt><trkpt lat="39.95832903382463" lon="18.157479325824724"><ele>59.333333333333336</ele><time>2026-04-26T09:59:46Z</time></trkpt><trkpt lat="39.958128261803516" lon="18.15752496009128"><ele>59.0</ele><time>2026-04-26T09:59:46.999Z</time></trkpt><trkpt lat="39.957932309398885" lon="18.15758643715718"><ele>59.0</ele><time>2026-04-26T09:59:47.999Z</time></trkpt><trkpt lat="39.957734350192425" lon="18.15766898621249"><ele>59.0</ele><time>2026-04-26T09:59:48.999Z</time></trkpt><trkpt lat="39.95754454853367" lon="18.157749632331747"><ele>59.0</ele><time>2026-04-26T09:59:49.999Z</time></trkpt><trkpt lat="39.9573493745621" lon="18.15782786452197"><ele>59.0</ele><time>2026-04-26T09:59:50.999Z</time></trkpt><trkpt lat="39.95715579162391" lon="18.157908225918792"><ele>59.0</ele><time>2026-04-26T09:59:51.999Z</time></trkpt><trkpt lat="39.95696779427184" lon="18.15798357338476"><ele>59.0</ele><time>2026-04-26T09:59:52.999Z</time></trkpt><trkpt lat="39.956779452635494" lon="18.158058819460614"><ele>59.0</ele><time>2026-04-26T09:59:53.999Z</time></trkpt><trkpt lat="39.95659916778619" lon="18.158134270181005"><ele>59.0</ele><time>2026-04-26T09:59:55Z</time></trkpt><trkpt lat="39.95642097797359" lon="18.158207881513903"><ele>59.0</ele><time>2026-04-26T09:59:56Z</time></trkpt><trkpt lat="39.956250093688695" lon="18.158272237798343"><ele>59.333333333333336</ele><time>2026-04-26T09:59:56.999Z</time></trkpt><trkpt lat="39.95608136441534" lon="18.15833803460548"><ele>59.66666666666667</ele><time>2026-04-26T09:59:57.999Z</time></trkpt><trkpt lat="39.95591642315181" lon="18.158406193988196"><ele>60.0</ele><time>2026-04-26T09:59:59Z</time></trkpt><trkpt lat="39.95575371255331" lon="18.15847253924753"><ele>60.33333333333333</ele><time>2026-04-26T09:59:59.999Z</time></trkpt><trkpt lat="39.95558914617952" lon="18.158538432688424"><ele>60.666666666666664</ele><time>2026-04-26T10:00:00.999Z</time></trkpt><trkpt lat="39.955423753563196" lon="18.15860653272156"><ele>61.0</ele><time>2026-04-26T10:00:01.999Z</time></trkpt><trkpt lat="39.95525936171591" lon="18.1586748089726"><ele>61.0</ele><time>2026-04-26T10:00:02.999Z</time></trkpt><trkpt lat="39.95509437059434" lon="18.158743318466115"><ele>61.0</ele><time>2026-04-26T10:00:03.999Z</time></trkpt><trkpt lat="39.9549242761446" lon="18.158812641273492"><ele>61.0</ele><time>2026-04-26T10:00:04.999Z</time></trkpt><trkpt lat="39.95475300228824" lon="18.158880376430556"><ele>61.0</ele><time>2026-04-26T10:00:05.999Z</time></trkpt><trkpt lat="39.95457953643101" lon="18.158949121043825"><ele>61.0</ele><time>2026-04-26T10:00:06.999Z</time></trkpt><trkpt lat="39.95440614169394" lon="18.159016638840647"><ele>61.0</ele><time>2026-04-26T10:00:07.999Z</time></trkpt><trkpt lat="39.954229795435104" lon="18.15908285615854"><ele>61.33333333333333</ele><time>2026-04-26T10:00:08.999Z</time></trkpt><trkpt lat="39.95405189642112" lon="18.1591500641367"><ele>61.66666666666667</ele><time>2026-04-26T10:00:09.999Z</time></trkpt><trkpt lat="39.95387327368776" lon="18.15922654983398"><ele>62.0</ele><time>2026-04-26T10:00:10.999Z</time></trkpt><trkpt lat="39.9536961266779" lon="18.159301800971946"><ele>62.0</ele><time>2026-04-26T10:00:11.999Z</time></trkpt><trkpt lat="39.95351950892608" lon="18.1593761265935"><ele>62.0</ele><time>2026-04-26T10:00:12.999Z</time></trkpt><trkpt lat="39.95334030873937" lon="18.15944974495248"><ele>62.0</ele><time>2026-04-26T10:00:14Z</time></trkpt><trkpt lat="39.95316094251827" lon="18.159525228332186"><ele>62.333333333333336</ele><time>2026-04-26T10:00:15Z</time></trkpt><trkpt lat="39.95298426274834" lon="18.159597948825695"><ele>62.66666666666667</ele><time>2026-04-26T10:00:16Z</time></trkpt><trkpt lat="39.95280527604695" lon="18.159672831955017"><ele>63.0</ele><time>2026-04-26T10:00:17Z</time></trkpt><trkpt lat="39.95262089814885" lon="18.159747450597628"><ele>64.0</ele><time>2026-04-26T10:00:18Z</time></trkpt><trkpt lat="39.952439482498605" lon="18.15981936444534"><ele>65.0</ele><time>2026-04-26T10:00:19Z</time></trkpt><trkpt lat="39.9522551079172" lon="18.159899564168718"><ele>66.0</ele><time>2026-04-26T10:00:20Z</time></trkpt><trkpt lat="39.95207224230729" lon="18.159980548359176"><ele>66.33333333333333</ele><time>2026-04-26T10:00:21Z</time></trkpt><trkpt lat="39.95189032670013" lon="18.160058849308232"><ele>66.66666666666666</ele><time>2026-04-26T10:00:22Z</time></trkpt><trkpt lat="39.9517063750176" lon="18.160137600612227"><ele>67.0</ele><time>2026-04-26T10:00:23Z</time></trkpt><trkpt lat="39.95152129433168" lon="18.160215334002956"><ele>67.0</ele><time>2026-04-26T10:00:24Z</time></trkpt><trkpt lat="39.951334205586235" lon="18.160288962410995"><ele>67.0</ele><time>2026-04-26T10:00:25Z</time></trkpt><trkpt lat="39.95115129425354" lon="18.160363243036745"><ele>67.0</ele><time>2026-04-26T10:00:26Z</time></trkpt><trkpt lat="39.95096688992513" lon="18.160437894035333"><ele>67.33333333333333</ele><time>2026-04-26T10:00:27Z</time></trkpt><trkpt lat="39.95078648330425" lon="18.160517174209698"><ele>67.66666666666667</ele><time>2026-04-26T10:00:28Z</time></trkpt><trkpt lat="39.950604069864646" lon="18.160594494868057"><ele>68.0</ele><time>2026-04-26T10:00:29Z</time></trkpt><trkpt lat="39.95042379973202" lon="18.16067049517675"><ele>68.0</ele><time>2026-04-26T10:00:30Z</time></trkpt><trkpt lat="39.950242704014386" lon="18.16074319446332"><ele>68.0</ele><time>2026-04-26T10:00:31Z</time></trkpt><trkpt lat="39.95005906871895" lon="18.16081301780839"><ele>68.0</ele><time>2026-04-26T10:00:32Z</time></trkpt><trkpt lat="39.9498735326684" lon="18.160884435892598"><ele>68.0</ele><time>2026-04-26T10:00:33Z</time></trkpt><trkpt lat="39.94968736403665" lon="18.16094810133485"><ele>68.0</ele><time>2026-04-26T10:00:34Z</time></trkpt><trkpt lat="39.94949980575631" lon="18.16100046989584"><ele>68.0</ele><time>2026-04-26T10:00:35Z</time></trkpt><trkpt lat="39.94930799943827" lon="18.161039308322092"><ele>68.33333333333334</ele><time>2026-04-26T10:00:36Z</time></trkpt><trkpt lat="39.94912005675717" lon="18.16106772155778"><ele>68.66666666666667</ele><time>2026-04-26T10:00:37Z</time></trkpt><trkpt lat="39.94893488688144" lon="18.161091598172042"><ele>69.0</ele><time>2026-04-26T10:00:38Z</time></trkpt><trkpt lat="39.94875037536111" lon="18.16110939301162"><ele>69.0</ele><time>2026-04-26T10:00:39Z</time></trkpt><trkpt lat="39.9485660468114" lon="18.161120158298445"><ele>69.0</ele><time>2026-04-26T10:00:40Z</time></trkpt><trkpt lat="39.948382831924036" lon="18.161125525447254"><ele>69.0</ele><time>2026-04-26T10:00:41Z</time></trkpt><trkpt lat="39.948199302208266" lon="18.161123840909408"><ele>68.66666666666667</ele><time>2026-04-26T10:00:42Z</time></trkpt><trkpt lat="39.94801018936754" lon="18.161115929642094"><ele>68.33333333333334</ele><time>2026-04-26T10:00:43Z</time></trkpt><trkpt lat="39.94782294472276" lon="18.161101387277444"><ele>68.0</ele><time>2026-04-26T10:00:44Z</time></trkpt><trkpt lat="39.94763629810991" lon="18.161079042068184"><ele>68.0</ele><time>2026-04-26T10:00:45Z</time></trkpt><trkpt lat="39.947448261170685" lon="18.16104995128493"><ele>68.0</ele><time>2026-04-26T10:00:46Z</time></trkpt><trkpt lat="39.947260625761764" lon="18.161015385793515"><ele>68.0</ele><time>2026-04-26T10:00:47Z</time></trkpt><trkpt lat="39.947073981156706" lon="18.160975760564796"><ele>68.0</ele><time>2026-04-26T10:00:48Z</time></trkpt><trkpt lat="39.94688598772937" lon="18.160930287444955"><ele>68.0</ele><time>2026-04-26T10:00:49Z</time></trkpt><trkpt lat="39.94670361892278" lon="18.160880999512376"><ele>68.0</ele><time>2026-04-26T10:00:50Z</time></trkpt><trkpt lat="39.94651988444942" lon="18.16083008735899"><ele>68.0</ele><time>2026-04-26T10:00:51Z</time></trkpt><trkpt lat="39.946332450614406" lon="18.160775209463406"><ele>68.0</ele><time>2026-04-26T10:00:52Z</time></trkpt><trkpt lat="39.94614643406523" lon="18.16072056707967"><ele>68.0</ele><time>2026-04-26T10:00:53Z</time></trkpt><trkpt lat="39.94596034877817" lon="18.160666703966086"><ele>67.66666666666667</ele><time>2026-04-26T10:00:54Z</time></trkpt><trkpt lat="39.94577372813917" lon="18.160610522698825"><ele>67.33333333333333</ele><time>2026-04-26T10:00:55Z</time></trkpt><trkpt lat="39.94558837096339" lon="18.160554441573872"><ele>67.0</ele><time>2026-04-26T10:00:56Z</time></trkpt><trkpt lat="39.945405337465914" lon="18.160496506262408"><ele>67.0</ele><time>2026-04-26T10:00:57Z</time></trkpt><trkpt lat="39.945229529922905" lon="18.160442627728894"><ele>67.0</ele><time>2026-04-26T10:00:58Z</time></trkpt><trkpt lat="39.94505275306975" lon="18.16039310084696"><ele>67.0</ele><time>2026-04-26T10:00:59Z</time></trkpt><trkpt lat="39.94488299144333" lon="18.16034957733756"><ele>67.33333333333333</ele><time>2026-04-26T10:01:00Z</time></trkpt><trkpt lat="39.94471918899733" lon="18.16030919659934"><ele>67.66666666666667</ele><time>2026-04-26T10:01:01Z</time></trkpt><trkpt lat="39.94456023599595" lon="18.16029478679287"><ele>68.0</ele><time>2026-04-26T10:01:02Z</time></trkpt><trkpt lat="39.9444046351817" lon="18.16029322153136"><ele>68.0</ele><time>2026-04-26T10:01:03Z</time></trkpt><trkpt lat="39.944255682100625" lon="18.160298330348468"><ele>68.0</ele><time>2026-04-26T10:01:04Z</time></trkpt><trkpt lat="39.944121676508956" lon="18.160301282525616"><ele>68.0</ele><time>2026-04-26T10:01:05Z</time></trkpt><trkpt lat="39.94400266116155" lon="18.160300699581335"><ele>68.0</ele><time>2026-04-26T10:01:06Z</time></trkpt><trkpt lat="39.943890033965396" lon="18.160303580133927"><ele>68.33333333333334</ele><time>2026-04-26T10:01:07Z</time></trkpt><trkpt lat="39.94379101656393" lon="18.1603157619267"><ele>68.66666666666667</ele><time>2026-04-26T10:01:08Z</time></trkpt><trkpt lat="39.943707331672954" lon="18.160319802367"><ele>69.0</ele><time>2026-04-26T10:01:09Z</time></trkpt><trkpt lat="39.94363819231382" lon="18.160298298567245"><ele>69.33333333333333</ele><time>2026-04-26T10:01:10Z</time></trkpt><trkpt lat="39.943547614162405" lon="18.160192631236413"><ele>69.66666666666666</ele><time>2026-04-26T10:01:12Z</time></trkpt><trkpt lat="39.943520977845814" lon="18.160111696316637"><ele>70.0</ele><time>2026-04-26T10:01:13Z</time></trkpt><trkpt lat="39.943513401390604" lon="18.160013240408702"><ele>70.0</ele><time>2026-04-26T10:01:14Z</time></trkpt><trkpt lat="39.94353102998265" lon="18.159909794271016"><ele>70.0</ele><time>2026-04-26T10:01:15Z</time></trkpt><trkpt lat="39.94357385955464" lon="18.15980308555861"><ele>70.0</ele><time>2026-04-26T10:01:16Z</time></trkpt><trkpt lat="39.94362639530465" lon="18.15967985978463"><ele>70.0</ele><time>2026-04-26T10:01:17Z</time></trkpt><trkpt lat="39.94367798119417" lon="18.15953070008411"><ele>70.0</ele><time>2026-04-26T10:01:18Z</time></trkpt><trkpt lat="39.94373876430975" lon="18.159372475983595"><ele>70.0</ele><time>2026-04-26T10:01:19Z</time></trkpt><trkpt lat="39.94379592738232" lon="18.15923929169018"><ele>70.0</ele><time>2026-04-26T10:01:20Z</time></trkpt><trkpt lat="39.94385986134221" lon="18.159139211027703"><ele>70.0</ele><time>2026-04-26T10:01:21Z</time></trkpt><trkpt lat="39.94393654638661" lon="18.15906357834894"><ele>70.0</ele><time>2026-04-26T10:01:22Z</time></trkpt><trkpt lat="39.94402385132672" lon="18.159013309528415"><ele>70.0</ele><time>2026-04-26T10:01:23Z</time></trkpt><trkpt lat="39.944120595549016" lon="18.158987488011796"><ele>70.0</ele><time>2026-04-26T10:01:24Z</time></trkpt><trkpt lat="39.94421914016032" lon="18.158994054045447"><ele>70.0</ele><time>2026-04-26T10:01:25Z</time></trkpt><trkpt lat="39.94431269818362" lon="18.159030080401187"><ele>70.0</ele><time>2026-04-26T10:01:26Z</time></trkpt><trkpt lat="39.94439811278432" lon="18.159082920593924"><ele>70.0</ele><time>2026-04-26T10:01:27Z</time></trkpt><trkpt lat="39.94445994721397" lon="18.15914778400641"><ele>70.0</ele><time>2026-04-26T10:01:28Z</time></trkpt><trkpt lat="39.94450120161956" lon="18.159221671837578"><ele>70.0</ele><time>2026-04-26T10:01:29Z</time></trkpt><trkpt lat="39.94450907082856" lon="18.159380663064578"><ele>69.83333333333333</ele><time>2026-04-26T10:01:31Z</time></trkpt><trkpt lat="39.94448493740769" lon="18.15946193451169"><ele>69.66666666666666</ele><time>2026-04-26T10:01:32Z</time></trkpt><trkpt lat="39.94445264631844" lon="18.15954837396862"><ele>69.5</ele><time>2026-04-26T10:01:33Z</time></trkpt><trkpt lat="39.9444171013338" lon="18.159638469177235"><ele>69.33333333333333</ele><time>2026-04-26T10:01:34Z</time></trkpt><trkpt lat="39.94437867687576" lon="18.159738906407053"><ele>69.16666666666667</ele><time>2026-04-26T10:01:35Z</time></trkpt><trkpt lat="39.944344390972084" lon="18.15984135060608"><ele>69.0</ele><time>2026-04-26T10:01:36Z</time></trkpt><trkpt lat="39.94431459187964" lon="18.1599252904598"><ele>68.83333333333333</ele><time>2026-04-26T10:01:37Z</time></trkpt><trkpt lat="39.94428901044856" lon="18.16000362197863"><ele>68.66666666666667</ele><time>2026-04-26T10:01:40Z</time></trkpt><trkpt lat="39.9442566651843" lon="18.160156866128176"><ele>68.5</ele><time>2026-04-26T10:01:52Z</time></trkpt><trkpt lat="39.94423318775222" lon="18.16023935838018"><ele>68.33333333333334</ele><time>2026-04-26T10:01:53Z</time></trkpt><trkpt lat="39.94419761961292" lon="18.16033472193211"><ele>68.16666666666667</ele><time>2026-04-26T10:01:54Z</time></trkpt><trkpt lat="39.94414880874344" lon="18.160447745078777"><ele>68.0</ele><time>2026-04-26T10:01:55Z</time></trkpt><trkpt lat="39.944096990720354" lon="18.160579163712388"><ele>68.75</ele><time>2026-04-26T10:01:56Z</time></trkpt><trkpt lat="39.94403958335177" lon="18.160720437487782"><ele>69.5</ele><time>2026-04-26T10:01:57Z</time></trkpt><trkpt lat="39.94398169756913" lon="18.16086977751465"><ele>70.25</ele><time>2026-04-26T10:01:58Z</time></trkpt><trkpt lat="39.943908467080405" lon="18.161031568838236"><ele>71.0</ele><time>2026-04-26T10:01:59Z</time></trkpt><trkpt lat="39.943830672825676" lon="18.161191057429964"><ele>71.0</ele><time>2026-04-26T10:02:00Z</time></trkpt><trkpt lat="39.9437533806091" lon="18.161354477509743"><ele>71.0</ele><time>2026-04-26T10:02:01Z</time></trkpt><trkpt lat="39.94366722841271" lon="18.161521070521363"><ele>71.0</ele><time>2026-04-26T10:02:02Z</time></trkpt><trkpt lat="39.943581416191485" lon="18.161695026561663"><ele>72.0</ele><time>2026-04-26T10:02:03Z</time></trkpt><trkpt lat="39.943522893022994" lon="18.16190063123953"><ele>73.0</ele><time>2026-04-26T10:02:04Z</time></trkpt><trkpt lat="39.94345987067234" lon="18.162093973865527"><ele>74.0</ele><time>2026-04-26T10:02:05Z</time></trkpt><trkpt lat="39.943390621019816" lon="18.162281898923727"><ele>74.0</ele><time>2026-04-26T10:02:06Z</time></trkpt><trkpt lat="39.94331582436824" lon="18.16247507188198"><ele>74.0</ele><time>2026-04-26T10:02:07Z</time></trkpt><trkpt lat="39.94323943439577" lon="18.162659563031504"><ele>74.0</ele><time>2026-04-26T10:02:08Z</time></trkpt><trkpt lat="39.943162938228284" lon="18.162845391484392"><ele>74.0</ele><time>2026-04-26T10:02:09Z</time></trkpt><trkpt lat="39.94308116401461" lon="18.163028593120163"><ele>74.0</ele><time>2026-04-26T10:02:10Z</time></trkpt><trkpt lat="39.9429941683022" lon="18.163212453597975"><ele>74.0</ele><time>2026-04-26T10:02:11Z</time></trkpt><trkpt lat="39.94290481048156" lon="18.163393998645944"><ele>74.33333333333334</ele><time>2026-04-26T10:02:12Z</time></trkpt><trkpt lat="39.94281120362533" lon="18.163576078088788"><ele>74.66666666666667</ele><time>2026-04-26T10:02:13Z</time></trkpt><trkpt lat="39.94271484882084" lon="18.16375612438493"><ele>75.0</ele><time>2026-04-26T10:02:14Z</time></trkpt><trkpt lat="39.94261654874751" lon="18.163936565793442"><ele>76.0</ele><time>2026-04-26T10:02:15Z</time></trkpt><trkpt lat="39.94251250782957" lon="18.16411763629113"><ele>77.0</ele><time>2026-04-26T10:02:16Z</time></trkpt><trkpt lat="39.942406003907784" lon="18.164298082437877"><ele>78.0</ele><time>2026-04-26T10:02:17Z</time></trkpt><trkpt lat="39.94229673656067" lon="18.164476529148015"><ele>78.0</ele><time>2026-04-26T10:02:18Z</time></trkpt><trkpt lat="39.94218595801702" lon="18.164653213668753"><ele>78.0</ele><time>2026-04-26T10:02:19Z</time></trkpt><trkpt lat="39.942069667008695" lon="18.164830296487295"><ele>78.0</ele><time>2026-04-26T10:02:20Z</time></trkpt><trkpt lat="39.94194987182457" lon="18.165006211060494"><ele>78.33333333333333</ele><time>2026-04-26T10:02:21Z</time></trkpt><trkpt lat="39.94182877776507" lon="18.1651740522035"><ele>78.66666666666666</ele><time>2026-04-26T10:02:22Z</time></trkpt><trkpt lat="39.941704043383126" lon="18.165341458292325"><ele>79.0</ele><time>2026-04-26T10:02:23Z</time></trkpt><trkpt lat="39.94157855181427" lon="18.165508481930413"><ele>78.33333333333333</ele><time>2026-04-26T10:02:24Z</time></trkpt><trkpt lat="39.94144932673087" lon="18.165674659212204"><ele>77.66666666666667</ele><time>2026-04-26T10:02:25Z</time></trkpt><trkpt lat="39.94131318069609" lon="18.16583883984967"><ele>77.0</ele><time>2026-04-26T10:02:26Z</time></trkpt><trkpt lat="39.941174221882186" lon="18.165999793024564"><ele>77.0</ele><time>2026-04-26T10:02:27Z</time></trkpt><trkpt lat="39.941033821758126" lon="18.166159143112836"><ele>77.0</ele><time>2026-04-26T10:02:28Z</time></trkpt><trkpt lat="39.94089205315418" lon="18.166315935909832"><ele>77.0</ele><time>2026-04-26T10:02:29Z</time></trkpt><trkpt lat="39.940748506560496" lon="18.16646947535249"><ele>77.66666666666667</ele><time>2026-04-26T10:02:30Z</time></trkpt><trkpt lat="39.940603216030226" lon="18.166624222515818"><ele>78.33333333333333</ele><time>2026-04-26T10:02:31Z</time></trkpt><trkpt lat="39.940456865729296" lon="18.16676824848081"><ele>79.0</ele><time>2026-04-26T10:02:32Z</time></trkpt><trkpt lat="39.94030745010582" lon="18.166907239055686"><ele>79.0</ele><time>2026-04-26T10:02:33Z</time></trkpt><trkpt lat="39.94015869985973" lon="18.167042391875054"><ele>79.0</ele><time>2026-04-26T10:02:34Z</time></trkpt><trkpt lat="39.9400109080678" lon="18.167175893489386"><ele>79.0</ele><time>2026-04-26T10:02:35Z</time></trkpt><trkpt lat="39.939864111504264" lon="18.167309434777927"><ele>79.0</ele><time>2026-04-26T10:02:36Z</time></trkpt><trkpt lat="39.93971680556674" lon="18.167440526289464"><ele>79.0</ele><time>2026-04-26T10:02:37Z</time></trkpt><trkpt lat="39.93957068608564" lon="18.16757089357543"><ele>79.0</ele><time>2026-04-26T10:02:38Z</time></trkpt><trkpt lat="39.93942632358552" lon="18.167697888495336"><ele>79.0</ele><time>2026-04-26T10:02:39Z</time></trkpt><trkpt lat="39.93928330616262" lon="18.16782601739669"><ele>79.0</ele><time>2026-04-26T10:02:40Z</time></trkpt><trkpt lat="39.9391431987789" lon="18.167957346399813"><ele>79.0</ele><time>2026-04-26T10:02:41Z</time></trkpt><trkpt lat="39.93900280873796" lon="18.168087687301693"><ele>79.66666666666666</ele><time>2026-04-26T10:02:42Z</time></trkpt><trkpt lat="39.938864061425534" lon="18.168218288303944"><ele>80.33333333333333</ele><time>2026-04-26T10:02:43Z</time></trkpt><trkpt lat="39.93872591186404" lon="18.168346676236983"><ele>81.0</ele><time>2026-04-26T10:02:44Z</time></trkpt><trkpt lat="39.93858373108921" lon="18.16847323104834"><ele>81.0</ele><time>2026-04-26T10:02:45Z</time></trkpt><trkpt lat="39.938441480651406" lon="18.16859765010419"><ele>81.0</ele><time>2026-04-26T10:02:46Z</time></trkpt><trkpt lat="39.93830050017129" lon="18.16872758464868"><ele>81.0</ele><time>2026-04-26T10:02:47Z</time></trkpt><trkpt lat="39.93815894567985" lon="18.168858435970286"><ele>81.33333333333333</ele><time>2026-04-26T10:02:48Z</time></trkpt><trkpt lat="39.93801596047364" lon="18.168989802423773"><ele>81.66666666666666</ele><time>2026-04-26T10:02:49Z</time></trkpt><trkpt lat="39.93787337315112" lon="18.169119936609352"><ele>82.0</ele><time>2026-04-26T10:02:50Z</time></trkpt><trkpt lat="39.93773164687377" lon="18.169250581587857"><ele>82.33333333333333</ele><time>2026-04-26T10:02:51Z</time></trkpt><trkpt lat="39.93758910902758" lon="18.169381708590397"><ele>82.66666666666667</ele><time>2026-04-26T10:02:52Z</time></trkpt><trkpt lat="39.937447065304326" lon="18.169513926472252"><ele>83.0</ele><time>2026-04-26T10:02:53Z</time></trkpt><trkpt lat="39.93730472095068" lon="18.16964674474588"><ele>83.33333333333334</ele><time>2026-04-26T10:02:54Z</time></trkpt><trkpt lat="39.93716193684649" lon="18.169779987448713"><ele>83.66666666666667</ele><time>2026-04-26T10:02:55Z</time></trkpt><trkpt lat="39.9370197615277" lon="18.169909982550166"><ele>84.0</ele><time>2026-04-26T10:02:56Z</time></trkpt><trkpt lat="39.93687543435537" lon="18.17004029632365"><ele>84.33333333333333</ele><time>2026-04-26T10:02:57Z</time></trkpt><trkpt lat="39.93673087949695" lon="18.17017192092774"><ele>84.66666666666666</ele><time>2026-04-26T10:02:58Z</time></trkpt><trkpt lat="39.93658412790748" lon="18.170305009482746"><ele>85.0</ele><time>2026-04-26T10:02:59Z</time></trkpt><trkpt lat="39.93643666125229" lon="18.17044049197444"><ele>85.0</ele><time>2026-04-26T10:03:00Z</time></trkpt><trkpt lat="39.93628964769729" lon="18.17057538677276"><ele>85.0</ele><time>2026-04-26T10:03:01Z</time></trkpt><trkpt lat="39.93614059926134" lon="18.170709859562837"><ele>85.0</ele><time>2026-04-26T10:03:02Z</time></trkpt><trkpt lat="39.93599061029122" lon="18.170846967896978"><ele>85.33333333333333</ele><time>2026-04-26T10:03:03Z</time></trkpt><trkpt lat="39.935838509349395" lon="18.17098394496185"><ele>85.66666666666667</ele><time>2026-04-26T10:03:04Z</time></trkpt><trkpt lat="39.93568956040883" lon="18.17112063377613"><ele>86.0</ele><time>2026-04-26T10:03:05Z</time></trkpt><trkpt lat="39.935536045791714" lon="18.171259032997757"><ele>86.0</ele><time>2026-04-26T10:03:06Z</time></trkpt><trkpt lat="39.935383783362646" lon="18.17139724213391"><ele>86.0</ele><time>2026-04-26T10:03:07Z</time></trkpt><trkpt lat="39.93523122094005" lon="18.171537111465184"><ele>86.0</ele><time>2026-04-26T10:03:08Z</time></trkpt><trkpt lat="39.93507933927661" lon="18.17167886601214"><ele>86.0</ele><time>2026-04-26T10:03:09Z</time></trkpt><trkpt lat="39.93492762926103" lon="18.171820289142463"><ele>86.0</ele><time>2026-04-26T10:03:10Z</time></trkpt><trkpt lat="39.934776853544996" lon="18.171962145847424"><ele>86.0</ele><time>2026-04-26T10:03:11Z</time></trkpt><trkpt lat="39.934624856009314" lon="18.1721019387769"><ele>86.0</ele><time>2026-04-26T10:03:12Z</time></trkpt><trkpt lat="39.934470858504575" lon="18.17224329071828"><ele>86.0</ele><time>2026-04-26T10:03:13Z</time></trkpt><trkpt lat="39.93431757849861" lon="18.17238610514806"><ele>86.0</ele><time>2026-04-26T10:03:14Z</time></trkpt><trkpt lat="39.93416260343604" lon="18.172527595810916"><ele>85.33333333333334</ele><time>2026-04-26T10:03:15Z</time></trkpt><trkpt lat="39.93400650955101" lon="18.172668965659394"><ele>84.66666666666667</ele><time>2026-04-26T10:03:16Z</time></trkpt><trkpt lat="39.93385219341939" lon="18.17280834770897"><ele>84.0</ele><time>2026-04-26T10:03:17Z</time></trkpt><trkpt lat="39.93369760018886" lon="18.172949138520398"><ele>84.0</ele><time>2026-04-26T10:03:18Z</time></trkpt><trkpt lat="39.93354118477812" lon="18.17309206348086"><ele>84.0</ele><time>2026-04-26T10:03:19Z</time></trkpt><trkpt lat="39.93338504420398" lon="18.17323233216024"><ele>84.0</ele><time>2026-04-26T10:03:20Z</time></trkpt><trkpt lat="39.933226311328106" lon="18.173373161632455"><ele>84.0</ele><time>2026-04-26T10:03:21Z</time></trkpt><trkpt lat="39.93307230037215" lon="18.17351880354666"><ele>84.0</ele><time>2026-04-26T10:03:22Z</time></trkpt><trkpt lat="39.93291873197934" lon="18.173661442790497"><ele>84.0</ele><time>2026-04-26T10:03:23Z</time></trkpt><trkpt lat="39.93276415910384" lon="18.17380285521773"><ele>84.0</ele><time>2026-04-26T10:03:24Z</time></trkpt><trkpt lat="39.932614370624" lon="18.173944459131423"><ele>84.0</ele><time>2026-04-26T10:03:25Z</time></trkpt><trkpt lat="39.932461881954595" lon="18.174085173269688"><ele>84.0</ele><time>2026-04-26T10:03:26Z</time></trkpt><trkpt lat="39.93231132451117" lon="18.17422830341567"><ele>84.33333333333333</ele><time>2026-04-26T10:03:27Z</time></trkpt><trkpt lat="39.93216031610868" lon="18.17436887404989"><ele>84.66666666666666</ele><time>2026-04-26T10:03:28Z</time></trkpt><trkpt lat="39.932007893302405" lon="18.17451049122774"><ele>85.0</ele><time>2026-04-26T10:03:29Z</time></trkpt><trkpt lat="39.93185249902078" lon="18.174653620610517"><ele>85.0</ele><time>2026-04-26T10:03:30Z</time></trkpt><trkpt lat="39.93169976330392" lon="18.174796031466034"><ele>85.0</ele><time>2026-04-26T10:03:31Z</time></trkpt><trkpt lat="39.931545003731046" lon="18.17493755634224"><ele>85.0</ele><time>2026-04-26T10:03:32Z</time></trkpt><trkpt lat="39.931386716831376" lon="18.175079567163724"><ele>85.33333333333333</ele><time>2026-04-26T10:03:33Z</time></trkpt><trkpt lat="39.93122936732012" lon="18.17522152803081"><ele>85.66666666666667</ele><time>2026-04-26T10:03:34Z</time></trkpt><trkpt lat="39.93107238810263" lon="18.17536667570455"><ele>86.0</ele><time>2026-04-26T10:03:35.001Z</time></trkpt><trkpt lat="39.930918377970535" lon="18.175511168906414"><ele>85.66666666666667</ele><time>2026-04-26T10:03:36.001Z</time></trkpt><trkpt lat="39.930766802346135" lon="18.175655101459324"><ele>85.33333333333333</ele><time>2026-04-26T10:03:37.001Z</time></trkpt><trkpt lat="39.93061244938472" lon="18.17580039734629"><ele>85.0</ele><time>2026-04-26T10:03:38.001Z</time></trkpt><trkpt lat="39.93045928734873" lon="18.175941219382242"><ele>85.0</ele><time>2026-04-26T10:03:39.001Z</time></trkpt><trkpt lat="39.93030650721757" lon="18.17608285510042"><ele>85.0</ele><time>2026-04-26T10:03:40.001Z</time></trkpt><trkpt lat="39.93015434307452" lon="18.1762233868105"><ele>85.0</ele><time>2026-04-26T10:03:41.001Z</time></trkpt><trkpt lat="39.93000139543956" lon="18.17636324938941"><ele>84.66666666666666</ele><time>2026-04-26T10:03:42.001Z</time></trkpt><trkpt lat="39.92984853665053" lon="18.1765030953186"><ele>84.33333333333333</ele><time>2026-04-26T10:03:43.001Z</time></trkpt><trkpt lat="39.92969305724835" lon="18.176642774046577"><ele>84.0</ele><time>2026-04-26T10:03:44.001Z</time></trkpt><trkpt lat="39.92954094053574" lon="18.176783372816008"><ele>84.0</ele><time>2026-04-26T10:03:45.001Z</time></trkpt><trkpt lat="39.92939062047204" lon="18.17692295878163"><ele>84.0</ele><time>2026-04-26T10:03:46.001Z</time></trkpt><trkpt lat="39.92924434351479" lon="18.177059807547973"><ele>84.0</ele><time>2026-04-26T10:03:47.001Z</time></trkpt><trkpt lat="39.92909541691695" lon="18.177194665588047"><ele>84.0</ele><time>2026-04-26T10:03:48.001Z</time></trkpt><trkpt lat="39.928944675332396" lon="18.177330751359463"><ele>84.0</ele><time>2026-04-26T10:03:49.001Z</time></trkpt><trkpt lat="39.92879446012968" lon="18.17746666747034"><ele>84.0</ele><time>2026-04-26T10:03:50.001Z</time></trkpt><trkpt lat="39.928644529055546" lon="18.17760467188459"><ele>84.0</ele><time>2026-04-26T10:03:51.001Z</time></trkpt><trkpt lat="39.9284917544924" lon="18.17774420132283"><ele>84.0</ele><time>2026-04-26T10:03:52.001Z</time></trkpt><trkpt lat="39.92833732462853" lon="18.17788369810827"><ele>84.0</ele><time>2026-04-26T10:03:53.001Z</time></trkpt><trkpt lat="39.928183520372244" lon="18.17803061178503"><ele>84.0</ele><time>2026-04-26T10:03:54.001Z</time></trkpt><trkpt lat="39.9280290660071" lon="18.178176781240904"><ele>84.0</ele><time>2026-04-26T10:03:55.001Z</time></trkpt><trkpt lat="39.927871652844914" lon="18.17832056507057"><ele>84.0</ele><time>2026-04-26T10:03:56.001Z</time></trkpt><trkpt lat="39.92771320370073" lon="18.178462878875944"><ele>84.0</ele><time>2026-04-26T10:03:57.001Z</time></trkpt><trkpt lat="39.927552516358766" lon="18.178607222164313"><ele>84.0</ele><time>2026-04-26T10:03:58.001Z</time></trkpt><trkpt lat="39.927392865665986" lon="18.178753523919138"><ele>84.0</ele><time>2026-04-26T10:03:59Z</time></trkpt><trkpt lat="39.92723360302188" lon="18.17890101215128"><ele>84.33333333333333</ele><time>2026-04-26T10:04:00Z</time></trkpt><trkpt lat="39.92707586948057" lon="18.179047012883707"><ele>84.66666666666666</ele><time>2026-04-26T10:04:01Z</time></trkpt><trkpt lat="39.92691828877214" lon="18.179191748059157"><ele>85.0</ele><time>2026-04-26T10:04:02Z</time></trkpt><trkpt lat="39.92676161041341" lon="18.179340457083764"><ele>84.66666666666666</ele><time>2026-04-26T10:04:03Z</time></trkpt><trkpt lat="39.926604665399665" lon="18.179487879970893"><ele>84.33333333333333</ele><time>2026-04-26T10:04:04Z</time></trkpt><trkpt lat="39.9264496621812" lon="18.179634021646343"><ele>84.0</ele><time>2026-04-26T10:04:05Z</time></trkpt><trkpt lat="39.92629286012255" lon="18.17977516160632"><ele>84.33333333333333</ele><time>2026-04-26T10:04:06Z</time></trkpt><trkpt lat="39.926135675248744" lon="18.179917759953504"><ele>84.66666666666666</ele><time>2026-04-26T10:04:07Z</time></trkpt><trkpt lat="39.92597902235928" lon="18.180059462299273"><ele>85.0</ele><time>2026-04-26T10:04:08Z</time></trkpt><trkpt lat="39.925823348088464" lon="18.1802042546396"><ele>85.0</ele><time>2026-04-26T10:04:09Z</time></trkpt><trkpt lat="39.925665751931795" lon="18.180348618179632"><ele>85.0</ele><time>2026-04-26T10:04:10Z</time></trkpt><trkpt lat="39.925508204585974" lon="18.180492075219036"><ele>85.0</ele><time>2026-04-26T10:04:11Z</time></trkpt><trkpt lat="39.9253499097639" lon="18.18063465525591"><ele>85.33333333333333</ele><time>2026-04-26T10:04:12Z</time></trkpt><trkpt lat="39.925191399455464" lon="18.180778032979216"><ele>85.66666666666667</ele><time>2026-04-26T10:04:13Z</time></trkpt><trkpt lat="39.92503189495558" lon="18.180920890443595"><ele>86.0</ele><time>2026-04-26T10:04:14Z</time></trkpt><trkpt lat="39.924872366828374" lon="18.18106390987308"><ele>86.0</ele><time>2026-04-26T10:04:15Z</time></trkpt><trkpt lat="39.92471199498439" lon="18.181211393165853"><ele>86.0</ele><time>2026-04-26T10:04:16Z</time></trkpt><trkpt lat="39.924550734992465" lon="18.181357017946798"><ele>86.0</ele><time>2026-04-26T10:04:17Z</time></trkpt><trkpt lat="39.924390069777225" lon="18.18150328508764"><ele>86.33333333333334</ele><time>2026-04-26T10:04:18Z</time></trkpt><trkpt lat="39.92422871526431" lon="18.181649659049526"><ele>86.66666666666667</ele><time>2026-04-26T10:04:19Z</time></trkpt><trkpt lat="39.92406865897538" lon="18.18179683452907"><ele>87.0</ele><time>2026-04-26T10:04:20Z</time></trkpt><trkpt lat="39.92391145039888" lon="18.18194914725925"><ele>87.0</ele><time>2026-04-26T10:04:21Z</time></trkpt><trkpt lat="39.92375689056545" lon="18.182099757908077"><ele>87.0</ele><time>2026-04-26T10:04:22Z</time></trkpt><trkpt lat="39.923603599838074" lon="18.182255104023202"><ele>87.0</ele><time>2026-04-26T10:04:23Z</time></trkpt><trkpt lat="39.923455810732094" lon="18.18241900090292"><ele>87.66666666666667</ele><time>2026-04-26T10:04:24Z</time></trkpt><trkpt lat="39.923314181990975" lon="18.18259165302419"><ele>88.33333333333334</ele><time>2026-04-26T10:04:25Z</time></trkpt><trkpt lat="39.92317807214677" lon="18.182771406675982"><ele>89.0</ele><time>2026-04-26T10:04:26Z</time></trkpt><trkpt lat="39.923048634088325" lon="18.182957674907563"><ele>89.0</ele><time>2026-04-26T10:04:27Z</time></trkpt><trkpt lat="39.92292605324765" lon="18.183150831487858"><ele>89.0</ele><time>2026-04-26T10:04:28Z</time></trkpt><trkpt lat="39.92281338810397" lon="18.183350021117842"><ele>89.0</ele><time>2026-04-26T10:04:29Z</time></trkpt><trkpt lat="39.92269982593752" lon="18.183557012056024"><ele>89.33333333333334</ele><time>2026-04-26T10:04:30Z</time></trkpt><trkpt lat="39.92259662270727" lon="18.183771936516088"><ele>89.66666666666667</ele><time>2026-04-26T10:04:31Z</time></trkpt><trkpt lat="39.922497613461175" lon="18.183992349230564"><ele>90.0</ele><time>2026-04-26T10:04:32Z</time></trkpt><trkpt lat="39.92240073527263" lon="18.184215976841024"><ele>89.66666666666667</ele><time>2026-04-26T10:04:33Z</time></trkpt><trkpt lat="39.922314387060226" lon="18.184440209546725"><ele>89.33333333333334</ele><time>2026-04-26T10:04:34Z</time></trkpt><trkpt lat="39.92223526743755" lon="18.184671289980425"><ele>89.0</ele><time>2026-04-26T10:04:35Z</time></trkpt><trkpt lat="39.92216876173257" lon="18.184905409535695"><ele>89.0</ele><time>2026-04-26T10:04:36Z</time></trkpt><trkpt lat="39.922108876168174" lon="18.185144103273284"><ele>89.0</ele><time>2026-04-26T10:04:37Z</time></trkpt><trkpt lat="39.922055532442315" lon="18.185385749622576"><ele>89.0</ele><time>2026-04-26T10:04:38Z</time></trkpt><trkpt lat="39.922006775242814" lon="18.185630910708497"><ele>89.66666666666667</ele><time>2026-04-26T10:04:39Z</time></trkpt><trkpt lat="39.921966505476995" lon="18.18587990203982"><ele>90.33333333333333</ele><time>2026-04-26T10:04:40Z</time></trkpt><trkpt lat="39.92193298885143" lon="18.186128411612856"><ele>91.0</ele><time>2026-04-26T10:04:41Z</time></trkpt><trkpt lat="39.921903791060195" lon="18.18637789303734"><ele>91.33333333333333</ele><time>2026-04-26T10:04:42Z</time></trkpt><trkpt lat="39.9218738170415" lon="18.18662529943097"><ele>91.66666666666667</ele><time>2026-04-26T10:04:43Z</time></trkpt><trkpt lat="39.92184432267983" lon="18.1868702107722"><ele>92.0</ele><time>2026-04-26T10:04:44Z</time></trkpt><trkpt lat="39.921815829579785" lon="18.187114601981655"><ele>92.33333333333334</ele><time>2026-04-26T10:04:45Z</time></trkpt><trkpt lat="39.921787274488274" lon="18.18736225848759"><ele>92.66666666666667</ele><time>2026-04-26T10:04:46Z</time></trkpt><trkpt lat="39.92176088956602" lon="18.187603662697718"><ele>93.0</ele><time>2026-04-26T10:04:47Z</time></trkpt><trkpt lat="39.921731830375144" lon="18.187844916527723"><ele>93.33333333333333</ele><time>2026-04-26T10:04:48Z</time></trkpt><trkpt lat="39.92170481459067" lon="18.18808355678071"><ele>93.66666666666666</ele><time>2026-04-26T10:04:49Z</time></trkpt><trkpt lat="39.92167853625504" lon="18.188321542211128"><ele>94.0</ele><time>2026-04-26T10:04:50Z</time></trkpt><trkpt lat="39.9216529333082" lon="18.188556363512497"><ele>94.0</ele><time>2026-04-26T10:04:51Z</time></trkpt><trkpt lat="39.92162571648976" lon="18.188790934389413"><ele>94.0</ele><time>2026-04-26T10:04:52Z</time></trkpt><trkpt lat="39.921600523680226" lon="18.189024625812667"><ele>94.0</ele><time>2026-04-26T10:04:53Z</time></trkpt><trkpt lat="39.92157361595603" lon="18.18925777636931"><ele>94.0</ele><time>2026-04-26T10:04:54Z</time></trkpt><trkpt lat="39.921547227288215" lon="18.189491341275044"><ele>94.0</ele><time>2026-04-26T10:04:55Z</time></trkpt><trkpt lat="39.92152203249343" lon="18.189724051765825"><ele>94.0</ele><time>2026-04-26T10:04:56Z</time></trkpt><trkpt lat="39.92149479705619" lon="18.18995466337752"><ele>94.0</ele><time>2026-04-26T10:04:57Z</time></trkpt><trkpt lat="39.92147000930186" lon="18.19018351535011"><ele>94.0</ele><time>2026-04-26T10:04:58Z</time></trkpt><trkpt lat="39.92144654029607" lon="18.190410697718047"><ele>94.0</ele><time>2026-04-26T10:04:59Z</time></trkpt><trkpt lat="39.92142164717507" lon="18.190638178757226"><ele>94.0</ele><time>2026-04-26T10:05:00Z</time></trkpt><trkpt lat="39.92139494862402" lon="18.190870939712536"><ele>94.0</ele><time>2026-04-26T10:05:01Z</time></trkpt><trkpt lat="39.921368733186895" lon="18.191101018102078"><ele>94.0</ele><time>2026-04-26T10:05:02Z</time></trkpt><trkpt lat="39.921342086210934" lon="18.191331692930508"><ele>94.0</ele><time>2026-04-26T10:05:03Z</time></trkpt><trkpt lat="39.92131659215736" lon="18.19156259500747"><ele>94.0</ele><time>2026-04-26T10:05:04Z</time></trkpt><trkpt lat="39.921290621200825" lon="18.191796287140765"><ele>94.0</ele><time>2026-04-26T10:05:05Z</time></trkpt><trkpt lat="39.921264153611205" lon="18.192030464722507"><ele>94.0</ele><time>2026-04-26T10:05:06Z</time></trkpt><trkpt lat="39.92123740924114" lon="18.192258907717605"><ele>94.0</ele><time>2026-04-26T10:05:07Z</time></trkpt><trkpt lat="39.921211438838924" lon="18.19248524711994"><ele>94.0</ele><time>2026-04-26T10:05:08Z</time></trkpt><trkpt lat="39.92118402794264" lon="18.192716508893877"><ele>94.66666666666666</ele><time>2026-04-26T10:05:09Z</time></trkpt><trkpt lat="39.92115667481022" lon="18.192948166728932"><ele>95.33333333333333</ele><time>2026-04-26T10:05:10Z</time></trkpt><trkpt lat="39.92112720705718" lon="18.19318401506452"><ele>96.0</ele><time>2026-04-26T10:05:11Z</time></trkpt><trkpt lat="39.92110036257476" lon="18.193416462780117"><ele>96.0</ele><time>2026-04-26T10:05:12Z</time></trkpt><trkpt lat="39.92107584185664" lon="18.19364553541074"><ele>96.0</ele><time>2026-04-26T10:05:13Z</time></trkpt><trkpt lat="39.92104973146514" lon="18.193877952274235"><ele>96.0</ele><time>2026-04-26T10:05:14Z</time></trkpt><trkpt lat="39.9210226588799" lon="18.194117772124375"><ele>95.33333333333333</ele><time>2026-04-26T10:05:15Z</time></trkpt><trkpt lat="39.920993901796564" lon="18.194356639039555"><ele>94.66666666666666</ele><time>2026-04-26T10:05:16Z</time></trkpt><trkpt lat="39.92096900037836" lon="18.194595065148924"><ele>94.0</ele><time>2026-04-26T10:05:17Z</time></trkpt><trkpt lat="39.92094179941129" lon="18.194837459891257"><ele>94.0</ele><time>2026-04-26T10:05:18Z</time></trkpt><trkpt lat="39.920913048716365" lon="18.19507942043995"><ele>94.0</ele><time>2026-04-26T10:05:19Z</time></trkpt><trkpt lat="39.920884214757564" lon="18.19532583662019"><ele>94.0</ele><time>2026-04-26T10:05:20Z</time></trkpt><trkpt lat="39.920854701301856" lon="18.195574471151538"><ele>95.0</ele><time>2026-04-26T10:05:21Z</time></trkpt><trkpt lat="39.920825772143225" lon="18.19582248618998"><ele>96.0</ele><time>2026-04-26T10:05:22Z</time></trkpt><trkpt lat="39.920796150012954" lon="18.196072316335574"><ele>97.0</ele><time>2026-04-26T10:05:23Z</time></trkpt><trkpt lat="39.9207674154763" lon="18.196323443598065"><ele>97.0</ele><time>2026-04-26T10:05:24Z</time></trkpt><trkpt lat="39.92073875153131" lon="18.196571319394337"><ele>97.0</ele><time>2026-04-26T10:05:25Z</time></trkpt><trkpt lat="39.92070916854879" lon="18.19681844663368"><ele>97.0</ele><time>2026-04-26T10:05:26Z</time></trkpt><trkpt lat="39.92068130979249" lon="18.197065805474086"><ele>97.0</ele><time>2026-04-26T10:05:27Z</time></trkpt><trkpt lat="39.92065383778951" lon="18.19731571297868"><ele>97.0</ele><time>2026-04-26T10:05:28Z</time></trkpt><trkpt lat="39.92062683005926" lon="18.197568661572305"><ele>97.0</ele><time>2026-04-26T10:05:29Z</time></trkpt><trkpt lat="39.92059430283976" lon="18.197818105753115"><ele>97.0</ele><time>2026-04-26T10:05:30Z</time></trkpt><trkpt lat="39.920561614685546" lon="18.198068211872627"><ele>97.0</ele><time>2026-04-26T10:05:31Z</time></trkpt><trkpt lat="39.920532387707965" lon="18.19831646584614"><ele>97.0</ele><time>2026-04-26T10:05:32Z</time></trkpt><trkpt lat="39.92050356561214" lon="18.198564169021168"><ele>97.0</ele><time>2026-04-26T10:05:33Z</time></trkpt><trkpt lat="39.92047670183397" lon="18.19880756524139"><ele>97.0</ele><time>2026-04-26T10:05:34Z</time></trkpt><trkpt lat="39.920451265338826" lon="18.19905114216605"><ele>97.0</ele><time>2026-04-26T10:05:35Z</time></trkpt><trkpt lat="39.92042239909454" lon="18.199296286938626"><ele>97.66666666666667</ele><time>2026-04-26T10:05:36Z</time></trkpt><trkpt lat="39.920393206189466" lon="18.199539715536496"><ele>98.33333333333334</ele><time>2026-04-26T10:05:37Z</time></trkpt><trkpt lat="39.92036425687346" lon="18.19978665392761"><ele>99.0</ele><time>2026-04-26T10:05:38Z</time></trkpt><trkpt lat="39.92033310987678" lon="18.200035687699035"><ele>99.33333333333334</ele><time>2026-04-26T10:05:39Z</time></trkpt><trkpt lat="39.92030198976996" lon="18.200284387383924"><ele>99.66666666666667</ele><time>2026-04-26T10:05:40Z</time></trkpt><trkpt lat="39.92027232972018" lon="18.200533004559524"><ele>100.0</ele><time>2026-04-26T10:05:41Z</time></trkpt><trkpt lat="39.920244058248315" lon="18.200781390020467"><ele>100.66666666666667</ele><time>2026-04-26T10:05:42Z</time></trkpt><trkpt lat="39.92021332988702" lon="18.20103201641954"><ele>101.33333333333334</ele><time>2026-04-26T10:05:43Z</time></trkpt><trkpt lat="39.920182573453175" lon="18.20127902346368"><ele>102.0</ele><time>2026-04-26T10:05:44Z</time></trkpt><trkpt lat="39.92015533132995" lon="18.20152222196609"><ele>102.33333333333334</ele><time>2026-04-26T10:05:45Z</time></trkpt><trkpt lat="39.92012833691333" lon="18.201767425147672"><ele>102.66666666666667</ele><time>2026-04-26T10:05:46.001Z</time></trkpt><trkpt lat="39.9200995844504" lon="18.202012412217904"><ele>103.0</ele><time>2026-04-26T10:05:47.001Z</time></trkpt><trkpt lat="39.92007121948149" lon="18.20225531665511"><ele>103.0</ele><time>2026-04-26T10:05:48.001Z</time></trkpt><trkpt lat="39.92004482721506" lon="18.202494055325612"><ele>103.0</ele><time>2026-04-26T10:05:49.001Z</time></trkpt><trkpt lat="39.920017674114874" lon="18.20273171346233"><ele>103.0</ele><time>2026-04-26T10:05:50.001Z</time></trkpt><trkpt lat="39.91999066760053" lon="18.20296637757136"><ele>103.33333333333334</ele><time>2026-04-26T10:05:51.001Z</time></trkpt><trkpt lat="39.919962865230495" lon="18.203199063637705"><ele>103.66666666666666</ele><time>2026-04-26T10:05:52.001Z</time></trkpt><trkpt lat="39.91993679472037" lon="18.203428036782665"><ele>104.0</ele><time>2026-04-26T10:05:53.001Z</time></trkpt><trkpt lat="39.91990958930033" lon="18.203660731061795"><ele>104.0</ele><time>2026-04-26T10:05:54.001Z</time></trkpt><trkpt lat="39.919882352241565" lon="18.203893206575078"><ele>104.0</ele><time>2026-04-26T10:05:55.001Z</time></trkpt><trkpt lat="39.91985646350919" lon="18.2041244627766"><ele>104.0</ele><time>2026-04-26T10:05:56.001Z</time></trkpt><trkpt lat="39.919829949889575" lon="18.20435618157785"><ele>104.66666666666666</ele><time>2026-04-26T10:05:57.001Z</time></trkpt><trkpt lat="39.919803312254416" lon="18.204585051894497"><ele>105.33333333333334</ele><time>2026-04-26T10:05:58.001Z</time></trkpt><trkpt lat="39.919774637277044" lon="18.20481152810884"><ele>106.0</ele><time>2026-04-26T10:05:59.001Z</time></trkpt><trkpt lat="39.91974666702455" lon="18.205035363880363"><ele>107.0</ele><time>2026-04-26T10:06:00.001Z</time></trkpt><trkpt lat="39.91972094787698" lon="18.205259120128552"><ele>108.0</ele><time>2026-04-26T10:06:01.001Z</time></trkpt><trkpt lat="39.919698717915296" lon="18.205477857294856"><ele>109.0</ele><time>2026-04-26T10:06:02.001Z</time></trkpt><trkpt lat="39.91967475067299" lon="18.205696906882054"><ele>110.0</ele><time>2026-04-26T10:06:03.001Z</time></trkpt><trkpt lat="39.919650134921405" lon="18.205916973934176"><ele>111.0</ele><time>2026-04-26T10:06:04.001Z</time></trkpt><trkpt lat="39.91962719292497" lon="18.206137557820693"><ele>112.0</ele><time>2026-04-26T10:06:05Z</time></trkpt><trkpt lat="39.919605416282025" lon="18.206361365738154"><ele>112.33333333333334</ele><time>2026-04-26T10:06:06Z</time></trkpt><trkpt lat="39.919581497290096" lon="18.20658682894287"><ele>112.66666666666666</ele><time>2026-04-26T10:06:07Z</time></trkpt><trkpt lat="39.919555574461064" lon="18.2068113419965"><ele>113.0</ele><time>2026-04-26T10:06:08Z</time></trkpt><trkpt lat="39.91952519228975" lon="18.207035526397718"><ele>113.0</ele><time>2026-04-26T10:06:09Z</time></trkpt><trkpt lat="39.91948740557972" lon="18.207263049760957"><ele>113.0</ele><time>2026-04-26T10:06:10Z</time></trkpt><trkpt lat="39.91944622985628" lon="18.207491517234946"><ele>113.0</ele><time>2026-04-26T10:06:11Z</time></trkpt><trkpt lat="39.919406165291264" lon="18.20772284902313"><ele>113.33333333333333</ele><time>2026-04-26T10:06:12Z</time></trkpt><trkpt lat="39.919369629385294" lon="18.20795642308274"><ele>113.66666666666666</ele><time>2026-04-26T10:06:13Z</time></trkpt><trkpt lat="39.91933140454141" lon="18.20819245582496"><ele>114.0</ele><time>2026-04-26T10:06:14Z</time></trkpt><trkpt lat="39.91929216352024" lon="18.208431236441225"><ele>114.0</ele><time>2026-04-26T10:06:15Z</time></trkpt><trkpt lat="39.91925336816722" lon="18.20867077395497"><ele>114.0</ele><time>2026-04-26T10:06:16Z</time></trkpt><trkpt lat="39.919213485008335" lon="18.208912204492908"><ele>114.0</ele><time>2026-04-26T10:06:17Z</time></trkpt><trkpt lat="39.9191741698878" lon="18.20915325712083"><ele>114.0</ele><time>2026-04-26T10:06:18Z</time></trkpt><trkpt lat="39.91913345902592" lon="18.2093942227405"><ele>114.0</ele><time>2026-04-26T10:06:19Z</time></trkpt><trkpt lat="39.91909246631926" lon="18.209638140520386"><ele>114.0</ele><time>2026-04-26T10:06:20Z</time></trkpt><trkpt lat="39.919050731781375" lon="18.20988026333638"><ele>114.0</ele><time>2026-04-26T10:06:21Z</time></trkpt><trkpt lat="39.91901108319359" lon="18.21012099871571"><ele>114.0</ele><time>2026-04-26T10:06:22Z</time></trkpt><trkpt lat="39.918972039616925" lon="18.210361934928777"><ele>114.0</ele><time>2026-04-26T10:06:23Z</time></trkpt><trkpt lat="39.91893298545995" lon="18.210601838041594"><ele>114.33333333333334</ele><time>2026-04-26T10:06:24Z</time></trkpt><trkpt lat="39.91889401679787" lon="18.210841031132382"><ele>114.66666666666667</ele><time>2026-04-26T10:06:25Z</time></trkpt><trkpt lat="39.91885600606744" lon="18.211080127908335"><ele>115.0</ele><time>2026-04-26T10:06:26Z</time></trkpt><trkpt lat="39.918815076796534" lon="18.211318132844305"><ele>115.33333333333334</ele><time>2026-04-26T10:06:27Z</time></trkpt><trkpt lat="39.91877698767112" lon="18.211552687204758"><ele>115.66666666666666</ele><time>2026-04-26T10:06:28Z</time></trkpt><trkpt lat="39.9187395836082" lon="18.21178788823901"><ele>116.0</ele><time>2026-04-26T10:06:29Z</time></trkpt><trkpt lat="39.918700109439214" lon="18.21202420891371"><ele>116.0</ele><time>2026-04-26T10:06:30Z</time></trkpt><trkpt lat="39.9186608486475" lon="18.2122627728498"><ele>116.0</ele><time>2026-04-26T10:06:31Z</time></trkpt><trkpt lat="39.91862127185667" lon="18.212502305548977"><ele>116.0</ele><time>2026-04-26T10:06:32Z</time></trkpt><trkpt lat="39.91858120030611" lon="18.212739701421572"><ele>116.33333333333333</ele><time>2026-04-26T10:06:33Z</time></trkpt><trkpt lat="39.918540052027765" lon="18.212976356539176"><ele>116.66666666666666</ele><time>2026-04-26T10:06:34Z</time></trkpt><trkpt lat="39.91849769416418" lon="18.213215045524063"><ele>117.0</ele><time>2026-04-26T10:06:35Z</time></trkpt><trkpt lat="39.91845679691218" lon="18.21345472370395"><ele>117.0</ele><time>2026-04-26T10:06:36Z</time></trkpt><trkpt lat="39.91841711992202" lon="18.213694243548723"><ele>117.0</ele><time>2026-04-26T10:06:37Z</time></trkpt><trkpt lat="39.91837874411002" lon="18.213932411642045"><ele>117.0</ele><time>2026-04-26T10:06:38Z</time></trkpt><trkpt lat="39.91834032695844" lon="18.214172502019025"><ele>117.33333333333334</ele><time>2026-04-26T10:06:39.001Z</time></trkpt><trkpt lat="39.91830279090492" lon="18.214408948494363"><ele>117.66666666666667</ele><time>2026-04-26T10:06:40.001Z</time></trkpt><trkpt lat="39.918265335587" lon="18.214647190319944"><ele>118.0</ele><time>2026-04-26T10:06:41.001Z</time></trkpt><trkpt lat="39.918230401263884" lon="18.214886653814496"><ele>118.0</ele><time>2026-04-26T10:06:42.001Z</time></trkpt><trkpt lat="39.91819533561459" lon="18.21513073472128"><ele>118.0</ele><time>2026-04-26T10:06:43.001Z</time></trkpt><trkpt lat="39.91816102201408" lon="18.215371671194706"><ele>118.0</ele><time>2026-04-26T10:06:44.001Z</time></trkpt><trkpt lat="39.918126197939955" lon="18.215613190063113"><ele>118.66666666666667</ele><time>2026-04-26T10:06:45.001Z</time></trkpt><trkpt lat="39.918093065238885" lon="18.215851460103586"><ele>119.33333333333334</ele><time>2026-04-26T10:06:46.001Z</time></trkpt><trkpt lat="39.918059516479936" lon="18.21608833039984"><ele>120.0</ele><time>2026-04-26T10:06:47.001Z</time></trkpt><trkpt lat="39.918027942219524" lon="18.21632475911138"><ele>121.0</ele><time>2026-04-26T10:06:48.001Z</time></trkpt><trkpt lat="39.91799533969114" lon="18.21656152187442"><ele>122.0</ele><time>2026-04-26T10:06:49.001Z</time></trkpt><trkpt lat="39.917963621013946" lon="18.216795508987833"><ele>123.0</ele><time>2026-04-26T10:06:50.001Z</time></trkpt><trkpt lat="39.91793044764507" lon="18.21703302651842"><ele>123.0</ele><time>2026-04-26T10:06:51.001Z</time></trkpt><trkpt lat="39.91789768556564" lon="18.217270098163734"><ele>123.0</ele><time>2026-04-26T10:06:52.001Z</time></trkpt><trkpt lat="39.91786626875288" lon="18.217507052969587"><ele>123.0</ele><time>2026-04-26T10:06:53.001Z</time></trkpt><trkpt lat="39.917834541485036" lon="18.217742658964326"><ele>123.66666666666666</ele><time>2026-04-26T10:06:54.001Z</time></trkpt><trkpt lat="39.91780003586773" lon="18.217981325674476"><ele>124.33333333333333</ele><time>2026-04-26T10:06:55.001Z</time></trkpt><trkpt lat="39.91776316067576" lon="18.218215766436703"><ele>125.0</ele><time>2026-04-26T10:06:56.001Z</time></trkpt><trkpt lat="39.91772911163301" lon="18.21845241322564"><ele>125.33333333333333</ele><time>2026-04-26T10:06:57.001Z</time></trkpt><trkpt lat="39.917698776547866" lon="18.218692650800826"><ele>125.66666666666666</ele><time>2026-04-26T10:06:58.001Z</time></trkpt><trkpt lat="39.91767328384985" lon="18.21893245088044"><ele>126.0</ele><time>2026-04-26T10:06:59.001Z</time></trkpt><trkpt lat="39.917643579725016" lon="18.21917179299013"><ele>126.33333333333334</ele><time>2026-04-26T10:07:00.001Z</time></trkpt><trkpt lat="39.91761399955192" lon="18.21940737115463"><ele>126.66666666666667</ele><time>2026-04-26T10:07:01.001Z</time></trkpt><trkpt lat="39.917583248467366" lon="18.21964058284328"><ele>127.0</ele><time>2026-04-26T10:07:02.001Z</time></trkpt><trkpt lat="39.91755385260224" lon="18.219873677971467"><ele>127.0</ele><time>2026-04-26T10:07:03.001Z</time></trkpt><trkpt lat="39.91752275349096" lon="18.22010805757606"><ele>127.0</ele><time>2026-04-26T10:07:04.001Z</time></trkpt><trkpt lat="39.91749350089786" lon="18.220341546471698"><ele>127.0</ele><time>2026-04-26T10:07:05.001Z</time></trkpt><trkpt lat="39.91746313892175" lon="18.220576164294997"><ele>127.0</ele><time>2026-04-26T10:07:06.001Z</time></trkpt><trkpt lat="39.91743412933893" lon="18.22080764777862"><ele>127.0</ele><time>2026-04-26T10:07:07.001Z</time></trkpt><trkpt lat="39.917403664367114" lon="18.221040810120282"><ele>127.0</ele><time>2026-04-26T10:07:08.001Z</time></trkpt><trkpt lat="39.91737188696611" lon="18.22127343611795"><ele>128.0</ele><time>2026-04-26T10:07:09.001Z</time></trkpt><trkpt lat="39.91734144661728" lon="18.221503062513843"><ele>129.0</ele><time>2026-04-26T10:07:10.001Z</time></trkpt><trkpt lat="39.91731235928396" lon="18.221732787778706"><ele>130.0</ele><time>2026-04-26T10:07:11.001Z</time></trkpt><trkpt lat="39.91728290018528" lon="18.221963112799603"><ele>130.0</ele><time>2026-04-26T10:07:12.001Z</time></trkpt><trkpt lat="39.91725318959547" lon="18.222195553484536"><ele>130.0</ele><time>2026-04-26T10:07:13.001Z</time></trkpt><trkpt lat="39.91722351236179" lon="18.222424298642277"><ele>130.0</ele><time>2026-04-26T10:07:14.001Z</time></trkpt><trkpt lat="39.91719304752274" lon="18.222654522743753"><ele>130.66666666666669</ele><time>2026-04-26T10:07:15.001Z</time></trkpt><trkpt lat="39.9171639423642" lon="18.22288535232865"><ele>131.33333333333334</ele><time>2026-04-26T10:07:16.001Z</time></trkpt><trkpt lat="39.91713270352619" lon="18.223119398681682"><ele>132.0</ele><time>2026-04-26T10:07:17.001Z</time></trkpt><trkpt lat="39.91710078739316" lon="18.223353235517177"><ele>132.33333333333334</ele><time>2026-04-26T10:07:18.001Z</time></trkpt><trkpt lat="39.91706929748256" lon="18.223588882459275"><ele>132.66666666666669</ele><time>2026-04-26T10:07:19.001Z</time></trkpt><trkpt lat="39.91703766641002" lon="18.223824484294983"><ele>133.0</ele><time>2026-04-26T10:07:20.001Z</time></trkpt><trkpt lat="39.91700702883216" lon="18.224057825380594"><ele>133.0</ele><time>2026-04-26T10:07:21.001Z</time></trkpt><trkpt lat="39.91697468603525" lon="18.22428931219262"><ele>133.0</ele><time>2026-04-26T10:07:22.001Z</time></trkpt><trkpt lat="39.91693697545249" lon="18.224518874177573"><ele>133.0</ele><time>2026-04-26T10:07:23.001Z</time></trkpt><trkpt lat="39.91689545507955" lon="18.224745540870174"><ele>133.66666666666669</ele><time>2026-04-26T10:07:24.001Z</time></trkpt><trkpt lat="39.91684998599818" lon="18.224969103020694"><ele>134.33333333333334</ele><time>2026-04-26T10:07:25.001Z</time></trkpt><trkpt lat="39.91680056464297" lon="18.225189225424504"><ele>135.0</ele><time>2026-04-26T10:07:26.001Z</time></trkpt><trkpt lat="39.9167469021549" lon="18.22540964983349"><ele>134.33333333333334</ele><time>2026-04-26T10:07:27.001Z</time></trkpt><trkpt lat="39.916690188269264" lon="18.225627810286955"><ele>133.66666666666669</ele><time>2026-04-26T10:07:28.001Z</time></trkpt><trkpt lat="39.91662830954349" lon="18.22584422905579"><ele>133.0</ele><time>2026-04-26T10:07:29.001Z</time></trkpt><trkpt lat="39.916561248410844" lon="18.226058086510122"><ele>133.0</ele><time>2026-04-26T10:07:30.001Z</time></trkpt><trkpt lat="39.916494092510675" lon="18.226268921696267"><ele>133.0</ele><time>2026-04-26T10:07:31.001Z</time></trkpt><trkpt lat="39.916426685056415" lon="18.226478980837125"><ele>133.0</ele><time>2026-04-26T10:07:32.001Z</time></trkpt><trkpt lat="39.9163580753452" lon="18.226690094404045"><ele>133.0</ele><time>2026-04-26T10:07:33.001Z</time></trkpt><trkpt lat="39.916287905350316" lon="18.2269016880353"><ele>133.0</ele><time>2026-04-26T10:07:34.001Z</time></trkpt><trkpt lat="39.916215524712975" lon="18.22710941754353"><ele>133.0</ele><time>2026-04-26T10:07:35.001Z</time></trkpt><trkpt lat="39.91614201866849" lon="18.227315817884524"><ele>133.0</ele><time>2026-04-26T10:07:36.001Z</time></trkpt><trkpt lat="39.91606890359727" lon="18.227519516126904"><ele>133.0</ele><time>2026-04-26T10:07:37.001Z</time></trkpt><trkpt lat="39.91599102161963" lon="18.227720819900426"><ele>133.0</ele><time>2026-04-26T10:07:38.001Z</time></trkpt><trkpt lat="39.91590808579557" lon="18.227914339779474"><ele>132.66666666666669</ele><time>2026-04-26T10:07:39.001Z</time></trkpt><trkpt lat="39.91582175651764" lon="18.22810086641173"><ele>132.33333333333334</ele><time>2026-04-26T10:07:40.001Z</time></trkpt><trkpt lat="39.91573425329875" lon="18.228291572364665"><ele>132.0</ele><time>2026-04-26T10:07:41.001Z</time></trkpt><trkpt lat="39.91564402336361" lon="18.22848011811704"><ele>132.0</ele><time>2026-04-26T10:07:42.001Z</time></trkpt><trkpt lat="39.91554890995863" lon="18.228668279925465"><ele>132.0</ele><time>2026-04-26T10:07:43.001Z</time></trkpt><trkpt lat="39.915453763563164" lon="18.228856016923874"><ele>132.0</ele><time>2026-04-26T10:07:44.001Z</time></trkpt><trkpt lat="39.91535769914073" lon="18.229039941778876"><ele>132.0</ele><time>2026-04-26T10:07:45.001Z</time></trkpt><trkpt lat="39.915256981593046" lon="18.22921822830805"><ele>132.0</ele><time>2026-04-26T10:07:46.001Z</time></trkpt><trkpt lat="39.91515515842161" lon="18.229396394672957"><ele>132.0</ele><time>2026-04-26T10:07:47.001Z</time></trkpt><trkpt lat="39.91505121738811" lon="18.229572475819516"><ele>132.0</ele><time>2026-04-26T10:07:48.001Z</time></trkpt><trkpt lat="39.914945473918095" lon="18.22974350015509"><ele>132.0</ele><time>2026-04-26T10:07:49.001Z</time></trkpt><trkpt lat="39.91483602908398" lon="18.229910857682142"><ele>132.0</ele><time>2026-04-26T10:07:50.001Z</time></trkpt><trkpt lat="39.9147223925627" lon="18.230078233449117"><ele>132.33333333333334</ele><time>2026-04-26T10:07:51.001Z</time></trkpt><trkpt lat="39.914604597336194" lon="18.23023951509876"><ele>132.66666666666669</ele><time>2026-04-26T10:07:52.001Z</time></trkpt><trkpt lat="39.91448687230287" lon="18.23039797330979"><ele>133.0</ele><time>2026-04-26T10:07:53.001Z</time></trkpt><trkpt lat="39.91436567908064" lon="18.230554919085165"><ele>133.33333333333334</ele><time>2026-04-26T10:07:54.001Z</time></trkpt><trkpt lat="39.91424313533687" lon="18.23071321702891"><ele>133.66666666666666</ele><time>2026-04-26T10:07:55.001Z</time></trkpt><trkpt lat="39.914119598773986" lon="18.23086758712324"><ele>134.0</ele><time>2026-04-26T10:07:56.001Z</time></trkpt><trkpt lat="39.91399137590061" lon="18.23101861582984"><ele>134.0</ele><time>2026-04-26T10:07:57.001Z</time></trkpt><trkpt lat="39.913861407438056" lon="18.231165890457877"><ele>134.0</ele><time>2026-04-26T10:07:58.001Z</time></trkpt><trkpt lat="39.91372920550992" lon="18.231310349354416"><ele>134.0</ele><time>2026-04-26T10:07:59.001Z</time></trkpt><trkpt lat="39.91359370553245" lon="18.231451951475588"><ele>134.0</ele><time>2026-04-26T10:08:00.001Z</time></trkpt><trkpt lat="39.913459161473945" lon="18.231588388069483"><ele>134.0</ele><time>2026-04-26T10:08:01.001Z</time></trkpt><trkpt lat="39.9133192077729" lon="18.23172020773629"><ele>134.0</ele><time>2026-04-26T10:08:02.001Z</time></trkpt><trkpt lat="39.91317571004607" lon="18.23184849646265"><ele>134.0</ele><time>2026-04-26T10:08:03.001Z</time></trkpt><trkpt lat="39.91303083438237" lon="18.231971055557278"><ele>134.0</ele><time>2026-04-26T10:08:04.001Z</time></trkpt><trkpt lat="39.91288501382839" lon="18.23209094386054"><ele>134.0</ele><time>2026-04-26T10:08:05.001Z</time></trkpt><trkpt lat="39.91274113246655" lon="18.23221133495655"><ele>134.0</ele><time>2026-04-26T10:08:06.001Z</time></trkpt><trkpt lat="39.91259229519007" lon="18.23233134596543"><ele>134.0</ele><time>2026-04-26T10:08:07.001Z</time></trkpt><trkpt lat="39.91244347427367" lon="18.232444073671452"><ele>134.0</ele><time>2026-04-26T10:08:08.001Z</time></trkpt><trkpt lat="39.91229261856699" lon="18.232551872138202"><ele>134.0</ele><time>2026-04-26T10:08:09.001Z</time></trkpt><trkpt lat="39.912141941673276" lon="18.232655333205035"><ele>134.0</ele><time>2026-04-26T10:08:10.001Z</time></trkpt><trkpt lat="39.91198977033504" lon="18.232754376701333"><ele>134.0</ele><time>2026-04-26T10:08:11.001Z</time></trkpt><trkpt lat="39.91183496376014" lon="18.232845426053117"><ele>133.66666666666666</ele><time>2026-04-26T10:08:12Z</time></trkpt><trkpt lat="39.91167871605369" lon="18.232937759923182"><ele>133.33333333333334</ele><time>2026-04-26T10:08:13Z</time></trkpt><trkpt lat="39.91152203053959" lon="18.23303214616134"><ele>133.0</ele><time>2026-04-26T10:08:14.001Z</time></trkpt><trkpt lat="39.91136556634523" lon="18.23312450394225"><ele>133.0</ele><time>2026-04-26T10:08:15Z</time></trkpt><trkpt lat="39.91120798174929" lon="18.233218537525364"><ele>133.0</ele><time>2026-04-26T10:08:16Z</time></trkpt><trkpt lat="39.91104990621835" lon="18.233312294764115"><ele>133.0</ele><time>2026-04-26T10:08:17.001Z</time></trkpt><trkpt lat="39.91089073440082" lon="18.233405652702523"><ele>132.66666666666669</ele><time>2026-04-26T10:08:18.001Z</time></trkpt><trkpt lat="39.910734003107784" lon="18.23349867638387"><ele>132.33333333333334</ele><time>2026-04-26T10:08:19.001Z</time></trkpt><trkpt lat="39.91057571615893" lon="18.233589916193818"><ele>132.0</ele><time>2026-04-26T10:08:20.001Z</time></trkpt><trkpt lat="39.910420233705565" lon="18.233681876826118"><ele>132.0</ele><time>2026-04-26T10:08:21Z</time></trkpt><trkpt lat="39.910264786377084" lon="18.233776202613427"><ele>132.0</ele><time>2026-04-26T10:08:22Z</time></trkpt><trkpt lat="39.91011002786877" lon="18.23387146555627"><ele>132.0</ele><time>2026-04-26T10:08:23.001Z</time></trkpt><trkpt lat="39.90995572520315" lon="18.23397041972251"><ele>132.0</ele><time>2026-04-26T10:08:24Z</time></trkpt><trkpt lat="39.90980287665866" lon="18.23407441078663"><ele>132.0</ele><time>2026-04-26T10:08:25Z</time></trkpt><trkpt lat="39.90965328672173" lon="18.23418395310438"><ele>132.0</ele><time>2026-04-26T10:08:26Z</time></trkpt><trkpt lat="39.909507150902705" lon="18.2342968473656"><ele>132.0</ele><time>2026-04-26T10:08:27Z</time></trkpt><trkpt lat="39.90936075439731" lon="18.23441504076593"><ele>132.0</ele><time>2026-04-26T10:08:28Z</time></trkpt><trkpt lat="39.909217191012104" lon="18.23453817010703"><ele>132.0</ele><time>2026-04-26T10:08:29Z</time></trkpt><trkpt lat="39.909078524173516" lon="18.2346679271084"><ele>131.66666666666666</ele><time>2026-04-26T10:08:30Z</time></trkpt><trkpt lat="39.9089424217062" lon="18.234805065216626"><ele>131.33333333333331</ele><time>2026-04-26T10:08:31Z</time></trkpt><trkpt lat="39.90881098551117" lon="18.23494894697512"><ele>131.0</ele><time>2026-04-26T10:08:32Z</time></trkpt><trkpt lat="39.908683393730556" lon="18.235099918700097"><ele>131.0</ele><time>2026-04-26T10:08:33Z</time></trkpt><trkpt lat="39.90856041522821" lon="18.23525564704131"><ele>131.0</ele><time>2026-04-26T10:08:34Z</time></trkpt><trkpt lat="39.908437558290636" lon="18.235419335167286"><ele>131.0</ele><time>2026-04-26T10:08:35Z</time></trkpt><trkpt lat="39.90831864585074" lon="18.235584611868546"><ele>130.66666666666666</ele><time>2026-04-26T10:08:36Z</time></trkpt><trkpt lat="39.90820472793926" lon="18.2357553013157"><ele>130.33333333333334</ele><time>2026-04-26T10:08:37Z</time></trkpt><trkpt lat="39.908095750076285" lon="18.235932068069594"><ele>130.0</ele><time>2026-04-26T10:08:38Z</time></trkpt><trkpt lat="39.90799450381134" lon="18.236108350648404"><ele>130.0</ele><time>2026-04-26T10:08:39Z</time></trkpt><trkpt lat="39.907896186486404" lon="18.236291879423685"><ele>130.0</ele><time>2026-04-26T10:08:40Z</time></trkpt><trkpt lat="39.90780111504891" lon="18.2364806681666"><ele>130.0</ele><time>2026-04-26T10:08:41Z</time></trkpt><trkpt lat="39.90771244263652" lon="18.23667272491823"><ele>129.33333333333334</ele><time>2026-04-26T10:08:42Z</time></trkpt><trkpt lat="39.907624863868826" lon="18.23686514519911"><ele>128.66666666666666</ele><time>2026-04-26T10:08:43Z</time></trkpt><trkpt lat="39.907541031367735" lon="18.237059137295212"><ele>128.0</ele><time>2026-04-26T10:08:44Z</time></trkpt><trkpt lat="39.90745793502342" lon="18.237255390826235"><ele>126.0</ele><time>2026-04-26T10:08:45Z</time></trkpt><trkpt lat="39.90737803464613" lon="18.237450507708928"><ele>124.0</ele><time>2026-04-26T10:08:46Z</time></trkpt><trkpt lat="39.9072944145438" lon="18.23764610855"><ele>122.0</ele><time>2026-04-26T10:08:47Z</time></trkpt><trkpt lat="39.907219999385624" lon="18.23784336314788"><ele>122.0</ele><time>2026-04-26T10:08:48Z</time></trkpt><trkpt lat="39.9071381517889" lon="18.238040866520215"><ele>122.0</ele><time>2026-04-26T10:08:49Z</time></trkpt><trkpt lat="39.90705597553254" lon="18.23823808390821"><ele>122.0</ele><time>2026-04-26T10:08:50Z</time></trkpt><trkpt lat="39.90697273959403" lon="18.238432009018403"><ele>121.66666666666666</ele><time>2026-04-26T10:08:51Z</time></trkpt><trkpt lat="39.90689383401115" lon="18.23863085369"><ele>121.33333333333334</ele><time>2026-04-26T10:08:52Z</time></trkpt><trkpt lat="39.906814625612974" lon="18.238826376057915"><ele>121.0</ele><time>2026-04-26T10:08:53Z</time></trkpt><trkpt lat="39.90673769356617" lon="18.239026508255748"><ele>121.0</ele><time>2026-04-26T10:08:54Z</time></trkpt><trkpt lat="39.90665524648067" lon="18.239223980507838"><ele>121.0</ele><time>2026-04-26T10:08:55Z</time></trkpt><trkpt lat="39.90657089840622" lon="18.239421797405466"><ele>121.0</ele><time>2026-04-26T10:08:56Z</time></trkpt><trkpt lat="39.90648707946989" lon="18.239617622782767"><ele>118.66666666666667</ele><time>2026-04-26T10:08:57Z</time></trkpt><trkpt lat="39.906406178469595" lon="18.23981302889544"><ele>116.33333333333334</ele><time>2026-04-26T10:08:58Z</time></trkpt><trkpt lat="39.90632507779223" lon="18.240009926621067"><ele>114.0</ele><time>2026-04-26T10:08:59Z</time></trkpt><trkpt lat="39.90624848075459" lon="18.24021061660636"><ele>114.0</ele><time>2026-04-26T10:09:00Z</time></trkpt><trkpt lat="39.90616606851627" lon="18.240408424244585"><ele>114.0</ele><time>2026-04-26T10:09:01Z</time></trkpt><trkpt lat="39.906084428994056" lon="18.24060472811327"><ele>114.0</ele><time>2026-04-26T10:09:02Z</time></trkpt><trkpt lat="39.90600230146588" lon="18.24080136889887"><ele>113.33333333333334</ele><time>2026-04-26T10:09:03Z</time></trkpt><trkpt lat="39.9059224054388" lon="18.241003389300143"><ele>112.66666666666667</ele><time>2026-04-26T10:09:04Z</time></trkpt><trkpt lat="39.90584035323815" lon="18.241202018458008"><ele>112.0</ele><time>2026-04-26T10:09:05Z</time></trkpt><trkpt lat="39.90576012258314" lon="18.241399786827643"><ele>111.33333333333334</ele><time>2026-04-26T10:09:06Z</time></trkpt><trkpt lat="39.905674914148996" lon="18.241594944740978"><ele>110.66666666666666</ele><time>2026-04-26T10:09:07Z</time></trkpt><trkpt lat="39.90558942751199" lon="18.241788302819387"><ele>110.0</ele><time>2026-04-26T10:09:08Z</time></trkpt><trkpt lat="39.9055061827218" lon="18.241986298526168"><ele>110.0</ele><time>2026-04-26T10:09:09Z</time></trkpt><trkpt lat="39.90542536531648" lon="18.242183075798934"><ele>110.0</ele><time>2026-04-26T10:09:10Z</time></trkpt><trkpt lat="39.90534261632203" lon="18.24237680575986"><ele>110.0</ele><time>2026-04-26T10:09:11Z</time></trkpt><trkpt lat="39.905261387266215" lon="18.242573472172083"><ele>109.0</ele><time>2026-04-26T10:09:12Z</time></trkpt><trkpt lat="39.90517955245593" lon="18.242769334702288"><ele>108.0</ele><time>2026-04-26T10:09:13Z</time></trkpt><trkpt lat="39.90509447537797" lon="18.242964784218987"><ele>107.0</ele><time>2026-04-26T10:09:14Z</time></trkpt><trkpt lat="39.905008527298406" lon="18.243153594645836"><ele>107.0</ele><time>2026-04-26T10:09:15Z</time></trkpt><trkpt lat="39.90492212782111" lon="18.243345038418916"><ele>107.0</ele><time>2026-04-26T10:09:16Z</time></trkpt><trkpt lat="39.90483190618548" lon="18.24353401632918"><ele>107.0</ele><time>2026-04-26T10:09:17Z</time></trkpt><trkpt lat="39.904736656045344" lon="18.243720531265485"><ele>107.0</ele><time>2026-04-26T10:09:18Z</time></trkpt><trkpt lat="39.90463847914511" lon="18.243904366454554"><ele>107.0</ele><time>2026-04-26T10:09:19Z</time></trkpt><trkpt lat="39.90454018249849" lon="18.24408492924937"><ele>107.0</ele><time>2026-04-26T10:09:20Z</time></trkpt><trkpt lat="39.90443697286134" lon="18.244265421076097"><ele>106.0</ele><time>2026-04-26T10:09:21Z</time></trkpt><trkpt lat="39.90433352094528" lon="18.244445811183965"><ele>105.0</ele><time>2026-04-26T10:09:22Z</time></trkpt><trkpt lat="39.90422921023281" lon="18.24461978267146"><ele>104.0</ele><time>2026-04-26T10:09:23Z</time></trkpt><trkpt lat="39.90412191743459" lon="18.24478974768345"><ele>103.0</ele><time>2026-04-26T10:09:24Z</time></trkpt><trkpt lat="39.90401457151471" lon="18.244956979999888"><ele>102.0</ele><time>2026-04-26T10:09:25Z</time></trkpt><trkpt lat="39.90390141427279" lon="18.24512028125157"><ele>101.0</ele><time>2026-04-26T10:09:26Z</time></trkpt><trkpt lat="39.90378458473806" lon="18.245283803073818"><ele>101.0</ele><time>2026-04-26T10:09:27Z</time></trkpt><trkpt lat="39.903666672780304" lon="18.245446210981235"><ele>101.0</ele><time>2026-04-26T10:09:28Z</time></trkpt><trkpt lat="39.9035458351668" lon="18.245606450414552"><ele>101.0</ele><time>2026-04-26T10:09:29Z</time></trkpt><trkpt lat="39.90342539786787" lon="18.245764029696478"><ele>101.0</ele><time>2026-04-26T10:09:30Z</time></trkpt><trkpt lat="39.90330393740248" lon="18.245924741715402"><ele>101.0</ele><time>2026-04-26T10:09:31Z</time></trkpt><trkpt lat="39.90318222550785" lon="18.24608637700313"><ele>101.0</ele><time>2026-04-26T10:09:32Z</time></trkpt><trkpt lat="39.903059673945506" lon="18.24624782251929"><ele>101.0</ele><time>2026-04-26T10:09:33Z</time></trkpt><trkpt lat="39.90293764310988" lon="18.246407443210966"><ele>101.0</ele><time>2026-04-26T10:09:34Z</time></trkpt><trkpt lat="39.90281667982326" lon="18.246565163506922"><ele>101.0</ele><time>2026-04-26T10:09:35Z</time></trkpt><trkpt lat="39.902695455173415" lon="18.246725832487865"><ele>101.0</ele><time>2026-04-26T10:09:36Z</time></trkpt><trkpt lat="39.90257780351456" lon="18.246886195939602"><ele>101.0</ele><time>2026-04-26T10:09:37Z</time></trkpt><trkpt lat="39.902456678393776" lon="18.247048835638072"><ele>101.0</ele><time>2026-04-26T10:09:38Z</time></trkpt><trkpt lat="39.902331125379185" lon="18.247212144902246"><ele>100.66666666666666</ele><time>2026-04-26T10:09:39Z</time></trkpt><trkpt lat="39.90220835375713" lon="18.247382162611746"><ele>100.33333333333334</ele><time>2026-04-26T10:09:40Z</time></trkpt><trkpt lat="39.902081050543536" lon="18.247552270079833"><ele>100.0</ele><time>2026-04-26T10:09:41Z</time></trkpt><trkpt lat="39.90195193659471" lon="18.247721285547318"><ele>100.0</ele><time>2026-04-26T10:09:42Z</time></trkpt><trkpt lat="39.90182542911028" lon="18.24789202631913"><ele>100.0</ele><time>2026-04-26T10:09:43Z</time></trkpt><trkpt lat="39.901700086476055" lon="18.248065615000833"><ele>100.0</ele><time>2026-04-26T10:09:44Z</time></trkpt><trkpt lat="39.90157377035153" lon="18.248237327772323"><ele>100.0</ele><time>2026-04-26T10:09:45Z</time></trkpt><trkpt lat="39.90144609595181" lon="18.248409767250763"><ele>100.0</ele><time>2026-04-26T10:09:46Z</time></trkpt><trkpt lat="39.90132001312994" lon="18.248581504633275"><ele>100.0</ele><time>2026-04-26T10:09:47Z</time></trkpt><trkpt lat="39.901192705215806" lon="18.248752686024652"><ele>100.0</ele><time>2026-04-26T10:09:48Z</time></trkpt><trkpt lat="39.90106250355823" lon="18.248925173640338"><ele>100.0</ele><time>2026-04-26T10:09:49Z</time></trkpt><trkpt lat="39.90093347556561" lon="18.249101029559498"><ele>100.0</ele><time>2026-04-26T10:09:50Z</time></trkpt><trkpt lat="39.9008012489054" lon="18.2492804505012"><ele>100.0</ele><time>2026-04-26T10:09:51Z</time></trkpt><trkpt lat="39.9006672716255" lon="18.249460207320546"><ele>100.0</ele><time>2026-04-26T10:09:52Z</time></trkpt><trkpt lat="39.90053200602177" lon="18.24964207338826"><ele>100.0</ele><time>2026-04-26T10:09:53Z</time></trkpt><trkpt lat="39.90039832865338" lon="18.249821343198345"><ele>100.0</ele><time>2026-04-26T10:09:54Z</time></trkpt><trkpt lat="39.90026378354229" lon="18.25000004112595"><ele>100.0</ele><time>2026-04-26T10:09:55.001Z</time></trkpt><trkpt lat="39.90013068462528" lon="18.25017903550268"><ele>100.0</ele><time>2026-04-26T10:09:56.001Z</time></trkpt><trkpt lat="39.89999474008929" lon="18.250360177693928"><ele>100.33333333333334</ele><time>2026-04-26T10:09:57.001Z</time></trkpt><trkpt lat="39.899863673816554" lon="18.25054349830541"><ele>100.66666666666666</ele><time>2026-04-26T10:09:58.001Z</time></trkpt><trkpt lat="39.899730039263545" lon="18.250727019934573"><ele>101.0</ele><time>2026-04-26T10:09:59.001Z</time></trkpt><trkpt lat="39.89959282770782" lon="18.250905023563714"><ele>101.0</ele><time>2026-04-26T10:10:00.001Z</time></trkpt><trkpt lat="39.89945474413657" lon="18.251086070303444"><ele>101.0</ele><time>2026-04-26T10:10:01.001Z</time></trkpt><trkpt lat="39.89931755004381" lon="18.251269095068235"><ele>101.0</ele><time>2026-04-26T10:10:02.001Z</time></trkpt><trkpt lat="39.89918256117501" lon="18.251452734712156"><ele>100.33333333333333</ele><time>2026-04-26T10:10:03.001Z</time></trkpt><trkpt lat="39.8990478912127" lon="18.251633210206293"><ele>99.66666666666666</ele><time>2026-04-26T10:10:04.001Z</time></trkpt><trkpt lat="39.89891297733081" lon="18.251817240523334"><ele>99.0</ele><time>2026-04-26T10:10:05.001Z</time></trkpt><trkpt lat="39.89877912191259" lon="18.252000294565075"><ele>99.0</ele><time>2026-04-26T10:10:06.001Z</time></trkpt><trkpt lat="39.898644822071695" lon="18.252181118755136"><ele>99.0</ele><time>2026-04-26T10:10:07.001Z</time></trkpt><trkpt lat="39.89850899320577" lon="18.25236236547558"><ele>99.0</ele><time>2026-04-26T10:10:08.001Z</time></trkpt><trkpt lat="39.89837383567717" lon="18.25254548518556"><ele>99.33333333333334</ele><time>2026-04-26T10:10:09.001Z</time></trkpt><trkpt lat="39.89823948277083" lon="18.252725269188478"><ele>99.66666666666667</ele><time>2026-04-26T10:10:10.001Z</time></trkpt><trkpt lat="39.89810464221926" lon="18.252907413634006"><ele>100.0</ele><time>2026-04-26T10:10:11.001Z</time></trkpt><trkpt lat="39.89797150723539" lon="18.253087425105686"><ele>100.33333333333334</ele><time>2026-04-26T10:10:12.001Z</time></trkpt><trkpt lat="39.89783537774766" lon="18.253269675548413"><ele>100.66666666666666</ele><time>2026-04-26T10:10:13.001Z</time></trkpt><trkpt lat="39.89770083648447" lon="18.25345208611782"><ele>101.0</ele><time>2026-04-26T10:10:14.001Z</time></trkpt><trkpt lat="39.897563219726834" lon="18.253633861297956"><ele>101.0</ele><time>2026-04-26T10:10:15.001Z</time></trkpt><trkpt lat="39.89742719941064" lon="18.253817765085234"><ele>101.0</ele><time>2026-04-26T10:10:16.001Z</time></trkpt><trkpt lat="39.897292622208134" lon="18.254001564187817"><ele>101.0</ele><time>2026-04-26T10:10:17Z</time></trkpt><trkpt lat="39.89715773522851" lon="18.254183456519584"><ele>101.0</ele><time>2026-04-26T10:10:18Z</time></trkpt><trkpt lat="39.89702821756931" lon="18.254364707565188"><ele>101.0</ele><time>2026-04-26T10:10:19Z</time></trkpt><trkpt lat="39.89690490441846" lon="18.25453708956094"><ele>101.0</ele><time>2026-04-26T10:10:20Z</time></trkpt><trkpt lat="39.896783017100766" lon="18.25470088333269"><ele>100.0</ele><time>2026-04-26T10:10:21Z</time></trkpt><trkpt lat="39.89666949212621" lon="18.254848971849682"><ele>99.0</ele><time>2026-04-26T10:10:22Z</time></trkpt><trkpt lat="39.89656136107008" lon="18.25499302336312"><ele>98.0</ele><time>2026-04-26T10:10:23Z</time></trkpt><trkpt lat="39.8964597428636" lon="18.255126191139226"><ele>98.0</ele><time>2026-04-26T10:10:24Z</time></trkpt><trkpt lat="39.896367362291606" lon="18.25525506900334"><ele>98.0</ele><time>2026-04-26T10:10:25Z</time></trkpt><trkpt lat="39.89628033121213" lon="18.255384150271368"><ele>98.0</ele><time>2026-04-26T10:10:26Z</time></trkpt><trkpt lat="39.89620531051738" lon="18.25549743315346"><ele>98.0</ele><time>2026-04-26T10:10:27Z</time></trkpt><trkpt lat="39.89613116579559" lon="18.255605303570256"><ele>98.2</ele><time>2026-04-26T10:10:28Z</time></trkpt><trkpt lat="39.89605660726926" lon="18.255710947026255"><ele>98.4</ele><time>2026-04-26T10:10:29Z</time></trkpt><trkpt lat="39.89598722782017" lon="18.25581454654872"><ele>98.60000000000001</ele><time>2026-04-26T10:10:30Z</time></trkpt><trkpt lat="39.89592464339381" lon="18.255916217824442"><ele>98.80000000000001</ele><time>2026-04-26T10:10:31Z</time></trkpt><trkpt lat="39.89586446299787" lon="18.256017170165627"><ele>99.0</ele><time>2026-04-26T10:10:32Z</time></trkpt><trkpt lat="39.8958102324185" lon="18.256110626003096"><ele>99.0</ele><time>2026-04-26T10:10:33Z</time></trkpt><trkpt lat="39.895771740157706" lon="18.256202095694665"><ele>99.0</ele><time>2026-04-26T10:10:34Z</time></trkpt><trkpt lat="39.89574432040265" lon="18.256303887228356"><ele>99.0</ele><time>2026-04-26T10:10:35Z</time></trkpt><trkpt lat="39.89572886131525" lon="18.256413799225847"><ele>99.0</ele><time>2026-04-26T10:10:36Z</time></trkpt><trkpt lat="39.89572111092083" lon="18.256528969476914"><ele>99.0</ele><time>2026-04-26T10:10:37Z</time></trkpt><trkpt lat="39.89572381997201" lon="18.256656963128922"><ele>99.0</ele><time>2026-04-26T10:10:38Z</time></trkpt><trkpt lat="39.89574548096451" lon="18.25677274612894"><ele>99.6</ele><time>2026-04-26T10:10:39Z</time></trkpt><trkpt lat="39.895775036231825" lon="18.256875946866572"><ele>100.2</ele><time>2026-04-26T10:10:40Z</time></trkpt><trkpt lat="39.89581914082921" lon="18.256974790127433"><ele>100.8</ele><time>2026-04-26T10:10:41Z</time></trkpt><trkpt lat="39.89587724838826" lon="18.257074364342547"><ele>101.39999999999999</ele><time>2026-04-26T10:10:42Z</time></trkpt><trkpt lat="39.895944125229114" lon="18.25717331731979"><ele>102.0</ele><time>2026-04-26T10:10:43Z</time></trkpt><trkpt lat="39.896026908473004" lon="18.257270218774305"><ele>102.0</ele><time>2026-04-26T10:10:44Z</time></trkpt><trkpt lat="39.89613111256265" lon="18.25737698333591"><ele>102.0</ele><time>2026-04-26T10:10:45Z</time></trkpt><trkpt lat="39.896253680717955" lon="18.25747390324147"><ele>102.0</ele><time>2026-04-26T10:10:46Z</time></trkpt><trkpt lat="39.89635389032812" lon="18.257556078282647"><ele>102.0</ele><time>2026-04-26T10:10:47Z</time></trkpt><trkpt lat="39.89642731787835" lon="18.25762369300661"><ele>102.0</ele><time>2026-04-26T10:10:48Z</time></trkpt><trkpt lat="39.89649113171549" lon="18.25767422619969"><ele>102.0</ele><time>2026-04-26T10:10:49Z</time></trkpt><trkpt lat="39.89655515769709" lon="18.25777085651268"><ele>102.0</ele><time>2026-04-26T10:10:51Z</time></trkpt><trkpt lat="39.89657249166906" lon="18.257864059227867"><ele>102.0</ele><time>2026-04-26T10:10:54Z</time></trkpt><trkpt lat="39.89654195371191" lon="18.257985298212947"><ele>102.0</ele><time>2026-04-26T10:10:57Z</time></trkpt><trkpt lat="39.89648512629376" lon="18.258070437559713"><ele>102.0</ele><time>2026-04-26T10:10:59Z</time></trkpt><trkpt lat="39.89639513068154" lon="18.258126373067153"><ele>102.0</ele><time>2026-04-26T10:11:01Z</time></trkpt><trkpt lat="39.89629389958219" lon="18.258111151414468"><ele>102.0</ele><time>2026-04-26T10:11:03Z</time></trkpt><trkpt lat="39.89623587611571" lon="18.258067414686423"><ele>102.0</ele><time>2026-04-26T10:11:04Z</time></trkpt><trkpt lat="39.89617394058093" lon="18.258005627108865"><ele>102.0</ele><time>2026-04-26T10:11:05Z</time></trkpt><trkpt lat="39.89611710997879" lon="18.257945284419737"><ele>102.0</ele><time>2026-04-26T10:11:06Z</time></trkpt><trkpt lat="39.8960541249305" lon="18.257878918952187"><ele>102.0</ele><time>2026-04-26T10:11:07Z</time></trkpt><trkpt lat="39.89598591322907" lon="18.257810429652377"><ele>102.0</ele><time>2026-04-26T10:11:08Z</time></trkpt><trkpt lat="39.895909669952644" lon="18.257734811093535"><ele>102.0</ele><time>2026-04-26T10:11:09Z</time></trkpt><trkpt lat="39.89583206119436" lon="18.257660283586507"><ele>102.0</ele><time>2026-04-26T10:11:10Z</time></trkpt><trkpt lat="39.89576292833918" lon="18.257590089373316"><ele>102.0</ele><time>2026-04-26T10:11:11Z</time></trkpt><trkpt lat="39.89569434886522" lon="18.25752084637724"><ele>102.0</ele><time>2026-04-26T10:11:12Z</time></trkpt><trkpt lat="39.89563389511795" lon="18.257458391563212"><ele>102.0</ele><time>2026-04-26T10:11:13Z</time></trkpt><trkpt lat="39.895576820122784" lon="18.257398353333617"><ele>102.0</ele><time>2026-04-26T10:11:14Z</time></trkpt><trkpt lat="39.89552178954221" lon="18.25734486620892"><ele>102.0</ele><time>2026-04-26T10:11:15Z</time></trkpt><trkpt lat="39.89543884799599" lon="18.25723650078769"><ele>102.0</ele><time>2026-04-26T10:11:17Z</time></trkpt><trkpt lat="39.89538476086467" lon="18.257109010563564"><ele>102.0</ele><time>2026-04-26T10:11:19Z</time></trkpt><trkpt lat="39.89535484420154" lon="18.256980919462954"><ele>102.0</ele><time>2026-04-26T10:11:21Z</time></trkpt><trkpt lat="39.89532729889531" lon="18.25684788948798"><ele>102.0</ele><time>2026-04-26T10:11:23Z</time></trkpt><trkpt lat="39.895250418544485" lon="18.256728102456773"><ele>102.0</ele><time>2026-04-26T10:11:25Z</time></trkpt><trkpt lat="39.895140383365394" lon="18.256648183453162"><ele>102.0</ele><time>2026-04-26T10:11:27Z</time></trkpt><trkpt lat="39.895068564920905" lon="18.25664156099338"><ele>102.0</ele><time>2026-04-26T10:11:28Z</time></trkpt><trkpt lat="39.895006566675235" lon="18.256659007460083"><ele>102.0</ele><time>2026-04-26T10:11:29Z</time></trkpt><trkpt lat="39.8949516270855" lon="18.25670130902767"><ele>102.0</ele><time>2026-04-26T10:11:30Z</time></trkpt><trkpt lat="39.89490260722557" lon="18.2567772674193"><ele>101.5</ele><time>2026-04-26T10:11:31Z</time></trkpt><trkpt lat="39.894867634882196" lon="18.256874538133474"><ele>101.0</ele><time>2026-04-26T10:11:32Z</time></trkpt><trkpt lat="39.89484266173205" lon="18.25700408255244"><ele>100.5</ele><time>2026-04-26T10:11:33Z</time></trkpt><trkpt lat="39.89479780649352" lon="18.25716711668731"><ele>100.0</ele><time>2026-04-26T10:11:34Z</time></trkpt><trkpt lat="39.89473210577535" lon="18.257331496847993"><ele>100.0</ele><time>2026-04-26T10:11:35Z</time></trkpt><trkpt lat="39.894630043988215" lon="18.257489081992127"><ele>100.0</ele><time>2026-04-26T10:11:36Z</time></trkpt><trkpt lat="39.89449680056906" lon="18.257654386690163"><ele>100.0</ele><time>2026-04-26T10:11:37Z</time></trkpt><trkpt lat="39.89436032821311" lon="18.257843760534254"><ele>100.0</ele><time>2026-04-26T10:11:38Z</time></trkpt><trkpt lat="39.89423226450423" lon="18.258027435526756"><ele>100.0</ele><time>2026-04-26T10:11:39Z</time></trkpt><trkpt lat="39.894116509744215" lon="18.258219903114295"><ele>100.0</ele><time>2026-04-26T10:11:40Z</time></trkpt><trkpt lat="39.89397844468889" lon="18.258405581748033"><ele>100.0</ele><time>2026-04-26T10:11:41Z</time></trkpt><trkpt lat="39.89383579576942" lon="18.25859579908958"><ele>100.0</ele><time>2026-04-26T10:11:42Z</time></trkpt><trkpt lat="39.893695941108525" lon="18.25878434716774"><ele>100.0</ele><time>2026-04-26T10:11:43Z</time></trkpt><trkpt lat="39.89356142855548" lon="18.25897116500156"><ele>99.66666666666667</ele><time>2026-04-26T10:11:44Z</time></trkpt><trkpt lat="39.8934329727787" lon="18.259161608099785"><ele>99.33333333333334</ele><time>2026-04-26T10:11:45Z</time></trkpt><trkpt lat="39.89330110801779" lon="18.259346367330394"><ele>99.0</ele><time>2026-04-26T10:11:46Z</time></trkpt><trkpt lat="39.89317042883594" lon="18.259527264229206"><ele>99.0</ele><time>2026-04-26T10:11:47Z</time></trkpt><trkpt lat="39.89304144167414" lon="18.259703777278855"><ele>99.0</ele><time>2026-04-26T10:11:48Z</time></trkpt><trkpt lat="39.892913821809884" lon="18.259878796816587"><ele>99.0</ele><time>2026-04-26T10:11:49Z</time></trkpt><trkpt lat="39.89278356499316" lon="18.260049916111523"><ele>99.0</ele><time>2026-04-26T10:11:50Z</time></trkpt><trkpt lat="39.89265520089915" lon="18.260216510641136"><ele>99.0</ele><time>2026-04-26T10:11:51Z</time></trkpt><trkpt lat="39.89252622992018" lon="18.260383070297692"><ele>99.0</ele><time>2026-04-26T10:11:52Z</time></trkpt><trkpt lat="39.89239730734803" lon="18.26054477475243"><ele>99.0</ele><time>2026-04-26T10:11:53Z</time></trkpt><trkpt lat="39.89227486935255" lon="18.26071205240631"><ele>99.0</ele><time>2026-04-26T10:11:54Z</time></trkpt><trkpt lat="39.89214542188221" lon="18.26088110545721"><ele>99.0</ele><time>2026-04-26T10:11:55Z</time></trkpt><trkpt lat="39.892014472795" lon="18.261048678161906"><ele>99.0</ele><time>2026-04-26T10:11:56Z</time></trkpt><trkpt lat="39.89187951209287" lon="18.261220437256995"><ele>99.0</ele><time>2026-04-26T10:11:57Z</time></trkpt><trkpt lat="39.891742602579164" lon="18.261389181774106"><ele>99.0</ele><time>2026-04-26T10:11:58Z</time></trkpt><trkpt lat="39.89160433785732" lon="18.261558522793372"><ele>98.33333333333334</ele><time>2026-04-26T10:11:59Z</time></trkpt><trkpt lat="39.89146900063393" lon="18.261729214265984"><ele>97.66666666666667</ele><time>2026-04-26T10:12:00Z</time></trkpt><trkpt lat="39.89133201927347" lon="18.261897688664007"><ele>97.0</ele><time>2026-04-26T10:12:01Z</time></trkpt><trkpt lat="39.89119533388774" lon="18.26206757267201"><ele>97.0</ele><time>2026-04-26T10:12:02Z</time></trkpt><trkpt lat="39.891054420782694" lon="18.26224437504658"><ele>97.0</ele><time>2026-04-26T10:12:03Z</time></trkpt><trkpt lat="39.8909143808778" lon="18.262415805904915"><ele>97.0</ele><time>2026-04-26T10:12:04Z</time></trkpt><trkpt lat="39.89077437088729" lon="18.26259152920553"><ele>98.33333333333334</ele><time>2026-04-26T10:12:05Z</time></trkpt><trkpt lat="39.89063591916714" lon="18.26276653706306"><ele>99.66666666666666</ele><time>2026-04-26T10:12:06Z</time></trkpt><trkpt lat="39.89049940611817" lon="18.262940041420975"><ele>101.0</ele><time>2026-04-26T10:12:07Z</time></trkpt><trkpt lat="39.890363687403266" lon="18.263110675175273"><ele>100.33333333333333</ele><time>2026-04-26T10:12:08Z</time></trkpt><trkpt lat="39.89022579024982" lon="18.263281642177144"><ele>99.66666666666666</ele><time>2026-04-26T10:12:09Z</time></trkpt><trkpt lat="39.89008775338147" lon="18.26345449291902"><ele>99.0</ele><time>2026-04-26T10:12:10Z</time></trkpt><trkpt lat="39.88995320905155" lon="18.263628194679896"><ele>99.0</ele><time>2026-04-26T10:12:11Z</time></trkpt><trkpt lat="39.88981872144971" lon="18.263795982846904"><ele>99.0</ele><time>2026-04-26T10:12:12Z</time></trkpt><trkpt lat="39.88968741890899" lon="18.263965182385896"><ele>99.0</ele><time>2026-04-26T10:12:13Z</time></trkpt><trkpt lat="39.88955562930287" lon="18.264132269140852"><ele>99.0</ele><time>2026-04-26T10:12:14Z</time></trkpt><trkpt lat="39.88942582029231" lon="18.26429408510176"><ele>99.0</ele><time>2026-04-26T10:12:15Z</time></trkpt><trkpt lat="39.8892958235806" lon="18.26445911029991"><ele>99.0</ele><time>2026-04-26T10:12:16Z</time></trkpt><trkpt lat="39.88916768256145" lon="18.26462370526046"><ele>98.66666666666666</ele><time>2026-04-26T10:12:17Z</time></trkpt><trkpt lat="39.889033991976746" lon="18.264789559180397"><ele>98.33333333333333</ele><time>2026-04-26T10:12:18Z</time></trkpt><trkpt lat="39.88890104216196" lon="18.26495310031331"><ele>98.0</ele><time>2026-04-26T10:12:19Z</time></trkpt><trkpt lat="39.88877020763013" lon="18.265117718769716"><ele>98.0</ele><time>2026-04-26T10:12:20Z</time></trkpt><trkpt lat="39.88863954904979" lon="18.26528223343478"><ele>98.0</ele><time>2026-04-26T10:12:21Z</time></trkpt><trkpt lat="39.88850961955549" lon="18.265447840639688"><ele>98.0</ele><time>2026-04-26T10:12:22Z</time></trkpt><trkpt lat="39.888378995665335" lon="18.265615527020024"><ele>99.0</ele><time>2026-04-26T10:12:23Z</time></trkpt><trkpt lat="39.88825048609318" lon="18.2657805306061"><ele>100.0</ele><time>2026-04-26T10:12:24Z</time></trkpt><trkpt lat="39.888120276581894" lon="18.26594604346478"><ele>101.0</ele><time>2026-04-26T10:12:25Z</time></trkpt><trkpt lat="39.887988108050926" lon="18.26611115388233"><ele>101.0</ele><time>2026-04-26T10:12:26Z</time></trkpt><trkpt lat="39.88785689410057" lon="18.266274797710228"><ele>101.0</ele><time>2026-04-26T10:12:27Z</time></trkpt><trkpt lat="39.88772713194619" lon="18.266437908778066"><ele>101.0</ele><time>2026-04-26T10:12:28Z</time></trkpt><trkpt lat="39.887612166431886" lon="18.26658978369815"><ele>101.66666666666666</ele><time>2026-04-26T10:12:29Z</time></trkpt><trkpt lat="39.88748671472702" lon="18.266748084294953"><ele>102.33333333333334</ele><time>2026-04-26T10:12:30Z</time></trkpt><trkpt lat="39.88735111284238" lon="18.2669169131194"><ele>103.0</ele><time>2026-04-26T10:12:31Z</time></trkpt><trkpt lat="39.88721678872487" lon="18.267094823726204"><ele>103.0</ele><time>2026-04-26T10:12:32Z</time></trkpt><trkpt lat="39.88707607911601" lon="18.267273392003204"><ele>103.0</ele><time>2026-04-26T10:12:33Z</time></trkpt><trkpt lat="39.886940769352954" lon="18.267444777408087"><ele>103.0</ele><time>2026-04-26T10:12:34Z</time></trkpt><trkpt lat="39.886807455915864" lon="18.26761251099642"><ele>103.0</ele><time>2026-04-26T10:12:35Z</time></trkpt><trkpt lat="39.88667640721847" lon="18.267777681661645"><ele>103.0</ele><time>2026-04-26T10:12:36Z</time></trkpt><trkpt lat="39.88654239741594" lon="18.2679382192099"><ele>103.0</ele><time>2026-04-26T10:12:37Z</time></trkpt><trkpt lat="39.886415368405466" lon="18.268094634483298"><ele>103.0</ele><time>2026-04-26T10:12:38Z</time></trkpt><trkpt lat="39.88629264957441" lon="18.268250480912943"><ele>103.0</ele><time>2026-04-26T10:12:39Z</time></trkpt><trkpt lat="39.88617100466408" lon="18.268401554151886"><ele>103.0</ele><time>2026-04-26T10:12:40Z</time></trkpt><trkpt lat="39.88605096646446" lon="18.268560545781625"><ele>103.0</ele><time>2026-04-26T10:12:41Z</time></trkpt><trkpt lat="39.88593076888323" lon="18.268721884257136"><ele>103.0</ele><time>2026-04-26T10:12:42Z</time></trkpt><trkpt lat="39.885807533844115" lon="18.26888297782602"><ele>103.0</ele><time>2026-04-26T10:12:43Z</time></trkpt><trkpt lat="39.88568244873901" lon="18.26904454367948"><ele>103.0</ele><time>2026-04-26T10:12:44Z</time></trkpt><trkpt lat="39.88555846500102" lon="18.26920450012076"><ele>103.0</ele><time>2026-04-26T10:12:45Z</time></trkpt><trkpt lat="39.8854315006805" lon="18.26936471858619"><ele>103.0</ele><time>2026-04-26T10:12:46Z</time></trkpt><trkpt lat="39.885304672602835" lon="18.269526679351472"><ele>103.0</ele><time>2026-04-26T10:12:47Z</time></trkpt><trkpt lat="39.88517505124444" lon="18.26968493541198"><ele>103.0</ele><time>2026-04-26T10:12:48Z</time></trkpt><trkpt lat="39.885050161645786" lon="18.269836919107338"><ele>103.0</ele><time>2026-04-26T10:12:49Z</time></trkpt><trkpt lat="39.88492737169201" lon="18.269992618922718"><ele>103.33333333333334</ele><time>2026-04-26T10:12:50Z</time></trkpt><trkpt lat="39.88480392243923" lon="18.270151470614717"><ele>103.66666666666666</ele><time>2026-04-26T10:12:51Z</time></trkpt><trkpt lat="39.88467881623133" lon="18.270312774221075"><ele>104.0</ele><time>2026-04-26T10:12:52Z</time></trkpt><trkpt lat="39.884550158937735" lon="18.2704710992849"><ele>104.0</ele><time>2026-04-26T10:12:53Z</time></trkpt><trkpt lat="39.88441999097942" lon="18.270623760801264"><ele>104.0</ele><time>2026-04-26T10:12:54Z</time></trkpt><trkpt lat="39.88429531448192" lon="18.270769501706738"><ele>104.0</ele><time>2026-04-26T10:12:55Z</time></trkpt><trkpt lat="39.88417693952416" lon="18.270910923539905"><ele>104.33333333333333</ele><time>2026-04-26T10:12:56Z</time></trkpt><trkpt lat="39.884065567801834" lon="18.271051927430015"><ele>104.66666666666666</ele><time>2026-04-26T10:12:57Z</time></trkpt><trkpt lat="39.88395582005678" lon="18.271191530313516"><ele>105.0</ele><time>2026-04-26T10:12:58Z</time></trkpt><trkpt lat="39.88385076007321" lon="18.271330236323614"><ele>105.0</ele><time>2026-04-26T10:12:59Z</time></trkpt><trkpt lat="39.88374659094214" lon="18.27147143289213"><ele>105.0</ele><time>2026-04-26T10:13:00Z</time></trkpt><trkpt lat="39.883639527835605" lon="18.271614710009338"><ele>105.0</ele><time>2026-04-26T10:13:01Z</time></trkpt><trkpt lat="39.88352994083214" lon="18.271752783348816"><ele>105.4</ele><time>2026-04-26T10:13:02Z</time></trkpt><trkpt lat="39.88341705070734" lon="18.271868239480302"><ele>105.8</ele><time>2026-04-26T10:13:03Z</time></trkpt><trkpt lat="39.88332210664561" lon="18.27196512113545"><ele>106.19999999999999</ele><time>2026-04-26T10:13:04Z</time></trkpt><trkpt lat="39.88324271792819" lon="18.272041125568105"><ele>106.6</ele><time>2026-04-26T10:13:05Z</time></trkpt><trkpt lat="39.883182193028794" lon="18.272113948630302"><ele>107.0</ele><time>2026-04-26T10:13:06Z</time></trkpt><trkpt lat="39.88313820406717" lon="18.272200202406903"><ele>106.25</ele><time>2026-04-26T10:13:07Z</time></trkpt><trkpt lat="39.88308533103233" lon="18.272293994108775"><ele>105.5</ele><time>2026-04-26T10:13:08Z</time></trkpt><trkpt lat="39.8830175879694" lon="18.272394532961883"><ele>104.75</ele><time>2026-04-26T10:13:09Z</time></trkpt><trkpt lat="39.882935422877864" lon="18.27251671035297"><ele>104.0</ele><time>2026-04-26T10:13:10Z</time></trkpt><trkpt lat="39.882832939246306" lon="18.272648256771348"><ele>104.0</ele><time>2026-04-26T10:13:11Z</time></trkpt><trkpt lat="39.88268243818558" lon="18.272748362073155"><ele>104.0</ele><time>2026-04-26T10:13:12Z</time></trkpt><trkpt lat="39.882523527046146" lon="18.272849060463066"><ele>104.0</ele><time>2026-04-26T10:13:13Z</time></trkpt><trkpt lat="39.88236341909775" lon="18.272963001143232"><ele>105.0</ele><time>2026-04-26T10:13:14Z</time></trkpt><trkpt lat="39.88219878077762" lon="18.273072357780407"><ele>106.0</ele><time>2026-04-26T10:13:15Z</time></trkpt><trkpt lat="39.88203090308627" lon="18.273175431858945"><ele>107.0</ele><time>2026-04-26T10:13:16Z</time></trkpt><trkpt lat="39.881853057120175" lon="18.27327189644472"><ele>107.66666666666666</ele><time>2026-04-26T10:13:17Z</time></trkpt><trkpt lat="39.881679488571656" lon="18.273372718383243"><ele>108.33333333333334</ele><time>2026-04-26T10:13:18Z</time></trkpt><trkpt lat="39.88147694721193" lon="18.273460500510318"><ele>109.0</ele><time>2026-04-26T10:13:19Z</time></trkpt><trkpt lat="39.8812680832623" lon="18.273553432381252"><ele>109.0</ele><time>2026-04-26T10:13:20Z</time></trkpt><trkpt lat="39.88106594039855" lon="18.273648492823657"><ele>109.0</ele><time>2026-04-26T10:13:21Z</time></trkpt><trkpt lat="39.88086321175036" lon="18.273737411664975"><ele>109.0</ele><time>2026-04-26T10:13:22Z</time></trkpt><trkpt lat="39.88066816303879" lon="18.273814980121887"><ele>109.33333333333334</ele><time>2026-04-26T10:13:23Z</time></trkpt><trkpt lat="39.88047121984194" lon="18.273876522974863"><ele>109.66666666666666</ele><time>2026-04-26T10:13:24Z</time></trkpt><trkpt lat="39.88027902796995" lon="18.273940721946758"><ele>110.0</ele><time>2026-04-26T10:13:25Z</time></trkpt><trkpt lat="39.88009678107991" lon="18.274026395779376"><ele>111.0</ele><time>2026-04-26T10:13:26Z</time></trkpt><trkpt lat="39.87996124635828" lon="18.274109948196212"><ele>112.0</ele><time>2026-04-26T10:13:27Z</time></trkpt><trkpt lat="39.8798321288509" lon="18.27422146425995"><ele>113.0</ele><time>2026-04-26T10:13:28Z</time></trkpt><trkpt lat="39.879709568955114" lon="18.274347810397526"><ele>113.0</ele><time>2026-04-26T10:13:29Z</time></trkpt><trkpt lat="39.87961491947645" lon="18.274482429812668"><ele>113.0</ele><time>2026-04-26T10:13:30Z</time></trkpt><trkpt lat="39.879535654847594" lon="18.27462874102424"><ele>113.0</ele><time>2026-04-26T10:13:31Z</time></trkpt><trkpt lat="39.87945320783" lon="18.274806752463025"><ele>113.0</ele><time>2026-04-26T10:13:32Z</time></trkpt><trkpt lat="39.87938736088947" lon="18.275003495533745"><ele>112.5</ele><time>2026-04-26T10:13:33Z</time></trkpt><trkpt lat="39.87938189646519" lon="18.27520785269494"><ele>112.0</ele><time>2026-04-26T10:13:34Z</time></trkpt><trkpt lat="39.878312706674244" lon="18.274689196403383"><ele>113.66666666666667</ele><time>2026-04-26T10:13:35Z</time></trkpt><trkpt lat="39.878134919999596" lon="18.274754907454973"><ele>115.33333333333334</ele><time>2026-04-26T10:13:36Z</time></trkpt><trkpt lat="39.87795478414169" lon="18.274816011501688"><ele>117.0</ele><time>2026-04-26T10:13:37Z</time></trkpt><trkpt lat="39.87777632689012" lon="18.274882498814787"><ele>117.66666666666666</ele><time>2026-04-26T10:13:38Z</time></trkpt><trkpt lat="39.87759889078672" lon="18.274950806329922"><ele>118.33333333333333</ele><time>2026-04-26T10:13:39Z</time></trkpt><trkpt lat="39.87742115741303" lon="18.275023262754026"><ele>119.0</ele><time>2026-04-26T10:13:40Z</time></trkpt><trkpt lat="39.877245599087146" lon="18.275093613440802"><ele>119.0</ele><time>2026-04-26T10:13:41Z</time></trkpt><trkpt lat="39.87706795084866" lon="18.27515840552529"><ele>119.0</ele><time>2026-04-26T10:13:42Z</time></trkpt><trkpt lat="39.876891153458466" lon="18.27522492916693"><ele>119.0</ele><time>2026-04-26T10:13:43Z</time></trkpt><trkpt lat="39.87671447411932" lon="18.27529387557811"><ele>119.66666666666666</ele><time>2026-04-26T10:13:44Z</time></trkpt><trkpt lat="39.876537289679135" lon="18.2753632480585"><ele>120.33333333333334</ele><time>2026-04-26T10:13:45Z</time></trkpt><trkpt lat="39.87636173160555" lon="18.275431905732297"><ele>121.0</ele><time>2026-04-26T10:13:46Z</time></trkpt><trkpt lat="39.87618461212323" lon="18.275498585689853"><ele>121.0</ele><time>2026-04-26T10:13:47Z</time></trkpt><trkpt lat="39.87600905312385" lon="18.27556291317226"><ele>121.0</ele><time>2026-04-26T10:13:48Z</time></trkpt><trkpt lat="39.875835938779375" lon="18.27562638480351"><ele>121.0</ele><time>2026-04-26T10:13:49Z</time></trkpt><trkpt lat="39.87565797169546" lon="18.275692930184075"><ele>121.33333333333334</ele><time>2026-04-26T10:13:50Z</time></trkpt><trkpt lat="39.87548516052462" lon="18.275760877930026"><ele>121.66666666666666</ele><time>2026-04-26T10:13:51Z</time></trkpt><trkpt lat="39.875310223122426" lon="18.275827593186605"><ele>122.0</ele><time>2026-04-26T10:13:52Z</time></trkpt><trkpt lat="39.87513747749077" lon="18.27589714765044"><ele>122.66666666666666</ele><time>2026-04-26T10:13:53Z</time></trkpt><trkpt lat="39.87496301191999" lon="18.275968348494438"><ele>123.33333333333334</ele><time>2026-04-26T10:13:54Z</time></trkpt><trkpt lat="39.87478888850944" lon="18.276032023998198"><ele>124.0</ele><time>2026-04-26T10:13:55Z</time></trkpt><trkpt lat="39.87461259299553" lon="18.27609529236098"><ele>124.0</ele><time>2026-04-26T10:13:56Z</time></trkpt><trkpt lat="39.874439496624106" lon="18.276164786147177"><ele>124.0</ele><time>2026-04-26T10:13:57Z</time></trkpt><trkpt lat="39.87426450039351" lon="18.276234661542738"><ele>124.0</ele><time>2026-04-26T10:13:58Z</time></trkpt><trkpt lat="39.874087375956975" lon="18.276306799516988"><ele>125.0</ele><time>2026-04-26T10:13:59Z</time></trkpt><trkpt lat="39.87391437466052" lon="18.27637619077638"><ele>126.0</ele><time>2026-04-26T10:14:00Z</time></trkpt><trkpt lat="39.87374028497787" lon="18.276446013020962"><ele>127.0</ele><time>2026-04-26T10:14:01Z</time></trkpt><trkpt lat="39.873569800724624" lon="18.276515128023426"><ele>127.66666666666667</ele><time>2026-04-26T10:14:02Z</time></trkpt><trkpt lat="39.873397221568716" lon="18.276584880921877"><ele>128.33333333333334</ele><time>2026-04-26T10:14:03Z</time></trkpt><trkpt lat="39.873224975897486" lon="18.276659183819433"><ele>129.0</ele><time>2026-04-26T10:14:04Z</time></trkpt><trkpt lat="39.87305314252799" lon="18.276723849411336"><ele>129.0</ele><time>2026-04-26T10:14:05Z</time></trkpt><trkpt lat="39.87287953075659" lon="18.276786599232064"><ele>129.0</ele><time>2026-04-26T10:14:06Z</time></trkpt><trkpt lat="39.872707056028474" lon="18.276855662482937"><ele>129.0</ele><time>2026-04-26T10:14:07Z</time></trkpt><trkpt lat="39.87253249682842" lon="18.276925347905568"><ele>129.66666666666666</ele><time>2026-04-26T10:14:08Z</time></trkpt><trkpt lat="39.87235715038837" lon="18.276998489432813"><ele>130.33333333333331</ele><time>2026-04-26T10:14:09Z</time></trkpt><trkpt lat="39.87217996902611" lon="18.277068893772956"><ele>131.0</ele><time>2026-04-26T10:14:10Z</time></trkpt><trkpt lat="39.87200511061262" lon="18.27713984964143"><ele>131.0</ele><time>2026-04-26T10:14:11Z</time></trkpt><trkpt lat="39.87183300381743" lon="18.27720780942357"><ele>131.0</ele><time>2026-04-26T10:14:12Z</time></trkpt><trkpt lat="39.87166021430633" lon="18.277275600780555"><ele>131.0</ele><time>2026-04-26T10:14:13Z</time></trkpt><trkpt lat="39.87149170076279" lon="18.27734495594143"><ele>130.66666666666666</ele><time>2026-04-26T10:14:14Z</time></trkpt><trkpt lat="39.8713176210457" lon="18.277410285067994"><ele>130.33333333333334</ele><time>2026-04-26T10:14:15Z</time></trkpt><trkpt lat="39.87114688807727" lon="18.2774737193523"><ele>130.0</ele><time>2026-04-26T10:14:16Z</time></trkpt><trkpt lat="39.87098011187905" lon="18.2775423161576"><ele>129.66666666666669</ele><time>2026-04-26T10:14:17Z</time></trkpt><trkpt lat="39.87081587438539" lon="18.277610206439824"><ele>129.33333333333334</ele><time>2026-04-26T10:14:18Z</time></trkpt><trkpt lat="39.870650495280415" lon="18.277679429535354"><ele>129.0</ele><time>2026-04-26T10:14:19Z</time></trkpt><trkpt lat="39.87048290810966" lon="18.277746103352356"><ele>129.0</ele><time>2026-04-26T10:14:20Z</time></trkpt><trkpt lat="39.87031218129752" lon="18.277812692900607"><ele>129.0</ele><time>2026-04-26T10:14:21Z</time></trkpt><trkpt lat="39.870146142850544" lon="18.277879076654443"><ele>129.0</ele><time>2026-04-26T10:14:22Z</time></trkpt><trkpt lat="39.86997632802993" lon="18.27794590718"><ele>129.0</ele><time>2026-04-26T10:14:23Z</time></trkpt><trkpt lat="39.86980851394219" lon="18.27801884494768"><ele>129.0</ele><time>2026-04-26T10:14:24Z</time></trkpt><trkpt lat="39.86963737939562" lon="18.278086241274906"><ele>129.0</ele><time>2026-04-26T10:14:25Z</time></trkpt><trkpt lat="39.86946653245405" lon="18.278148437317967"><ele>129.0</ele><time>2026-04-26T10:14:26Z</time></trkpt><trkpt lat="39.86929598416208" lon="18.278210626076664"><ele>129.0</ele><time>2026-04-26T10:14:27Z</time></trkpt><trkpt lat="39.8691243624176" lon="18.27827886580715"><ele>129.0</ele><time>2026-04-26T10:14:28Z</time></trkpt><trkpt lat="39.868954819280425" lon="18.278348635106063"><ele>129.0</ele><time>2026-04-26T10:14:29Z</time></trkpt><trkpt lat="39.86878430091895" lon="18.278418105582368"><ele>129.0</ele><time>2026-04-26T10:14:30Z</time></trkpt><trkpt lat="39.868615977604435" lon="18.27848644447571"><ele>129.0</ele><time>2026-04-26T10:14:31Z</time></trkpt><trkpt lat="39.86844262637145" lon="18.27855348954406"><ele>129.0</ele><time>2026-04-26T10:14:32Z</time></trkpt><trkpt lat="39.86826606903737" lon="18.27862180801947"><ele>129.0</ele><time>2026-04-26T10:14:33Z</time></trkpt><trkpt lat="39.868094154838396" lon="18.278693989217434"><ele>129.0</ele><time>2026-04-26T10:14:34Z</time></trkpt><trkpt lat="39.86791846116059" lon="18.278760275696985"><ele>129.0</ele><time>2026-04-26T10:14:35Z</time></trkpt><trkpt lat="39.867744026228166" lon="18.278833884240967"><ele>129.0</ele><time>2026-04-26T10:14:36Z</time></trkpt><trkpt lat="39.8675697563697" lon="18.27890373809993"><ele>129.0</ele><time>2026-04-26T10:14:37Z</time></trkpt><trkpt lat="39.86739638657695" lon="18.27897573999151"><ele>129.0</ele><time>2026-04-26T10:14:38Z</time></trkpt><trkpt lat="39.867220849213936" lon="18.279042321336043"><ele>129.0</ele><time>2026-04-26T10:14:39Z</time></trkpt><trkpt lat="39.86704823816851" lon="18.279123054552148"><ele>129.0</ele><time>2026-04-26T10:14:40Z</time></trkpt><trkpt lat="39.86687796080876" lon="18.279211229782305"><ele>128.0</ele><time>2026-04-26T10:14:41Z</time></trkpt><trkpt lat="39.86670814488736" lon="18.279296359746546"><ele>127.0</ele><time>2026-04-26T10:14:42Z</time></trkpt><trkpt lat="39.86654403651841" lon="18.279393929555358"><ele>126.0</ele><time>2026-04-26T10:14:43Z</time></trkpt><trkpt lat="39.86637967348389" lon="18.27949710802564"><ele>126.0</ele><time>2026-04-26T10:14:44Z</time></trkpt><trkpt lat="39.8662211461741" lon="18.279616111677733"><ele>126.0</ele><time>2026-04-26T10:14:45Z</time></trkpt><trkpt lat="39.866064789423675" lon="18.27973917325501"><ele>126.0</ele><time>2026-04-26T10:14:46Z</time></trkpt><trkpt lat="39.86591513464012" lon="18.279871711882453"><ele>126.0</ele><time>2026-04-26T10:14:47Z</time></trkpt><trkpt lat="39.865763903384746" lon="18.280009652239766"><ele>126.0</ele><time>2026-04-26T10:14:48Z</time></trkpt><trkpt lat="39.86561527084904" lon="18.280150891407676"><ele>126.0</ele><time>2026-04-26T10:14:49Z</time></trkpt><trkpt lat="39.86546524387911" lon="18.2802840646675"><ele>126.0</ele><time>2026-04-26T10:14:50Z</time></trkpt><trkpt lat="39.8653201713431" lon="18.280425503333174"><ele>126.0</ele><time>2026-04-26T10:14:51Z</time></trkpt><trkpt lat="39.8651681397441" lon="18.280564572292825"><ele>126.0</ele><time>2026-04-26T10:14:52Z</time></trkpt><trkpt lat="39.86501688388172" lon="18.280713885761678"><ele>126.33333333333334</ele><time>2026-04-26T10:14:53Z</time></trkpt><trkpt lat="39.864861057637306" lon="18.280865642726823"><ele>126.66666666666667</ele><time>2026-04-26T10:14:54Z</time></trkpt><trkpt lat="39.864714673332344" lon="18.281007016947676"><ele>127.0</ele><time>2026-04-26T10:14:55Z</time></trkpt><trkpt lat="39.86455680682734" lon="18.28114528042447"><ele>127.0</ele><time>2026-04-26T10:14:56Z</time></trkpt><trkpt lat="39.864398975447145" lon="18.281290111606896"><ele>127.0</ele><time>2026-04-26T10:14:57Z</time></trkpt><trkpt lat="39.864246583975735" lon="18.28144066213032"><ele>127.0</ele><time>2026-04-26T10:14:58Z</time></trkpt><trkpt lat="39.86409524367928" lon="18.281583545989175"><ele>126.66666666666667</ele><time>2026-04-26T10:14:59Z</time></trkpt><trkpt lat="39.863942328315694" lon="18.281733785317723"><ele>126.33333333333334</ele><time>2026-04-26T10:15:00Z</time></trkpt><trkpt lat="39.86378729969527" lon="18.281881445038113"><ele>126.0</ele><time>2026-04-26T10:15:01Z</time></trkpt><trkpt lat="39.8636298637047" lon="18.282026964064883"><ele>126.0</ele><time>2026-04-26T10:15:02Z</time></trkpt><trkpt lat="39.86346965660344" lon="18.282171393709433"><ele>126.0</ele><time>2026-04-26T10:15:03Z</time></trkpt><trkpt lat="39.863313488491926" lon="18.282320594006627"><ele>126.0</ele><time>2026-04-26T10:15:04Z</time></trkpt><trkpt lat="39.86315888957072" lon="18.282471727644108"><ele>125.0</ele><time>2026-04-26T10:15:05Z</time></trkpt><trkpt lat="39.86300150791411" lon="18.28262328505482"><ele>124.0</ele><time>2026-04-26T10:15:06Z</time></trkpt><trkpt lat="39.86284563486417" lon="18.282773781180726"><ele>123.0</ele><time>2026-04-26T10:15:07Z</time></trkpt><trkpt lat="39.86268540591178" lon="18.282922285404723"><ele>122.0</ele><time>2026-04-26T10:15:08Z</time></trkpt><trkpt lat="39.86252376244079" lon="18.283069518954793"><ele>121.0</ele><time>2026-04-26T10:15:09Z</time></trkpt><trkpt lat="39.86236313951577" lon="18.283217916441984"><ele>120.0</ele><time>2026-04-26T10:15:10Z</time></trkpt><trkpt lat="39.86220283442609" lon="18.28337172902732"><ele>119.66666666666666</ele><time>2026-04-26T10:15:11Z</time></trkpt><trkpt lat="39.86204613854129" lon="18.283518727165546"><ele>119.33333333333333</ele><time>2026-04-26T10:15:12Z</time></trkpt><trkpt lat="39.861888706315284" lon="18.283668504342405"><ele>119.0</ele><time>2026-04-26T10:15:13Z</time></trkpt><trkpt lat="39.86172847809337" lon="18.283814121378207"><ele>119.66666666666666</ele><time>2026-04-26T10:15:14Z</time></trkpt><trkpt lat="39.86157476534366" lon="18.283959487362026"><ele>120.33333333333334</ele><time>2026-04-26T10:15:15Z</time></trkpt><trkpt lat="39.86143300045884" lon="18.284091470679307"><ele>121.0</ele><time>2026-04-26T10:15:16Z</time></trkpt><trkpt lat="39.861290454257805" lon="18.28422481736499"><ele>121.0</ele><time>2026-04-26T10:15:17Z</time></trkpt><trkpt lat="39.861156236150826" lon="18.284355849488602"><ele>121.0</ele><time>2026-04-26T10:15:18Z</time></trkpt><trkpt lat="39.861023249867614" lon="18.28448264251231"><ele>121.0</ele><time>2026-04-26T10:15:19Z</time></trkpt><trkpt lat="39.860889655107364" lon="18.284610905236587"><ele>120.66666666666667</ele><time>2026-04-26T10:15:20Z</time></trkpt><trkpt lat="39.860755256232046" lon="18.284738489609612"><ele>120.33333333333334</ele><time>2026-04-26T10:15:21Z</time></trkpt><trkpt lat="39.8606147425237" lon="18.284869329123637"><ele>120.0</ele><time>2026-04-26T10:15:22Z</time></trkpt><trkpt lat="39.86047475531535" lon="18.28499999833195"><ele>120.0</ele><time>2026-04-26T10:15:23Z</time></trkpt><trkpt lat="39.86033460969195" lon="18.28512961701091"><ele>120.0</ele><time>2026-04-26T10:15:24Z</time></trkpt><trkpt lat="39.860198353362634" lon="18.285263023865873"><ele>120.0</ele><time>2026-04-26T10:15:25Z</time></trkpt><trkpt lat="39.86006017233595" lon="18.285388422029694"><ele>119.66666666666666</ele><time>2026-04-26T10:15:26Z</time></trkpt><trkpt lat="39.859923609505366" lon="18.285516639753805"><ele>119.33333333333333</ele><time>2026-04-26T10:15:27Z</time></trkpt><trkpt lat="39.85978234225393" lon="18.285647104844887"><ele>119.0</ele><time>2026-04-26T10:15:28Z</time></trkpt><trkpt lat="39.85964464296805" lon="18.285777670928006"><ele>119.0</ele><time>2026-04-26T10:15:29Z</time></trkpt><trkpt lat="39.85950747504886" lon="18.28590844062949"><ele>119.0</ele><time>2026-04-26T10:15:30Z</time></trkpt><trkpt lat="39.85936861274461" lon="18.28603821190392"><ele>119.0</ele><time>2026-04-26T10:15:31Z</time></trkpt><trkpt lat="39.859236254800145" lon="18.286154337772402"><ele>118.33333333333333</ele><time>2026-04-26T10:15:32Z</time></trkpt><trkpt lat="39.85911059988426" lon="18.286274128349305"><ele>117.66666666666666</ele><time>2026-04-26T10:15:33Z</time></trkpt><trkpt lat="39.85898643063568" lon="18.286388418297907"><ele>117.0</ele><time>2026-04-26T10:15:34Z</time></trkpt><trkpt lat="39.85886817635105" lon="18.286498622172452"><ele>117.0</ele><time>2026-04-26T10:15:35Z</time></trkpt><trkpt lat="39.85875704031769" lon="18.286606090828304"><ele>117.0</ele><time>2026-04-26T10:15:36Z</time></trkpt><trkpt lat="39.85864238792531" lon="18.286704302197688"><ele>117.0</ele><time>2026-04-26T10:15:37Z</time></trkpt><trkpt lat="39.858546770185725" lon="18.28679820281463"><ele>117.0</ele><time>2026-04-26T10:15:38Z</time></trkpt><trkpt lat="39.85845550796595" lon="18.286877960338614"><ele>117.19999999999999</ele><time>2026-04-26T10:15:39Z</time></trkpt><trkpt lat="39.85837062169308" lon="18.286956583415453"><ele>117.39999999999999</ele><time>2026-04-26T10:15:40Z</time></trkpt><trkpt lat="39.85828934783267" lon="18.287032926761565"><ele>117.60000000000001</ele><time>2026-04-26T10:15:41Z</time></trkpt><trkpt lat="39.85821189169342" lon="18.28710728472299"><ele>117.80000000000001</ele><time>2026-04-26T10:15:42.001Z</time></trkpt><trkpt lat="39.85812754719159" lon="18.28718380004612"><ele>118.0</ele><time>2026-04-26T10:15:43.001Z</time></trkpt><trkpt lat="39.85804109647633" lon="18.28726408684032"><ele>117.60000000000001</ele><time>2026-04-26T10:15:44.001Z</time></trkpt><trkpt lat="39.85794815416438" lon="18.28734932326166"><ele>117.20000000000002</ele><time>2026-04-26T10:15:45.001Z</time></trkpt><trkpt lat="39.8578507699585" lon="18.287439358583057"><ele>116.8</ele><time>2026-04-26T10:15:46.001Z</time></trkpt><trkpt lat="39.85775632703443" lon="18.287523562330627"><ele>116.4</ele><time>2026-04-26T10:15:47.001Z</time></trkpt><trkpt lat="39.857674583933075" lon="18.28759644998426"><ele>116.0</ele><time>2026-04-26T10:15:48.001Z</time></trkpt><trkpt lat="39.85760545667368" lon="18.28764151226726"><ele>116.8</ele><time>2026-04-26T10:15:49.001Z</time></trkpt><trkpt lat="39.85749576941137" lon="18.287654560509754"><ele>117.6</ele><time>2026-04-26T10:15:51.001Z</time></trkpt><trkpt lat="39.85737853016304" lon="18.287572400263233"><ele>118.4</ele><time>2026-04-26T10:15:53.001Z</time></trkpt><trkpt lat="39.85731497820595" lon="18.287494900281168"><ele>119.2</ele><time>2026-04-26T10:15:54.001Z</time></trkpt><trkpt lat="39.85725418185606" lon="18.287396111584776"><ele>120.0</ele><time>2026-04-26T10:15:55.001Z</time></trkpt><trkpt lat="39.85719505911135" lon="18.2872737553461"><ele>120.2</ele><time>2026-04-26T10:15:56.001Z</time></trkpt><trkpt lat="39.857146575345496" lon="18.287134138052984"><ele>120.4</ele><time>2026-04-26T10:15:57.001Z</time></trkpt><trkpt lat="39.857114213338505" lon="18.287002353742558"><ele>120.6</ele><time>2026-04-26T10:15:58.001Z</time></trkpt><trkpt lat="39.857090673126216" lon="18.28688219093358"><ele>120.8</ele><time>2026-04-26T10:15:59.001Z</time></trkpt><trkpt lat="39.8570939711279" lon="18.286770231537037"><ele>121.0</ele><time>2026-04-26T10:16:00.001Z</time></trkpt><trkpt lat="39.85711690144957" lon="18.28666803229795"><ele>121.0</ele><time>2026-04-26T10:16:01.001Z</time></trkpt><trkpt lat="39.8571586563208" lon="18.286566673006664"><ele>121.0</ele><time>2026-04-26T10:16:02.001Z</time></trkpt><trkpt lat="39.857227570896974" lon="18.286460513295278"><ele>121.0</ele><time>2026-04-26T10:16:03.001Z</time></trkpt><trkpt lat="39.85733019307339" lon="18.286337132781146"><ele>121.0</ele><time>2026-04-26T10:16:04.001Z</time></trkpt><trkpt lat="39.857418784126686" lon="18.28619865158491"><ele>121.0</ele><time>2026-04-26T10:16:05.001Z</time></trkpt><trkpt lat="39.857506405237174" lon="18.286085873522822"><ele>121.0</ele><time>2026-04-26T10:16:06.001Z</time></trkpt><trkpt lat="39.85757030057253" lon="18.286000364837705"><ele>121.0</ele><time>2026-04-26T10:16:07.001Z</time></trkpt><trkpt lat="39.85762839419833" lon="18.285947018796673"><ele>121.0</ele><time>2026-04-26T10:16:08.001Z</time></trkpt><trkpt lat="39.85772339542198" lon="18.28587215975471"><ele>121.0</ele><time>2026-04-26T10:16:10.001Z</time></trkpt><trkpt lat="39.857764605527365" lon="18.28580098355675"><ele>120.6</ele><time>2026-04-26T10:16:13.001Z</time></trkpt><trkpt lat="39.857797723991766" lon="18.285712738267712"><ele>120.19999999999999</ele><time>2026-04-26T10:16:39Z</time></trkpt><trkpt lat="39.85773728972811" lon="18.285561292772524"><ele>119.80000000000001</ele><time>2026-04-26T10:16:41Z</time></trkpt><trkpt lat="39.857699939972136" lon="18.28546785053799"><ele>119.4</ele><time>2026-04-26T10:16:42Z</time></trkpt><trkpt lat="39.85765256046199" lon="18.285359649633914"><ele>119.0</ele><time>2026-04-26T10:16:43Z</time></trkpt><trkpt lat="39.857606108245506" lon="18.28523417065921"><ele>118.80000000000001</ele><time>2026-04-26T10:16:44Z</time></trkpt><trkpt lat="39.85755987096752" lon="18.285102910325044"><ele>118.60000000000001</ele><time>2026-04-26T10:16:45Z</time></trkpt><trkpt lat="39.85750205495752" lon="18.284986935237928"><ele>118.4</ele><time>2026-04-26T10:16:46Z</time></trkpt><trkpt lat="39.857433897408825" lon="18.284894762560814"><ele>118.2</ele><time>2026-04-26T10:16:47Z</time></trkpt><trkpt lat="39.85734985120928" lon="18.28483785726792"><ele>118.0</ele><time>2026-04-26T10:16:48Z</time></trkpt><trkpt lat="39.85725698841486" lon="18.284816656082345"><ele>118.0</ele><time>2026-04-26T10:16:49Z</time></trkpt><trkpt lat="39.85715701341632" lon="18.284827361323163"><ele>118.00000000000001</ele><time>2026-04-26T10:16:50Z</time></trkpt><trkpt lat="39.85706133466967" lon="18.28486483674791"><ele>118.00000000000001</ele><time>2026-04-26T10:16:51Z</time></trkpt><trkpt lat="39.856973594298466" lon="18.28494096145903"><ele>118.0</ele><time>2026-04-26T10:16:52Z</time></trkpt><trkpt lat="39.85688897672728" lon="18.28504279492846"><ele>118.0</ele><time>2026-04-26T10:16:53Z</time></trkpt><trkpt lat="39.85681282129966" lon="18.285154110832817"><ele>116.4</ele><time>2026-04-26T10:16:54Z</time></trkpt><trkpt lat="39.85674613617562" lon="18.285252080758095"><ele>114.80000000000001</ele><time>2026-04-26T10:16:55Z</time></trkpt><trkpt lat="39.8566787442257" lon="18.28531696587185"><ele>113.2</ele><time>2026-04-26T10:16:56Z</time></trkpt><trkpt lat="39.856600970320756" lon="18.285352553708186"><ele>111.6</ele><time>2026-04-26T10:16:57Z</time></trkpt><trkpt lat="39.8565203156912" lon="18.285358388179695"><ele>110.0</ele><time>2026-04-26T10:16:58Z</time></trkpt><trkpt lat="39.85642071644843" lon="18.285319151442287"><ele>110.0</ele><time>2026-04-26T10:16:59Z</time></trkpt><trkpt lat="39.856298915993975" lon="18.285231373486276"><ele>110.0</ele><time>2026-04-26T10:17:00Z</time></trkpt><trkpt lat="39.85617884020211" lon="18.285108956746267"><ele>110.0</ele><time>2026-04-26T10:17:01Z</time></trkpt><trkpt lat="39.856054088385335" lon="18.28495159761527"><ele>108.33333333333333</ele><time>2026-04-26T10:17:02Z</time></trkpt><trkpt lat="39.85591272546173" lon="18.284768484336407"><ele>106.66666666666666</ele><time>2026-04-26T10:17:03Z</time></trkpt><trkpt lat="39.85574626628411" lon="18.284594796960658"><ele>105.0</ele><time>2026-04-26T10:17:04Z</time></trkpt><trkpt lat="39.855563979996845" lon="18.284453545554335"><ele>104.33333333333334</ele><time>2026-04-26T10:17:05Z</time></trkpt><trkpt lat="39.85538915991389" lon="18.28432987397685"><ele>103.66666666666667</ele><time>2026-04-26T10:17:06Z</time></trkpt><trkpt lat="39.85521812801692" lon="18.284212268845245"><ele>103.0</ele><time>2026-04-26T10:17:07Z</time></trkpt><trkpt lat="39.8550625673523" lon="18.28408327232791"><ele>102.33333333333334</ele><time>2026-04-26T10:17:08Z</time></trkpt><trkpt lat="39.854916896418615" lon="18.283946645277627"><ele>101.66666666666666</ele><time>2026-04-26T10:17:09Z</time></trkpt><trkpt lat="39.85477338161379" lon="18.283810731813766"><ele>101.0</ele><time>2026-04-26T10:17:10Z</time></trkpt><trkpt lat="39.85463499544293" lon="18.283669962312747"><ele>101.0</ele><time>2026-04-26T10:17:11Z</time></trkpt><trkpt lat="39.85449692021462" lon="18.283529206857796"><ele>101.0</ele><time>2026-04-26T10:17:12Z</time></trkpt><trkpt lat="39.85435410952058" lon="18.28339052913818"><ele>101.0</ele><time>2026-04-26T10:17:13Z</time></trkpt><trkpt lat="39.854209287451724" lon="18.283246938637266"><ele>99.66666666666666</ele><time>2026-04-26T10:17:14Z</time></trkpt><trkpt lat="39.854064590649614" lon="18.283101671634203"><ele>98.33333333333334</ele><time>2026-04-26T10:17:15Z</time></trkpt><trkpt lat="39.8539214801052" lon="18.282956021049912"><ele>97.0</ele><time>2026-04-26T10:17:16Z</time></trkpt><trkpt lat="39.853777798136974" lon="18.28280499094617"><ele>96.0</ele><time>2026-04-26T10:17:17Z</time></trkpt><trkpt lat="39.85363082723302" lon="18.282659280916263"><ele>95.0</ele><time>2026-04-26T10:17:18Z</time></trkpt><trkpt lat="39.85348072517587" lon="18.282510936246926"><ele>94.0</ele><time>2026-04-26T10:17:19Z</time></trkpt><trkpt lat="39.85333375653004" lon="18.282362903923957"><ele>92.66666666666666</ele><time>2026-04-26T10:17:20Z</time></trkpt><trkpt lat="39.8531844105955" lon="18.282213551945198"><ele>91.33333333333333</ele><time>2026-04-26T10:17:21Z</time></trkpt><trkpt lat="39.85303560134905" lon="18.282065997415614"><ele>90.0</ele><time>2026-04-26T10:17:22Z</time></trkpt><trkpt lat="39.852887135413106" lon="18.28191722799919"><ele>90.0</ele><time>2026-04-26T10:17:23Z</time></trkpt><trkpt lat="39.85274034851169" lon="18.281771529076565"><ele>90.0</ele><time>2026-04-26T10:17:24Z</time></trkpt><trkpt lat="39.852596333000555" lon="18.281626960116807"><ele>90.0</ele><time>2026-04-26T10:17:25Z</time></trkpt><trkpt lat="39.852450755059856" lon="18.28148182886559"><ele>90.33333333333333</ele><time>2026-04-26T10:17:26Z</time></trkpt><trkpt lat="39.85230777396223" lon="18.281335094841733"><ele>90.66666666666666</ele><time>2026-04-26T10:17:27Z</time></trkpt><trkpt lat="39.8521665005416" lon="18.281186347000624"><ele>91.0</ele><time>2026-04-26T10:17:28Z</time></trkpt><trkpt lat="39.852025773314004" lon="18.28104443394843"><ele>91.0</ele><time>2026-04-26T10:17:29Z</time></trkpt><trkpt lat="39.85188819402025" lon="18.2809066853134"><ele>91.0</ele><time>2026-04-26T10:17:30Z</time></trkpt><trkpt lat="39.85176319552461" lon="18.280783139274778"><ele>91.0</ele><time>2026-04-26T10:17:31Z</time></trkpt><trkpt lat="39.85164634219944" lon="18.280659906879904"><ele>91.25</ele><time>2026-04-26T10:17:32Z</time></trkpt><trkpt lat="39.8515338555945" lon="18.280540609659464"><ele>91.5</ele><time>2026-04-26T10:17:33Z</time></trkpt><trkpt lat="39.85143430012904" lon="18.280426728160105"><ele>91.75</ele><time>2026-04-26T10:17:34Z</time></trkpt><trkpt lat="39.8513460558833" lon="18.2803144626584"><ele>92.0</ele><time>2026-04-26T10:17:35Z</time></trkpt><trkpt lat="39.85127283580343" lon="18.280195425778093"><ele>92.0</ele><time>2026-04-26T10:17:36Z</time></trkpt><trkpt lat="39.85121279251723" lon="18.2800719566136"><ele>92.0</ele><time>2026-04-26T10:17:37Z</time></trkpt><trkpt lat="39.85116638777513" lon="18.279960551996567"><ele>92.0</ele><time>2026-04-26T10:17:38Z</time></trkpt><trkpt lat="39.851127705461934" lon="18.27986283108489"><ele>92.0</ele><time>2026-04-26T10:17:39Z</time></trkpt><trkpt lat="39.851097562078905" lon="18.27976882181102"><ele>92.0</ele><time>2026-04-26T10:17:40Z</time></trkpt><trkpt lat="39.85107496211546" lon="18.279674375996773"><ele>92.0</ele><time>2026-04-26T10:17:41Z</time></trkpt><trkpt lat="39.851058270949466" lon="18.27957597284075"><ele>92.0</ele><time>2026-04-26T10:17:42Z</time></trkpt><trkpt lat="39.851047655404244" lon="18.279461250328076"><ele>92.0</ele><time>2026-04-26T10:17:43Z</time></trkpt><trkpt lat="39.851044952482226" lon="18.279324275493792"><ele>92.0</ele><time>2026-04-26T10:17:44Z</time></trkpt><trkpt lat="39.85104676901139" lon="18.279166807206696"><ele>92.0</ele><time>2026-04-26T10:17:45Z</time></trkpt><trkpt lat="39.85105274276692" lon="18.278984792115303"><ele>91.75</ele><time>2026-04-26T10:17:46Z</time></trkpt><trkpt lat="39.851069505034715" lon="18.27880100049267"><ele>91.5</ele><time>2026-04-26T10:17:47Z</time></trkpt><trkpt lat="39.85109795332391" lon="18.278615133503454"><ele>91.25</ele><time>2026-04-26T10:17:48Z</time></trkpt><trkpt lat="39.85113184524219" lon="18.278426346005492"><ele>91.0</ele><time>2026-04-26T10:17:49Z</time></trkpt><trkpt lat="39.85116269632782" lon="18.278234630888214"><ele>90.75</ele><time>2026-04-26T10:17:50Z</time></trkpt><trkpt lat="39.851187363127096" lon="18.278039803592016"><ele>90.5</ele><time>2026-04-26T10:17:51Z</time></trkpt><trkpt lat="39.851168257510025" lon="18.27786555152487"><ele>90.25</ele><time>2026-04-26T10:17:52Z</time></trkpt><trkpt lat="39.85118746650466" lon="18.27768035068418"><ele>90.0</ele><time>2026-04-26T10:17:53Z</time></trkpt><trkpt lat="39.85120124752501" lon="18.277504987528978"><ele>90.0</ele><time>2026-04-26T10:17:54Z</time></trkpt><trkpt lat="39.851201444157525" lon="18.27732726420531"><ele>90.0</ele><time>2026-04-26T10:17:55Z</time></trkpt><trkpt lat="39.85118950659912" lon="18.277146733281423"><ele>90.0</ele><time>2026-04-26T10:17:56Z</time></trkpt><trkpt lat="39.85116518331877" lon="18.276963512874275"><ele>90.0</ele><time>2026-04-26T10:17:57Z</time></trkpt><trkpt lat="39.85112299239107" lon="18.276783973835812"><ele>89.75</ele><time>2026-04-26T10:17:58Z</time></trkpt><trkpt lat="39.85106708237022" lon="18.27660752099796"><ele>89.5</ele><time>2026-04-26T10:17:59Z</time></trkpt><trkpt lat="39.85100885242058" lon="18.276433964316528"><ele>89.25</ele><time>2026-04-26T10:18:00Z</time></trkpt><trkpt lat="39.850945338780924" lon="18.276275885697082"><ele>89.0</ele><time>2026-04-26T10:18:01Z</time></trkpt><trkpt lat="39.85089366810125" lon="18.27612048492429"><ele>88.5</ele><time>2026-04-26T10:18:02Z</time></trkpt><trkpt lat="39.85086014863129" lon="18.275959374150354"><ele>88.0</ele><time>2026-04-26T10:18:03Z</time></trkpt><trkpt lat="39.85085310326408" lon="18.27577091494057"><ele>87.5</ele><time>2026-04-26T10:18:04Z</time></trkpt><trkpt lat="39.85086110311445" lon="18.275575854090537"><ele>87.0</ele><time>2026-04-26T10:18:05Z</time></trkpt><trkpt lat="39.85087343137221" lon="18.275376099419358"><ele>87.0</ele><time>2026-04-26T10:18:06Z</time></trkpt><trkpt lat="39.85088816526189" lon="18.275171205166863"><ele>87.0</ele><time>2026-04-26T10:18:07Z</time></trkpt><trkpt lat="39.850902156177646" lon="18.27496630590335"><ele>87.0</ele><time>2026-04-26T10:18:08Z</time></trkpt><trkpt lat="39.85091591211458" lon="18.274759572774848"><ele>86.66666666666667</ele><time>2026-04-26T10:18:09Z</time></trkpt><trkpt lat="39.85092712986073" lon="18.274557689332266"><ele>86.33333333333334</ele><time>2026-04-26T10:18:10Z</time></trkpt><trkpt lat="39.85093637116897" lon="18.27435368310321"><ele>86.0</ele><time>2026-04-26T10:18:11Z</time></trkpt><trkpt lat="39.850945634608074" lon="18.274155493779272"><ele>86.0</ele><time>2026-04-26T10:18:12Z</time></trkpt><trkpt lat="39.85094823423636" lon="18.273960389752077"><ele>86.0</ele><time>2026-04-26T10:18:13Z</time></trkpt><trkpt lat="39.8509536931408" lon="18.273762672737444"><ele>86.0</ele><time>2026-04-26T10:18:14Z</time></trkpt><trkpt lat="39.850960686610954" lon="18.273567071288355"><ele>86.0</ele><time>2026-04-26T10:18:15Z</time></trkpt><trkpt lat="39.85095928217087" lon="18.273387539562474"><ele>86.0</ele><time>2026-04-26T10:18:16Z</time></trkpt><trkpt lat="39.85096436169453" lon="18.273214971400925"><ele>86.0</ele><time>2026-04-26T10:18:17Z</time></trkpt><trkpt lat="39.85096394553949" lon="18.27305332795466"><ele>86.0</ele><time>2026-04-26T10:18:18Z</time></trkpt><trkpt lat="39.85096321060083" lon="18.272907925069582"><ele>85.8</ele><time>2026-04-26T10:18:19Z</time></trkpt><trkpt lat="39.85095676335056" lon="18.272777262462473"><ele>85.6</ele><time>2026-04-26T10:18:20Z</time></trkpt><trkpt lat="39.85095627298693" lon="18.27267230916894"><ele>85.4</ele><time>2026-04-26T10:18:21Z</time></trkpt><trkpt lat="39.85096487359366" lon="18.272534305470067"><ele>85.2</ele><time>2026-04-26T10:18:23Z</time></trkpt><trkpt lat="39.85099273087644" lon="18.27240648670844"><ele>85.0</ele><time>2026-04-26T10:18:25Z</time></trkpt><trkpt lat="39.850969963679795" lon="18.272308099150187"><ele>85.0</ele><time>2026-04-26T10:18:27Z</time></trkpt><trkpt lat="39.85088346179021" lon="18.272271559380393"><ele>85.0</ele><time>2026-04-26T10:18:29Z</time></trkpt><trkpt lat="39.85080788529383" lon="18.27227278354162"><ele>85.0</ele><time>2026-04-26T10:18:30Z</time></trkpt><trkpt lat="39.85073277559146" lon="18.27226246977371"><ele>85.0</ele><time>2026-04-26T10:18:31Z</time></trkpt><trkpt lat="39.8506462187021" lon="18.272226296345874"><ele>85.0</ele><time>2026-04-26T10:18:32Z</time></trkpt><trkpt lat="39.85054453780127" lon="18.272155942720808"><ele>85.0</ele><time>2026-04-26T10:18:33Z</time></trkpt><trkpt lat="39.85042490090427" lon="18.27206326972338"><ele>85.0</ele><time>2026-04-26T10:18:34Z</time></trkpt><trkpt lat="39.850310694952825" lon="18.271974105340803"><ele>85.0</ele><time>2026-04-26T10:18:35Z</time></trkpt><trkpt lat="39.85020057032203" lon="18.271891694996025"><ele>85.0</ele><time>2026-04-26T10:18:36Z</time></trkpt><trkpt lat="39.85010662243385" lon="18.27180952750137"><ele>85.0</ele><time>2026-04-26T10:18:37Z</time></trkpt><trkpt lat="39.85002640092161" lon="18.27174412714546"><ele>85.33333333333333</ele><time>2026-04-26T10:18:38Z</time></trkpt><trkpt lat="39.84995698315668" lon="18.27168725448956"><ele>85.66666666666666</ele><time>2026-04-26T10:18:39Z</time></trkpt><trkpt lat="39.84986686551134" lon="18.271613932862984"><ele>86.0</ele><time>2026-04-26T10:18:41Z</time></trkpt><trkpt lat="39.84981132396786" lon="18.271556014854056"><ele>86.33333333333333</ele><time>2026-04-26T10:18:43Z</time></trkpt><trkpt lat="39.84975630058744" lon="18.271479637633846"><ele>86.66666666666667</ele><time>2026-04-26T10:18:55Z</time></trkpt><trkpt lat="39.84968840345155" lon="18.2714702873997"><ele>87.0</ele><time>2026-04-26T10:19:00Z</time></trkpt><trkpt lat="39.84974034104357" lon="18.27152387884083"><ele>87.0</ele><time>2026-04-26T10:22:26Z</time></trkpt><trkpt lat="39.84983768344308" lon="18.27161414925839"><ele>87.0</ele><time>2026-04-26T10:22:28Z</time></trkpt><trkpt lat="39.84990325373939" lon="18.271675919321467"><ele>87.0</ele><time>2026-04-26T10:22:29Z</time></trkpt><trkpt lat="39.84998380623993" lon="18.271744739135066"><ele>87.0</ele><time>2026-04-26T10:22:30Z</time></trkpt><trkpt lat="39.85009099241799" lon="18.271821602409624"><ele>87.0</ele><time>2026-04-26T10:22:31Z</time></trkpt><trkpt lat="39.85021321474056" lon="18.271917900203594"><ele>86.5</ele><time>2026-04-26T10:22:32Z</time></trkpt><trkpt lat="39.85032246985338" lon="18.272002630282756"><ele>86.0</ele><time>2026-04-26T10:22:33Z</time></trkpt><trkpt lat="39.85042993612448" lon="18.272083508774536"><ele>85.5</ele><time>2026-04-26T10:22:34Z</time></trkpt><trkpt lat="39.85052163105697" lon="18.27217212767697"><ele>85.0</ele><time>2026-04-26T10:22:35.001Z</time></trkpt><trkpt lat="39.85060045872222" lon="18.272236572111574"><ele>85.0</ele><time>2026-04-26T10:22:36.001Z</time></trkpt><trkpt lat="39.85065481090672" lon="18.272296871846102"><ele>85.0</ele><time>2026-04-26T10:22:37.001Z</time></trkpt><trkpt lat="39.850740882551534" lon="18.27240913575902"><ele>85.0</ele><time>2026-04-26T10:22:39.001Z</time></trkpt><trkpt lat="39.85078332461743" lon="18.27249642258175"><ele>85.0</ele><time>2026-04-26T10:22:40.001Z</time></trkpt><trkpt lat="39.85082315922151" lon="18.27260331632364"><ele>85.0</ele><time>2026-04-26T10:22:41.001Z</time></trkpt><trkpt lat="39.85085667726288" lon="18.272716685855148"><ele>85.0</ele><time>2026-04-26T10:22:42.001Z</time></trkpt><trkpt lat="39.85087939703486" lon="18.27283207474325"><ele>85.0</ele><time>2026-04-26T10:22:43.001Z</time></trkpt><trkpt lat="39.85089672258358" lon="18.27295614784352"><ele>85.0</ele><time>2026-04-26T10:22:44.001Z</time></trkpt><trkpt lat="39.85090572843205" lon="18.273085275831"><ele>85.0</ele><time>2026-04-26T10:22:45.001Z</time></trkpt><trkpt lat="39.85090999752471" lon="18.273217492864823"><ele>85.0</ele><time>2026-04-26T10:22:46.001Z</time></trkpt><trkpt lat="39.85091679804275" lon="18.273350468267186"><ele>85.25</ele><time>2026-04-26T10:22:47.001Z</time></trkpt><trkpt lat="39.85092244200313" lon="18.273492007256205"><ele>85.5</ele><time>2026-04-26T10:22:48.001Z</time></trkpt><trkpt lat="39.85092452322534" lon="18.27364278510254"><ele>85.75</ele><time>2026-04-26T10:22:49.001Z</time></trkpt><trkpt lat="39.85092227489817" lon="18.27380101322488"><ele>86.0</ele><time>2026-04-26T10:22:50.001Z</time></trkpt><trkpt lat="39.850919974557826" lon="18.273967304534306"><ele>86.0</ele><time>2026-04-26T10:22:51.001Z</time></trkpt><trkpt lat="39.85091503274853" lon="18.2741363078687"><ele>86.0</ele><time>2026-04-26T10:22:52.001Z</time></trkpt><trkpt lat="39.85091087791711" lon="18.27430966342053"><ele>86.0</ele><time>2026-04-26T10:22:53.001Z</time></trkpt><trkpt lat="39.85090583728051" lon="18.274480465462496"><ele>86.0</ele><time>2026-04-26T10:22:54Z</time></trkpt><trkpt lat="39.85089807837378" lon="18.274648502011843"><ele>86.25</ele><time>2026-04-26T10:22:55Z</time></trkpt><trkpt lat="39.85088704117293" lon="18.274804981914475"><ele>86.5</ele><time>2026-04-26T10:22:56.001Z</time></trkpt><trkpt lat="39.850878797388916" lon="18.274964277315362"><ele>86.75</ele><time>2026-04-26T10:22:57Z</time></trkpt><trkpt lat="39.850868862000986" lon="18.275132362488968"><ele>87.0</ele><time>2026-04-26T10:22:58Z</time></trkpt><trkpt lat="39.85086196181467" lon="18.275300158226162"><ele>87.0</ele><time>2026-04-26T10:22:59.001Z</time></trkpt><trkpt lat="39.850854757893394" lon="18.275466483215144"><ele>87.0</ele><time>2026-04-26T10:23:00Z</time></trkpt><trkpt lat="39.85084565334226" lon="18.275625854389787"><ele>87.0</ele><time>2026-04-26T10:23:01Z</time></trkpt><trkpt lat="39.850839277194" lon="18.275787900937953"><ele>87.0</ele><time>2026-04-26T10:23:02.001Z</time></trkpt><trkpt lat="39.85084490902764" lon="18.275946581512645"><ele>87.0</ele><time>2026-04-26T10:23:03Z</time></trkpt><trkpt lat="39.85086993959745" lon="18.27610554394258"><ele>87.0</ele><time>2026-04-26T10:23:04Z</time></trkpt><trkpt lat="39.850907168435704" lon="18.276271988147588"><ele>87.0</ele><time>2026-04-26T10:23:05.001Z</time></trkpt><trkpt lat="39.85095478485186" lon="18.27643382196594"><ele>87.0</ele><time>2026-04-26T10:23:06.001Z</time></trkpt><trkpt lat="39.851014396635364" lon="18.276596189740808"><ele>87.5</ele><time>2026-04-26T10:23:07.001Z</time></trkpt><trkpt lat="39.851073162997885" lon="18.27675594292364"><ele>88.0</ele><time>2026-04-26T10:23:08.001Z</time></trkpt><trkpt lat="39.85112332763016" lon="18.27692193823633"><ele>88.5</ele><time>2026-04-26T10:23:09.001Z</time></trkpt><trkpt lat="39.85116063654823" lon="18.277103013876694"><ele>89.0</ele><time>2026-04-26T10:23:10.001Z</time></trkpt><trkpt lat="39.85117997254893" lon="18.27728749079171"><ele>89.25</ele><time>2026-04-26T10:23:11.001Z</time></trkpt><trkpt lat="39.8511874239072" lon="18.277469494198158"><ele>89.5</ele><time>2026-04-26T10:23:12.001Z</time></trkpt><trkpt lat="39.85118179672559" lon="18.277654356256633"><ele>89.75</ele><time>2026-04-26T10:23:13.001Z</time></trkpt><trkpt lat="39.85116737192047" lon="18.277838707244932"><ele>90.0</ele><time>2026-04-26T10:23:14.001Z</time></trkpt><trkpt lat="39.85114611921148" lon="18.278020354195004"><ele>90.25</ele><time>2026-04-26T10:23:15.001Z</time></trkpt><trkpt lat="39.851122695519805" lon="18.278203198038245"><ele>90.5</ele><time>2026-04-26T10:23:16.001Z</time></trkpt><trkpt lat="39.851099306224754" lon="18.278388191477394"><ele>90.75</ele><time>2026-04-26T10:23:17.001Z</time></trkpt><trkpt lat="39.85107775780269" lon="18.27857200912874"><ele>91.0</ele><time>2026-04-26T10:23:18.001Z</time></trkpt><trkpt lat="39.85106042082233" lon="18.27874589859385"><ele>91.0</ele><time>2026-04-26T10:23:19.001Z</time></trkpt><trkpt lat="39.85104768419492" lon="18.278898488189036"><ele>91.0</ele><time>2026-04-26T10:23:20.001Z</time></trkpt><trkpt lat="39.85104016757924" lon="18.279044109806215"><ele>91.0</ele><time>2026-04-26T10:23:21.001Z</time></trkpt><trkpt lat="39.851037586468365" lon="18.27918385709001"><ele>91.0</ele><time>2026-04-26T10:23:22.001Z</time></trkpt><trkpt lat="39.85103510761355" lon="18.279316694174103"><ele>91.0</ele><time>2026-04-26T10:23:23.001Z</time></trkpt><trkpt lat="39.85102144039034" lon="18.27943847247231"><ele>91.19999999999999</ele><time>2026-04-26T10:23:24.001Z</time></trkpt><trkpt lat="39.85099764845958" lon="18.279557458897504"><ele>91.39999999999999</ele><time>2026-04-26T10:23:25.001Z</time></trkpt><trkpt lat="39.85096762733811" lon="18.27969159054787"><ele>91.6</ele><time>2026-04-26T10:23:26.001Z</time></trkpt><trkpt lat="39.850936845830056" lon="18.27982460581334"><ele>91.8</ele><time>2026-04-26T10:23:27.001Z</time></trkpt><trkpt lat="39.85090406124263" lon="18.27996546997216"><ele>92.0</ele><time>2026-04-26T10:23:28.001Z</time></trkpt><trkpt lat="39.85086677643562" lon="18.280106156575183"><ele>92.0</ele><time>2026-04-26T10:23:29.001Z</time></trkpt><trkpt lat="39.85082840137857" lon="18.280245858450474"><ele>92.0</ele><time>2026-04-26T10:23:30.001Z</time></trkpt><trkpt lat="39.850790014317575" lon="18.28038542897964"><ele>92.0</ele><time>2026-04-26T10:23:31.001Z</time></trkpt><trkpt lat="39.850751752525646" lon="18.280508798184766"><ele>92.0</ele><time>2026-04-26T10:23:32.001Z</time></trkpt><trkpt lat="39.850704281430374" lon="18.2806121181575"><ele>92.0</ele><time>2026-04-26T10:23:33.001Z</time></trkpt><trkpt lat="39.85064687761569" lon="18.28070875914011"><ele>92.0</ele><time>2026-04-26T10:23:34.001Z</time></trkpt><trkpt lat="39.85057628089005" lon="18.280802047240908"><ele>92.0</ele><time>2026-04-26T10:23:35.001Z</time></trkpt><trkpt lat="39.850503029508204" lon="18.280893793218333"><ele>92.0</ele><time>2026-04-26T10:23:36.001Z</time></trkpt><trkpt lat="39.85043902152635" lon="18.280993232236643"><ele>92.0</ele><time>2026-04-26T10:23:37.001Z</time></trkpt><trkpt lat="39.85037389053176" lon="18.28109976818757"><ele>92.0</ele><time>2026-04-26T10:23:38.001Z</time></trkpt><trkpt lat="39.85029733576793" lon="18.281198209296367"><ele>92.0</ele><time>2026-04-26T10:23:39.001Z</time></trkpt><trkpt lat="39.85022138775092" lon="18.281298635237302"><ele>92.0</ele><time>2026-04-26T10:23:40.001Z</time></trkpt><trkpt lat="39.85015695270193" lon="18.28141290395676"><ele>92.0</ele><time>2026-04-26T10:23:41.001Z</time></trkpt><trkpt lat="39.85010040094554" lon="18.281536229753193"><ele>92.0</ele><time>2026-04-26T10:23:42.001Z</time></trkpt><trkpt lat="39.85004301970492" lon="18.28166300352597"><ele>92.0</ele><time>2026-04-26T10:23:43.001Z</time></trkpt><trkpt lat="39.84998298641667" lon="18.281791579220492"><ele>91.8</ele><time>2026-04-26T10:23:44.001Z</time></trkpt><trkpt lat="39.849922239774116" lon="18.281920696755584"><ele>91.6</ele><time>2026-04-26T10:23:45.001Z</time></trkpt><trkpt lat="39.8498645543551" lon="18.28203904629018"><ele>91.39999999999999</ele><time>2026-04-26T10:23:46.001Z</time></trkpt><trkpt lat="39.849812358468476" lon="18.28214235501688"><ele>91.19999999999999</ele><time>2026-04-26T10:23:47.001Z</time></trkpt><trkpt lat="39.849763225746386" lon="18.282225224189506"><ele>91.0</ele><time>2026-04-26T10:23:48.001Z</time></trkpt><trkpt lat="39.84971357768602" lon="18.282290879273848"><ele>91.19999999999999</ele><time>2026-04-26T10:23:49.001Z</time></trkpt><trkpt lat="39.8496597700489" lon="18.282336759306293"><ele>91.39999999999999</ele><time>2026-04-26T10:23:50.001Z</time></trkpt><trkpt lat="39.849527398688444" lon="18.282376839581392"><ele>91.6</ele><time>2026-04-26T10:23:52.001Z</time></trkpt><trkpt lat="39.84944057346148" lon="18.282392062267046"><ele>91.8</ele><time>2026-04-26T10:23:53.001Z</time></trkpt><trkpt lat="39.849355912130015" lon="18.28241300443539"><ele>92.0</ele><time>2026-04-26T10:23:54.001Z</time></trkpt><trkpt lat="39.84928097887226" lon="18.282428378700438"><ele>92.0</ele><time>2026-04-26T10:23:55.001Z</time></trkpt><trkpt lat="39.84921592684787" lon="18.282439803939038"><ele>92.0</ele><time>2026-04-26T10:23:56.001Z</time></trkpt><trkpt lat="39.84911772755797" lon="18.282482502134002"><ele>92.0</ele><time>2026-04-26T10:23:58.001Z</time></trkpt><trkpt lat="39.849070231019795" lon="18.282542083444255"><ele>92.0</ele><time>2026-04-26T10:23:59.001Z</time></trkpt><trkpt lat="39.84902918758071" lon="18.282635596662782"><ele>92.0</ele><time>2026-04-26T10:24:00.001Z</time></trkpt><trkpt lat="39.848989386026204" lon="18.282732998025047"><ele>92.0</ele><time>2026-04-26T10:24:01.001Z</time></trkpt><trkpt lat="39.84896183654968" lon="18.282855281367052"><ele>92.0</ele><time>2026-04-26T10:24:02.001Z</time></trkpt><trkpt lat="39.848938618182466" lon="18.28300516925054"><ele>92.0</ele><time>2026-04-26T10:24:03.001Z</time></trkpt><trkpt lat="39.84891060934949" lon="18.28319783955058"><ele>92.0</ele><time>2026-04-26T10:24:04.001Z</time></trkpt><trkpt lat="39.84887642000152" lon="18.283397030086036"><ele>92.0</ele><time>2026-04-26T10:24:05.001Z</time></trkpt><trkpt lat="39.84884576784682" lon="18.283543882215476"><ele>92.0</ele><time>2026-04-26T10:24:06.001Z</time></trkpt><trkpt lat="39.84881511045952" lon="18.28365897859128"><ele>92.0</ele><time>2026-04-26T10:24:07.001Z</time></trkpt><trkpt lat="39.84877548031491" lon="18.28375388686705"><ele>92.0</ele><time>2026-04-26T10:24:08.001Z</time></trkpt><trkpt lat="39.84871586898503" lon="18.283848103262574"><ele>92.0</ele><time>2026-04-26T10:24:09.001Z</time></trkpt><trkpt lat="39.84864823815814" lon="18.283938341067703"><ele>92.0</ele><time>2026-04-26T10:24:10.001Z</time></trkpt><trkpt lat="39.84859942112249" lon="18.284008116345365"><ele>92.0</ele><time>2026-04-26T10:24:11.001Z</time></trkpt><trkpt lat="39.848538483753615" lon="18.284096430864494"><ele>91.83333333333334</ele><time>2026-04-26T10:24:13.001Z</time></trkpt><trkpt lat="39.84847139657549" lon="18.28407037842516"><ele>91.66666666666667</ele><time>2026-04-26T10:24:24.001Z</time></trkpt><trkpt lat="39.84843681793821" lon="18.283927456344706"><ele>91.5</ele><time>2026-04-26T10:24:26.001Z</time></trkpt><trkpt lat="39.84841212252699" lon="18.283832275963896"><ele>91.33333333333333</ele><time>2026-04-26T10:24:27.001Z</time></trkpt><trkpt lat="39.848386290367344" lon="18.28372353281838"><ele>91.16666666666666</ele><time>2026-04-26T10:24:28.001Z</time></trkpt><trkpt lat="39.84835821201767" lon="18.28360707860702"><ele>91.0</ele><time>2026-04-26T10:24:29.001Z</time></trkpt><trkpt lat="39.84832413507099" lon="18.283483182781872"><ele>91.0</ele><time>2026-04-26T10:24:30.001Z</time></trkpt><trkpt lat="39.84829147185949" lon="18.28334665085051"><ele>91.0</ele><time>2026-04-26T10:24:31.001Z</time></trkpt><trkpt lat="39.84825624494523" lon="18.283200308457822"><ele>91.0</ele><time>2026-04-26T10:24:32.001Z</time></trkpt><trkpt lat="39.84821440478657" lon="18.283048391461392"><ele>91.0</ele><time>2026-04-26T10:24:33.001Z</time></trkpt><trkpt lat="39.84816899120125" lon="18.282892862224514"><ele>90.75</ele><time>2026-04-26T10:24:34.001Z</time></trkpt><trkpt lat="39.848117032807075" lon="18.282751180938416"><ele>90.5</ele><time>2026-04-26T10:24:35.001Z</time></trkpt><trkpt lat="39.84804495952497" lon="18.282614614305803"><ele>90.25</ele><time>2026-04-26T10:24:36.001Z</time></trkpt><trkpt lat="39.84795289170638" lon="18.282487157907383"><ele>90.0</ele><time>2026-04-26T10:24:37.001Z</time></trkpt><trkpt lat="39.84784725439411" lon="18.282366935392393"><ele>90.0</ele><time>2026-04-26T10:24:38.001Z</time></trkpt><trkpt lat="39.847727859074794" lon="18.28226082437119"><ele>90.0</ele><time>2026-04-26T10:24:39.001Z</time></trkpt><trkpt lat="39.84759725242976" lon="18.282144262307302"><ele>90.0</ele><time>2026-04-26T10:24:40.001Z</time></trkpt><trkpt lat="39.8474459606768" lon="18.28202875808912"><ele>90.0</ele><time>2026-04-26T10:24:41.001Z</time></trkpt><trkpt lat="39.847295562107355" lon="18.281937111681906"><ele>90.0</ele><time>2026-04-26T10:24:42.001Z</time></trkpt><trkpt lat="39.84717835934961" lon="18.281858327874204"><ele>90.0</ele><time>2026-04-26T10:24:43.001Z</time></trkpt><trkpt lat="39.84708929554323" lon="18.281789123794113"><ele>90.0</ele><time>2026-04-26T10:24:44.001Z</time></trkpt><trkpt lat="39.84700753167309" lon="18.281728785414618"><ele>90.0</ele><time>2026-04-26T10:24:45.001Z</time></trkpt><trkpt lat="39.846938915348694" lon="18.281676536912176"><ele>90.0</ele><time>2026-04-26T10:24:46.001Z</time></trkpt><trkpt lat="39.84689620510303" lon="18.28161042609202"><ele>90.0</ele><time>2026-04-26T10:24:47.001Z</time></trkpt><trkpt lat="39.84686451979588" lon="18.281530480479393"><ele>90.0</ele><time>2026-04-26T10:24:48.001Z</time></trkpt><trkpt lat="39.84684912871944" lon="18.281439195535647"><ele>90.0</ele><time>2026-04-26T10:24:49.001Z</time></trkpt><trkpt lat="39.84684828451185" lon="18.2813218925207"><ele>90.0</ele><time>2026-04-26T10:24:50.001Z</time></trkpt><trkpt lat="39.8468483339225" lon="18.28117825426816"><ele>90.0</ele><time>2026-04-26T10:24:51.001Z</time></trkpt><trkpt lat="39.84684127943055" lon="18.281003694651357"><ele>90.0</ele><time>2026-04-26T10:24:52.001Z</time></trkpt><trkpt lat="39.846834872303674" lon="18.280819110503295"><ele>90.0</ele><time>2026-04-26T10:24:53.001Z</time></trkpt><trkpt lat="39.8468285829893" lon="18.280639117940293"><ele>90.0</ele><time>2026-04-26T10:24:54.001Z</time></trkpt><trkpt lat="39.84681441484137" lon="18.280459041645376"><ele>90.5</ele><time>2026-04-26T10:24:55.001Z</time></trkpt><trkpt lat="39.846804260550456" lon="18.28028134241553"><ele>91.0</ele><time>2026-04-26T10:24:56.001Z</time></trkpt><trkpt lat="39.84679003011592" lon="18.28010407886367"><ele>91.5</ele><time>2026-04-26T10:24:57.001Z</time></trkpt><trkpt lat="39.8467743080556" lon="18.27992644242324"><ele>92.0</ele><time>2026-04-26T10:24:58.001Z</time></trkpt><trkpt lat="39.846763715690585" lon="18.279743935452764"><ele>93.25</ele><time>2026-04-26T10:24:58.999Z</time></trkpt><trkpt lat="39.846758969400796" lon="18.279554326295944"><ele>94.5</ele><time>2026-04-26T10:24:59.999Z</time></trkpt><trkpt lat="39.84674688387727" lon="18.27936459978615"><ele>95.75</ele><time>2026-04-26T10:25:00.999Z</time></trkpt><trkpt lat="39.84672932646166" lon="18.279174915194798"><ele>97.0</ele><time>2026-04-26T10:25:01.999Z</time></trkpt><trkpt lat="39.84671444664026" lon="18.278988996717462"><ele>97.0</ele><time>2026-04-26T10:25:02.999Z</time></trkpt><trkpt lat="39.84670618886309" lon="18.27880501853725"><ele>97.0</ele><time>2026-04-26T10:25:03.999Z</time></trkpt><trkpt lat="39.846693999069096" lon="18.278630893448103"><ele>97.0</ele><time>2026-04-26T10:25:04.999Z</time></trkpt><trkpt lat="39.84667475683581" lon="18.27846480353121"><ele>97.0</ele><time>2026-04-26T10:25:05.999Z</time></trkpt><trkpt lat="39.84663782506547" lon="18.278311853422377"><ele>97.0</ele><time>2026-04-26T10:25:06.999Z</time></trkpt><trkpt lat="39.84658178985573" lon="18.27815992258483"><ele>97.0</ele><time>2026-04-26T10:25:07.999Z</time></trkpt><trkpt lat="39.846519642568786" lon="18.2780067271454"><ele>97.0</ele><time>2026-04-26T10:25:08.999Z</time></trkpt><trkpt lat="39.84645412498213" lon="18.277842904615078"><ele>97.0</ele><time>2026-04-26T10:25:09.999Z</time></trkpt><trkpt lat="39.846390095172595" lon="18.2776797072595"><ele>96.75</ele><time>2026-04-26T10:25:11Z</time></trkpt><trkpt lat="39.84633326171509" lon="18.277524646029864"><ele>96.5</ele><time>2026-04-26T10:25:11.999Z</time></trkpt><trkpt lat="39.8462807980976" lon="18.27738601745244"><ele>96.25</ele><time>2026-04-26T10:25:12.999Z</time></trkpt><trkpt lat="39.84622638875608" lon="18.27726178025455"><ele>96.0</ele><time>2026-04-26T10:25:13.999Z</time></trkpt><trkpt lat="39.846164564171055" lon="18.27714448027962"><ele>95.25</ele><time>2026-04-26T10:25:14.999Z</time></trkpt><trkpt lat="39.846092190152405" lon="18.27704216128415"><ele>94.5</ele><time>2026-04-26T10:25:15.999Z</time></trkpt><trkpt lat="39.84601557500257" lon="18.27694013326764"><ele>93.75</ele><time>2026-04-26T10:25:16.999Z</time></trkpt><trkpt lat="39.84593252973966" lon="18.276826707739406"><ele>93.0</ele><time>2026-04-26T10:25:17.999Z</time></trkpt><trkpt lat="39.845844641342836" lon="18.276709119033615"><ele>92.25</ele><time>2026-04-26T10:25:18.999Z</time></trkpt><trkpt lat="39.845741210301675" lon="18.276590846387258"><ele>91.5</ele><time>2026-04-26T10:25:19.999Z</time></trkpt><trkpt lat="39.84564520967145" lon="18.276480962035546"><ele>90.75</ele><time>2026-04-26T10:25:20.999Z</time></trkpt><trkpt lat="39.845554513369656" lon="18.276370572606925"><ele>90.0</ele><time>2026-04-26T10:25:21.999Z</time></trkpt><trkpt lat="39.84546852199588" lon="18.276252828056133"><ele>89.0</ele><time>2026-04-26T10:25:22.999Z</time></trkpt><trkpt lat="39.84538697400446" lon="18.27614362429717"><ele>88.0</ele><time>2026-04-26T10:25:23.999Z</time></trkpt><trkpt lat="39.84530347526956" lon="18.276040312425692"><ele>87.0</ele><time>2026-04-26T10:25:24.999Z</time></trkpt><trkpt lat="39.845220713420844" lon="18.275939109245684"><ele>86.0</ele><time>2026-04-26T10:25:25.999Z</time></trkpt><trkpt lat="39.84513922498764" lon="18.275848387112642"><ele>85.25</ele><time>2026-04-26T10:25:26.999Z</time></trkpt><trkpt lat="39.84506026432834" lon="18.27575040918709"><ele>84.5</ele><time>2026-04-26T10:25:27.999Z</time></trkpt><trkpt lat="39.84497708062722" lon="18.275655726147974"><ele>83.75</ele><time>2026-04-26T10:25:28.999Z</time></trkpt><trkpt lat="39.844890085275296" lon="18.275560931930606"><ele>83.0</ele><time>2026-04-26T10:25:29.999Z</time></trkpt><trkpt lat="39.84479707121614" lon="18.27545866660339"><ele>82.25</ele><time>2026-04-26T10:25:30.999Z</time></trkpt><trkpt lat="39.84469569297674" lon="18.275346869702442"><ele>81.5</ele><time>2026-04-26T10:25:31.999Z</time></trkpt><trkpt lat="39.844583246612096" lon="18.275233002031488"><ele>80.75</ele><time>2026-04-26T10:25:33Z</time></trkpt><trkpt lat="39.844476095199454" lon="18.275126256386947"><ele>80.0</ele><time>2026-04-26T10:25:34Z</time></trkpt><trkpt lat="39.84436138585384" lon="18.275043035042444"><ele>79.75</ele><time>2026-04-26T10:25:35Z</time></trkpt><trkpt lat="39.844251802632805" lon="18.274989783779123"><ele>79.5</ele><time>2026-04-26T10:25:36Z</time></trkpt><trkpt lat="39.84413191134534" lon="18.27496953692985"><ele>79.25</ele><time>2026-04-26T10:25:37Z</time></trkpt><trkpt lat="39.84402515971977" lon="18.2749628318768"><ele>79.0</ele><time>2026-04-26T10:25:38Z</time></trkpt><trkpt lat="39.843894498246634" lon="18.274969550581773"><ele>79.0</ele><time>2026-04-26T10:25:39Z</time></trkpt><trkpt lat="39.84375484897344" lon="18.2749898164774"><ele>79.0</ele><time>2026-04-26T10:25:40Z</time></trkpt><trkpt lat="39.84362160746872" lon="18.275006448004696"><ele>79.0</ele><time>2026-04-26T10:25:41Z</time></trkpt><trkpt lat="39.8434681879281" lon="18.275050356453434"><ele>79.0</ele><time>2026-04-26T10:25:42Z</time></trkpt><trkpt lat="39.843353980638035" lon="18.27511766503656"><ele>77.0</ele><time>2026-04-26T10:25:43Z</time></trkpt><trkpt lat="39.84348731669826" lon="18.274215999959473"><ele>75.75</ele><time>2026-04-26T10:25:44Z</time></trkpt><trkpt lat="39.84337801902652" lon="18.27414284378267"><ele>74.5</ele><time>2026-04-26T10:25:45Z</time></trkpt><trkpt lat="39.84327249293114" lon="18.274070917712095"><ele>73.25</ele><time>2026-04-26T10:25:46Z</time></trkpt><trkpt lat="39.84316797627059" lon="18.273996749219997"><ele>72.0</ele><time>2026-04-26T10:25:47Z</time></trkpt><trkpt lat="39.84305857110444" lon="18.273919100627875"><ele>71.25</ele><time>2026-04-26T10:25:48Z</time></trkpt><trkpt lat="39.842956888112596" lon="18.273841797439363"><ele>70.5</ele><time>2026-04-26T10:25:49Z</time></trkpt><trkpt lat="39.842861348532644" lon="18.273765542471292"><ele>69.75</ele><time>2026-04-26T10:25:50Z</time></trkpt><trkpt lat="39.84276924375562" lon="18.273685525432185"><ele>69.0</ele><time>2026-04-26T10:25:51Z</time></trkpt><trkpt lat="39.84267868310785" lon="18.273599286164416"><ele>68.4</ele><time>2026-04-26T10:25:52Z</time></trkpt><trkpt lat="39.84258797742476" lon="18.273510660820342"><ele>67.80000000000001</ele><time>2026-04-26T10:25:53Z</time></trkpt><trkpt lat="39.84249536993726" lon="18.27342044851249"><ele>67.19999999999999</ele><time>2026-04-26T10:25:54Z</time></trkpt><trkpt lat="39.84240743860673" lon="18.273333044993404"><ele>66.6</ele><time>2026-04-26T10:25:55Z</time></trkpt><trkpt lat="39.842324128406005" lon="18.273248428177947"><ele>66.0</ele><time>2026-04-26T10:25:56Z</time></trkpt><trkpt lat="39.84224865214959" lon="18.27317142131611"><ele>66.0</ele><time>2026-04-26T10:25:57Z</time></trkpt><trkpt lat="39.84218785776543" lon="18.27310598776801"><ele>66.0</ele><time>2026-04-26T10:25:58Z</time></trkpt><trkpt lat="39.84215219536553" lon="18.2729925277557"><ele>66.0</ele><time>2026-04-26T10:26:00Z</time></trkpt><trkpt lat="39.84219032454598" lon="18.272871548061765"><ele>66.0</ele><time>2026-04-26T10:26:02Z</time></trkpt><trkpt lat="39.84223235014471" lon="18.272805017950006"><ele>66.0</ele><time>2026-04-26T10:26:03Z</time></trkpt><trkpt lat="39.842292537772046" lon="18.272742701850472"><ele>66.0</ele><time>2026-04-26T10:26:04Z</time></trkpt><trkpt lat="39.84235188824673" lon="18.27268037185731"><ele>65.83333333333333</ele><time>2026-04-26T10:26:05Z</time></trkpt><trkpt lat="39.84238891670975" lon="18.272610648199148"><ele>65.66666666666667</ele><time>2026-04-26T10:26:06Z</time></trkpt><trkpt lat="39.842425423930614" lon="18.27253523718273"><ele>65.5</ele><time>2026-04-26T10:26:07Z</time></trkpt><trkpt lat="39.84240140215115" lon="18.272414463086594"><ele>65.33333333333334</ele><time>2026-04-26T10:26:09Z</time></trkpt><trkpt lat="39.84230606951678" lon="18.27234487570552"><ele>65.16666666666667</ele><time>2026-04-26T10:26:11Z</time></trkpt><trkpt lat="39.84223879367111" lon="18.272340427558504"><ele>65.0</ele><time>2026-04-26T10:26:12Z</time></trkpt><trkpt lat="39.84215273317688" lon="18.272336442787164"><ele>65.0</ele><time>2026-04-26T10:26:13Z</time></trkpt><trkpt lat="39.84203920931774" lon="18.272338848586145"><ele>65.0</ele><time>2026-04-26T10:26:14Z</time></trkpt><trkpt lat="39.84192015789093" lon="18.27234111697269"><ele>65.0</ele><time>2026-04-26T10:26:15Z</time></trkpt><trkpt lat="39.841812550864425" lon="18.272329453233052"><ele>65.0</ele><time>2026-04-26T10:26:16Z</time></trkpt><trkpt lat="39.841728730055365" lon="18.272313068145557"><ele>65.0</ele><time>2026-04-26T10:26:17Z</time></trkpt><trkpt lat="39.84165294286804" lon="18.272282829100174"><ele>62.2</ele><time>2026-04-26T10:26:18Z</time></trkpt><trkpt lat="39.84158138006603" lon="18.272219606740055"><ele>59.4</ele><time>2026-04-26T10:26:19Z</time></trkpt><trkpt lat="39.841515257220045" lon="18.272132549115167"><ele>56.599999999999994</ele><time>2026-04-26T10:26:20Z</time></trkpt><trkpt lat="39.841452741800325" lon="18.272023023659358"><ele>53.8</ele><time>2026-04-26T10:26:21Z</time></trkpt><trkpt lat="39.84138097836014" lon="18.271926948922804"><ele>51.0</ele><time>2026-04-26T10:26:22Z</time></trkpt><trkpt lat="39.84131181436324" lon="18.271847053149088"><ele>51.0</ele><time>2026-04-26T10:26:23Z</time></trkpt><trkpt lat="39.84123952160546" lon="18.271778825388346"><ele>51.0</ele><time>2026-04-26T10:26:24Z</time></trkpt><trkpt lat="39.84116197251117" lon="18.271706932637425"><ele>51.0</ele><time>2026-04-26T10:26:25Z</time></trkpt><trkpt lat="39.841089788140266" lon="18.27163889054936"><ele>51.0</ele><time>2026-04-26T10:26:26Z</time></trkpt><trkpt lat="39.84101603644142" lon="18.271570678705174"><ele>51.0</ele><time>2026-04-26T10:26:27Z</time></trkpt><trkpt lat="39.84093268999979" lon="18.271496328929274"><ele>49.0</ele><time>2026-04-26T10:26:28Z</time></trkpt><trkpt lat="39.84084996457247" lon="18.27141949923714"><ele>47.0</ele><time>2026-04-26T10:26:29Z</time></trkpt><trkpt lat="39.8407677210251" lon="18.27134239445228"><ele>45.0</ele><time>2026-04-26T10:26:30Z</time></trkpt><trkpt lat="39.840691656796885" lon="18.271267743143973"><ele>43.0</ele><time>2026-04-26T10:26:31Z</time></trkpt><trkpt lat="39.84061843058539" lon="18.271195626937445"><ele>41.0</ele><time>2026-04-26T10:26:32Z</time></trkpt><trkpt lat="39.84054689715292" lon="18.271124640239574"><ele>41.0</ele><time>2026-04-26T10:26:33Z</time></trkpt><trkpt lat="39.840476906086735" lon="18.27105498112048"><ele>41.0</ele><time>2026-04-26T10:26:34Z</time></trkpt><trkpt lat="39.84040246793446" lon="18.270987160703026"><ele>41.0</ele><time>2026-04-26T10:26:35Z</time></trkpt><trkpt lat="39.84032978000364" lon="18.27091830848328"><ele>41.0</ele><time>2026-04-26T10:26:36Z</time></trkpt><trkpt lat="39.840256357415704" lon="18.27084301644268"><ele>41.0</ele><time>2026-04-26T10:26:37Z</time></trkpt><trkpt lat="39.84017927817059" lon="18.27076130693982"><ele>39.8</ele><time>2026-04-26T10:26:38Z</time></trkpt><trkpt lat="39.840091629661" lon="18.27067686080612"><ele>38.599999999999994</ele><time>2026-04-26T10:26:39Z</time></trkpt><trkpt lat="39.84000416350445" lon="18.270588882555916"><ele>37.4</ele><time>2026-04-26T10:26:40Z</time></trkpt><trkpt lat="39.83991753351139" lon="18.27050521589479"><ele>36.2</ele><time>2026-04-26T10:26:41Z</time></trkpt><trkpt lat="39.8398365248105" lon="18.270422674071494"><ele>35.0</ele><time>2026-04-26T10:26:42Z</time></trkpt><trkpt lat="39.839750958002696" lon="18.270339413152357"><ele>34.5</ele><time>2026-04-26T10:26:43Z</time></trkpt><trkpt lat="39.83965453424588" lon="18.27024855579174"><ele>34.0</ele><time>2026-04-26T10:26:44Z</time></trkpt><trkpt lat="39.83954519506379" lon="18.270139025821027"><ele>33.5</ele><time>2026-04-26T10:26:45Z</time></trkpt><trkpt lat="39.83943889607592" lon="18.270026466090645"><ele>33.0</ele><time>2026-04-26T10:26:46Z</time></trkpt><trkpt lat="39.839348375167596" lon="18.26992227125216"><ele>31.75</ele><time>2026-04-26T10:26:47Z</time></trkpt><trkpt lat="39.83926290657374" lon="18.269808661221816"><ele>30.5</ele><time>2026-04-26T10:26:48Z</time></trkpt><trkpt lat="39.839177863274585" lon="18.269690052578614"><ele>29.25</ele><time>2026-04-26T10:26:49Z</time></trkpt><trkpt lat="39.83909522291051" lon="18.269570127685228"><ele>28.0</ele><time>2026-04-26T10:26:50Z</time></trkpt><trkpt lat="39.83901516202851" lon="18.269458049329064"><ele>27.4</ele><time>2026-04-26T10:26:51Z</time></trkpt><trkpt lat="39.838923908397106" lon="18.26936117801199"><ele>26.799999999999997</ele><time>2026-04-26T10:26:52Z</time></trkpt><trkpt lat="39.83883481478644" lon="18.269285455089026"><ele>26.2</ele><time>2026-04-26T10:26:53Z</time></trkpt><trkpt lat="39.838756143823865" lon="18.269233833823847"><ele>25.6</ele><time>2026-04-26T10:26:54Z</time></trkpt><trkpt lat="39.83869478029647" lon="18.26920873730936"><ele>25.0</ele><time>2026-04-26T10:26:55Z</time></trkpt><trkpt lat="39.83862084986899" lon="18.269133717380544"><ele>25.000000000000004</ele><time>2026-04-26T10:26:57Z</time></trkpt><trkpt lat="39.83858731094337" lon="18.269002027463653"><ele>25.0</ele><time>2026-04-26T10:26:59Z</time></trkpt><trkpt lat="39.83858606159483" lon="18.268915025118712"><ele>25.0</ele><time>2026-04-26T10:27:00Z</time></trkpt><trkpt lat="39.83859775351683" lon="18.26882361539715"><ele>25.0</ele><time>2026-04-26T10:27:01Z</time></trkpt><trkpt lat="39.83859521021067" lon="18.26873682501396"><ele>25.000000000000004</ele><time>2026-04-26T10:27:02Z</time></trkpt><trkpt lat="39.8385643756821" lon="18.268664275904037"><ele>25.0</ele><time>2026-04-26T10:27:03Z</time></trkpt><trkpt lat="39.83847244990698" lon="18.26858182510699"><ele>23.6</ele><time>2026-04-26T10:27:04.999Z</time></trkpt><trkpt lat="39.838355967303904" lon="18.26859332872161"><ele>22.2</ele><time>2026-04-26T10:27:06.999Z</time></trkpt><trkpt lat="39.8382811270492" lon="18.268631272714774"><ele>20.8</ele><time>2026-04-26T10:27:07.999Z</time></trkpt><trkpt lat="39.838185412229436" lon="18.26868588800213"><ele>19.4</ele><time>2026-04-26T10:27:08.999Z</time></trkpt><trkpt lat="39.83809651315837" lon="18.268723421293217"><ele>18.0</ele><time>2026-04-26T10:27:09.999Z</time></trkpt><trkpt lat="39.83801286750499" lon="18.26875013761904"><ele>18.0</ele><time>2026-04-26T10:27:10.999Z</time></trkpt><trkpt lat="39.83794122557024" lon="18.268774571603668"><ele>18.0</ele><time>2026-04-26T10:27:11.999Z</time></trkpt><trkpt lat="39.83782794565074" lon="18.268751880304865"><ele>18.0</ele><time>2026-04-26T10:27:13.999Z</time></trkpt><trkpt lat="39.837765265132035" lon="18.268705930250093"><ele>18.0</ele><time>2026-04-26T10:27:14.999Z</time></trkpt><trkpt lat="39.83768046084473" lon="18.268633867160034"><ele>18.0</ele><time>2026-04-26T10:27:15.999Z</time></trkpt><trkpt lat="39.83757743908469" lon="18.26856159917599"><ele>17.0</ele><time>2026-04-26T10:27:16.999Z</time></trkpt><trkpt lat="39.83747482311662" lon="18.26848737877992"><ele>16.0</ele><time>2026-04-26T10:27:17.999Z</time></trkpt><trkpt lat="39.83737044568287" lon="18.26841014813755"><ele>15.0</ele><time>2026-04-26T10:27:18.999Z</time></trkpt><trkpt lat="39.83728128152986" lon="18.268345102900167"><ele>14.0</ele><time>2026-04-26T10:27:19.999Z</time></trkpt><trkpt lat="39.837192148586844" lon="18.268280356319764"><ele>13.0</ele><time>2026-04-26T10:27:20.999Z</time></trkpt><trkpt lat="39.837110365573274" lon="18.268221139046688"><ele>13.0</ele><time>2026-04-26T10:27:21.999Z</time></trkpt><trkpt lat="39.83703066601222" lon="18.268165368459186"><ele>13.0</ele><time>2026-04-26T10:27:22.999Z</time></trkpt><trkpt lat="39.83694993576737" lon="18.26811114895242"><ele>13.0</ele><time>2026-04-26T10:27:23.999Z</time></trkpt><trkpt lat="39.83685834959683" lon="18.268050240116068"><ele>13.0</ele><time>2026-04-26T10:27:24.999Z</time></trkpt><trkpt lat="39.83676444063195" lon="18.26798832095065"><ele>13.0</ele><time>2026-04-26T10:27:25.999Z</time></trkpt><trkpt lat="39.83667464727459" lon="18.267919923635056"><ele>11.666666666666666</ele><time>2026-04-26T10:27:26.999Z</time></trkpt><trkpt lat="39.83659504092857" lon="18.26785864636781"><ele>10.333333333333332</ele><time>2026-04-26T10:27:27.999Z</time></trkpt><trkpt lat="39.8365272514783" lon="18.267805529965578"><ele>9.0</ele><time>2026-04-26T10:27:28.999Z</time></trkpt><trkpt lat="39.83644679621281" lon="18.267733027039725"><ele>7.666666666666666</ele><time>2026-04-26T10:27:30.999Z</time></trkpt><trkpt lat="39.83638132658165" lon="18.26769895467784"><ele>6.333333333333334</ele><time>2026-04-26T10:27:36.999Z</time></trkpt><trkpt lat="39.836293874494096" lon="18.267648028077087"><ele>5.0</ele><time>2026-04-26T10:27:38.999Z</time></trkpt><trkpt lat="39.83622407367377" lon="18.267601633492585"><ele>5.0</ele><time>2026-04-26T10:27:39.999Z</time></trkpt><trkpt lat="39.83614599574347" lon="18.267542240430206"><ele>5.0</ele><time>2026-04-26T10:27:40.999Z</time></trkpt><trkpt lat="39.83603899801977" lon="18.267479644421787"><ele>5.0</ele><time>2026-04-26T10:27:41.999Z</time></trkpt><trkpt lat="39.835891944558334" lon="18.26738141251726"><ele>5.0</ele><time>2026-04-26T10:27:42.999Z</time></trkpt><trkpt lat="39.835744348746964" lon="18.267273399846136"><ele>4.5</ele><time>2026-04-26T10:27:44Z</time></trkpt><trkpt lat="39.83563077141671" lon="18.26719593228244"><ele>4.0</ele><time>2026-04-26T10:27:45Z</time></trkpt><trkpt lat="39.83555593728293" lon="18.26713746867578"><ele>3.5</ele><time>2026-04-26T10:27:46Z</time></trkpt><trkpt lat="39.83549856684991" lon="18.267096028141303"><ele>3.0</ele><time>2026-04-26T10:27:47Z</time></trkpt><trkpt lat="39.83542536463286" lon="18.267036685327366"><ele>2.5</ele><time>2026-04-26T10:27:49Z</time></trkpt><trkpt lat="39.835398460546486" lon="18.26694611238893"><ele>2.0</ele><time>2026-04-26T10:28:18Z</time></trkpt><trkpt lat="39.835425721849255" lon="18.266861931464263"><ele>1.9999999999999998</ele><time>2026-04-26T10:28:19Z</time></trkpt><trkpt lat="39.835462078903106" lon="18.266772649473022"><ele>2.0</ele><time>2026-04-26T10:28:20Z</time></trkpt><trkpt lat="39.83550366725639" lon="18.266668564877346"><ele>2.0</ele><time>2026-04-26T10:28:21Z</time></trkpt><trkpt lat="39.83554602462905" lon="18.26656538416075"><ele>2.0</ele><time>2026-04-26T10:28:22Z</time></trkpt><trkpt lat="39.83558827165121" lon="18.266474026544426"><ele>1.9999999999999998</ele><time>2026-04-26T10:28:23Z</time></trkpt><trkpt lat="39.835630467971534" lon="18.266397248237222"><ele>2.0</ele><time>2026-04-26T10:28:24Z</time></trkpt><trkpt lat="39.83567376220481" lon="18.26631826176184"><ele>1.8333333333333333</ele><time>2026-04-26T10:28:25Z</time></trkpt><trkpt lat="39.83571772051505" lon="18.266240997153034"><ele>1.6666666666666665</ele><time>2026-04-26T10:28:26Z</time></trkpt><trkpt lat="39.83576568916071" lon="18.26616475232494"><ele>1.5</ele><time>2026-04-26T10:28:27Z</time></trkpt><trkpt lat="39.83580681788237" lon="18.266092680428997"><ele>1.3333333333333333</ele><time>2026-04-26T10:28:28Z</time></trkpt><trkpt lat="39.83588745503808" lon="18.265953446345733"><ele>1.1666666666666665</ele><time>2026-04-26T10:28:30Z</time></trkpt><trkpt lat="39.83593393278726" lon="18.26586994012529"><ele>1.0</ele><time>2026-04-26T10:28:31Z</time></trkpt><trkpt lat="39.83598972916414" lon="18.265772653057837"><ele>1.0</ele><time>2026-04-26T10:28:32Z</time></trkpt><trkpt lat="39.83605011819194" lon="18.26566029316443"><ele>1.0</ele><time>2026-04-26T10:28:33Z</time></trkpt><trkpt lat="39.8361093056654" lon="18.265550608123377"><ele>1.0</ele><time>2026-04-26T10:28:34Z</time></trkpt><trkpt lat="39.83616880517822" lon="18.265442196771115"><ele>1.0</ele><time>2026-04-26T10:28:35Z</time></trkpt><trkpt lat="39.836228207918154" lon="18.265332517219655"><ele>1.0</ele><time>2026-04-26T10:28:36Z</time></trkpt><trkpt lat="39.836282909752704" lon="18.265220447183506"><ele>1.0</ele><time>2026-04-26T10:28:37Z</time></trkpt><trkpt lat="39.836330582266896" lon="18.26511035544759"><ele>1.0</ele><time>2026-04-26T10:28:38Z</time></trkpt><trkpt lat="39.83637645525148" lon="18.264997336342944"><ele>1.0</ele><time>2026-04-26T10:28:39Z</time></trkpt><trkpt lat="39.836420963211324" lon="18.264874481527567"><ele>1.0</ele><time>2026-04-26T10:28:40Z</time></trkpt><trkpt lat="39.836464217207556" lon="18.264741225857943"><ele>1.0</ele><time>2026-04-26T10:28:41Z</time></trkpt><trkpt lat="39.836507832830975" lon="18.26459630799065"><ele>1.0</ele><time>2026-04-26T10:28:42Z</time></trkpt><trkpt lat="39.83654974987505" lon="18.264449358558462"><ele>1.0</ele><time>2026-04-26T10:28:43Z</time></trkpt><trkpt lat="39.83659086415242" lon="18.264299614971936"><ele>1.0</ele><time>2026-04-26T10:28:44Z</time></trkpt><trkpt lat="39.83662741205088" lon="18.26414300551773"><ele>1.0</ele><time>2026-04-26T10:28:45Z</time></trkpt><trkpt lat="39.83666793009472" lon="18.263978904680194"><ele>1.0</ele><time>2026-04-26T10:28:46Z</time></trkpt><trkpt lat="39.83670615921381" lon="18.263817655776894"><ele>1.0</ele><time>2026-04-26T10:28:47Z</time></trkpt><trkpt lat="39.83674045547496" lon="18.26366935700867"><ele>1.0</ele><time>2026-04-26T10:28:48Z</time></trkpt><trkpt lat="39.83677568874423" lon="18.263533249665016"><ele>1.0</ele><time>2026-04-26T10:28:49Z</time></trkpt><trkpt lat="39.8368057887922" lon="18.263413895697084"><ele>1.1666666666666665</ele><time>2026-04-26T10:28:50Z</time></trkpt><trkpt lat="39.83682905625768" lon="18.263307887304563"><ele>1.3333333333333333</ele><time>2026-04-26T10:28:51Z</time></trkpt><trkpt lat="39.836848441405515" lon="18.26322820801377"><ele>1.5</ele><time>2026-04-26T10:28:52Z</time></trkpt><trkpt lat="39.836873403284415" lon="18.2631324740911"><ele>1.6666666666666665</ele><time>2026-04-26T10:28:55Z</time></trkpt><trkpt lat="39.83688974122753" lon="18.26304430842366"><ele>1.8333333333333333</ele><time>2026-04-26T10:29:03Z</time></trkpt><trkpt lat="39.83690377280017" lon="18.262894339456974"><ele>2.0</ele><time>2026-04-26T10:29:05Z</time></trkpt><trkpt lat="39.83691099978681" lon="18.26280091834207"><ele>2.2</ele><time>2026-04-26T10:29:06Z</time></trkpt><trkpt lat="39.836914549262474" lon="18.26268340925636"><ele>2.4000000000000004</ele><time>2026-04-26T10:29:07Z</time></trkpt><trkpt lat="39.83690873767768" lon="18.262559727558923"><ele>2.5999999999999996</ele><time>2026-04-26T10:29:08Z</time></trkpt><trkpt lat="39.8369005247571" lon="18.2624355949779"><ele>2.8</ele><time>2026-04-26T10:29:09Z</time></trkpt><trkpt lat="39.836895067444736" lon="18.262315958094224"><ele>3.0</ele><time>2026-04-26T10:29:10Z</time></trkpt><trkpt lat="39.83688724154784" lon="18.26219754321664"><ele>3.0</ele><time>2026-04-26T10:29:11Z</time></trkpt><trkpt lat="39.83687259351865" lon="18.26208768977661"><ele>3.0</ele><time>2026-04-26T10:29:11.999Z</time></trkpt><trkpt lat="39.83686110022804" lon="18.261981774802035"><ele>3.0</ele><time>2026-04-26T10:29:12.999Z</time></trkpt><trkpt lat="39.83684980642187" lon="18.261862808509548"><ele>3.0</ele><time>2026-04-26T10:29:14Z</time></trkpt><trkpt lat="39.83683720597214" lon="18.261724050319422"><ele>3.0</ele><time>2026-04-26T10:29:14.999Z</time></trkpt><trkpt lat="39.83681825585087" lon="18.261554375178516"><ele>2.75</ele><time>2026-04-26T10:29:15.999Z</time></trkpt><trkpt lat="39.836802545596385" lon="18.261402951331643"><ele>2.5</ele><time>2026-04-26T10:29:17Z</time></trkpt><trkpt lat="39.8367843751448" lon="18.261258336302905"><ele>2.25</ele><time>2026-04-26T10:29:17.999Z</time></trkpt><trkpt lat="39.83676702650555" lon="18.26111443527456"><ele>2.0</ele><time>2026-04-26T10:29:18.999Z</time></trkpt><trkpt lat="39.836750459682136" lon="18.260968559915845"><ele>2.0</ele><time>2026-04-26T10:29:20Z</time></trkpt><trkpt lat="39.8367353045408" lon="18.260817141750294"><ele>2.0</ele><time>2026-04-26T10:29:20.999Z</time></trkpt><trkpt lat="39.8367176017875" lon="18.260656609617172"><ele>2.0</ele><time>2026-04-26T10:29:22Z</time></trkpt><trkpt lat="39.836699057116896" lon="18.260483223390892"><ele>2.0</ele><time>2026-04-26T10:29:22.999Z</time></trkpt><trkpt lat="39.83668389761622" lon="18.26030087554559"><ele>1.75</ele><time>2026-04-26T10:29:23.999Z</time></trkpt><trkpt lat="39.83666932633299" lon="18.260120651063804"><ele>1.5</ele><time>2026-04-26T10:29:25Z</time></trkpt><trkpt lat="39.83666730590727" lon="18.259954451442823"><ele>1.25</ele><time>2026-04-26T10:29:26Z</time></trkpt><trkpt lat="39.83666342189623" lon="18.259799225596836"><ele>1.0</ele><time>2026-04-26T10:29:27Z</time></trkpt><trkpt lat="39.83666153704214" lon="18.25964762285896"><ele>0.75</ele><time>2026-04-26T10:29:28Z</time></trkpt><trkpt lat="39.83667020007792" lon="18.259486953044757"><ele>0.5</ele><time>2026-04-26T10:29:29Z</time></trkpt><trkpt lat="39.83669057895322" lon="18.259346331265302"><ele>0.25</ele><time>2026-04-26T10:29:30Z</time></trkpt><trkpt lat="39.83672831351339" lon="18.25920719747442"><ele>0.0</ele><time>2026-04-26T10:29:31Z</time></trkpt><trkpt lat="39.83677810954954" lon="18.25904269378682"><ele>0.25</ele><time>2026-04-26T10:29:32Z</time></trkpt><trkpt lat="39.83681170884704" lon="18.258890930146336"><ele>0.5</ele><time>2026-04-26T10:29:33Z</time></trkpt><trkpt lat="39.836828695132205" lon="18.258728477751472"><ele>0.75</ele><time>2026-04-26T10:29:34Z</time></trkpt><trkpt lat="39.836858116315206" lon="18.258594014551683"><ele>1.0</ele><time>2026-04-26T10:29:35Z</time></trkpt><trkpt lat="39.83690827336257" lon="18.258456816021244"><ele>1.0</ele><time>2026-04-26T10:29:36Z</time></trkpt><trkpt lat="39.83695000325032" lon="18.25833286673401"><ele>1.0</ele><time>2026-04-26T10:29:37Z</time></trkpt><trkpt lat="39.83700346001473" lon="18.258215977862516"><ele>1.0</ele><time>2026-04-26T10:29:38Z</time></trkpt><trkpt lat="39.8370639600331" lon="18.258112504602487"><ele>1.0</ele><time>2026-04-26T10:29:39Z</time></trkpt><trkpt lat="39.83713686459355" lon="18.258014418580498"><ele>1.0</ele><time>2026-04-26T10:29:40Z</time></trkpt><trkpt lat="39.83720853901194" lon="18.257922413657436"><ele>1.2000000000000002</ele><time>2026-04-26T10:29:41Z</time></trkpt><trkpt lat="39.83727920583667" lon="18.257838633089627"><ele>1.4000000000000001</ele><time>2026-04-26T10:29:42Z</time></trkpt><trkpt lat="39.83734692362191" lon="18.257763247410697"><ele>1.6</ele><time>2026-04-26T10:29:43Z</time></trkpt><trkpt lat="39.837421606795765" lon="18.257679003455188"><ele>1.8</ele><time>2026-04-26T10:29:44Z</time></trkpt><trkpt lat="39.837501212752386" lon="18.25758295041612"><ele>2.0</ele><time>2026-04-26T10:29:45Z</time></trkpt><trkpt lat="39.83759004872414" lon="18.25747837263316"><ele>2.4000000000000004</ele><time>2026-04-26T10:29:46Z</time></trkpt><trkpt lat="39.83767264781781" lon="18.257373087502494"><ele>2.8000000000000003</ele><time>2026-04-26T10:29:47Z</time></trkpt><trkpt lat="39.83775039231581" lon="18.257269163604082"><ele>3.2</ele><time>2026-04-26T10:29:48Z</time></trkpt><trkpt lat="39.83782774475522" lon="18.257163245832658"><ele>3.6</ele><time>2026-04-26T10:29:49Z</time></trkpt><trkpt lat="39.837890968334044" lon="18.25705997200596"><ele>4.0</ele><time>2026-04-26T10:29:50Z</time></trkpt><trkpt lat="39.83795220624439" lon="18.25695370254919"><ele>4.0</ele><time>2026-04-26T10:29:51Z</time></trkpt><trkpt lat="39.8380193811005" lon="18.256844867603615"><ele>4.0</ele><time>2026-04-26T10:29:52Z</time></trkpt><trkpt lat="39.838085010965976" lon="18.25672488052065"><ele>4.0</ele><time>2026-04-26T10:29:53Z</time></trkpt><trkpt lat="39.83814820114568" lon="18.25658866155449"><ele>4.0</ele><time>2026-04-26T10:29:54Z</time></trkpt><trkpt lat="39.83820980614018" lon="18.256438713428484"><ele>3.75</ele><time>2026-04-26T10:29:55Z</time></trkpt><trkpt lat="39.83825864346652" lon="18.256281966949743"><ele>3.5</ele><time>2026-04-26T10:29:56Z</time></trkpt><trkpt lat="39.838299843504366" lon="18.25612293193895"><ele>3.25</ele><time>2026-04-26T10:29:57Z</time></trkpt><trkpt lat="39.8383231765698" lon="18.2559757089247"><ele>3.0</ele><time>2026-04-26T10:29:58Z</time></trkpt><trkpt lat="39.83834530553064" lon="18.255824696942465"><ele>3.0</ele><time>2026-04-26T10:29:59Z</time></trkpt><trkpt lat="39.83835899469768" lon="18.25566789525296"><ele>3.0</ele><time>2026-04-26T10:30:00Z</time></trkpt><trkpt lat="39.83836968893411" lon="18.25549869053446"><ele>3.0</ele><time>2026-04-26T10:30:01Z</time></trkpt><trkpt lat="39.83837768236476" lon="18.255341053055073"><ele>3.0</ele><time>2026-04-26T10:30:02Z</time></trkpt><trkpt lat="39.83837413675515" lon="18.255205632367584"><ele>3.5999999999999996</ele><time>2026-04-26T10:30:03Z</time></trkpt><trkpt lat="39.83836744994988" lon="18.255102026496946"><ele>4.199999999999999</ele><time>2026-04-26T10:30:04Z</time></trkpt><trkpt lat="39.83836431143595" lon="18.254954527675935"><ele>4.8</ele><time>2026-04-26T10:30:06Z</time></trkpt><trkpt lat="39.83837241543985" lon="18.254777720065054"><ele>5.3999999999999995</ele><time>2026-04-26T10:30:08Z</time></trkpt><trkpt lat="39.83838121918799" lon="18.254634209854387"><ele>6.0</ele><time>2026-04-26T10:30:09Z</time></trkpt><trkpt lat="39.83839214445818" lon="18.25447260098186"><ele>6.0</ele><time>2026-04-26T10:30:10Z</time></trkpt><trkpt lat="39.83838995770607" lon="18.2542898857268"><ele>6.0</ele><time>2026-04-26T10:30:11Z</time></trkpt><trkpt lat="39.83838460381016" lon="18.254087207180387"><ele>6.0</ele><time>2026-04-26T10:30:12Z</time></trkpt><trkpt lat="39.83839023090801" lon="18.25386759519149"><ele>6.0</ele><time>2026-04-26T10:30:13Z</time></trkpt><trkpt lat="39.838391306742665" lon="18.253632846272495"><ele>6.0</ele><time>2026-04-26T10:30:14Z</time></trkpt><trkpt lat="39.83841611253941" lon="18.253372309688977"><ele>6.0</ele><time>2026-04-26T10:30:15Z</time></trkpt><trkpt lat="39.838422860169665" lon="18.253147056159126"><ele>6.0</ele><time>2026-04-26T10:30:16Z</time></trkpt><trkpt lat="39.838430163133346" lon="18.25295768535911"><ele>6.0</ele><time>2026-04-26T10:30:17Z</time></trkpt><trkpt lat="39.83843094536797" lon="18.252786810140904"><ele>6.0</ele><time>2026-04-26T10:30:18Z</time></trkpt><trkpt lat="39.83843299795719" lon="18.252639042486145"><ele>6.0</ele><time>2026-04-26T10:30:19Z</time></trkpt><trkpt lat="39.83843962028168" lon="18.25250537107883"><ele>6.0</ele><time>2026-04-26T10:30:20Z</time></trkpt><trkpt lat="39.838440763033056" lon="18.25236895217655"><ele>6.0</ele><time>2026-04-26T10:30:21Z</time></trkpt><trkpt lat="39.83844288128405" lon="18.252246964760985"><ele>6.0</ele><time>2026-04-26T10:30:22Z</time></trkpt><trkpt lat="39.838440406353875" lon="18.25214059863224"><ele>6.0</ele><time>2026-04-26T10:30:23Z</time></trkpt><trkpt lat="39.838442249486455" lon="18.252041939153887"><ele>6.0</ele><time>2026-04-26T10:30:24Z</time></trkpt><trkpt lat="39.83844918916827" lon="18.25195547570322"><ele>6.0</ele><time>2026-04-26T10:30:25Z</time></trkpt><trkpt lat="39.83846857926613" lon="18.2518156978509"><ele>6.5</ele><time>2026-04-26T10:30:27Z</time></trkpt><trkpt lat="39.83848985382893" lon="18.251736040766357"><ele>7.0</ele><time>2026-04-26T10:30:29Z</time></trkpt><trkpt lat="39.83852748795226" lon="18.251666704446457"><ele>7.5</ele><time>2026-04-26T10:30:31Z</time></trkpt><trkpt lat="39.83860517663035" lon="18.251607653444545"><ele>8.0</ele><time>2026-04-26T10:30:34Z</time></trkpt><trkpt lat="39.83869648658069" lon="18.251593962153798"><ele>8.5</ele><time>2026-04-26T10:30:36Z</time></trkpt><trkpt lat="39.83882124447671" lon="18.251607559990397"><ele>9.0</ele><time>2026-04-26T10:30:38Z</time></trkpt><trkpt lat="39.83889000911341" lon="18.251613315262468"><ele>9.0</ele><time>2026-04-26T10:30:39Z</time></trkpt><trkpt lat="39.83895319194701" lon="18.25162035930588"><ele>9.0</ele><time>2026-04-26T10:30:40Z</time></trkpt><trkpt lat="39.83906600215078" lon="18.25162508793824"><ele>9.0</ele><time>2026-04-26T10:30:42Z</time></trkpt><trkpt lat="39.83914792070068" lon="18.251638814951463"><ele>9.0</ele><time>2026-04-26T10:30:44Z</time></trkpt><trkpt lat="39.839212828670846" lon="18.251628016178458"><ele>9.0</ele><time>2026-04-26T10:30:56Z</time></trkpt><trkpt lat="39.83913510504608" lon="18.251564156557087"><ele>9.0</ele><time>2026-04-26T10:31:14Z</time></trkpt><trkpt lat="39.839026315620885" lon="18.251561467659354"><ele>9.0</ele><time>2026-04-26T10:31:15Z</time></trkpt><trkpt lat="39.83891169937526" lon="18.251555818781526"><ele>9.0</ele><time>2026-04-26T10:31:16Z</time></trkpt><trkpt lat="39.83881128376968" lon="18.25154991101136"><ele>9.0</ele><time>2026-04-26T10:31:17Z</time></trkpt><trkpt lat="39.83873547699275" lon="18.25153568956028"><ele>9.0</ele><time>2026-04-26T10:31:18Z</time></trkpt><trkpt lat="39.83867310736921" lon="18.251512350573766"><ele>9.0</ele><time>2026-04-26T10:31:19Z</time></trkpt><trkpt lat="39.83859709108102" lon="18.25146423319762"><ele>9.0</ele><time>2026-04-26T10:31:24Z</time></trkpt><trkpt lat="39.8385162423838" lon="18.251394163671133"><ele>8.5</ele><time>2026-04-26T10:31:26Z</time></trkpt><trkpt lat="39.83843413393298" lon="18.251391593927362"><ele>8.0</ele><time>2026-04-26T10:31:28Z</time></trkpt><trkpt lat="39.83836996259917" lon="18.251478638891943"><ele>7.5</ele><time>2026-04-26T10:31:30Z</time></trkpt><trkpt lat="39.83836780395288" lon="18.25158870414392"><ele>7.0</ele><time>2026-04-26T10:31:32Z</time></trkpt><trkpt lat="39.83841873179494" lon="18.25172760002114"><ele>6.5</ele><time>2026-04-26T10:31:34Z</time></trkpt><trkpt lat="39.83843572882147" lon="18.251810656969017"><ele>6.0</ele><time>2026-04-26T10:31:35Z</time></trkpt><trkpt lat="39.83843600066187" lon="18.25192449481954"><ele>6.0</ele><time>2026-04-26T10:31:36Z</time></trkpt><trkpt lat="39.83843456523649" lon="18.25206009962507"><ele>6.0</ele><time>2026-04-26T10:31:37Z</time></trkpt><trkpt lat="39.8384357299967" lon="18.25222126929292"><ele>6.0</ele><time>2026-04-26T10:31:38Z</time></trkpt><trkpt lat="39.8384249943489" lon="18.252402712867788"><ele>6.0</ele><time>2026-04-26T10:31:39Z</time></trkpt><trkpt lat="39.83842177372865" lon="18.25257360654343"><ele>6.0</ele><time>2026-04-26T10:31:40Z</time></trkpt><trkpt lat="39.838420032315426" lon="18.25273581790337"><ele>6.0</ele><time>2026-04-26T10:31:41Z</time></trkpt><trkpt lat="39.8384160318863" lon="18.252900785297907"><ele>6.0</ele><time>2026-04-26T10:31:42Z</time></trkpt><trkpt lat="39.838413685745344" lon="18.253066991320754"><ele>6.0</ele><time>2026-04-26T10:31:43Z</time></trkpt><trkpt lat="39.83840969065122" lon="18.253227541732496"><ele>6.0</ele><time>2026-04-26T10:31:44Z</time></trkpt><trkpt lat="39.838402052213276" lon="18.253393458008276"><ele>6.0</ele><time>2026-04-26T10:31:45Z</time></trkpt><trkpt lat="39.83839714548113" lon="18.253561388315035"><ele>6.0</ele><time>2026-04-26T10:31:46Z</time></trkpt><trkpt lat="39.83838725177853" lon="18.25373205123419"><ele>6.0</ele><time>2026-04-26T10:31:47Z</time></trkpt><trkpt lat="39.83837565138074" lon="18.25390602487708"><ele>6.25</ele><time>2026-04-26T10:31:48Z</time></trkpt><trkpt lat="39.83836895712128" lon="18.254075582295172"><ele>6.5</ele><time>2026-04-26T10:31:49Z</time></trkpt><trkpt lat="39.83836126380634" lon="18.254248302055"><ele>6.75</ele><time>2026-04-26T10:31:50Z</time></trkpt><trkpt lat="39.83835281919918" lon="18.254422579678415"><ele>7.0</ele><time>2026-04-26T10:31:51Z</time></trkpt><trkpt lat="39.83834380017071" lon="18.254592180283478"><ele>7.0</ele><time>2026-04-26T10:31:52Z</time></trkpt><trkpt lat="39.83833900909786" lon="18.25473930192405"><ele>6.999999999999999</ele><time>2026-04-26T10:31:53Z</time></trkpt><trkpt lat="39.83833964855426" lon="18.254881568545386"><ele>6.999999999999999</ele><time>2026-04-26T10:31:54Z</time></trkpt><trkpt lat="39.83833961417855" lon="18.255018663515205"><ele>7.0</ele><time>2026-04-26T10:31:55Z</time></trkpt><trkpt lat="39.83833599449311" lon="18.255153629316162"><ele>7.0</ele><time>2026-04-26T10:31:56Z</time></trkpt><trkpt lat="39.83833101321157" lon="18.255299722116973"><ele>6.8</ele><time>2026-04-26T10:31:57Z</time></trkpt><trkpt lat="39.83833092592387" lon="18.2554448710318"><ele>6.6</ele><time>2026-04-26T10:31:58Z</time></trkpt><trkpt lat="39.83832520438226" lon="18.255581776419508"><ele>6.3999999999999995</ele><time>2026-04-26T10:31:59Z</time></trkpt><trkpt lat="39.83831892092903" lon="18.25571288968068"><ele>6.199999999999999</ele><time>2026-04-26T10:32:00Z</time></trkpt><trkpt lat="39.838301573702765" lon="18.25585837998751"><ele>6.0</ele><time>2026-04-26T10:32:01Z</time></trkpt><trkpt lat="39.8382778020293" lon="18.25600541890631"><ele>5.5</ele><time>2026-04-26T10:32:02Z</time></trkpt><trkpt lat="39.838246205372506" lon="18.256158837765813"><ele>5.0</ele><time>2026-04-26T10:32:03Z</time></trkpt><trkpt lat="39.83819840046867" lon="18.256319254010258"><ele>4.5</ele><time>2026-04-26T10:32:04Z</time></trkpt><trkpt lat="39.838153440812874" lon="18.25646320519877"><ele>4.0</ele><time>2026-04-26T10:32:05Z</time></trkpt><trkpt lat="39.83810043070186" lon="18.25659701188591"><ele>4.0</ele><time>2026-04-26T10:32:06Z</time></trkpt><trkpt lat="39.83804704436674" lon="18.256733809499714"><ele>4.0</ele><time>2026-04-26T10:32:07Z</time></trkpt><trkpt lat="39.83798283244" lon="18.25686842865099"><ele>4.0</ele><time>2026-04-26T10:32:08Z</time></trkpt><trkpt lat="39.837911945159604" lon="18.256997525056146"><ele>4.0</ele><time>2026-04-26T10:32:09Z</time></trkpt><trkpt lat="39.83784139132849" lon="18.257111038521252"><ele>3.9999999999999996</ele><time>2026-04-26T10:32:10Z</time></trkpt><trkpt lat="39.83777281293582" lon="18.257209002350855"><ele>4.0</ele><time>2026-04-26T10:32:11Z</time></trkpt><trkpt lat="39.837712853684586" lon="18.257296425247798"><ele>4.0</ele><time>2026-04-26T10:32:12Z</time></trkpt><trkpt lat="39.837653618408055" lon="18.257363811500728"><ele>4.0</ele><time>2026-04-26T10:32:13Z</time></trkpt><trkpt lat="39.8375917665442" lon="18.257412015419156"><ele>3.9999999999999996</ele><time>2026-04-26T10:32:14Z</time></trkpt><trkpt lat="39.83751968775061" lon="18.257444712036165"><ele>4.0</ele><time>2026-04-26T10:32:15Z</time></trkpt><trkpt lat="39.837437895905516" lon="18.257468283801114"><ele>3.6666666666666665</ele><time>2026-04-26T10:32:16Z</time></trkpt><trkpt lat="39.837364762095156" lon="18.257483054634648"><ele>3.333333333333333</ele><time>2026-04-26T10:32:17Z</time></trkpt><trkpt lat="39.83730144759584" lon="18.2575040204597"><ele>3.0</ele><time>2026-04-26T10:32:18Z</time></trkpt><trkpt lat="39.83724776865309" lon="18.257548001502858"><ele>2.6666666666666665</ele><time>2026-04-26T10:32:19Z</time></trkpt><trkpt lat="39.837209278226986" lon="18.25761902454131"><ele>2.333333333333333</ele><time>2026-04-26T10:32:20Z</time></trkpt><trkpt lat="39.83717693128883" lon="18.257720190635546"><ele>2.0</ele><time>2026-04-26T10:32:21Z</time></trkpt><trkpt lat="39.837141921622546" lon="18.257852016099974"><ele>2.0</ele><time>2026-04-26T10:32:22Z</time></trkpt><trkpt lat="39.837082997907466" lon="18.257990034672762"><ele>2.0</ele><time>2026-04-26T10:32:23Z</time></trkpt><trkpt lat="39.83700041664483" lon="18.258131013039353"><ele>2.0</ele><time>2026-04-26T10:32:24Z</time></trkpt><trkpt lat="39.836911430166396" lon="18.258268676470742"><ele>2.0</ele><time>2026-04-26T10:32:25Z</time></trkpt><trkpt lat="39.83682883265009" lon="18.25840454253611"><ele>1.5</ele><time>2026-04-26T10:32:26Z</time></trkpt><trkpt lat="39.8367592392466" lon="18.258547240181667"><ele>1.0</ele><time>2026-04-26T10:32:27Z</time></trkpt><trkpt lat="39.836703809755676" lon="18.258695132779135"><ele>0.5</ele><time>2026-04-26T10:32:28Z</time></trkpt><trkpt lat="39.83665559120301" lon="18.258841517827584"><ele>0.0</ele><time>2026-04-26T10:32:29Z</time></trkpt><trkpt lat="39.83661168260485" lon="18.258989103839497"><ele>0.0</ele><time>2026-04-26T10:32:30Z</time></trkpt><trkpt lat="39.83657519884495" lon="18.25914667337707"><ele>0.0</ele><time>2026-04-26T10:32:31Z</time></trkpt><trkpt lat="39.83656048853662" lon="18.259293368270054"><ele>0.0</ele><time>2026-04-26T10:32:32Z</time></trkpt><trkpt lat="39.83655689776987" lon="18.259438234865623"><ele>0.0</ele><time>2026-04-26T10:32:33Z</time></trkpt><trkpt lat="39.836564560593914" lon="18.259588245077776"><ele>0.0</ele><time>2026-04-26T10:32:34Z</time></trkpt><trkpt lat="39.836577338053786" lon="18.259743990759166"><ele>0.0</ele><time>2026-04-26T10:32:35Z</time></trkpt><trkpt lat="39.83659309783483" lon="18.25990008741491"><ele>0.0</ele><time>2026-04-26T10:32:36Z</time></trkpt><trkpt lat="39.83661040615239" lon="18.260058980972865"><ele>0.0</ele><time>2026-04-26T10:32:37Z</time></trkpt><trkpt lat="39.836628531012565" lon="18.260222632648883"><ele>0.25</ele><time>2026-04-26T10:32:38Z</time></trkpt><trkpt lat="39.83664489873808" lon="18.26038313902059"><ele>0.5</ele><time>2026-04-26T10:32:39Z</time></trkpt><trkpt lat="39.83666436968031" lon="18.26054428386004"><ele>0.75</ele><time>2026-04-26T10:32:40Z</time></trkpt><trkpt lat="39.83668585214503" lon="18.260708569706143"><ele>1.0</ele><time>2026-04-26T10:32:41Z</time></trkpt><trkpt lat="39.83670727391399" lon="18.26087545355433"><ele>1.25</ele><time>2026-04-26T10:32:42Z</time></trkpt><trkpt lat="39.836727236710495" lon="18.261042850051457"><ele>1.5</ele><time>2026-04-26T10:32:43Z</time></trkpt><trkpt lat="39.83674586314567" lon="18.261198856089408"><ele>1.75</ele><time>2026-04-26T10:32:44Z</time></trkpt><trkpt lat="39.836766893596405" lon="18.26134571031726"><ele>2.0</ele><time>2026-04-26T10:32:45Z</time></trkpt><trkpt lat="39.836789652690385" lon="18.261491479283055"><ele>2.2</ele><time>2026-04-26T10:32:46Z</time></trkpt><trkpt lat="39.83680867968052" lon="18.26164125911093"><ele>2.4000000000000004</ele><time>2026-04-26T10:32:47Z</time></trkpt><trkpt lat="39.83681844091688" lon="18.26178577907833"><ele>2.5999999999999996</ele><time>2026-04-26T10:32:48Z</time></trkpt><trkpt lat="39.83682742114127" lon="18.261919012592926"><ele>2.8</ele><time>2026-04-26T10:32:49Z</time></trkpt><trkpt lat="39.83683927726947" lon="18.262050236325233"><ele>3.0</ele><time>2026-04-26T10:32:50Z</time></trkpt><trkpt lat="39.83685413811876" lon="18.26217858224747"><ele>3.0</ele><time>2026-04-26T10:32:51Z</time></trkpt><trkpt lat="39.83686616734999" lon="18.262299345996727"><ele>3.0</ele><time>2026-04-26T10:32:52Z</time></trkpt><trkpt lat="39.83687264620191" lon="18.262428367103105"><ele>3.0</ele><time>2026-04-26T10:32:53Z</time></trkpt><trkpt lat="39.83687513939785" lon="18.262564851918633"><ele>3.0</ele><time>2026-04-26T10:32:54Z</time></trkpt><trkpt lat="39.83687262244731" lon="18.262704053692854"><ele>3.0</ele><time>2026-04-26T10:32:55Z</time></trkpt><trkpt lat="39.836866579346484" lon="18.262838185871377"><ele>3.0</ele><time>2026-04-26T10:32:56Z</time></trkpt><trkpt lat="39.836851903345014" lon="18.262960464358333"><ele>3.0</ele><time>2026-04-26T10:32:57Z</time></trkpt><trkpt lat="39.836833336012766" lon="18.263078658674672"><ele>3.0</ele><time>2026-04-26T10:32:58Z</time></trkpt><trkpt lat="39.83681137770373" lon="18.263201718467876"><ele>3.0</ele><time>2026-04-26T10:32:59Z</time></trkpt><trkpt lat="39.836789324359955" lon="18.263335707536456"><ele>3.0</ele><time>2026-04-26T10:33:00Z</time></trkpt><trkpt lat="39.83676307110438" lon="18.263478101483454"><ele>2.5</ele><time>2026-04-26T10:33:01Z</time></trkpt><trkpt lat="39.8367349699616" lon="18.26362388486044"><ele>2.0</ele><time>2026-04-26T10:33:02Z</time></trkpt><trkpt lat="39.83670343422678" lon="18.26377280008885"><ele>1.5</ele><time>2026-04-26T10:33:03.001Z</time></trkpt><trkpt lat="39.83667103230142" lon="18.26392890484436"><ele>1.0</ele><time>2026-04-26T10:33:04.001Z</time></trkpt><trkpt lat="39.83663677817826" lon="18.264082975777"><ele>1.0</ele><time>2026-04-26T10:33:05.001Z</time></trkpt><trkpt lat="39.83659728928536" lon="18.264236509999296"><ele>1.0</ele><time>2026-04-26T10:33:06.001Z</time></trkpt><trkpt lat="39.83655718014294" lon="18.264387410162758"><ele>1.0</ele><time>2026-04-26T10:33:07.001Z</time></trkpt><trkpt lat="39.83651702852624" lon="18.264531847545246"><ele>1.0</ele><time>2026-04-26T10:33:08.001Z</time></trkpt><trkpt lat="39.83647526627319" lon="18.26466644295346"><ele>1.0</ele><time>2026-04-26T10:33:09.001Z</time></trkpt><trkpt lat="39.83642949670333" lon="18.2647932059166"><ele>1.0</ele><time>2026-04-26T10:33:10.001Z</time></trkpt><trkpt lat="39.83637681810468" lon="18.264921250344226"><ele>1.0</ele><time>2026-04-26T10:33:11.001Z</time></trkpt><trkpt lat="39.836326635886905" lon="18.265052425901878"><ele>1.0</ele><time>2026-04-26T10:33:12.001Z</time></trkpt><trkpt lat="39.83627204225229" lon="18.265176170858474"><ele>1.0</ele><time>2026-04-26T10:33:13.001Z</time></trkpt><trkpt lat="39.83621660403703" lon="18.26529499965571"><ele>0.9999999999999999</ele><time>2026-04-26T10:33:14.001Z</time></trkpt><trkpt lat="39.83616204449082" lon="18.265397293410377"><ele>1.0</ele><time>2026-04-26T10:33:15.001Z</time></trkpt><trkpt lat="39.836111071826004" lon="18.265490654333636"><ele>1.0</ele><time>2026-04-26T10:33:16.001Z</time></trkpt><trkpt lat="39.8360625488195" lon="18.265573398817136"><ele>1.0</ele><time>2026-04-26T10:33:17.001Z</time></trkpt><trkpt lat="39.83601707218197" lon="18.26565409507582"><ele>0.9999999999999999</ele><time>2026-04-26T10:33:18.001Z</time></trkpt><trkpt lat="39.835957046794285" lon="18.265738212121324"><ele>1.0</ele><time>2026-04-26T10:33:19.001Z</time></trkpt><trkpt lat="39.835895603279845" lon="18.26583422862264"><ele>0.6000000000000001</ele><time>2026-04-26T10:33:20.001Z</time></trkpt><trkpt lat="39.835832217685436" lon="18.265937735452688"><ele>0.20000000000000007</ele><time>2026-04-26T10:33:21.001Z</time></trkpt><trkpt lat="39.835768205208545" lon="18.26604112856201"><ele>-0.20000000000000007</ele><time>2026-04-26T10:33:22.001Z</time></trkpt><trkpt lat="39.835704444147794" lon="18.266144756795388"><ele>-0.6000000000000001</ele><time>2026-04-26T10:33:23Z</time></trkpt><trkpt lat="39.83564568700599" lon="18.266260233762836"><ele>-1.0</ele><time>2026-04-26T10:33:24Z</time></trkpt><trkpt lat="39.83558352133274" lon="18.26638246488549"><ele>-0.25</ele><time>2026-04-26T10:33:25Z</time></trkpt><trkpt lat="39.83552552813298" lon="18.266505711050865"><ele>0.5</ele><time>2026-04-26T10:33:26Z</time></trkpt><trkpt lat="39.83546943444076" lon="18.26663259328747"><ele>1.25</ele><time>2026-04-26T10:33:27Z</time></trkpt><trkpt lat="39.8354106861738" lon="18.26676945976025"><ele>2.0</ele><time>2026-04-26T10:33:28Z</time></trkpt><trkpt lat="39.835357748589324" lon="18.2669098297936"><ele>2.0</ele><time>2026-04-26T10:33:29Z</time></trkpt><trkpt lat="39.835310719144665" lon="18.267041672120005"><ele>2.0</ele><time>2026-04-26T10:33:30Z</time></trkpt><trkpt lat="39.83526527973711" lon="18.267181769566847"><ele>2.0</ele><time>2026-04-26T10:33:31Z</time></trkpt><trkpt lat="39.835221891090384" lon="18.26732878412277"><ele>2.0</ele><time>2026-04-26T10:33:32Z</time></trkpt><trkpt lat="39.835189654781324" lon="18.267476982503535"><ele>2.2</ele><time>2026-04-26T10:33:33Z</time></trkpt><trkpt lat="39.83515760837879" lon="18.267605720673583"><ele>2.4000000000000004</ele><time>2026-04-26T10:33:34Z</time></trkpt><trkpt lat="39.83512465311677" lon="18.267720949973427"><ele>2.5999999999999996</ele><time>2026-04-26T10:33:35Z</time></trkpt><trkpt lat="39.83511447229003" lon="18.26782331674799"><ele>2.8</ele><time>2026-04-26T10:33:36Z</time></trkpt><trkpt lat="39.835101068249" lon="18.26793377409993"><ele>3.0</ele><time>2026-04-26T10:33:37Z</time></trkpt><trkpt lat="39.83507847209961" lon="18.26805638975984"><ele>2.75</ele><time>2026-04-26T10:33:38Z</time></trkpt><trkpt lat="39.835055006307975" lon="18.26818864028608"><ele>2.5</ele><time>2026-04-26T10:33:39Z</time></trkpt><trkpt lat="39.83502949237194" lon="18.268332934376616"><ele>2.25</ele><time>2026-04-26T10:33:40Z</time></trkpt><trkpt lat="39.8350016930419" lon="18.268488120705975"><ele>2.0</ele><time>2026-04-26T10:33:41Z</time></trkpt><trkpt lat="39.83497413885833" lon="18.268655240333807"><ele>2.0</ele><time>2026-04-26T10:33:42Z</time></trkpt><trkpt lat="39.83494221545344" lon="18.26884825005014"><ele>2.0</ele><time>2026-04-26T10:33:43Z</time></trkpt><trkpt lat="39.834914252677414" lon="18.26902710556579"><ele>2.0</ele><time>2026-04-26T10:33:44Z</time></trkpt><trkpt lat="39.83488831383857" lon="18.269188467312606"><ele>2.0</ele><time>2026-04-26T10:33:45Z</time></trkpt><trkpt lat="39.83486361103187" lon="18.269339978697264"><ele>1.6</ele><time>2026-04-26T10:33:46Z</time></trkpt><trkpt lat="39.83483058632332" lon="18.269483277984026"><ele>1.2000000000000002</ele><time>2026-04-26T10:33:47Z</time></trkpt><trkpt lat="39.834803209385484" lon="18.269617831062423"><ele>0.8</ele><time>2026-04-26T10:33:48Z</time></trkpt><trkpt lat="39.83477741131297" lon="18.2697430570649"><ele>0.4</ele><time>2026-04-26T10:33:49Z</time></trkpt><trkpt lat="39.83475543872889" lon="18.269863909557632"><ele>0.0</ele><time>2026-04-26T10:33:50Z</time></trkpt><trkpt lat="39.83473503209836" lon="18.269978329154355"><ele>0.0</ele><time>2026-04-26T10:33:51Z</time></trkpt><trkpt lat="39.83471187326237" lon="18.270096517811066"><ele>0.0</ele><time>2026-04-26T10:33:52Z</time></trkpt><trkpt lat="39.834686969691475" lon="18.270214085954834"><ele>0.0</ele><time>2026-04-26T10:33:53Z</time></trkpt><trkpt lat="39.834659708619874" lon="18.27033812302926"><ele>0.0</ele><time>2026-04-26T10:33:54Z</time></trkpt><trkpt lat="39.83463374414142" lon="18.27046754082684"><ele>0.0</ele><time>2026-04-26T10:33:55Z</time></trkpt><trkpt lat="39.834609988945026" lon="18.270591565858844"><ele>0.5</ele><time>2026-04-26T10:33:56Z</time></trkpt><trkpt lat="39.834585522534795" lon="18.270715736680305"><ele>1.0</ele><time>2026-04-26T10:33:57Z</time></trkpt><trkpt lat="39.83456559681019" lon="18.27083703619697"><ele>1.5</ele><time>2026-04-26T10:33:58Z</time></trkpt><trkpt lat="39.83454362725401" lon="18.27094822740311"><ele>2.0</ele><time>2026-04-26T10:33:59Z</time></trkpt><trkpt lat="39.83452367361202" lon="18.271054165157118"><ele>2.5</ele><time>2026-04-26T10:34:00Z</time></trkpt><trkpt lat="39.83450380487607" lon="18.27115724728314"><ele>3.0</ele><time>2026-04-26T10:34:01Z</time></trkpt><trkpt lat="39.83448542378411" lon="18.271249185412383"><ele>3.0</ele><time>2026-04-26T10:34:02Z</time></trkpt><trkpt lat="39.83446392468566" lon="18.27133897562156"><ele>3.0</ele><time>2026-04-26T10:34:03Z</time></trkpt><trkpt lat="39.834441676339374" lon="18.271421815219536"><ele>3.0</ele><time>2026-04-26T10:34:04Z</time></trkpt><trkpt lat="39.83442602013763" lon="18.27150272767082"><ele>3.0</ele><time>2026-04-26T10:34:05Z</time></trkpt><trkpt lat="39.83439917641553" lon="18.27165467397585"><ele>3.0</ele><time>2026-04-26T10:34:07Z</time></trkpt><trkpt lat="39.83437678911787" lon="18.27174396411791"><ele>3.0</ele><time>2026-04-26T10:34:08Z</time></trkpt><trkpt lat="39.83434982082836" lon="18.27184523220826"><ele>3.0</ele><time>2026-04-26T10:34:09Z</time></trkpt><trkpt lat="39.83431575408884" lon="18.271956968022167"><ele>3.0</ele><time>2026-04-26T10:34:10Z</time></trkpt><trkpt lat="39.8342661311199" lon="18.272070368305524"><ele>3.0</ele><time>2026-04-26T10:34:11Z</time></trkpt><trkpt lat="39.83420138078626" lon="18.272184955294293"><ele>3.0</ele><time>2026-04-26T10:34:12Z</time></trkpt><trkpt lat="39.83412223430296" lon="18.272301904988435"><ele>3.0</ele><time>2026-04-26T10:34:13Z</time></trkpt><trkpt lat="39.83404411680697" lon="18.272422354970697"><ele>3.75</ele><time>2026-04-26T10:34:14Z</time></trkpt><trkpt lat="39.833970362923665" lon="18.272547602622655"><ele>4.5</ele><time>2026-04-26T10:34:15Z</time></trkpt><trkpt lat="39.833889011114024" lon="18.27267620106293"><ele>5.25</ele><time>2026-04-26T10:34:16Z</time></trkpt><trkpt lat="39.83381220531664" lon="18.272807721201584"><ele>6.0</ele><time>2026-04-26T10:34:17Z</time></trkpt><trkpt lat="39.833740190743505" lon="18.272939609542927"><ele>6.0</ele><time>2026-04-26T10:34:18Z</time></trkpt><trkpt lat="39.83367231030757" lon="18.27306846533421"><ele>6.0</ele><time>2026-04-26T10:34:19Z</time></trkpt><trkpt lat="39.83360961139697" lon="18.273196457686442"><ele>6.0</ele><time>2026-04-26T10:34:20Z</time></trkpt><trkpt lat="39.83354260932033" lon="18.27332449743866"><ele>6.0</ele><time>2026-04-26T10:34:21Z</time></trkpt><trkpt lat="39.83347055326491" lon="18.273447793603435"><ele>5.3999999999999995</ele><time>2026-04-26T10:34:22Z</time></trkpt><trkpt lat="39.833400747105586" lon="18.273558694961835"><ele>4.8</ele><time>2026-04-26T10:34:23Z</time></trkpt><trkpt lat="39.83333431641915" lon="18.273666251360684"><ele>4.199999999999999</ele><time>2026-04-26T10:34:24Z</time></trkpt><trkpt lat="39.833266545144745" lon="18.273767203343233"><ele>3.5999999999999996</ele><time>2026-04-26T10:34:25Z</time></trkpt><trkpt lat="39.83320253832831" lon="18.27386573880919"><ele>3.0</ele><time>2026-04-26T10:34:26Z</time></trkpt><trkpt lat="39.833141037675304" lon="18.273968176652847"><ele>3.0</ele><time>2026-04-26T10:34:27Z</time></trkpt><trkpt lat="39.83307603781196" lon="18.274075342129954"><ele>3.0</ele><time>2026-04-26T10:34:28Z</time></trkpt><trkpt lat="39.833006923434496" lon="18.274188288004087"><ele>3.0</ele><time>2026-04-26T10:34:29Z</time></trkpt><trkpt lat="39.832936196335666" lon="18.274314264391922"><ele>3.0</ele><time>2026-04-26T10:34:30Z</time></trkpt><trkpt lat="39.83286552233116" lon="18.274432181835298"><ele>3.0</ele><time>2026-04-26T10:34:31Z</time></trkpt><trkpt lat="39.83279976681743" lon="18.27454081730617"><ele>3.0</ele><time>2026-04-26T10:34:32Z</time></trkpt><trkpt lat="39.832735817544624" lon="18.27464865737965"><ele>3.0</ele><time>2026-04-26T10:34:33Z</time></trkpt><trkpt lat="39.83267088122389" lon="18.274751996754496"><ele>3.0</ele><time>2026-04-26T10:34:34Z</time></trkpt><trkpt lat="39.8326080949215" lon="18.274848107420684"><ele>3.0</ele><time>2026-04-26T10:34:35Z</time></trkpt><trkpt lat="39.83254470547317" lon="18.27494496690583"><ele>3.2</ele><time>2026-04-26T10:34:36Z</time></trkpt><trkpt lat="39.832478170636136" lon="18.275039334420203"><ele>3.4</ele><time>2026-04-26T10:34:37Z</time></trkpt><trkpt lat="39.83242051871738" lon="18.27512689959001"><ele>3.6000000000000005</ele><time>2026-04-26T10:34:38Z</time></trkpt><trkpt lat="39.83236732316558" lon="18.275212185189364"><ele>3.8000000000000003</ele><time>2026-04-26T10:34:39Z</time></trkpt><trkpt lat="39.832315150124415" lon="18.27529936894437"><ele>4.0</ele><time>2026-04-26T10:34:40Z</time></trkpt><trkpt lat="39.83225512056661" lon="18.275394560597498"><ele>4.0</ele><time>2026-04-26T10:34:41Z</time></trkpt><trkpt lat="39.83219829652995" lon="18.275494708386177"><ele>4.0</ele><time>2026-04-26T10:34:42Z</time></trkpt><trkpt lat="39.83214500373031" lon="18.275591539459533"><ele>4.0</ele><time>2026-04-26T10:34:43Z</time></trkpt><trkpt lat="39.83209203012877" lon="18.275691223157907"><ele>4.0</ele><time>2026-04-26T10:34:44Z</time></trkpt><trkpt lat="39.83203361855805" lon="18.275793892585128"><ele>4.0</ele><time>2026-04-26T10:34:45Z</time></trkpt><trkpt lat="39.83196982559376" lon="18.27589481853399"><ele>3.8000000000000003</ele><time>2026-04-26T10:34:46Z</time></trkpt><trkpt lat="39.8319101635459" lon="18.275985040651136"><ele>3.6000000000000005</ele><time>2026-04-26T10:34:47Z</time></trkpt><trkpt lat="39.831851655969366" lon="18.276086510085424"><ele>3.4</ele><time>2026-04-26T10:34:48Z</time></trkpt><trkpt lat="39.83178607897262" lon="18.276181721744823"><ele>3.2</ele><time>2026-04-26T10:34:49Z</time></trkpt><trkpt lat="39.831720916603686" lon="18.276290520719694"><ele>3.0</ele><time>2026-04-26T10:34:50Z</time></trkpt><trkpt lat="39.83165413731351" lon="18.27639229915315"><ele>3.3333333333333335</ele><time>2026-04-26T10:34:51Z</time></trkpt><trkpt lat="39.83158804578316" lon="18.27648720438079"><ele>3.666666666666667</ele><time>2026-04-26T10:34:52Z</time></trkpt><trkpt lat="39.83153647376542" lon="18.276560024834186"><ele>4.0</ele><time>2026-04-26T10:34:53Z</time></trkpt><trkpt lat="39.83149144005424" lon="18.276626828113034"><ele>4.333333333333334</ele><time>2026-04-26T10:34:54Z</time></trkpt><trkpt lat="39.8314501540837" lon="18.276707584911577"><ele>4.666666666666667</ele><time>2026-04-26T10:34:55Z</time></trkpt><trkpt lat="39.831399205551556" lon="18.27679061838867"><ele>5.0</ele><time>2026-04-26T10:34:56Z</time></trkpt><trkpt lat="39.83134497738887" lon="18.27686896571213"><ele>5.0</ele><time>2026-04-26T10:34:57Z</time></trkpt><trkpt lat="39.831301061976916" lon="18.276941543217198"><ele>5.0</ele><time>2026-04-26T10:34:58Z</time></trkpt><trkpt lat="39.8312290033393" lon="18.277052648525224"><ele>5.0</ele><time>2026-04-26T10:35:00Z</time></trkpt><trkpt lat="39.83115454590735" lon="18.27714189107804"><ele>5.0</ele><time>2026-04-26T10:35:02Z</time></trkpt><trkpt lat="39.831100405027705" lon="18.27719000860612"><ele>5.0</ele><time>2026-04-26T10:35:03Z</time></trkpt><trkpt lat="39.831038152832214" lon="18.277239520572692"><ele>5.0</ele><time>2026-04-26T10:35:04Z</time></trkpt><trkpt lat="39.83098035360834" lon="18.277284231219262"><ele>5.166666666666667</ele><time>2026-04-26T10:35:05Z</time></trkpt><trkpt lat="39.830919847783655" lon="18.27731426343504"><ele>5.333333333333334</ele><time>2026-04-26T10:35:06Z</time></trkpt><trkpt lat="39.83081401521958" lon="18.277406536210627"><ele>5.5</ele><time>2026-04-26T10:35:08Z</time></trkpt><trkpt lat="39.830749464978155" lon="18.277452761303827"><ele>5.666666666666667</ele><time>2026-04-26T10:35:09Z</time></trkpt><trkpt lat="39.830676173149875" lon="18.277511593897906"><ele>5.833333333333333</ele><time>2026-04-26T10:35:10Z</time></trkpt><trkpt lat="39.83059506140695" lon="18.277565651415394"><ele>6.0</ele><time>2026-04-26T10:35:11Z</time></trkpt><trkpt lat="39.830519241679106" lon="18.277630095115715"><ele>6.0</ele><time>2026-04-26T10:35:12.001Z</time></trkpt><trkpt lat="39.830445417776076" lon="18.277681565076172"><ele>6.0</ele><time>2026-04-26T10:35:13.001Z</time></trkpt><trkpt lat="39.83036764276645" lon="18.27773866015304"><ele>6.0</ele><time>2026-04-26T10:35:14.001Z</time></trkpt><trkpt lat="39.830286832682795" lon="18.27780585447758"><ele>6.0</ele><time>2026-04-26T10:35:15.001Z</time></trkpt><trkpt lat="39.83020053999354" lon="18.277887723505145"><ele>6.0</ele><time>2026-04-26T10:35:16.001Z</time></trkpt><trkpt lat="39.83012017307903" lon="18.27797617060218"><ele>6.166666666666667</ele><time>2026-04-26T10:35:17.001Z</time></trkpt><trkpt lat="39.830047151379404" lon="18.27806329008304"><ele>6.333333333333334</ele><time>2026-04-26T10:35:18.001Z</time></trkpt><trkpt lat="39.82998146646239" lon="18.2781462392785"><ele>6.5</ele><time>2026-04-26T10:35:19.001Z</time></trkpt><trkpt lat="39.82992665645302" lon="18.278224555606368"><ele>6.666666666666667</ele><time>2026-04-26T10:35:20.001Z</time></trkpt><trkpt lat="39.829877277010894" lon="18.2783038949773"><ele>6.833333333333334</ele><time>2026-04-26T10:35:21.001Z</time></trkpt><trkpt lat="39.82982713953891" lon="18.278389798179763"><ele>7.0</ele><time>2026-04-26T10:35:22.001Z</time></trkpt><trkpt lat="39.829772706274866" lon="18.278481194987634"><ele>7.000000000000001</ele><time>2026-04-26T10:35:23.001Z</time></trkpt><trkpt lat="39.82972844567208" lon="18.27856500641884"><ele>7.0</ele><time>2026-04-26T10:35:24.001Z</time></trkpt><trkpt lat="39.82969068042324" lon="18.27864025944283"><ele>7.0</ele><time>2026-04-26T10:35:25.001Z</time></trkpt><trkpt lat="39.82964960563842" lon="18.278718525333602"><ele>7.0</ele><time>2026-04-26T10:35:27.001Z</time></trkpt><trkpt lat="39.829589336535236" lon="18.27882010644373"><ele>7.000000000000001</ele><time>2026-04-26T10:35:30Z</time></trkpt><trkpt lat="39.82952309439291" lon="18.278946280844366"><ele>7.0</ele><time>2026-04-26T10:35:32Z</time></trkpt><trkpt lat="39.82948500317098" lon="18.279023337246464"><ele>6.333333333333334</ele><time>2026-04-26T10:35:33Z</time></trkpt><trkpt lat="39.82944452763567" lon="18.27909666853071"><ele>5.666666666666667</ele><time>2026-04-26T10:35:34Z</time></trkpt><trkpt lat="39.829397555410885" lon="18.279169124332658"><ele>5.0</ele><time>2026-04-26T10:35:35Z</time></trkpt><trkpt lat="39.82935141102378" lon="18.279248661679276"><ele>4.333333333333334</ele><time>2026-04-26T10:35:36Z</time></trkpt><trkpt lat="39.82930076380041" lon="18.279343149094082"><ele>3.666666666666667</ele><time>2026-04-26T10:35:37Z</time></trkpt><trkpt lat="39.82924566640643" lon="18.279443711000646"><ele>3.0</ele><time>2026-04-26T10:35:38Z</time></trkpt><trkpt lat="39.8291959759788" lon="18.27953942268448"><ele>3.0</ele><time>2026-04-26T10:35:39Z</time></trkpt><trkpt lat="39.82914848419163" lon="18.279628728638368"><ele>3.0</ele><time>2026-04-26T10:35:40Z</time></trkpt><trkpt lat="39.829099459343624" lon="18.279723729182905"><ele>3.0</ele><time>2026-04-26T10:35:41Z</time></trkpt><trkpt lat="39.82903950438329" lon="18.27982243545701"><ele>3.0</ele><time>2026-04-26T10:35:42Z</time></trkpt><trkpt lat="39.82899109831672" lon="18.279923473464496"><ele>3.0</ele><time>2026-04-26T10:35:43Z</time></trkpt><trkpt lat="39.82893983890537" lon="18.28002508954278"><ele>3.4</ele><time>2026-04-26T10:35:44Z</time></trkpt><trkpt lat="39.82888950106928" lon="18.280129971224095"><ele>3.8</ele><time>2026-04-26T10:35:45Z</time></trkpt><trkpt lat="39.82883248915524" lon="18.28023798694306"><ele>4.2</ele><time>2026-04-26T10:35:46Z</time></trkpt><trkpt lat="39.828777724929196" lon="18.280337681988822"><ele>4.6</ele><time>2026-04-26T10:35:47Z</time></trkpt><trkpt lat="39.82872668378897" lon="18.280430713732983"><ele>5.0</ele><time>2026-04-26T10:35:48Z</time></trkpt><trkpt lat="39.82867403444592" lon="18.280529638701267"><ele>5.166666666666667</ele><time>2026-04-26T10:35:49Z</time></trkpt><trkpt lat="39.8286181858084" lon="18.280616683350964"><ele>5.333333333333334</ele><time>2026-04-26T10:35:50Z</time></trkpt><trkpt lat="39.828569072625285" lon="18.280698185599352"><ele>5.5</ele><time>2026-04-26T10:35:51Z</time></trkpt><trkpt lat="39.828525254125964" lon="18.280784853907125"><ele>5.666666666666667</ele><time>2026-04-26T10:35:52Z</time></trkpt><trkpt lat="39.828487270046544" lon="18.280866927307457"><ele>5.833333333333333</ele><time>2026-04-26T10:35:53Z</time></trkpt><trkpt lat="39.8284478664055" lon="18.28094800994779"><ele>6.0</ele><time>2026-04-26T10:35:54Z</time></trkpt><trkpt lat="39.82840169966554" lon="18.281031476057002"><ele>5.666666666666667</ele><time>2026-04-26T10:35:55Z</time></trkpt><trkpt lat="39.828362622715474" lon="18.28111611089703"><ele>5.333333333333333</ele><time>2026-04-26T10:35:56Z</time></trkpt><trkpt lat="39.82831199253649" lon="18.281207302886845"><ele>5.0</ele><time>2026-04-26T10:35:57Z</time></trkpt><trkpt lat="39.82826371811951" lon="18.281302911553695"><ele>4.666666666666666</ele><time>2026-04-26T10:35:58Z</time></trkpt><trkpt lat="39.82821319489028" lon="18.281398599344406"><ele>4.333333333333333</ele><time>2026-04-26T10:35:59Z</time></trkpt><trkpt lat="39.82816112775303" lon="18.281498456202883"><ele>4.0</ele><time>2026-04-26T10:36:00Z</time></trkpt><trkpt lat="39.82810736622466" lon="18.281602108077703"><ele>4.0</ele><time>2026-04-26T10:36:01Z</time></trkpt><trkpt lat="39.8280591480739" lon="18.281698938563416"><ele>4.0</ele><time>2026-04-26T10:36:02Z</time></trkpt><trkpt lat="39.828011484846456" lon="18.281791446351086"><ele>4.0</ele><time>2026-04-26T10:36:03Z</time></trkpt><trkpt lat="39.827959222877524" lon="18.28188552020107"><ele>4.0</ele><time>2026-04-26T10:36:04Z</time></trkpt><trkpt lat="39.82790589992791" lon="18.281986700983282"><ele>4.0</ele><time>2026-04-26T10:36:05Z</time></trkpt><trkpt lat="39.827851002327954" lon="18.282094922365644"><ele>4.0</ele><time>2026-04-26T10:36:06Z</time></trkpt><trkpt lat="39.82779001713365" lon="18.28221050154137"><ele>4.0</ele><time>2026-04-26T10:36:07Z</time></trkpt><trkpt lat="39.82772290880054" lon="18.282334591943428"><ele>4.0</ele><time>2026-04-26T10:36:08Z</time></trkpt><trkpt lat="39.827651966501755" lon="18.282466868238206"><ele>4.0</ele><time>2026-04-26T10:36:09Z</time></trkpt><trkpt lat="39.82759075998989" lon="18.28258939200374"><ele>3.8000000000000003</ele><time>2026-04-26T10:36:10Z</time></trkpt><trkpt lat="39.82752792099332" lon="18.28270652469962"><ele>3.6000000000000005</ele><time>2026-04-26T10:36:11Z</time></trkpt><trkpt lat="39.82746284020327" lon="18.282827105111327"><ele>3.4</ele><time>2026-04-26T10:36:12Z</time></trkpt><trkpt lat="39.82739612743451" lon="18.28294907234086"><ele>3.2</ele><time>2026-04-26T10:36:13Z</time></trkpt><trkpt lat="39.82733270873373" lon="18.283066511220138"><ele>3.0</ele><time>2026-04-26T10:36:14Z</time></trkpt><trkpt lat="39.8272763105697" lon="18.283174537023815"><ele>3.0</ele><time>2026-04-26T10:36:15Z</time></trkpt><trkpt lat="39.827219637855364" lon="18.283277627064113"><ele>3.0</ele><time>2026-04-26T10:36:16Z</time></trkpt><trkpt lat="39.82716826194899" lon="18.283374771708033"><ele>3.0</ele><time>2026-04-26T10:36:17Z</time></trkpt><trkpt lat="39.827120302695356" lon="18.283475216871153"><ele>3.0</ele><time>2026-04-26T10:36:18Z</time></trkpt><trkpt lat="39.827076627839006" lon="18.283575296338114"><ele>3.0</ele><time>2026-04-26T10:36:19Z</time></trkpt><trkpt lat="39.82703678088114" lon="18.283674055016327"><ele>3.0</ele><time>2026-04-26T10:36:20Z</time></trkpt><trkpt lat="39.827002577685995" lon="18.283769697301892"><ele>3.0</ele><time>2026-04-26T10:36:21Z</time></trkpt><trkpt lat="39.82697284904675" lon="18.283856980991935"><ele>3.0</ele><time>2026-04-26T10:36:22Z</time></trkpt><trkpt lat="39.826933455128454" lon="18.283983140403567"><ele>3.0</ele><time>2026-04-26T10:36:24Z</time></trkpt><trkpt lat="39.82690602316419" lon="18.28408662331155"><ele>3.0</ele><time>2026-04-26T10:36:26Z</time></trkpt><trkpt lat="39.82687211069788" lon="18.28419801905925"><ele>3.0</ele><time>2026-04-26T10:36:28Z</time></trkpt><trkpt lat="39.826843914104934" lon="18.284297714735256"><ele>3.0</ele><time>2026-04-26T10:36:30Z</time></trkpt><trkpt lat="39.826811603273995" lon="18.284427939502674"><ele>3.0</ele><time>2026-04-26T10:36:32Z</time></trkpt><trkpt lat="39.82677904210752" lon="18.284591176279655"><ele>3.0</ele><time>2026-04-26T10:36:34Z</time></trkpt><trkpt lat="39.826753425388446" lon="18.284693160446977"><ele>3.0</ele><time>2026-04-26T10:36:35Z</time></trkpt><trkpt lat="39.826722781701555" lon="18.284821081449447"><ele>3.0</ele><time>2026-04-26T10:36:36Z</time></trkpt><trkpt lat="39.826685252835475" lon="18.28498823243861"><ele>3.0</ele><time>2026-04-26T10:36:37Z</time></trkpt><trkpt lat="39.8266430687675" lon="18.285135911340035"><ele>3.0</ele><time>2026-04-26T10:36:38Z</time></trkpt><trkpt lat="39.826607445939445" lon="18.285273813360202"><ele>3.0</ele><time>2026-04-26T10:36:39Z</time></trkpt><trkpt lat="39.82657152013249" lon="18.285394563440068"><ele>3.0</ele><time>2026-04-26T10:36:40Z</time></trkpt><trkpt lat="39.82653090697155" lon="18.2855233873978"><ele>3.0</ele><time>2026-04-26T10:36:41Z</time></trkpt><trkpt lat="39.82650068060767" lon="18.28564819814251"><ele>3.1666666666666665</ele><time>2026-04-26T10:36:42Z</time></trkpt><trkpt lat="39.826483606150326" lon="18.285751704351444"><ele>3.333333333333333</ele><time>2026-04-26T10:36:43Z</time></trkpt><trkpt lat="39.82646651809801" lon="18.28584438134977"><ele>3.5</ele><time>2026-04-26T10:36:44Z</time></trkpt><trkpt lat="39.82643331199844" lon="18.28598940926614"><ele>3.6666666666666665</ele><time>2026-04-26T10:36:46Z</time></trkpt><trkpt lat="39.82641103373231" lon="18.28607640545102"><ele>3.833333333333333</ele><time>2026-04-26T10:36:47Z</time></trkpt><trkpt lat="39.82639151812301" lon="18.286167732744378"><ele>4.0</ele><time>2026-04-26T10:36:48Z</time></trkpt><trkpt lat="39.82636318295522" lon="18.28627863433384"><ele>4.0</ele><time>2026-04-26T10:36:49Z</time></trkpt><trkpt lat="39.8263273549818" lon="18.286412799596473"><ele>4.0</ele><time>2026-04-26T10:36:50Z</time></trkpt><trkpt lat="39.826271197944145" lon="18.28657560277588"><ele>4.0</ele><time>2026-04-26T10:36:51Z</time></trkpt><trkpt lat="39.82623391465501" lon="18.286712128585247"><ele>4.0</ele><time>2026-04-26T10:36:52Z</time></trkpt><trkpt lat="39.8262011029506" lon="18.286831530761717"><ele>4.2</ele><time>2026-04-26T10:36:53Z</time></trkpt><trkpt lat="39.82616404536577" lon="18.286949549131197"><ele>4.4</ele><time>2026-04-26T10:36:54Z</time></trkpt><trkpt lat="39.826122599078296" lon="18.28707456047782"><ele>4.6</ele><time>2026-04-26T10:36:55Z</time></trkpt><trkpt lat="39.82607779642158" lon="18.28720893526037"><ele>4.8</ele><time>2026-04-26T10:36:56Z</time></trkpt><trkpt lat="39.826030741953105" lon="18.287335962185225"><ele>5.0</ele><time>2026-04-26T10:36:57Z</time></trkpt><trkpt lat="39.82598378466314" lon="18.28745985890217"><ele>4.5</ele><time>2026-04-26T10:36:58Z</time></trkpt><trkpt lat="39.82594976960092" lon="18.287563328698525"><ele>4.0</ele><time>2026-04-26T10:36:59Z</time></trkpt><trkpt lat="39.825916163484884" lon="18.287660470290266"><ele>3.5</ele><time>2026-04-26T10:37:00Z</time></trkpt><trkpt lat="39.82587340696432" lon="18.287750730169293"><ele>3.0</ele><time>2026-04-26T10:37:01Z</time></trkpt><trkpt lat="39.8258292332901" lon="18.287848690782987"><ele>2.5</ele><time>2026-04-26T10:37:02Z</time></trkpt><trkpt lat="39.82577746230873" lon="18.28795738225476"><ele>2.0</ele><time>2026-04-26T10:37:03Z</time></trkpt><trkpt lat="39.82571789137087" lon="18.288076583057865"><ele>2.75</ele><time>2026-04-26T10:37:04Z</time></trkpt><trkpt lat="39.825661105472435" lon="18.288208751565147"><ele>3.5</ele><time>2026-04-26T10:37:05Z</time></trkpt><trkpt lat="39.82559529874694" lon="18.28836632487468"><ele>4.25</ele><time>2026-04-26T10:37:06Z</time></trkpt><trkpt lat="39.82553137735132" lon="18.288514908433324"><ele>5.0</ele><time>2026-04-26T10:37:07Z</time></trkpt><trkpt lat="39.82547477752875" lon="18.288640851927244"><ele>5.0</ele><time>2026-04-26T10:37:08Z</time></trkpt><trkpt lat="39.82543279354844" lon="18.28873897820802"><ele>5.0</ele><time>2026-04-26T10:37:09Z</time></trkpt><trkpt lat="39.82540799876451" lon="18.28884676211734"><ele>5.0</ele><time>2026-04-26T10:37:11Z</time></trkpt><trkpt lat="39.825434937681244" lon="18.288967598995388"><ele>5.0</ele><time>2026-04-26T10:37:14.001Z</time></trkpt><trkpt lat="39.82548225137935" lon="18.289024200242082"><ele>5.0</ele><time>2026-04-26T10:37:16.001Z</time></trkpt><trkpt lat="39.82555132747088" lon="18.28904235741855"><ele>5.0</ele><time>2026-04-26T10:37:52Z</time></trkpt><trkpt lat="39.82562433473655" lon="18.289017612444578"><ele>5.0</ele><time>2026-04-26T10:37:55Z</time></trkpt><trkpt lat="39.82560631604251" lon="18.288925061144674"><ele>5.0</ele><time>2026-04-26T10:38:42Z</time></trkpt><trkpt lat="39.82552952659595" lon="18.288899275443832"><ele>5.0</ele><time>2026-04-26T10:38:44Z</time></trkpt><trkpt lat="39.825451153972814" lon="18.28887379050257"><ele>5.0</ele><time>2026-04-26T10:38:47Z</time></trkpt><trkpt lat="39.82537344103324" lon="18.28889651058512"><ele>5.0</ele><time>2026-04-26T10:39:04Z</time></trkpt><trkpt lat="39.82529940623833" lon="18.289047543843783"><ele>4.6</ele><time>2026-04-26T10:39:06Z</time></trkpt><trkpt lat="39.82526572389346" lon="18.289130745073738"><ele>4.2</ele><time>2026-04-26T10:39:07Z</time></trkpt><trkpt lat="39.82522497115545" lon="18.2892258097624"><ele>3.8</ele><time>2026-04-26T10:39:08Z</time></trkpt><trkpt lat="39.82517967806588" lon="18.289329978474903"><ele>3.4</ele><time>2026-04-26T10:39:09Z</time></trkpt><trkpt lat="39.82512986553618" lon="18.28944203041068"><ele>3.0</ele><time>2026-04-26T10:39:10Z</time></trkpt><trkpt lat="39.82507746994777" lon="18.28955714840462"><ele>3.0</ele><time>2026-04-26T10:39:11Z</time></trkpt><trkpt lat="39.825020437739774" lon="18.28968242919633"><ele>3.0</ele><time>2026-04-26T10:39:12Z</time></trkpt><trkpt lat="39.82496452119638" lon="18.289815598101374"><ele>3.0</ele><time>2026-04-26T10:39:13.001Z</time></trkpt><trkpt lat="39.82490818767752" lon="18.28995423381365"><ele>3.0</ele><time>2026-04-26T10:39:14.001Z</time></trkpt><trkpt lat="39.8248464272898" lon="18.290099156512905"><ele>3.75</ele><time>2026-04-26T10:39:15.001Z</time></trkpt><trkpt lat="39.824784059102555" lon="18.290238407451728"><ele>4.5</ele><time>2026-04-26T10:39:16.001Z</time></trkpt><trkpt lat="39.82471799887384" lon="18.2903840586487"><ele>5.25</ele><time>2026-04-26T10:39:17.001Z</time></trkpt><trkpt lat="39.82465680399839" lon="18.29053096660099"><ele>6.0</ele><time>2026-04-26T10:39:18.001Z</time></trkpt><trkpt lat="39.824587681199006" lon="18.29068408564884"><ele>7.5</ele><time>2026-04-26T10:39:19.001Z</time></trkpt><trkpt lat="39.82451655221572" lon="18.29084363201308"><ele>9.0</ele><time>2026-04-26T10:39:20.001Z</time></trkpt><trkpt lat="39.82444794046283" lon="18.291001809429613"><ele>10.5</ele><time>2026-04-26T10:39:21.001Z</time></trkpt><trkpt lat="39.82438172617315" lon="18.291158463349486"><ele>12.0</ele><time>2026-04-26T10:39:22.001Z</time></trkpt><trkpt lat="39.824318341417865" lon="18.291316061702325"><ele>10.75</ele><time>2026-04-26T10:39:23.001Z</time></trkpt><trkpt lat="39.824252330300695" lon="18.291477361216884"><ele>9.5</ele><time>2026-04-26T10:39:24.001Z</time></trkpt><trkpt lat="39.82418429721953" lon="18.291635478200465"><ele>8.25</ele><time>2026-04-26T10:39:25.001Z</time></trkpt><trkpt lat="39.82411965676116" lon="18.29179739283475"><ele>7.0</ele><time>2026-04-26T10:39:26.001Z</time></trkpt><trkpt lat="39.82404826351678" lon="18.29195642350463"><ele>7.0</ele><time>2026-04-26T10:39:27.001Z</time></trkpt><trkpt lat="39.823973327233354" lon="18.29211770043836"><ele>7.0</ele><time>2026-04-26T10:39:28.001Z</time></trkpt><trkpt lat="39.82390278718597" lon="18.292283277024794"><ele>7.0</ele><time>2026-04-26T10:39:29.001Z</time></trkpt><trkpt lat="39.82382913213211" lon="18.292459939674583"><ele>7.0</ele><time>2026-04-26T10:39:30.001Z</time></trkpt><trkpt lat="39.82374958920308" lon="18.292642920498416"><ele>6.333333333333334</ele><time>2026-04-26T10:39:31.001Z</time></trkpt><trkpt lat="39.823657776721724" lon="18.29283858989015"><ele>5.666666666666667</ele><time>2026-04-26T10:39:32.001Z</time></trkpt><trkpt lat="39.82355460016792" lon="18.293042019806045"><ele>5.0</ele><time>2026-04-26T10:39:33.001Z</time></trkpt><trkpt lat="39.82345428818943" lon="18.293238492920796"><ele>5.0</ele><time>2026-04-26T10:39:34.001Z</time></trkpt><trkpt lat="39.82336150730218" lon="18.293436753237206"><ele>5.0</ele><time>2026-04-26T10:39:35.001Z</time></trkpt><trkpt lat="39.82325219646826" lon="18.29363171551851"><ele>5.0</ele><time>2026-04-26T10:39:36.001Z</time></trkpt><trkpt lat="39.82312183121179" lon="18.29382832771477"><ele>6.0</ele><time>2026-04-26T10:39:37.001Z</time></trkpt><trkpt lat="39.8230125036052" lon="18.294026426413893"><ele>7.0</ele><time>2026-04-26T10:39:38.001Z</time></trkpt><trkpt lat="39.82292862438303" lon="18.294223969209423"><ele>8.0</ele><time>2026-04-26T10:39:39.001Z</time></trkpt><trkpt lat="39.82288164109377" lon="18.29442632634675"><ele>8.0</ele><time>2026-04-26T10:39:40.001Z</time></trkpt><trkpt lat="39.822819399702354" lon="18.294612562860664"><ele>8.0</ele><time>2026-04-26T10:39:41.001Z</time></trkpt><trkpt lat="39.82276036066463" lon="18.29477878141014"><ele>8.0</ele><time>2026-04-26T10:39:42Z</time></trkpt><trkpt lat="39.822715499904284" lon="18.29494096862197"><ele>8.0</ele><time>2026-04-26T10:39:43Z</time></trkpt><trkpt lat="39.82267164671399" lon="18.295099322245193"><ele>7.75</ele><time>2026-04-26T10:39:44.001Z</time></trkpt><trkpt lat="39.82262564184708" lon="18.295266254550707"><ele>7.5</ele><time>2026-04-26T10:39:45Z</time></trkpt><trkpt lat="39.82257880598538" lon="18.295442702168355"><ele>7.25</ele><time>2026-04-26T10:39:46Z</time></trkpt><trkpt lat="39.822526958478505" lon="18.295629872349124"><ele>7.0</ele><time>2026-04-26T10:39:47.001Z</time></trkpt><trkpt lat="39.822472870218384" lon="18.295797214073087"><ele>7.0</ele><time>2026-04-26T10:39:48Z</time></trkpt><trkpt lat="39.82242233533126" lon="18.29595798239585"><ele>7.0</ele><time>2026-04-26T10:39:49Z</time></trkpt><trkpt lat="39.82237957161306" lon="18.296116539349036"><ele>7.0</ele><time>2026-04-26T10:39:50.001Z</time></trkpt><trkpt lat="39.82233627983477" lon="18.29627004706825"><ele>7.0</ele><time>2026-04-26T10:39:51Z</time></trkpt><trkpt lat="39.82228960406893" lon="18.29642557532308"><ele>9.0</ele><time>2026-04-26T10:39:52Z</time></trkpt><trkpt lat="39.82224091933933" lon="18.296579937786376"><ele>11.0</ele><time>2026-04-26T10:39:53Z</time></trkpt><trkpt lat="39.822190083184644" lon="18.296737641289972"><ele>13.0</ele><time>2026-04-26T10:39:54Z</time></trkpt><trkpt lat="39.822145349806185" lon="18.29689947977041"><ele>15.0</ele><time>2026-04-26T10:39:55Z</time></trkpt><trkpt lat="39.822105077284895" lon="18.297065133007333"><ele>15.0</ele><time>2026-04-26T10:39:56Z</time></trkpt><trkpt lat="39.82206710123624" lon="18.297232791112325"><ele>15.0</ele><time>2026-04-26T10:39:57Z</time></trkpt><trkpt lat="39.82201240408936" lon="18.29740199776368"><ele>15.0</ele><time>2026-04-26T10:39:58Z</time></trkpt><trkpt lat="39.821952041225714" lon="18.29758507830931"><ele>15.0</ele><time>2026-04-26T10:39:59Z</time></trkpt><trkpt lat="39.82189670681279" lon="18.29776603929697"><ele>14.666666666666668</ele><time>2026-04-26T10:40:00Z</time></trkpt><trkpt lat="39.82183516920267" lon="18.2979528386806"><ele>14.333333333333334</ele><time>2026-04-26T10:40:01Z</time></trkpt><trkpt lat="39.82177945931395" lon="18.2981365196774"><ele>14.0</ele><time>2026-04-26T10:40:02Z</time></trkpt><trkpt lat="39.82172178237016" lon="18.29832444893035"><ele>14.0</ele><time>2026-04-26T10:40:03Z</time></trkpt><trkpt lat="39.82166028517168" lon="18.298513584002993"><ele>14.0</ele><time>2026-04-26T10:40:04Z</time></trkpt><trkpt lat="39.821609784440476" lon="18.298708760261356"><ele>14.0</ele><time>2026-04-26T10:40:05Z</time></trkpt><trkpt lat="39.821541438661264" lon="18.298898405116102"><ele>16.0</ele><time>2026-04-26T10:40:06Z</time></trkpt><trkpt lat="39.8214498021946" lon="18.299071622082987"><ele>18.0</ele><time>2026-04-26T10:40:07Z</time></trkpt><trkpt lat="39.82134397597419" lon="18.299227339021073"><ele>20.0</ele><time>2026-04-26T10:40:08Z</time></trkpt><trkpt lat="39.82123047647668" lon="18.299383945517228"><ele>20.0</ele><time>2026-04-26T10:40:09Z</time></trkpt><trkpt lat="39.8211039099253" lon="18.299554338681844"><ele>20.0</ele><time>2026-04-26T10:40:10Z</time></trkpt><trkpt lat="39.820965336403916" lon="18.299702690020133"><ele>20.0</ele><time>2026-04-26T10:40:11Z</time></trkpt><trkpt lat="39.820800656076" lon="18.299857269678345"><ele>14.5</ele><time>2026-04-26T10:40:12Z</time></trkpt><trkpt lat="39.82065602785019" lon="18.30000983933908"><ele>9.0</ele><time>2026-04-26T10:40:13Z</time></trkpt><trkpt lat="39.820943743688126" lon="18.300276138654397"><ele>9.0</ele><time>2026-04-26T10:40:14Z</time></trkpt><trkpt lat="39.82087057044229" lon="18.30044169266248"><ele>9.0</ele><time>2026-04-26T10:40:15Z</time></trkpt><trkpt lat="39.820799890275254" lon="18.300595810611256"><ele>9.0</ele><time>2026-04-26T10:40:16Z</time></trkpt><trkpt lat="39.82073425108629" lon="18.300727042224437"><ele>9.0</ele><time>2026-04-26T10:40:17Z</time></trkpt><trkpt lat="39.82068358472053" lon="18.300833742201192"><ele>10.166666666666666</ele><time>2026-04-26T10:40:18Z</time></trkpt><trkpt lat="39.820639185060855" lon="18.300928687728597"><ele>11.333333333333332</ele><time>2026-04-26T10:40:19Z</time></trkpt><trkpt lat="39.82059440083927" lon="18.30102337452267"><ele>12.5</ele><time>2026-04-26T10:40:20.001Z</time></trkpt><trkpt lat="39.820550266811445" lon="18.301125377396563"><ele>13.666666666666666</ele><time>2026-04-26T10:40:21.001Z</time></trkpt><trkpt lat="39.82049691197729" lon="18.301234053278428"><ele>14.833333333333332</ele><time>2026-04-26T10:40:22.001Z</time></trkpt><trkpt lat="39.820451385577435" lon="18.301332015189082"><ele>16.0</ele><time>2026-04-26T10:40:23.001Z</time></trkpt><trkpt lat="39.82040637158496" lon="18.301430437545424"><ele>17.200000000000003</ele><time>2026-04-26T10:40:24.001Z</time></trkpt><trkpt lat="39.82035965440241" lon="18.301542094888696"><ele>18.400000000000002</ele><time>2026-04-26T10:40:25.001Z</time></trkpt><trkpt lat="39.82030719793198" lon="18.30166594998077"><ele>19.6</ele><time>2026-04-26T10:40:26.001Z</time></trkpt><trkpt lat="39.82024715760427" lon="18.301802253232076"><ele>20.8</ele><time>2026-04-26T10:40:27.001Z</time></trkpt><trkpt lat="39.82018615531338" lon="18.30193680038214"><ele>22.0</ele><time>2026-04-26T10:40:28.001Z</time></trkpt><trkpt lat="39.820117035526195" lon="18.302072770235092"><ele>20.25</ele><time>2026-04-26T10:40:29.001Z</time></trkpt><trkpt lat="39.82005728341527" lon="18.30220576354178"><ele>18.5</ele><time>2026-04-26T10:40:30.001Z</time></trkpt><trkpt lat="39.81999810794143" lon="18.30233050060428"><ele>16.75</ele><time>2026-04-26T10:40:31.001Z</time></trkpt><trkpt lat="39.81993661955842" lon="18.302459632604453"><ele>15.0</ele><time>2026-04-26T10:40:32.001Z</time></trkpt><trkpt lat="39.81987369384125" lon="18.302589998641064"><ele>15.0</ele><time>2026-04-26T10:40:33.001Z</time></trkpt><trkpt lat="39.819813588781045" lon="18.302732397681787"><ele>15.0</ele><time>2026-04-26T10:40:34.001Z</time></trkpt><trkpt lat="39.8197544210545" lon="18.302884394766743"><ele>15.0</ele><time>2026-04-26T10:40:35.001Z</time></trkpt><trkpt lat="39.81969335528564" lon="18.303031603779047"><ele>15.0</ele><time>2026-04-26T10:40:36.001Z</time></trkpt><trkpt lat="39.81961111752935" lon="18.30319541140342"><ele>17.25</ele><time>2026-04-26T10:40:37.001Z</time></trkpt><trkpt lat="39.81953837793177" lon="18.30332796319146"><ele>19.5</ele><time>2026-04-26T10:40:38.001Z</time></trkpt><trkpt lat="39.81947206818545" lon="18.30346533342501"><ele>21.75</ele><time>2026-04-26T10:40:39.001Z</time></trkpt><trkpt lat="39.819413322647286" lon="18.303610948139372"><ele>24.0</ele><time>2026-04-26T10:40:40.001Z</time></trkpt><trkpt lat="39.819347020509376" lon="18.303764634052683"><ele>21.75</ele><time>2026-04-26T10:40:41.001Z</time></trkpt><trkpt lat="39.81927252456974" lon="18.303923503245787"><ele>19.5</ele><time>2026-04-26T10:40:42.001Z</time></trkpt><trkpt lat="39.81919456667117" lon="18.304086752297312"><ele>17.25</ele><time>2026-04-26T10:40:43.001Z</time></trkpt><trkpt lat="39.81911797480663" lon="18.304254170265395"><ele>15.0</ele><time>2026-04-26T10:40:44.001Z</time></trkpt><trkpt lat="39.81904164042998" lon="18.30442078611836"><ele>15.0</ele><time>2026-04-26T10:40:45.001Z</time></trkpt><trkpt lat="39.81896866415272" lon="18.30457630375018"><ele>15.0</ele><time>2026-04-26T10:40:46.001Z</time></trkpt><trkpt lat="39.81890770633048" lon="18.304742478717625"><ele>15.0</ele><time>2026-04-26T10:40:47.001Z</time></trkpt><trkpt lat="39.81883997049068" lon="18.304919124265357"><ele>15.0</ele><time>2026-04-26T10:40:48.001Z</time></trkpt><trkpt lat="39.81877322553783" lon="18.30509146819563"><ele>16.75</ele><time>2026-04-26T10:40:49.001Z</time></trkpt><trkpt lat="39.81870864579012" lon="18.305261159276277"><ele>18.5</ele><time>2026-04-26T10:40:50.001Z</time></trkpt><trkpt lat="39.81864689431213" lon="18.305424471341308"><ele>20.25</ele><time>2026-04-26T10:40:51.001Z</time></trkpt><trkpt lat="39.81859066893676" lon="18.305579133809015"><ele>22.0</ele><time>2026-04-26T10:40:52.001Z</time></trkpt><trkpt lat="39.81853451138514" lon="18.30573858860414"><ele>19.0</ele><time>2026-04-26T10:40:53.001Z</time></trkpt><trkpt lat="39.81847088492658" lon="18.305902643505124"><ele>16.0</ele><time>2026-04-26T10:40:54.001Z</time></trkpt><trkpt lat="39.81840641672772" lon="18.30606875349699"><ele>13.0</ele><time>2026-04-26T10:40:55.001Z</time></trkpt><trkpt lat="39.81834954563013" lon="18.30623471144886"><ele>10.0</ele><time>2026-04-26T10:40:56.001Z</time></trkpt><trkpt lat="39.818289151922436" lon="18.306401507373543"><ele>12.75</ele><time>2026-04-26T10:40:57.001Z</time></trkpt><trkpt lat="39.8182339742399" lon="18.306575338260902"><ele>15.5</ele><time>2026-04-26T10:40:58.001Z</time></trkpt><trkpt lat="39.81817012089338" lon="18.306737895933782"><ele>18.25</ele><time>2026-04-26T10:40:59.001Z</time></trkpt><trkpt lat="39.81810286494153" lon="18.30689814421947"><ele>21.0</ele><time>2026-04-26T10:41:00.001Z</time></trkpt><trkpt lat="39.818030319814376" lon="18.3070518910979"><ele>21.0</ele><time>2026-04-26T10:41:01.001Z</time></trkpt><trkpt lat="39.81795474671479" lon="18.307207153439197"><ele>21.0</ele><time>2026-04-26T10:41:02.001Z</time></trkpt><trkpt lat="39.81786771721596" lon="18.307360573631588"><ele>21.0</ele><time>2026-04-26T10:41:03.001Z</time></trkpt><trkpt lat="39.81778231571688" lon="18.307522886763305"><ele>21.0</ele><time>2026-04-26T10:41:04.001Z</time></trkpt><trkpt lat="39.81769814017007" lon="18.307683158003933"><ele>21.0</ele><time>2026-04-26T10:41:05.001Z</time></trkpt><trkpt lat="39.81761537722409" lon="18.307847989466094"><ele>21.0</ele><time>2026-04-26T10:41:06.001Z</time></trkpt><trkpt lat="39.81753276077923" lon="18.308011419324682"><ele>21.0</ele><time>2026-04-26T10:41:07.001Z</time></trkpt><trkpt lat="39.817454349368774" lon="18.308177151528007"><ele>21.0</ele><time>2026-04-26T10:41:08.001Z</time></trkpt><trkpt lat="39.81737007849839" lon="18.30834124265345"><ele>21.0</ele><time>2026-04-26T10:41:09.001Z</time></trkpt><trkpt lat="39.81728578065225" lon="18.308508194105542"><ele>21.0</ele><time>2026-04-26T10:41:10.001Z</time></trkpt><trkpt lat="39.81720670124878" lon="18.30867789253314"><ele>21.0</ele><time>2026-04-26T10:41:11.001Z</time></trkpt><trkpt lat="39.81712637194077" lon="18.3088336082678"><ele>21.0</ele><time>2026-04-26T10:41:12.001Z</time></trkpt><trkpt lat="39.817042913093395" lon="18.308990318045993"><ele>21.0</ele><time>2026-04-26T10:41:13.001Z</time></trkpt><trkpt lat="39.81696968892906" lon="18.309136687623194"><ele>21.0</ele><time>2026-04-26T10:41:14.001Z</time></trkpt><trkpt lat="39.816893885834475" lon="18.309293027044333"><ele>20.25</ele><time>2026-04-26T10:41:15.001Z</time></trkpt><trkpt lat="39.81681552797773" lon="18.309443570492267"><ele>19.5</ele><time>2026-04-26T10:41:16.001Z</time></trkpt><trkpt lat="39.81673509593311" lon="18.309595487386794"><ele>18.75</ele><time>2026-04-26T10:41:17.001Z</time></trkpt><trkpt lat="39.81664994203329" lon="18.309754764401493"><ele>18.0</ele><time>2026-04-26T10:41:18.001Z</time></trkpt><trkpt lat="39.81656580474335" lon="18.3099303666516"><ele>20.666666666666664</ele><time>2026-04-26T10:41:19.001Z</time></trkpt><trkpt lat="39.8164806598277" lon="18.310098810144645"><ele>23.333333333333332</ele><time>2026-04-26T10:41:20.001Z</time></trkpt><trkpt lat="39.816397808327864" lon="18.310268831612472"><ele>26.0</ele><time>2026-04-26T10:41:21.001Z</time></trkpt><trkpt lat="39.81632200575975" lon="18.310430964789546"><ele>28.25</ele><time>2026-04-26T10:41:22.001Z</time></trkpt><trkpt lat="39.816237987906725" lon="18.310587391591298"><ele>30.5</ele><time>2026-04-26T10:41:23.001Z</time></trkpt><trkpt lat="39.81615936318346" lon="18.31074259766643"><ele>32.75</ele><time>2026-04-26T10:41:24.001Z</time></trkpt><trkpt lat="39.81607482853296" lon="18.310903871185022"><ele>35.0</ele><time>2026-04-26T10:41:25.001Z</time></trkpt><trkpt lat="39.815998478213714" lon="18.311058109175658"><ele>33.0</ele><time>2026-04-26T10:41:26.001Z</time></trkpt><trkpt lat="39.81592185003938" lon="18.311213308572768"><ele>31.0</ele><time>2026-04-26T10:41:27.001Z</time></trkpt><trkpt lat="39.81584509624742" lon="18.31136627011519"><ele>29.0</ele><time>2026-04-26T10:41:28.001Z</time></trkpt><trkpt lat="39.815767885497024" lon="18.311520252283756"><ele>27.0</ele><time>2026-04-26T10:41:29.001Z</time></trkpt><trkpt lat="39.81569350839767" lon="18.311673005099436"><ele>27.0</ele><time>2026-04-26T10:41:30.001Z</time></trkpt><trkpt lat="39.815619892371274" lon="18.311816992167174"><ele>27.0</ele><time>2026-04-26T10:41:31.001Z</time></trkpt><trkpt lat="39.81555225800814" lon="18.31194695538035"><ele>27.0</ele><time>2026-04-26T10:41:32.001Z</time></trkpt><trkpt lat="39.81549123116529" lon="18.312062867623034"><ele>27.0</ele><time>2026-04-26T10:41:33.001Z</time></trkpt><trkpt lat="39.815436117115496" lon="18.3121631723502"><ele>28.333333333333332</ele><time>2026-04-26T10:41:34.001Z</time></trkpt><trkpt lat="39.81538978133858" lon="18.31225857304426"><ele>29.666666666666664</ele><time>2026-04-26T10:41:35.001Z</time></trkpt><trkpt lat="39.81534773409773" lon="18.312345538595608"><ele>31.0</ele><time>2026-04-26T10:41:36.001Z</time></trkpt><trkpt lat="39.815301070679226" lon="18.312413754571548"><ele>32.33333333333333</ele><time>2026-04-26T10:41:37.001Z</time></trkpt><trkpt lat="39.815262929276805" lon="18.312497453129033"><ele>33.666666666666664</ele><time>2026-04-26T10:41:38.001Z</time></trkpt><trkpt lat="39.81522415980472" lon="18.31257686966152"><ele>35.0</ele><time>2026-04-26T10:41:39.001Z</time></trkpt><trkpt lat="39.8151767115978" lon="18.312665165295442"><ele>33.5</ele><time>2026-04-26T10:41:40.001Z</time></trkpt><trkpt lat="39.81512842384357" lon="18.312740338556228"><ele>32.0</ele><time>2026-04-26T10:41:41.001Z</time></trkpt><trkpt lat="39.815057190143925" lon="18.312833975226187"><ele>30.5</ele><time>2026-04-26T10:41:43.001Z</time></trkpt><trkpt lat="39.81498707910822" lon="18.312882997167783"><ele>29.0</ele><time>2026-04-26T10:41:46.001Z</time></trkpt><trkpt lat="39.81493418573213" lon="18.31292953969846"><ele>27.499999999999996</ele><time>2026-04-26T10:41:49Z</time></trkpt><trkpt lat="39.814877613294854" lon="18.312982261218405"><ele>26.0</ele><time>2026-04-26T10:41:52Z</time></trkpt><trkpt lat="39.81486251746726" lon="18.313064738427617"><ele>26.0</ele><time>2026-04-26T10:41:55Z</time></trkpt><trkpt lat="39.814856848770766" lon="18.313152209481018"><ele>26.0</ele><time>2026-04-26T10:41:59Z</time></trkpt><trkpt lat="39.81492563323915" lon="18.31316182552293"><ele>26.0</ele><time>2026-04-26T10:42:03Z</time></trkpt><trkpt lat="39.814988432185665" lon="18.313132216039744"><ele>26.0</ele><time>2026-04-26T10:42:07Z</time></trkpt><trkpt lat="39.8150528170393" lon="18.313087982784403"><ele>26.0</ele><time>2026-04-26T10:42:19Z</time></trkpt><trkpt lat="39.815104586011344" lon="18.313014290344498"><ele>26.0</ele><time>2026-04-26T10:42:23Z</time></trkpt><trkpt lat="39.815184964562825" lon="18.313023492235533"><ele>26.0</ele><time>2026-04-26T10:42:25Z</time></trkpt><trkpt lat="39.815297746686625" lon="18.313029366868996"><ele>27.8</ele><time>2026-04-26T10:42:27Z</time></trkpt><trkpt lat="39.81541837707032" lon="18.31299402585512"><ele>29.6</ele><time>2026-04-26T10:42:29Z</time></trkpt><trkpt lat="39.8154941357755" lon="18.312960251864478"><ele>31.4</ele><time>2026-04-26T10:42:30Z</time></trkpt><trkpt lat="39.815582064703754" lon="18.31292907647349"><ele>33.2</ele><time>2026-04-26T10:42:31Z</time></trkpt><trkpt lat="39.8156838827931" lon="18.312893334928695"><ele>35.0</ele><time>2026-04-26T10:42:32Z</time></trkpt><trkpt lat="39.815784258612254" lon="18.31285805433338"><ele>35.0</ele><time>2026-04-26T10:42:33Z</time></trkpt><trkpt lat="39.81586791518208" lon="18.312828871356555"><ele>35.0</ele><time>2026-04-26T10:42:34Z</time></trkpt><trkpt lat="39.815936046570584" lon="18.312807796339445"><ele>35.0</ele><time>2026-04-26T10:42:35Z</time></trkpt><trkpt lat="39.81600845581724" lon="18.31278709808143"><ele>35.0</ele><time>2026-04-26T10:42:37Z</time></trkpt><trkpt lat="39.81608224947068" lon="18.312746786466857"><ele>35.0</ele><time>2026-04-26T10:42:42Z</time></trkpt><trkpt lat="39.816163604557005" lon="18.31271948882893"><ele>35.0</ele><time>2026-04-26T10:42:44Z</time></trkpt><trkpt lat="39.81622538615867" lon="18.31270112438948"><ele>36.8</ele><time>2026-04-26T10:42:45Z</time></trkpt><trkpt lat="39.81630482702188" lon="18.312677516532563"><ele>38.6</ele><time>2026-04-26T10:42:46Z</time></trkpt><trkpt lat="39.8163989090329" lon="18.312647522351856"><ele>40.400000000000006</ele><time>2026-04-26T10:42:47Z</time></trkpt><trkpt lat="39.8165068126002" lon="18.312607519545963"><ele>42.2</ele><time>2026-04-26T10:42:48Z</time></trkpt><trkpt lat="39.81662141854561" lon="18.312571685985354"><ele>44.0</ele><time>2026-04-26T10:42:49Z</time></trkpt><trkpt lat="39.81673208520482" lon="18.31252891501219"><ele>45.75</ele><time>2026-04-26T10:42:50Z</time></trkpt><trkpt lat="39.81684741112028" lon="18.312488323240096"><ele>47.5</ele><time>2026-04-26T10:42:51Z</time></trkpt><trkpt lat="39.81697068507611" lon="18.312445112245648"><ele>49.25</ele><time>2026-04-26T10:42:52Z</time></trkpt><trkpt lat="39.81709341280871" lon="18.31240275830773"><ele>51.0</ele><time>2026-04-26T10:42:53Z</time></trkpt><trkpt lat="39.8172077437322" lon="18.31235231088302"><ele>51.0</ele><time>2026-04-26T10:42:54Z</time></trkpt><trkpt lat="39.81732698614932" lon="18.31231265342383"><ele>51.0</ele><time>2026-04-26T10:42:55Z</time></trkpt><trkpt lat="39.81743499894487" lon="18.312269830397206"><ele>51.0</ele><time>2026-04-26T10:42:56Z</time></trkpt><trkpt lat="39.81754732233389" lon="18.312237350445923"><ele>51.0</ele><time>2026-04-26T10:42:57Z</time></trkpt><trkpt lat="39.817664409132725" lon="18.31221806283714"><ele>51.75</ele><time>2026-04-26T10:42:58Z</time></trkpt><trkpt lat="39.81778433673111" lon="18.312200413985906"><ele>52.5</ele><time>2026-04-26T10:42:59Z</time></trkpt><trkpt lat="39.81790660171641" lon="18.31218799983064"><ele>53.25</ele><time>2026-04-26T10:43:00Z</time></trkpt><trkpt lat="39.81802236746952" lon="18.312181464324308"><ele>54.0</ele><time>2026-04-26T10:43:01Z</time></trkpt><trkpt lat="39.81813724293305" lon="18.312180805017235"><ele>54.0</ele><time>2026-04-26T10:43:02Z</time></trkpt><trkpt lat="39.81824820278188" lon="18.31217562823521"><ele>54.00000000000001</ele><time>2026-04-26T10:43:03Z</time></trkpt><trkpt lat="39.81835499734349" lon="18.31217794980882"><ele>54.00000000000001</ele><time>2026-04-26T10:43:04Z</time></trkpt><trkpt lat="39.81846873433429" lon="18.31218440520405"><ele>54.0</ele><time>2026-04-26T10:43:05Z</time></trkpt><trkpt lat="39.81857219573963" lon="18.312190376874046"><ele>54.0</ele><time>2026-04-26T10:43:06Z</time></trkpt><trkpt lat="39.818674353625" lon="18.31219190338823"><ele>55.2</ele><time>2026-04-26T10:43:07Z</time></trkpt><trkpt lat="39.81877533190645" lon="18.312198331947524"><ele>56.400000000000006</ele><time>2026-04-26T10:43:08Z</time></trkpt><trkpt lat="39.81887418285598" lon="18.312204568751874"><ele>57.6</ele><time>2026-04-26T10:43:09Z</time></trkpt><trkpt lat="39.818967947565454" lon="18.312210341168104"><ele>58.8</ele><time>2026-04-26T10:43:10Z</time></trkpt><trkpt lat="39.81906201511169" lon="18.312208691294526"><ele>60.0</ele><time>2026-04-26T10:43:11Z</time></trkpt><trkpt lat="39.81915851369899" lon="18.312207180088315"><ele>60.0</ele><time>2026-04-26T10:43:12Z</time></trkpt><trkpt lat="39.819258510171395" lon="18.31220877253217"><ele>60.0</ele><time>2026-04-26T10:43:13Z</time></trkpt><trkpt lat="39.819359790830255" lon="18.312209266222037"><ele>60.0</ele><time>2026-04-26T10:43:14Z</time></trkpt><trkpt lat="39.819452010387394" lon="18.312210783540625"><ele>60.0</ele><time>2026-04-26T10:43:15Z</time></trkpt><trkpt lat="39.81954383247252" lon="18.31221087764656"><ele>60.0</ele><time>2026-04-26T10:43:16Z</time></trkpt><trkpt lat="39.81963008987339" lon="18.312211242799886"><ele>61.166666666666664</ele><time>2026-04-26T10:43:17Z</time></trkpt><trkpt lat="39.8197147339691" lon="18.31221900756502"><ele>62.33333333333333</ele><time>2026-04-26T10:43:18Z</time></trkpt><trkpt lat="39.819791115326275" lon="18.31223359271385"><ele>63.5</ele><time>2026-04-26T10:43:19Z</time></trkpt><trkpt lat="39.81986461850845" lon="18.312241713029284"><ele>64.66666666666666</ele><time>2026-04-26T10:43:20Z</time></trkpt><trkpt lat="39.8199933956641" lon="18.31224361335067"><ele>65.83333333333333</ele><time>2026-04-26T10:43:22Z</time></trkpt><trkpt lat="39.82005984905119" lon="18.31224257624889"><ele>67.0</ele><time>2026-04-26T10:43:23Z</time></trkpt><trkpt lat="39.82012696916633" lon="18.31224338959652"><ele>68.83333333333333</ele><time>2026-04-26T10:43:24Z</time></trkpt><trkpt lat="39.820191493804636" lon="18.31224610312003"><ele>70.66666666666666</ele><time>2026-04-26T10:43:25Z</time></trkpt><trkpt lat="39.82029675878101" lon="18.312248141727775"><ele>72.5</ele><time>2026-04-26T10:43:27Z</time></trkpt><trkpt lat="39.820381070453415" lon="18.31224811383343"><ele>74.33333333333333</ele><time>2026-04-26T10:43:29Z</time></trkpt><trkpt lat="39.82047253445829" lon="18.31224757045812"><ele>76.16666666666667</ele><time>2026-04-26T10:43:31Z</time></trkpt><trkpt lat="39.820538216427295" lon="18.312251790948004"><ele>78.0</ele><time>2026-04-26T10:43:33.001Z</time></trkpt><trkpt lat="39.82062890915446" lon="18.312251049934986"><ele>78.0</ele><time>2026-04-26T10:43:36.001Z</time></trkpt><trkpt lat="39.82071299242082" lon="18.31225739464258"><ele>78.0</ele><time>2026-04-26T10:43:39.001Z</time></trkpt><trkpt lat="39.820811140866844" lon="18.312287154087034"><ele>78.0</ele><time>2026-04-26T10:44:13Z</time></trkpt><trkpt lat="39.82089160137552" lon="18.312275067645594"><ele>78.0</ele><time>2026-04-26T10:44:27Z</time></trkpt></trkseg><trkseg><trkpt lat="39.82105476798784" lon="18.31231435090308"><ele>84.0</ele><time>2026-04-26T13:18:12.059Z</time></trkpt><trkpt lat="39.82112592015624" lon="18.312312491946624"><ele>84.0</ele><time>2026-04-26T13:18:16.059Z</time></trkpt><trkpt lat="39.82118971216833" lon="18.312286959388583"><ele>84.0</ele><time>2026-04-26T13:18:19.059Z</time></trkpt><trkpt lat="39.82126789015168" lon="18.312297461855287"><ele>84.0</ele><time>2026-04-26T13:18:22.059Z</time></trkpt><trkpt lat="39.82133675733584" lon="18.31229773156809"><ele>84.0</ele><time>2026-04-26T13:18:24.059Z</time></trkpt><trkpt lat="39.82141695702893" lon="18.31229954133648"><ele>84.0</ele><time>2026-04-26T13:18:26.059Z</time></trkpt><trkpt lat="39.82151565052068" lon="18.312305524383056"><ele>84.0</ele><time>2026-04-26T13:18:28.059Z</time></trkpt><trkpt lat="39.82162487366414" lon="18.31231281161495"><ele>84.0</ele><time>2026-04-26T13:18:30.059Z</time></trkpt><trkpt lat="39.82173310262848" lon="18.31232181093145"><ele>84.0</ele><time>2026-04-26T13:18:32.059Z</time></trkpt><trkpt lat="39.82180590713454" lon="18.312329969978954"><ele>84.0</ele><time>2026-04-26T13:18:34.059Z</time></trkpt><trkpt lat="39.82187243115617" lon="18.312340844981755"><ele>84.0</ele><time>2026-04-26T13:18:36.059Z</time></trkpt><trkpt lat="39.82194447085415" lon="18.312344922147897"><ele>84.0</ele><time>2026-04-26T13:18:39.059Z</time></trkpt><trkpt lat="39.82201172204411" lon="18.312344523410243"><ele>84.66666666666667</ele><time>2026-04-26T13:19:04.059Z</time></trkpt><trkpt lat="39.82209584027509" lon="18.312334452738966"><ele>85.33333333333333</ele><time>2026-04-26T13:19:47.059Z</time></trkpt><trkpt lat="39.822162959942006" lon="18.31232987713572"><ele>86.0</ele><time>2026-04-26T13:19:48.059Z</time></trkpt><trkpt lat="39.82223829512966" lon="18.3123286647443"><ele>86.66666666666666</ele><time>2026-04-26T13:19:49.059Z</time></trkpt><trkpt lat="39.82231846794484" lon="18.312325521593092"><ele>87.33333333333333</ele><time>2026-04-26T13:19:50.059Z</time></trkpt><trkpt lat="39.822413495823476" lon="18.312324240897766"><ele>88.0</ele><time>2026-04-26T13:19:51.059Z</time></trkpt><trkpt lat="39.822501286516406" lon="18.312331962983535"><ele>88.0</ele><time>2026-04-26T13:19:52.059Z</time></trkpt><trkpt lat="39.82256540931075" lon="18.31234118750398"><ele>88.0</ele><time>2026-04-26T13:19:53.059Z</time></trkpt><trkpt lat="39.82263232139997" lon="18.31234637619097"><ele>88.0</ele><time>2026-04-26T13:19:54.059Z</time></trkpt><trkpt lat="39.82270283367564" lon="18.312345986303644"><ele>88.0</ele><time>2026-04-26T13:19:55.059Z</time></trkpt><trkpt lat="39.82278506689688" lon="18.31235035191938"><ele>88.0</ele><time>2026-04-26T13:19:56.059Z</time></trkpt><trkpt lat="39.822871347245744" lon="18.312361795838665"><ele>88.0</ele><time>2026-04-26T13:19:57.059Z</time></trkpt><trkpt lat="39.822966122592376" lon="18.31238304435602"><ele>88.2</ele><time>2026-04-26T13:19:58.059Z</time></trkpt><trkpt lat="39.823069193324066" lon="18.312406490911016"><ele>88.4</ele><time>2026-04-26T13:19:59.059Z</time></trkpt><trkpt lat="39.82317457587451" lon="18.31243451633044"><ele>88.60000000000001</ele><time>2026-04-26T13:20:00.059Z</time></trkpt><trkpt lat="39.82327385470683" lon="18.312466109830225"><ele>88.80000000000001</ele><time>2026-04-26T13:20:01.059Z</time></trkpt><trkpt lat="39.8233735049426" lon="18.312501179242407"><ele>89.0</ele><time>2026-04-26T13:20:02.059Z</time></trkpt><trkpt lat="39.82348067381246" lon="18.312529354379134"><ele>89.25</ele><time>2026-04-26T13:20:03.059Z</time></trkpt><trkpt lat="39.82359434670842" lon="18.312582465202738"><ele>89.5</ele><time>2026-04-26T13:20:04.059Z</time></trkpt><trkpt lat="39.823707478631576" lon="18.312639312092365"><ele>89.75</ele><time>2026-04-26T13:20:05.059Z</time></trkpt><trkpt lat="39.82382790993084" lon="18.312706781629103"><ele>90.0</ele><time>2026-04-26T13:20:06.059Z</time></trkpt><trkpt lat="39.82394270186864" lon="18.312787417688174"><ele>90.0</ele><time>2026-04-26T13:20:07.059Z</time></trkpt><trkpt lat="39.82404201304122" lon="18.312860735490847"><ele>90.0</ele><time>2026-04-26T13:20:08.059Z</time></trkpt><trkpt lat="39.824127662049946" lon="18.312936137643675"><ele>90.0</ele><time>2026-04-26T13:20:09.059Z</time></trkpt><trkpt lat="39.824209221983864" lon="18.313009996109738"><ele>90.0</ele><time>2026-04-26T13:20:10.059Z</time></trkpt><trkpt lat="39.82428267560739" lon="18.313078254809163"><ele>90.0</ele><time>2026-04-26T13:20:11.059Z</time></trkpt><trkpt lat="39.82436152842413" lon="18.313153639069753"><ele>90.8</ele><time>2026-04-26T13:20:12.059Z</time></trkpt><trkpt lat="39.82443436651185" lon="18.313237019290472"><ele>91.6</ele><time>2026-04-26T13:20:13.059Z</time></trkpt><trkpt lat="39.82450429921745" lon="18.31332149023962"><ele>92.4</ele><time>2026-04-26T13:20:14.059Z</time></trkpt><trkpt lat="39.824574872076305" lon="18.313403441117988"><ele>93.2</ele><time>2026-04-26T13:20:15.059Z</time></trkpt><trkpt lat="39.824641295855955" lon="18.313492649184003"><ele>94.0</ele><time>2026-04-26T13:20:16.059Z</time></trkpt><trkpt lat="39.82470404439628" lon="18.31357699510012"><ele>94.0</ele><time>2026-04-26T13:20:17.059Z</time></trkpt><trkpt lat="39.824756259074924" lon="18.31365743436491"><ele>94.0</ele><time>2026-04-26T13:20:18.059Z</time></trkpt><trkpt lat="39.824803048246295" lon="18.313736587001433"><ele>94.0</ele><time>2026-04-26T13:20:19.059Z</time></trkpt><trkpt lat="39.82485462324059" lon="18.313818254602964"><ele>94.0</ele><time>2026-04-26T13:20:20.059Z</time></trkpt><trkpt lat="39.82490603635193" lon="18.313904612128706"><ele>94.0</ele><time>2026-04-26T13:20:21.059Z</time></trkpt><trkpt lat="39.824958763305794" lon="18.313990871770788"><ele>94.0</ele><time>2026-04-26T13:20:22.059Z</time></trkpt><trkpt lat="39.82501070753539" lon="18.314076742695207"><ele>94.0</ele><time>2026-04-26T13:20:23.059Z</time></trkpt><trkpt lat="39.82506923384644" lon="18.314163502591704"><ele>94.0</ele><time>2026-04-26T13:20:24.059Z</time></trkpt><trkpt lat="39.82513217669832" lon="18.314254860388182"><ele>94.0</ele><time>2026-04-26T13:20:25.059Z</time></trkpt><trkpt lat="39.82519939093983" lon="18.31435386273978"><ele>94.0</ele><time>2026-04-26T13:20:26.059Z</time></trkpt><trkpt lat="39.82526345767976" lon="18.31445930524032"><ele>94.0</ele><time>2026-04-26T13:20:27.059Z</time></trkpt><trkpt lat="39.82533271285357" lon="18.314572074891075"><ele>94.25</ele><time>2026-04-26T13:20:28.059Z</time></trkpt><trkpt lat="39.825403940459836" lon="18.314689120216645"><ele>94.5</ele><time>2026-04-26T13:20:29.059Z</time></trkpt><trkpt lat="39.825478793655975" lon="18.31480419272467"><ele>94.75</ele><time>2026-04-26T13:20:30.059Z</time></trkpt><trkpt lat="39.82555542647939" lon="18.314928029233826"><ele>95.0</ele><time>2026-04-26T13:20:31.059Z</time></trkpt><trkpt lat="39.825633815748205" lon="18.315053508004304"><ele>95.0</ele><time>2026-04-26T13:20:32.059Z</time></trkpt><trkpt lat="39.825718658197594" lon="18.315188643236823"><ele>95.0</ele><time>2026-04-26T13:20:33.059Z</time></trkpt><trkpt lat="39.82581520012008" lon="18.315329577884743"><ele>95.0</ele><time>2026-04-26T13:20:34.059Z</time></trkpt><trkpt lat="39.82590970000029" lon="18.31548111681513"><ele>95.0</ele><time>2026-04-26T13:20:35.059Z</time></trkpt><trkpt lat="39.826007545043446" lon="18.31564366533533"><ele>95.0</ele><time>2026-04-26T13:20:36.059Z</time></trkpt><trkpt lat="39.82610520575964" lon="18.3158086372174"><ele>95.0</ele><time>2026-04-26T13:20:37.059Z</time></trkpt><trkpt lat="39.82621136315929" lon="18.315973206456512"><ele>95.0</ele><time>2026-04-26T13:20:38.059Z</time></trkpt><trkpt lat="39.82632199068451" lon="18.31614249337363"><ele>95.0</ele><time>2026-04-26T13:20:39.059Z</time></trkpt><trkpt lat="39.826441039590094" lon="18.31633114436964"><ele>95.0</ele><time>2026-04-26T13:20:40.059Z</time></trkpt><trkpt lat="39.82654870669127" lon="18.316507727372116"><ele>95.0</ele><time>2026-04-26T13:20:41.059Z</time></trkpt><trkpt lat="39.82664059789169" lon="18.31666561428182"><ele>95.33333333333334</ele><time>2026-04-26T13:20:42.059Z</time></trkpt><trkpt lat="39.82673246253192" lon="18.316814379919766"><ele>95.66666666666667</ele><time>2026-04-26T13:20:43.059Z</time></trkpt><trkpt lat="39.82683677744597" lon="18.316960897579367"><ele>96.0</ele><time>2026-04-26T13:20:44.059Z</time></trkpt><trkpt lat="39.82694453099801" lon="18.317110623815765"><ele>96.0</ele><time>2026-04-26T13:20:45.059Z</time></trkpt><trkpt lat="39.827060015122626" lon="18.31725461763229"><ele>96.0</ele><time>2026-04-26T13:20:46.059Z</time></trkpt><trkpt lat="39.82718004442403" lon="18.317392797384315"><ele>96.0</ele><time>2026-04-26T13:20:47.059Z</time></trkpt><trkpt lat="39.8273022713991" lon="18.317514336740423"><ele>96.0</ele><time>2026-04-26T13:20:48.059Z</time></trkpt><trkpt lat="39.827413165104126" lon="18.31762651652594"><ele>96.0</ele><time>2026-04-26T13:20:49.059Z</time></trkpt><trkpt lat="39.82752201310854" lon="18.317725278628856"><ele>96.0</ele><time>2026-04-26T13:20:50.059Z</time></trkpt><trkpt lat="39.827629255419076" lon="18.317811714455182"><ele>96.0</ele><time>2026-04-26T13:20:51.059Z</time></trkpt><trkpt lat="39.82773421168362" lon="18.317891579401376"><ele>96.25</ele><time>2026-04-26T13:20:52.059Z</time></trkpt><trkpt lat="39.827845175343604" lon="18.317968143610777"><ele>96.5</ele><time>2026-04-26T13:20:53.059Z</time></trkpt><trkpt lat="39.8279638562773" lon="18.318042754798526"><ele>96.75</ele><time>2026-04-26T13:20:54.059Z</time></trkpt><trkpt lat="39.82809693729362" lon="18.318111159267964"><ele>97.0</ele><time>2026-04-26T13:20:55.059Z</time></trkpt><trkpt lat="39.82824211339493" lon="18.318176090455022"><ele>97.0</ele><time>2026-04-26T13:20:56.059Z</time></trkpt><trkpt lat="39.82839580436036" lon="18.31824052969605"><ele>97.0</ele><time>2026-04-26T13:20:57.059Z</time></trkpt><trkpt lat="39.82855774288518" lon="18.318310753017936"><ele>97.0</ele><time>2026-04-26T13:20:58.059Z</time></trkpt><trkpt lat="39.82870511902628" lon="18.318392313010943"><ele>97.5</ele><time>2026-04-26T13:20:59.059Z</time></trkpt><trkpt lat="39.82883318577864" lon="18.318458533833166"><ele>98.0</ele><time>2026-04-26T13:21:00.059Z</time></trkpt><trkpt lat="39.828948596590735" lon="18.318516014598995"><ele>98.5</ele><time>2026-04-26T13:21:01.059Z</time></trkpt><trkpt lat="39.829062696354505" lon="18.31855813364024"><ele>99.0</ele><time>2026-04-26T13:21:02.059Z</time></trkpt><trkpt lat="39.82917486551037" lon="18.318597966005342"><ele>99.0</ele><time>2026-04-26T13:21:03.059Z</time></trkpt><trkpt lat="39.829285463686276" lon="18.31865041809217"><ele>99.0</ele><time>2026-04-26T13:21:04.059Z</time></trkpt><trkpt lat="39.829402453843706" lon="18.318711225551095"><ele>99.0</ele><time>2026-04-26T13:21:05.059Z</time></trkpt><trkpt lat="39.829511280011474" lon="18.31878200714426"><ele>99.0</ele><time>2026-04-26T13:21:06.059Z</time></trkpt><trkpt lat="39.82962399822836" lon="18.31886027428814"><ele>100.0</ele><time>2026-04-26T13:21:07.059Z</time></trkpt><trkpt lat="39.829735972298195" lon="18.31893956886863"><ele>101.0</ele><time>2026-04-26T13:21:08.059Z</time></trkpt><trkpt lat="39.82984342686441" lon="18.319032137343132"><ele>102.0</ele><time>2026-04-26T13:21:09.059Z</time></trkpt><trkpt lat="39.82995097079244" lon="18.319132206893805"><ele>103.0</ele><time>2026-04-26T13:21:10.059Z</time></trkpt><trkpt lat="39.8300576055815" lon="18.319239807217375"><ele>104.5</ele><time>2026-04-26T13:21:11.059Z</time></trkpt><trkpt lat="39.83016308363615" lon="18.319355592951517"><ele>106.0</ele><time>2026-04-26T13:21:12.059Z</time></trkpt><trkpt lat="39.83026256733396" lon="18.31948172204005"><ele>107.5</ele><time>2026-04-26T13:21:13.059Z</time></trkpt><trkpt lat="39.83035933424331" lon="18.319616152957447"><ele>109.0</ele><time>2026-04-26T13:21:14.059Z</time></trkpt><trkpt lat="39.83045450252112" lon="18.319756305644873"><ele>109.25</ele><time>2026-04-26T13:21:15.059Z</time></trkpt><trkpt lat="39.83054886263362" lon="18.319903075203744"><ele>109.5</ele><time>2026-04-26T13:21:16.059Z</time></trkpt><trkpt lat="39.83063284287034" lon="18.32004794018473"><ele>109.75</ele><time>2026-04-26T13:21:17.058Z</time></trkpt><trkpt lat="39.83071411722166" lon="18.320174368651504"><ele>110.0</ele><time>2026-04-26T13:21:18.058Z</time></trkpt><trkpt lat="39.830781966140314" lon="18.32028263641937"><ele>110.0</ele><time>2026-04-26T13:21:19.058Z</time></trkpt><trkpt lat="39.83083924101301" lon="18.320378852133683"><ele>110.0</ele><time>2026-04-26T13:21:20.059Z</time></trkpt><trkpt lat="39.83089419103455" lon="18.320468404749107"><ele>110.0</ele><time>2026-04-26T13:21:21.058Z</time></trkpt><trkpt lat="39.830944053250974" lon="18.320549959545286"><ele>110.0</ele><time>2026-04-26T13:21:22.058Z</time></trkpt><trkpt lat="39.83098669499495" lon="18.32061738390768"><ele>110.0</ele><time>2026-04-26T13:21:23.058Z</time></trkpt><trkpt lat="39.83103941643515" lon="18.320767099069336"><ele>110.2</ele><time>2026-04-26T13:21:25.058Z</time></trkpt><trkpt lat="39.831040845897675" lon="18.320855154423047"><ele>110.4</ele><time>2026-04-26T13:21:26.059Z</time></trkpt><trkpt lat="39.83099049543717" lon="18.320984666815047"><ele>110.6</ele><time>2026-04-26T13:21:28.058Z</time></trkpt><trkpt lat="39.830942613587304" lon="18.3210505041677"><ele>110.8</ele><time>2026-04-26T13:21:29.058Z</time></trkpt><trkpt lat="39.83087125658974" lon="18.321097960107277"><ele>111.0</ele><time>2026-04-26T13:21:30.058Z</time></trkpt><trkpt lat="39.8307294144778" lon="18.32112497567359"><ele>111.0</ele><time>2026-04-26T13:21:31.058Z</time></trkpt><trkpt lat="39.83059680313772" lon="18.32115131260177"><ele>111.0</ele><time>2026-04-26T13:21:32.058Z</time></trkpt><trkpt lat="39.83046871438902" lon="18.321166348673994"><ele>111.0</ele><time>2026-04-26T13:21:33.058Z</time></trkpt><trkpt lat="39.83036104852295" lon="18.321148555949875"><ele>111.0</ele><time>2026-04-26T13:21:34.058Z</time></trkpt><trkpt lat="39.83026274080796" lon="18.321110716666386"><ele>111.0</ele><time>2026-04-26T13:21:35.058Z</time></trkpt><trkpt lat="39.83019492929058" lon="18.321060662560615"><ele>111.0</ele><time>2026-04-26T13:21:36.058Z</time></trkpt><trkpt lat="39.83014428118032" lon="18.321009208476404"><ele>111.0</ele><time>2026-04-26T13:21:37.058Z</time></trkpt><trkpt lat="39.83005980454265" lon="18.32090724824125"><ele>111.0</ele><time>2026-04-26T13:21:39.058Z</time></trkpt><trkpt lat="39.83003492931127" lon="18.320803106708833"><ele>111.0</ele><time>2026-04-26T13:21:41.058Z</time></trkpt><trkpt lat="39.830042213777745" lon="18.32068471658019"><ele>111.0</ele><time>2026-04-26T13:21:45.058Z</time></trkpt><trkpt lat="39.8301129567062" lon="18.320561374535604"><ele>110.8</ele><time>2026-04-26T13:21:47.058Z</time></trkpt><trkpt lat="39.830157003998835" lon="18.320474970881325"><ele>110.6</ele><time>2026-04-26T13:21:48.058Z</time></trkpt><trkpt lat="39.83020998367674" lon="18.320364131666548"><ele>110.4</ele><time>2026-04-26T13:21:49.058Z</time></trkpt><trkpt lat="39.83026987127487" lon="18.320243904812408"><ele>110.2</ele><time>2026-04-26T13:21:50.058Z</time></trkpt><trkpt lat="39.83033831375403" lon="18.320125888900634"><ele>110.0</ele><time>2026-04-26T13:21:51.058Z</time></trkpt><trkpt lat="39.8304054715995" lon="18.319995893969466"><ele>110.0</ele><time>2026-04-26T13:21:52.058Z</time></trkpt><trkpt lat="39.830472511402164" lon="18.319866793508165"><ele>110.0</ele><time>2026-04-26T13:21:53.058Z</time></trkpt><trkpt lat="39.830551528588536" lon="18.31973761086713"><ele>110.0</ele><time>2026-04-26T13:21:54.058Z</time></trkpt><trkpt lat="39.830634741584525" lon="18.319606865722903"><ele>110.0</ele><time>2026-04-26T13:21:55.058Z</time></trkpt><trkpt lat="39.830711835836794" lon="18.319463992959374"><ele>109.66666666666666</ele><time>2026-04-26T13:21:56.058Z</time></trkpt><trkpt lat="39.8307914132181" lon="18.319320575239068"><ele>109.33333333333334</ele><time>2026-04-26T13:21:57.058Z</time></trkpt><trkpt lat="39.83087953478785" lon="18.319150114065454"><ele>109.0</ele><time>2026-04-26T13:21:58.058Z</time></trkpt><trkpt lat="39.83098072638158" lon="18.318970465477296"><ele>110.33333333333334</ele><time>2026-04-26T13:21:59.058Z</time></trkpt><trkpt lat="39.83109110028887" lon="18.318770768416503"><ele>111.66666666666666</ele><time>2026-04-26T13:22:00.058Z</time></trkpt><trkpt lat="39.83120377966447" lon="18.318567429307546"><ele>113.0</ele><time>2026-04-26T13:22:01.058Z</time></trkpt><trkpt lat="39.83132255219411" lon="18.318353926819437"><ele>113.0</ele><time>2026-04-26T13:22:02.058Z</time></trkpt><trkpt lat="39.83144326617745" lon="18.318133623682233"><ele>113.0</ele><time>2026-04-26T13:22:03.058Z</time></trkpt><trkpt lat="39.83156438226341" lon="18.31791007897695"><ele>113.0</ele><time>2026-04-26T13:22:04.058Z</time></trkpt><trkpt lat="39.83168837363905" lon="18.317689766200264"><ele>114.0</ele><time>2026-04-26T13:22:05.058Z</time></trkpt><trkpt lat="39.83181066287075" lon="18.317473140353712"><ele>115.0</ele><time>2026-04-26T13:22:06.058Z</time></trkpt><trkpt lat="39.831933557590126" lon="18.317254973416095"><ele>116.0</ele><time>2026-04-26T13:22:07.058Z</time></trkpt><trkpt lat="39.83205641733941" lon="18.317035108310858"><ele>116.0</ele><time>2026-04-26T13:22:08.058Z</time></trkpt><trkpt lat="39.83217599723775" lon="18.316810339119108"><ele>116.0</ele><time>2026-04-26T13:22:09.058Z</time></trkpt><trkpt lat="39.83229265994599" lon="18.31659516474403"><ele>116.0</ele><time>2026-04-26T13:22:10.058Z</time></trkpt><trkpt lat="39.83240694549417" lon="18.316386778092962"><ele>115.66666666666666</ele><time>2026-04-26T13:22:11.058Z</time></trkpt><trkpt lat="39.8325227477502" lon="18.31618705170117"><ele>115.33333333333334</ele><time>2026-04-26T13:22:12.058Z</time></trkpt><trkpt lat="39.83263430245242" lon="18.316000824291766"><ele>115.0</ele><time>2026-04-26T13:22:13.058Z</time></trkpt><trkpt lat="39.83273501999595" lon="18.31581686860448"><ele>116.33333333333334</ele><time>2026-04-26T13:22:14.058Z</time></trkpt><trkpt lat="39.83283401139816" lon="18.31563416874226"><ele>117.66666666666666</ele><time>2026-04-26T13:22:15.058Z</time></trkpt><trkpt lat="39.83293258516405" lon="18.315449944239255"><ele>119.0</ele><time>2026-04-26T13:22:16.058Z</time></trkpt><trkpt lat="39.83303428738239" lon="18.31526589496971"><ele>119.0</ele><time>2026-04-26T13:22:17.058Z</time></trkpt><trkpt lat="39.833135720311816" lon="18.315082621376455"><ele>119.0</ele><time>2026-04-26T13:22:18.058Z</time></trkpt><trkpt lat="39.8332379662085" lon="18.314903178399362"><ele>119.0</ele><time>2026-04-26T13:22:19.058Z</time></trkpt><trkpt lat="39.833345338779736" lon="18.31472325349698"><ele>118.66666666666666</ele><time>2026-04-26T13:22:20.058Z</time></trkpt><trkpt lat="39.83345292382217" lon="18.314540739337602"><ele>118.33333333333334</ele><time>2026-04-26T13:22:21.058Z</time></trkpt><trkpt lat="39.833560325694435" lon="18.314357934370253"><ele>118.0</ele><time>2026-04-26T13:22:22.058Z</time></trkpt><trkpt lat="39.833661301177706" lon="18.3141697414131"><ele>118.0</ele><time>2026-04-26T13:22:23.058Z</time></trkpt><trkpt lat="39.83376478532253" lon="18.313986323029912"><ele>118.0</ele><time>2026-04-26T13:22:24.058Z</time></trkpt><trkpt lat="39.83386870686094" lon="18.313802411498227"><ele>118.0</ele><time>2026-04-26T13:22:25.058Z</time></trkpt><trkpt lat="39.83396842815369" lon="18.313618841204104"><ele>118.0</ele><time>2026-04-26T13:22:26.058Z</time></trkpt><trkpt lat="39.834068452331934" lon="18.313439589567302"><ele>118.0</ele><time>2026-04-26T13:22:27.058Z</time></trkpt><trkpt lat="39.83416852707364" lon="18.313262042254646"><ele>118.0</ele><time>2026-04-26T13:22:28.058Z</time></trkpt><trkpt lat="39.834269195719386" lon="18.313083766733477"><ele>118.33333333333334</ele><time>2026-04-26T13:22:29.058Z</time></trkpt><trkpt lat="39.83436855368065" lon="18.312907263596664"><ele>118.66666666666666</ele><time>2026-04-26T13:22:30.058Z</time></trkpt><trkpt lat="39.8344674718423" lon="18.312729666926955"><ele>119.0</ele><time>2026-04-26T13:22:31.058Z</time></trkpt><trkpt lat="39.8345649416965" lon="18.312554674652148"><ele>119.0</ele><time>2026-04-26T13:22:32.058Z</time></trkpt><trkpt lat="39.8346641030961" lon="18.31238144134427"><ele>119.0</ele><time>2026-04-26T13:22:33.058Z</time></trkpt><trkpt lat="39.834762454315104" lon="18.31220675703883"><ele>119.0</ele><time>2026-04-26T13:22:34.058Z</time></trkpt><trkpt lat="39.834864038376644" lon="18.312032612068645"><ele>118.33333333333333</ele><time>2026-04-26T13:22:35.058Z</time></trkpt><trkpt lat="39.83496775103587" lon="18.311858537518077"><ele>117.66666666666666</ele><time>2026-04-26T13:22:36.058Z</time></trkpt><trkpt lat="39.83506407698831" lon="18.311683364592568"><ele>117.0</ele><time>2026-04-26T13:22:37.058Z</time></trkpt><trkpt lat="39.835156059707586" lon="18.31151192713997"><ele>117.66666666666666</ele><time>2026-04-26T13:22:38.058Z</time></trkpt><trkpt lat="39.835242660654316" lon="18.3113481093215"><ele>118.33333333333333</ele><time>2026-04-26T13:22:39.058Z</time></trkpt><trkpt lat="39.83533583454928" lon="18.311186464733044"><ele>119.0</ele><time>2026-04-26T13:22:40.058Z</time></trkpt><trkpt lat="39.83542462264974" lon="18.31102711455122"><ele>119.0</ele><time>2026-04-26T13:22:41.058Z</time></trkpt><trkpt lat="39.835508197805844" lon="18.310870048410973"><ele>119.0</ele><time>2026-04-26T13:22:42.058Z</time></trkpt><trkpt lat="39.83559133081873" lon="18.310716283304465"><ele>119.0</ele><time>2026-04-26T13:22:43.058Z</time></trkpt><trkpt lat="39.83567757500018" lon="18.310569730465016"><ele>119.0</ele><time>2026-04-26T13:22:44.058Z</time></trkpt><trkpt lat="39.83575986643931" lon="18.310429490807394"><ele>119.0</ele><time>2026-04-26T13:22:45.058Z</time></trkpt><trkpt lat="39.835837030149484" lon="18.31028927954372"><ele>119.0</ele><time>2026-04-26T13:22:46.058Z</time></trkpt><trkpt lat="39.835915841675046" lon="18.31014734783136"><ele>119.0</ele><time>2026-04-26T13:22:47.058Z</time></trkpt><trkpt lat="39.83599331761196" lon="18.31000831573714"><ele>119.0</ele><time>2026-04-26T13:22:48.058Z</time></trkpt><trkpt lat="39.836072114191445" lon="18.309874985360757"><ele>119.0</ele><time>2026-04-26T13:22:49.058Z</time></trkpt><trkpt lat="39.83614580002226" lon="18.309750405684873"><ele>119.0</ele><time>2026-04-26T13:22:50.058Z</time></trkpt><trkpt lat="39.836220411753445" lon="18.309621328371787"><ele>119.0</ele><time>2026-04-26T13:22:51.058Z</time></trkpt><trkpt lat="39.83629348876872" lon="18.30948786854924"><ele>119.0</ele><time>2026-04-26T13:22:52.058Z</time></trkpt><trkpt lat="39.836369061623955" lon="18.309354808181283"><ele>119.25</ele><time>2026-04-26T13:22:53.058Z</time></trkpt><trkpt lat="39.83645046274406" lon="18.309215524764777"><ele>119.5</ele><time>2026-04-26T13:22:54.058Z</time></trkpt><trkpt lat="39.83653227200068" lon="18.309069748202912"><ele>119.75</ele><time>2026-04-26T13:22:55.058Z</time></trkpt><trkpt lat="39.83661653221133" lon="18.308920746480116"><ele>120.0</ele><time>2026-04-26T13:22:56.058Z</time></trkpt><trkpt lat="39.83670301221855" lon="18.30876682171058"><ele>119.66666666666666</ele><time>2026-04-26T13:22:57.058Z</time></trkpt><trkpt lat="39.83679279116352" lon="18.308605906379185"><ele>119.33333333333333</ele><time>2026-04-26T13:22:58.058Z</time></trkpt><trkpt lat="39.83688888459892" lon="18.308434485878763"><ele>119.0</ele><time>2026-04-26T13:22:59.058Z</time></trkpt><trkpt lat="39.83698861439576" lon="18.308259525672785"><ele>119.0</ele><time>2026-04-26T13:23:00.058Z</time></trkpt><trkpt lat="39.83708041539706" lon="18.308094354721483"><ele>119.0</ele><time>2026-04-26T13:23:01.058Z</time></trkpt><trkpt lat="39.8371616348328" lon="18.307943919374548"><ele>119.0</ele><time>2026-04-26T13:23:02.058Z</time></trkpt><trkpt lat="39.837235207317" lon="18.30780157962147"><ele>119.0</ele><time>2026-04-26T13:23:03.058Z</time></trkpt><trkpt lat="39.837315916376845" lon="18.307660479248415"><ele>119.0</ele><time>2026-04-26T13:23:04.058Z</time></trkpt><trkpt lat="39.837399745597075" lon="18.307510257570353"><ele>119.0</ele><time>2026-04-26T13:23:05.058Z</time></trkpt><trkpt lat="39.837488577833874" lon="18.307355527199157"><ele>119.0</ele><time>2026-04-26T13:23:06.058Z</time></trkpt><trkpt lat="39.83758055328902" lon="18.307197961847113"><ele>119.0</ele><time>2026-04-26T13:23:07.058Z</time></trkpt><trkpt lat="39.837679655816494" lon="18.307027635687444"><ele>119.0</ele><time>2026-04-26T13:23:08.058Z</time></trkpt><trkpt lat="39.83778327539406" lon="18.306843948551997"><ele>119.0</ele><time>2026-04-26T13:23:09.058Z</time></trkpt><trkpt lat="39.837903461610225" lon="18.306659845465923"><ele>119.0</ele><time>2026-04-26T13:23:10.058Z</time></trkpt><trkpt lat="39.83803056505" lon="18.30647151649316"><ele>119.0</ele><time>2026-04-26T13:23:11.058Z</time></trkpt><trkpt lat="39.83816528451101" lon="18.306273830121068"><ele>119.0</ele><time>2026-04-26T13:23:12.058Z</time></trkpt><trkpt lat="39.8383054607142" lon="18.306075662926272"><ele>119.0</ele><time>2026-04-26T13:23:13.058Z</time></trkpt><trkpt lat="39.83844621254639" lon="18.305886222774994"><ele>119.0</ele><time>2026-04-26T13:23:14.058Z</time></trkpt><trkpt lat="39.838596561916674" lon="18.30569880465892"><ele>119.0</ele><time>2026-04-26T13:23:15.058Z</time></trkpt><trkpt lat="39.838755437829604" lon="18.30551257727015"><ele>119.0</ele><time>2026-04-26T13:23:16.058Z</time></trkpt><trkpt lat="39.83891729528841" lon="18.305336604754512"><ele>119.0</ele><time>2026-04-26T13:23:17.058Z</time></trkpt><trkpt lat="39.83908775974552" lon="18.305160378600917"><ele>119.0</ele><time>2026-04-26T13:23:18.058Z</time></trkpt><trkpt lat="39.839262284903285" lon="18.30498867866257"><ele>119.0</ele><time>2026-04-26T13:23:19.058Z</time></trkpt><trkpt lat="39.83943867260704" lon="18.30481902578368"><ele>118.66666666666666</ele><time>2026-04-26T13:23:20.058Z</time></trkpt><trkpt lat="39.83961981823367" lon="18.30465010082152"><ele>118.33333333333334</ele><time>2026-04-26T13:23:21.057Z</time></trkpt><trkpt lat="39.83980332099835" lon="18.304483378424262"><ele>118.0</ele><time>2026-04-26T13:23:22.057Z</time></trkpt><trkpt lat="39.83998832077604" lon="18.304322519213244"><ele>117.5</ele><time>2026-04-26T13:23:23.058Z</time></trkpt><trkpt lat="39.84017948519179" lon="18.30415147342257"><ele>117.0</ele><time>2026-04-26T13:23:24.058Z</time></trkpt><trkpt lat="39.84037939632332" lon="18.30398608465843"><ele>117.0</ele><time>2026-04-26T13:23:25.058Z</time></trkpt><trkpt lat="39.8405707556551" lon="18.303800926645106"><ele>117.0</ele><time>2026-04-26T13:23:26.057Z</time></trkpt><trkpt lat="39.84076411666449" lon="18.30361638258886"><ele>117.0</ele><time>2026-04-26T13:23:27.057Z</time></trkpt><trkpt lat="39.840958497957295" lon="18.3034351787639"><ele>117.0</ele><time>2026-04-26T13:23:28.057Z</time></trkpt><trkpt lat="39.84115129080853" lon="18.303253406407446"><ele>117.0</ele><time>2026-04-26T13:23:29.057Z</time></trkpt><trkpt lat="39.8413455385084" lon="18.303071572141146"><ele>117.0</ele><time>2026-04-26T13:23:30.058Z</time></trkpt><trkpt lat="39.8415426181731" lon="18.30289082178108"><ele>117.0</ele><time>2026-04-26T13:23:31.058Z</time></trkpt><trkpt lat="39.84173602797262" lon="18.302711949540345"><ele>117.0</ele><time>2026-04-26T13:23:32.058Z</time></trkpt><trkpt lat="39.84193074192032" lon="18.302526884633128"><ele>116.5</ele><time>2026-04-26T13:23:33.058Z</time></trkpt><trkpt lat="39.84212452385371" lon="18.302346829179925"><ele>116.0</ele><time>2026-04-26T13:23:34.058Z</time></trkpt><trkpt lat="39.84231962285782" lon="18.302169590425105"><ele>115.5</ele><time>2026-04-26T13:23:35.058Z</time></trkpt><trkpt lat="39.84251415587399" lon="18.301986095211298"><ele>115.0</ele><time>2026-04-26T13:23:36.058Z</time></trkpt><trkpt lat="39.84270688822113" lon="18.301808142801793"><ele>114.5</ele><time>2026-04-26T13:23:37.058Z</time></trkpt><trkpt lat="39.8428971115015" lon="18.30162908438899"><ele>114.0</ele><time>2026-04-26T13:23:38.058Z</time></trkpt><trkpt lat="39.84308779838434" lon="18.301450551181375"><ele>114.0</ele><time>2026-04-26T13:23:39.058Z</time></trkpt><trkpt lat="39.84327571665145" lon="18.301275624279345"><ele>114.0</ele><time>2026-04-26T13:23:40.058Z</time></trkpt><trkpt lat="39.84346743284732" lon="18.301096012745017"><ele>114.5</ele><time>2026-04-26T13:23:41.058Z</time></trkpt><trkpt lat="39.843664405392744" lon="18.300914059415685"><ele>115.0</ele><time>2026-04-26T13:23:42.058Z</time></trkpt><trkpt lat="39.84386131190324" lon="18.300729141757564"><ele>114.5</ele><time>2026-04-26T13:23:43.058Z</time></trkpt><trkpt lat="39.84406118246146" lon="18.300540672565504"><ele>114.0</ele><time>2026-04-26T13:23:44.058Z</time></trkpt><trkpt lat="39.84425972008056" lon="18.300350650985038"><ele>114.5</ele><time>2026-04-26T13:23:45.058Z</time></trkpt><trkpt lat="39.84447071033385" lon="18.30016068591593"><ele>115.0</ele><time>2026-04-26T13:23:46.058Z</time></trkpt><trkpt lat="39.84467798520899" lon="18.299969644186955"><ele>115.0</ele><time>2026-04-26T13:23:47.058Z</time></trkpt><trkpt lat="39.844885500172104" lon="18.29977396612704"><ele>115.0</ele><time>2026-04-26T13:23:48.058Z</time></trkpt><trkpt lat="39.84509246813037" lon="18.2995749705213"><ele>115.0</ele><time>2026-04-26T13:23:49.058Z</time></trkpt><trkpt lat="39.845303330123826" lon="18.29938181630834"><ele>115.0</ele><time>2026-04-26T13:23:50.058Z</time></trkpt><trkpt lat="39.84551237149464" lon="18.29918866801727"><ele>115.0</ele><time>2026-04-26T13:23:51.058Z</time></trkpt><trkpt lat="39.84572250365829" lon="18.298993919718427"><ele>115.0</ele><time>2026-04-26T13:23:52.058Z</time></trkpt><trkpt lat="39.84593244781472" lon="18.298799538728385"><ele>114.5</ele><time>2026-04-26T13:23:53.058Z</time></trkpt><trkpt lat="39.84614028907244" lon="18.29860621225865"><ele>114.0</ele><time>2026-04-26T13:23:54.058Z</time></trkpt><trkpt lat="39.84635026498137" lon="18.298407578799306"><ele>114.0</ele><time>2026-04-26T13:23:55.058Z</time></trkpt><trkpt lat="39.84656075790731" lon="18.298207801854044"><ele>114.0</ele><time>2026-04-26T13:23:56.058Z</time></trkpt><trkpt lat="39.84677341906829" lon="18.298006259551023"><ele>114.5</ele><time>2026-04-26T13:23:57.058Z</time></trkpt><trkpt lat="39.8469861061701" lon="18.297802296973302"><ele>115.0</ele><time>2026-04-26T13:23:58.058Z</time></trkpt><trkpt lat="39.84718775584955" lon="18.297611156329165"><ele>115.0</ele><time>2026-04-26T13:23:59.058Z</time></trkpt><trkpt lat="39.847386051720264" lon="18.297428052951293"><ele>115.0</ele><time>2026-04-26T13:24:00.058Z</time></trkpt><trkpt lat="39.847586542365164" lon="18.297241989719605"><ele>115.0</ele><time>2026-04-26T13:24:01.058Z</time></trkpt><trkpt lat="39.847789519824495" lon="18.297056294490304"><ele>115.0</ele><time>2026-04-26T13:24:02.058Z</time></trkpt><trkpt lat="39.847993872894236" lon="18.296866385612244"><ele>115.0</ele><time>2026-04-26T13:24:03.058Z</time></trkpt><trkpt lat="39.84820261038616" lon="18.296671204139955"><ele>115.0</ele><time>2026-04-26T13:24:04.058Z</time></trkpt><trkpt lat="39.84841739954512" lon="18.296471094630448"><ele>115.5</ele><time>2026-04-26T13:24:05.058Z</time></trkpt><trkpt lat="39.84863233800055" lon="18.29626818202694"><ele>116.0</ele><time>2026-04-26T13:24:06.058Z</time></trkpt><trkpt lat="39.848848063883864" lon="18.29606496337417"><ele>116.0</ele><time>2026-04-26T13:24:07.058Z</time></trkpt><trkpt lat="39.84906157683766" lon="18.295862250035736"><ele>116.0</ele><time>2026-04-26T13:24:08.058Z</time></trkpt><trkpt lat="39.849273625464384" lon="18.295658341978495"><ele>114.5</ele><time>2026-04-26T13:24:09.058Z</time></trkpt><trkpt lat="39.84948418682645" lon="18.295452913809175"><ele>113.0</ele><time>2026-04-26T13:24:10.058Z</time></trkpt><trkpt lat="39.84969548990409" lon="18.29525015996684"><ele>113.0</ele><time>2026-04-26T13:24:11.058Z</time></trkpt><trkpt lat="39.849910205732314" lon="18.29505215813899"><ele>113.0</ele><time>2026-04-26T13:24:12.058Z</time></trkpt><trkpt lat="39.850122282077365" lon="18.29485171417123"><ele>114.5</ele><time>2026-04-26T13:24:13.058Z</time></trkpt><trkpt lat="39.8503399353736" lon="18.29464796847763"><ele>116.0</ele><time>2026-04-26T13:24:14.058Z</time></trkpt><trkpt lat="39.850554304832016" lon="18.294449835960826"><ele>116.0</ele><time>2026-04-26T13:24:15.058Z</time></trkpt><trkpt lat="39.85076766823815" lon="18.294249001780543"><ele>116.0</ele><time>2026-04-26T13:24:16.058Z</time></trkpt><trkpt lat="39.850982725193994" lon="18.29404836484186"><ele>114.5</ele><time>2026-04-26T13:24:17.058Z</time></trkpt><trkpt lat="39.85119840626804" lon="18.293846088779713"><ele>113.0</ele><time>2026-04-26T13:24:18.058Z</time></trkpt><trkpt lat="39.85141160281234" lon="18.293643194420046"><ele>113.0</ele><time>2026-04-26T13:24:19.058Z</time></trkpt><trkpt lat="39.8516266870754" lon="18.293443321030306"><ele>113.0</ele><time>2026-04-26T13:24:20.058Z</time></trkpt><trkpt lat="39.85184005353492" lon="18.293241670467417"><ele>114.0</ele><time>2026-04-26T13:24:21.058Z</time></trkpt><trkpt lat="39.85205792383026" lon="18.293038424039757"><ele>115.0</ele><time>2026-04-26T13:24:22.058Z</time></trkpt><trkpt lat="39.85227274370762" lon="18.29283531993938"><ele>115.0</ele><time>2026-04-26T13:24:23.058Z</time></trkpt><trkpt lat="39.85248929368141" lon="18.292633286206534"><ele>115.0</ele><time>2026-04-26T13:24:24.058Z</time></trkpt><trkpt lat="39.852705483876434" lon="18.292430774993843"><ele>115.0</ele><time>2026-04-26T13:24:25.058Z</time></trkpt><trkpt lat="39.85292203122063" lon="18.292231679977455"><ele>115.0</ele><time>2026-04-26T13:24:26.058Z</time></trkpt><trkpt lat="39.85313762241837" lon="18.292032147881052"><ele>115.0</ele><time>2026-04-26T13:24:27.058Z</time></trkpt><trkpt lat="39.85335137022972" lon="18.29182989806145"><ele>115.0</ele><time>2026-04-26T13:24:28.058Z</time></trkpt><trkpt lat="39.853560970314504" lon="18.29162938661973"><ele>115.5</ele><time>2026-04-26T13:24:29.058Z</time></trkpt><trkpt lat="39.85377239460208" lon="18.291428968478805"><ele>116.0</ele><time>2026-04-26T13:24:30.058Z</time></trkpt><trkpt lat="39.853981708332356" lon="18.2912293147852"><ele>116.0</ele><time>2026-04-26T13:24:31.058Z</time></trkpt><trkpt lat="39.85419519246552" lon="18.291027493428103"><ele>116.0</ele><time>2026-04-26T13:24:32.058Z</time></trkpt><trkpt lat="39.854410099786186" lon="18.290826269120817"><ele>116.5</ele><time>2026-04-26T13:24:33.058Z</time></trkpt><trkpt lat="39.85462220117263" lon="18.290623722785178"><ele>117.0</ele><time>2026-04-26T13:24:34.058Z</time></trkpt><trkpt lat="39.85483277783522" lon="18.290422170667778"><ele>117.0</ele><time>2026-04-26T13:24:35.058Z</time></trkpt><trkpt lat="39.85504611531081" lon="18.29021812880529"><ele>117.0</ele><time>2026-04-26T13:24:36.058Z</time></trkpt><trkpt lat="39.855261534856616" lon="18.290015878417353"><ele>118.0</ele><time>2026-04-26T13:24:37.058Z</time></trkpt><trkpt lat="39.855480486675006" lon="18.28981538527504"><ele>119.0</ele><time>2026-04-26T13:24:38.058Z</time></trkpt><trkpt lat="39.8556943302993" lon="18.28961036356616"><ele>119.0</ele><time>2026-04-26T13:24:39.058Z</time></trkpt><trkpt lat="39.85590996583105" lon="18.289408774099332"><ele>119.0</ele><time>2026-04-26T13:24:40.058Z</time></trkpt><trkpt lat="39.856125478610174" lon="18.28920578825363"><ele>119.0</ele><time>2026-04-26T13:24:41.058Z</time></trkpt><trkpt lat="39.856342926366985" lon="18.28900463713737"><ele>119.0</ele><time>2026-04-26T13:24:42.058Z</time></trkpt><trkpt lat="39.856558369007054" lon="18.28880410627123"><ele>119.5</ele><time>2026-04-26T13:24:43.058Z</time></trkpt><trkpt lat="39.856774904164155" lon="18.28860179505743"><ele>120.0</ele><time>2026-04-26T13:24:44.058Z</time></trkpt><trkpt lat="39.85699594975415" lon="18.288399401532565"><ele>120.0</ele><time>2026-04-26T13:24:45.058Z</time></trkpt><trkpt lat="39.857210954393686" lon="18.288199917025022"><ele>120.0</ele><time>2026-04-26T13:24:46.058Z</time></trkpt><trkpt lat="39.85742931344638" lon="18.28799602417153"><ele>118.0</ele><time>2026-04-26T13:24:47.058Z</time></trkpt><trkpt lat="39.85764461682804" lon="18.287791759216784"><ele>116.0</ele><time>2026-04-26T13:24:48.058Z</time></trkpt><trkpt lat="39.85786219893326" lon="18.28759027491808"><ele>116.0</ele><time>2026-04-26T13:24:49.058Z</time></trkpt><trkpt lat="39.858078064018336" lon="18.287391226131668"><ele>116.0</ele><time>2026-04-26T13:24:50.058Z</time></trkpt><trkpt lat="39.85829304010133" lon="18.28719173666946"><ele>116.5</ele><time>2026-04-26T13:24:51.058Z</time></trkpt><trkpt lat="39.85851250689022" lon="18.28699387604892"><ele>117.0</ele><time>2026-04-26T13:24:52.058Z</time></trkpt><trkpt lat="39.858726136174894" lon="18.286791184160258"><ele>117.0</ele><time>2026-04-26T13:24:53.058Z</time></trkpt><trkpt lat="39.85893948858863" lon="18.286590949012282"><ele>117.0</ele><time>2026-04-26T13:24:54.058Z</time></trkpt><trkpt lat="39.859155405832496" lon="18.28638755508542"><ele>118.0</ele><time>2026-04-26T13:24:55.058Z</time></trkpt><trkpt lat="39.859370352719324" lon="18.28618557611727"><ele>119.0</ele><time>2026-04-26T13:24:56.058Z</time></trkpt><trkpt lat="39.85958343445825" lon="18.285985882376135"><ele>119.0</ele><time>2026-04-26T13:24:57.058Z</time></trkpt><trkpt lat="39.85979578589862" lon="18.285783602498352"><ele>119.0</ele><time>2026-04-26T13:24:58.058Z</time></trkpt><trkpt lat="39.86000811607051" lon="18.285581064353966"><ele>119.5</ele><time>2026-04-26T13:24:59.058Z</time></trkpt><trkpt lat="39.860218025393834" lon="18.285378121487533"><ele>120.0</ele><time>2026-04-26T13:25:00.058Z</time></trkpt><trkpt lat="39.86042737063499" lon="18.285176743220582"><ele>120.0</ele><time>2026-04-26T13:25:01.058Z</time></trkpt><trkpt lat="39.8606399318886" lon="18.2849748939799"><ele>120.0</ele><time>2026-04-26T13:25:02.058Z</time></trkpt><trkpt lat="39.86085199330408" lon="18.284770319895603"><ele>120.5</ele><time>2026-04-26T13:25:03.058Z</time></trkpt><trkpt lat="39.86106341557142" lon="18.284565088483255"><ele>121.0</ele><time>2026-04-26T13:25:04.058Z</time></trkpt><trkpt lat="39.861274684560655" lon="18.284363121341983"><ele>121.0</ele><time>2026-04-26T13:25:05.058Z</time></trkpt><trkpt lat="39.86148651246316" lon="18.284159739940094"><ele>121.0</ele><time>2026-04-26T13:25:06.058Z</time></trkpt><trkpt lat="39.861700407819015" lon="18.283956096220397"><ele>120.0</ele><time>2026-04-26T13:25:07.058Z</time></trkpt><trkpt lat="39.86191311634275" lon="18.283751554301404"><ele>119.0</ele><time>2026-04-26T13:25:08.058Z</time></trkpt><trkpt lat="39.862126607009955" lon="18.283546489417034"><ele>119.0</ele><time>2026-04-26T13:25:09.058Z</time></trkpt><trkpt lat="39.86233734316093" lon="18.283342330728253"><ele>119.0</ele><time>2026-04-26T13:25:10.058Z</time></trkpt><trkpt lat="39.86255251990027" lon="18.28314200250995"><ele>121.0</ele><time>2026-04-26T13:25:11.058Z</time></trkpt><trkpt lat="39.862768739587814" lon="18.28293797401377"><ele>123.0</ele><time>2026-04-26T13:25:12.058Z</time></trkpt><trkpt lat="39.86298520031215" lon="18.282735509366887"><ele>123.0</ele><time>2026-04-26T13:25:13.058Z</time></trkpt><trkpt lat="39.863200382304846" lon="18.28253020707259"><ele>123.0</ele><time>2026-04-26T13:25:14.058Z</time></trkpt><trkpt lat="39.86341742538779" lon="18.28233062434678"><ele>124.5</ele><time>2026-04-26T13:25:15.058Z</time></trkpt><trkpt lat="39.863632329765345" lon="18.282130345301915"><ele>126.0</ele><time>2026-04-26T13:25:16.058Z</time></trkpt><trkpt lat="39.86384948528684" lon="18.281928759790137"><ele>126.0</ele><time>2026-04-26T13:25:17.058Z</time></trkpt><trkpt lat="39.864062225584426" lon="18.281726499230896"><ele>126.0</ele><time>2026-04-26T13:25:18.058Z</time></trkpt><trkpt lat="39.86427848211744" lon="18.28152481012503"><ele>126.5</ele><time>2026-04-26T13:25:19.058Z</time></trkpt><trkpt lat="39.86449269840761" lon="18.281322989635573"><ele>127.0</ele><time>2026-04-26T13:25:20.058Z</time></trkpt><trkpt lat="39.86470638748962" lon="18.281118145593233"><ele>127.0</ele><time>2026-04-26T13:25:21.058Z</time></trkpt><trkpt lat="39.864922522091625" lon="18.2809164177824"><ele>127.0</ele><time>2026-04-26T13:25:22.058Z</time></trkpt><trkpt lat="39.865136364114214" lon="18.28071456483834"><ele>126.5</ele><time>2026-04-26T13:25:23.058Z</time></trkpt><trkpt lat="39.86534992097511" lon="18.280511323499663"><ele>126.0</ele><time>2026-04-26T13:25:24.058Z</time></trkpt><trkpt lat="39.86556543482094" lon="18.280306870926356"><ele>126.0</ele><time>2026-04-26T13:25:25.058Z</time></trkpt><trkpt lat="39.865779295609606" lon="18.280107878912204"><ele>126.0</ele><time>2026-04-26T13:25:26.057Z</time></trkpt><trkpt lat="39.86599116046101" lon="18.279917643362"><ele>126.0</ele><time>2026-04-26T13:25:27.057Z</time></trkpt><trkpt lat="39.866207570491056" lon="18.27973558870241"><ele>126.0</ele><time>2026-04-26T13:25:28.057Z</time></trkpt><trkpt lat="39.866432914339185" lon="18.279567307289664"><ele>126.0</ele><time>2026-04-26T13:25:29.057Z</time></trkpt><trkpt lat="39.86666662253098" lon="18.279409294381516"><ele>126.0</ele><time>2026-04-26T13:25:30.057Z</time></trkpt><trkpt lat="39.866905360276824" lon="18.27927048570193"><ele>127.5</ele><time>2026-04-26T13:25:31.057Z</time></trkpt><trkpt lat="39.867153062334815" lon="18.279146008027745"><ele>129.0</ele><time>2026-04-26T13:25:32.057Z</time></trkpt><trkpt lat="39.86740385692715" lon="18.27903758598657"><ele>129.0</ele><time>2026-04-26T13:25:33.057Z</time></trkpt><trkpt lat="39.867654466093164" lon="18.27893475090572"><ele>129.0</ele><time>2026-04-26T13:25:34.057Z</time></trkpt><trkpt lat="39.867905687677776" lon="18.278830828419583"><ele>129.0</ele><time>2026-04-26T13:25:35.057Z</time></trkpt><trkpt lat="39.86815979919829" lon="18.278730952613678"><ele>129.0</ele><time>2026-04-26T13:25:36.057Z</time></trkpt><trkpt lat="39.8684162026486" lon="18.278630229232437"><ele>129.5</ele><time>2026-04-26T13:25:37.057Z</time></trkpt><trkpt lat="39.868667947957" lon="18.278522700895955"><ele>130.0</ele><time>2026-04-26T13:25:38.057Z</time></trkpt><trkpt lat="39.86892501861153" lon="18.278418074116136"><ele>130.0</ele><time>2026-04-26T13:25:39.057Z</time></trkpt><trkpt lat="39.86917667264288" lon="18.278310343643604"><ele>130.0</ele><time>2026-04-26T13:25:40.057Z</time></trkpt><trkpt lat="39.86942993507377" lon="18.278213461698208"><ele>130.0</ele><time>2026-04-26T13:25:41.057Z</time></trkpt><trkpt lat="39.869683846237294" lon="18.27811339875196"><ele>130.0</ele><time>2026-04-26T13:25:42.057Z</time></trkpt><trkpt lat="39.86993893835393" lon="18.278014287817832"><ele>129.5</ele><time>2026-04-26T13:25:43.057Z</time></trkpt><trkpt lat="39.87019380755519" lon="18.277915330671856"><ele>129.0</ele><time>2026-04-26T13:25:44.057Z</time></trkpt><trkpt lat="39.870448417126205" lon="18.2778188197815"><ele>129.0</ele><time>2026-04-26T13:25:45.057Z</time></trkpt><trkpt lat="39.870705289504365" lon="18.277719424520107"><ele>129.0</ele><time>2026-04-26T13:25:46.057Z</time></trkpt><trkpt lat="39.870963618426494" lon="18.27762036571012"><ele>129.5</ele><time>2026-04-26T13:25:47.057Z</time></trkpt><trkpt lat="39.8712215990782" lon="18.2775202842658"><ele>130.0</ele><time>2026-04-26T13:25:48.057Z</time></trkpt><trkpt lat="39.871478739610545" lon="18.277423594067095"><ele>130.0</ele><time>2026-04-26T13:25:49.057Z</time></trkpt><trkpt lat="39.87173530175302" lon="18.277325892952952"><ele>130.0</ele><time>2026-04-26T13:25:50.057Z</time></trkpt><trkpt lat="39.87199491763034" lon="18.277225966053575"><ele>130.5</ele><time>2026-04-26T13:25:51.057Z</time></trkpt><trkpt lat="39.87225468291059" lon="18.277129002317487"><ele>131.0</ele><time>2026-04-26T13:25:52.057Z</time></trkpt><trkpt lat="39.87250880180589" lon="18.27702808251015"><ele>130.0</ele><time>2026-04-26T13:25:53.057Z</time></trkpt><trkpt lat="39.87276271702652" lon="18.276926842805537"><ele>129.0</ele><time>2026-04-26T13:25:54.057Z</time></trkpt><trkpt lat="39.873016783165525" lon="18.276828030620372"><ele>129.0</ele><time>2026-04-26T13:25:55.057Z</time></trkpt><trkpt lat="39.873272739720555" lon="18.27673114517172"><ele>129.0</ele><time>2026-04-26T13:25:56.057Z</time></trkpt><trkpt lat="39.873526752725034" lon="18.276629261980624"><ele>128.0</ele><time>2026-04-26T13:25:57.057Z</time></trkpt><trkpt lat="39.873778162965884" lon="18.276527785977372"><ele>127.0</ele><time>2026-04-26T13:25:58.057Z</time></trkpt><trkpt lat="39.87402555714417" lon="18.276427286959173"><ele>125.5</ele><time>2026-04-26T13:25:59.057Z</time></trkpt><trkpt lat="39.87427325937606" lon="18.276330398680397"><ele>124.0</ele><time>2026-04-26T13:26:00.057Z</time></trkpt><trkpt lat="39.87452817322968" lon="18.276228722999395"><ele>124.0</ele><time>2026-04-26T13:26:01.057Z</time></trkpt><trkpt lat="39.87477973991808" lon="18.276124432179326"><ele>124.0</ele><time>2026-04-26T13:26:02.057Z</time></trkpt><trkpt lat="39.875025256740656" lon="18.276022313213446"><ele>123.0</ele><time>2026-04-26T13:26:03.057Z</time></trkpt><trkpt lat="39.87526510111478" lon="18.275925861343207"><ele>122.0</ele><time>2026-04-26T13:26:04.057Z</time></trkpt><trkpt lat="39.875506631205354" lon="18.275833119474683"><ele>122.0</ele><time>2026-04-26T13:26:05.057Z</time></trkpt><trkpt lat="39.87574990892112" lon="18.27573564596389"><ele>122.0</ele><time>2026-04-26T13:26:06.057Z</time></trkpt><trkpt lat="39.87599189314917" lon="18.275638426228433"><ele>121.5</ele><time>2026-04-26T13:26:07.057Z</time></trkpt><trkpt lat="39.876239817136124" lon="18.2755437946024"><ele>121.0</ele><time>2026-04-26T13:26:08.057Z</time></trkpt><trkpt lat="39.87649808057325" lon="18.27544766104835"><ele>121.0</ele><time>2026-04-26T13:26:09.057Z</time></trkpt><trkpt lat="39.876760398347585" lon="18.275345387434694"><ele>121.0</ele><time>2026-04-26T13:26:10.057Z</time></trkpt><trkpt lat="39.87702663606649" lon="18.275244911021858"><ele>120.0</ele><time>2026-04-26T13:26:11.057Z</time></trkpt><trkpt lat="39.877303703011506" lon="18.27513403726776"><ele>119.0</ele><time>2026-04-26T13:26:12.057Z</time></trkpt><trkpt lat="39.87759064507266" lon="18.27502378817668"><ele>118.0</ele><time>2026-04-26T13:26:13.057Z</time></trkpt><trkpt lat="39.87787599958683" lon="18.274924206273884"><ele>117.0</ele><time>2026-04-26T13:26:14.057Z</time></trkpt><trkpt lat="39.8781657891912" lon="18.27482434169455"><ele>116.5</ele><time>2026-04-26T13:26:15.057Z</time></trkpt><trkpt lat="39.87844898993818" lon="18.274717326252354"><ele>116.0</ele><time>2026-04-26T13:26:16.057Z</time></trkpt><trkpt lat="39.87872397139659" lon="18.274605073539455"><ele>116.0</ele><time>2026-04-26T13:26:17.057Z</time></trkpt><trkpt lat="39.87899823747704" lon="18.274488966009518"><ele>116.0</ele><time>2026-04-26T13:26:18.057Z</time></trkpt><trkpt lat="39.87927395180314" lon="18.274376026608948"><ele>114.5</ele><time>2026-04-26T13:26:19.057Z</time></trkpt><trkpt lat="39.87954715759831" lon="18.274266295326353"><ele>113.0</ele><time>2026-04-26T13:26:20.057Z</time></trkpt><trkpt lat="39.879817420236975" lon="18.274159859470632"><ele>113.0</ele><time>2026-04-26T13:26:21.057Z</time></trkpt><trkpt lat="39.88006943375844" lon="18.274051141448126"><ele>113.0</ele><time>2026-04-26T13:26:22.057Z</time></trkpt><trkpt lat="39.880295569539065" lon="18.273939835539142"><ele>113.33333333333333</ele><time>2026-04-26T13:26:23.057Z</time></trkpt><trkpt lat="39.88048959051259" lon="18.273812223637876"><ele>113.66666666666666</ele><time>2026-04-26T13:26:24.057Z</time></trkpt><trkpt lat="39.88064130595134" lon="18.27367393203372"><ele>114.0</ele><time>2026-04-26T13:26:25.057Z</time></trkpt><trkpt lat="39.88111820523791" lon="18.273635136405616"><ele>111.5</ele><time>2026-04-26T13:26:26.057Z</time></trkpt><trkpt lat="39.88137697170206" lon="18.27353630117758"><ele>109.0</ele><time>2026-04-26T13:26:27.057Z</time></trkpt><trkpt lat="39.881635508782566" lon="18.273431181782573"><ele>108.0</ele><time>2026-04-26T13:26:28.057Z</time></trkpt><trkpt lat="39.88188920931585" lon="18.273326222242872"><ele>107.0</ele><time>2026-04-26T13:26:29.057Z</time></trkpt><trkpt lat="39.88213321549058" lon="18.273209505482775"><ele>107.0</ele><time>2026-04-26T13:26:30.057Z</time></trkpt><trkpt lat="39.88236966753957" lon="18.273076910096503"><ele>107.0</ele><time>2026-04-26T13:26:31.057Z</time></trkpt><trkpt lat="39.88259634920624" lon="18.27292324808444"><ele>105.5</ele><time>2026-04-26T13:26:32.057Z</time></trkpt><trkpt lat="39.88281162188408" lon="18.27274772870814"><ele>104.0</ele><time>2026-04-26T13:26:33.057Z</time></trkpt><trkpt lat="39.88301495174274" lon="18.272552958453407"><ele>104.0</ele><time>2026-04-26T13:26:34.057Z</time></trkpt><trkpt lat="39.88320850044563" lon="18.27234622219088"><ele>104.0</ele><time>2026-04-26T13:26:35.057Z</time></trkpt><trkpt lat="39.88339632085835" lon="18.272124199735142"><ele>104.5</ele><time>2026-04-26T13:26:36.057Z</time></trkpt><trkpt lat="39.883577803112395" lon="18.271893055226894"><ele>105.0</ele><time>2026-04-26T13:26:37.057Z</time></trkpt><trkpt lat="39.88376306160509" lon="18.27166659402502"><ele>105.0</ele><time>2026-04-26T13:26:38.057Z</time></trkpt><trkpt lat="39.88393862811184" lon="18.271431240021585"><ele>105.0</ele><time>2026-04-26T13:26:39.057Z</time></trkpt><trkpt lat="39.88411171412668" lon="18.271197985485227"><ele>104.5</ele><time>2026-04-26T13:26:40.057Z</time></trkpt><trkpt lat="39.884293205014345" lon="18.270975720754635"><ele>104.0</ele><time>2026-04-26T13:26:41.057Z</time></trkpt><trkpt lat="39.88446706432149" lon="18.270746844837475"><ele>104.0</ele><time>2026-04-26T13:26:42.057Z</time></trkpt><trkpt lat="39.88464078348642" lon="18.270518634195618"><ele>104.0</ele><time>2026-04-26T13:26:43.057Z</time></trkpt><trkpt lat="39.88481570375645" lon="18.270294741257384"><ele>104.0</ele><time>2026-04-26T13:26:44.057Z</time></trkpt><trkpt lat="39.88498836485856" lon="18.270068630908348"><ele>104.0</ele><time>2026-04-26T13:26:45.057Z</time></trkpt><trkpt lat="39.885162904834054" lon="18.269840581882843"><ele>103.5</ele><time>2026-04-26T13:26:46.057Z</time></trkpt><trkpt lat="39.8853363773793" lon="18.269616814272123"><ele>103.0</ele><time>2026-04-26T13:26:47.057Z</time></trkpt><trkpt lat="39.8855120878535" lon="18.269391806409853"><ele>103.0</ele><time>2026-04-26T13:26:48.057Z</time></trkpt><trkpt lat="39.88568852994822" lon="18.269163828394742"><ele>103.0</ele><time>2026-04-26T13:26:49.057Z</time></trkpt><trkpt lat="39.885866945725205" lon="18.26894070763421"><ele>103.0</ele><time>2026-04-26T13:26:50.057Z</time></trkpt><trkpt lat="39.88604327770157" lon="18.268708938948045"><ele>103.0</ele><time>2026-04-26T13:26:51.057Z</time></trkpt><trkpt lat="39.88621875255148" lon="18.268479637730657"><ele>103.0</ele><time>2026-04-26T13:26:52.057Z</time></trkpt><trkpt lat="39.886402125253376" lon="18.2682583600192"><ele>103.0</ele><time>2026-04-26T13:26:53.057Z</time></trkpt><trkpt lat="39.88658672726119" lon="18.268028636553876"><ele>102.0</ele><time>2026-04-26T13:26:54.057Z</time></trkpt><trkpt lat="39.88676335697503" lon="18.26779638738587"><ele>101.0</ele><time>2026-04-26T13:26:55.057Z</time></trkpt><trkpt lat="39.88693998722973" lon="18.26757214420306"><ele>101.0</ele><time>2026-04-26T13:26:56.057Z</time></trkpt><trkpt lat="39.88711689568979" lon="18.26734746992126"><ele>101.0</ele><time>2026-04-26T13:26:57.057Z</time></trkpt><trkpt lat="39.887293142752554" lon="18.267119090594107"><ele>101.5</ele><time>2026-04-26T13:26:58.057Z</time></trkpt><trkpt lat="39.88747071751711" lon="18.26688991866861"><ele>102.0</ele><time>2026-04-26T13:26:59.057Z</time></trkpt><trkpt lat="39.88764862147291" lon="18.26666422340879"><ele>101.5</ele><time>2026-04-26T13:27:00.057Z</time></trkpt><trkpt lat="39.88783028994672" lon="18.26643604916005"><ele>101.0</ele><time>2026-04-26T13:27:01.057Z</time></trkpt><trkpt lat="39.88801209221748" lon="18.266206876991497"><ele>101.0</ele><time>2026-04-26T13:27:02.057Z</time></trkpt><trkpt lat="39.8881900305626" lon="18.26597705284785"><ele>101.0</ele><time>2026-04-26T13:27:03.057Z</time></trkpt><trkpt lat="39.88837752909424" lon="18.26574198647588"><ele>99.5</ele><time>2026-04-26T13:27:04.057Z</time></trkpt><trkpt lat="39.88855752822697" lon="18.265514008450992"><ele>98.0</ele><time>2026-04-26T13:27:05.057Z</time></trkpt><trkpt lat="39.88873849012309" lon="18.26528492508969"><ele>98.0</ele><time>2026-04-26T13:27:06.057Z</time></trkpt><trkpt lat="39.88891790649964" lon="18.265058312295142"><ele>98.0</ele><time>2026-04-26T13:27:07.057Z</time></trkpt><trkpt lat="39.88909966981652" lon="18.264825908865674"><ele>98.5</ele><time>2026-04-26T13:27:08.057Z</time></trkpt><trkpt lat="39.88928430361952" lon="18.26459640796953"><ele>99.0</ele><time>2026-04-26T13:27:09.057Z</time></trkpt><trkpt lat="39.88946616277566" lon="18.26436727059056"><ele>99.0</ele><time>2026-04-26T13:27:10.057Z</time></trkpt><trkpt lat="39.88964905770219" lon="18.26413301348824"><ele>99.0</ele><time>2026-04-26T13:27:11.057Z</time></trkpt><trkpt lat="39.889826100486246" lon="18.263905182893986"><ele>99.0</ele><time>2026-04-26T13:27:12.057Z</time></trkpt><trkpt lat="39.8900035552182" lon="18.2636702692429"><ele>99.0</ele><time>2026-04-26T13:27:13.057Z</time></trkpt><trkpt lat="39.89018061840994" lon="18.263450370413572"><ele>99.0</ele><time>2026-04-26T13:27:14.057Z</time></trkpt><trkpt lat="39.89035697054029" lon="18.26322899873064"><ele>99.0</ele><time>2026-04-26T13:27:15.057Z</time></trkpt><trkpt lat="39.890531971116005" lon="18.26300727366865"><ele>100.0</ele><time>2026-04-26T13:27:16.057Z</time></trkpt><trkpt lat="39.89070270962103" lon="18.262787142544486"><ele>101.0</ele><time>2026-04-26T13:27:17.057Z</time></trkpt><trkpt lat="39.89087221315326" lon="18.26256961632475"><ele>100.0</ele><time>2026-04-26T13:27:18.057Z</time></trkpt><trkpt lat="39.89103977535762" lon="18.262353743767154"><ele>99.0</ele><time>2026-04-26T13:27:19.057Z</time></trkpt><trkpt lat="39.891209612813924" lon="18.26214245219913"><ele>98.0</ele><time>2026-04-26T13:27:20.057Z</time></trkpt><trkpt lat="39.89137751701146" lon="18.261933628629325"><ele>97.0</ele><time>2026-04-26T13:27:21.057Z</time></trkpt><trkpt lat="39.89154229656939" lon="18.261726253482134"><ele>97.0</ele><time>2026-04-26T13:27:22.057Z</time></trkpt><trkpt lat="39.891704776320935" lon="18.261520803402167"><ele>97.0</ele><time>2026-04-26T13:27:23.057Z</time></trkpt><trkpt lat="39.8918661304235" lon="18.26131256391368"><ele>98.0</ele><time>2026-04-26T13:27:24.057Z</time></trkpt><trkpt lat="39.892030481840955" lon="18.261104667343215"><ele>99.0</ele><time>2026-04-26T13:27:25.057Z</time></trkpt><trkpt lat="39.8921942164795" lon="18.260901682378066"><ele>99.0</ele><time>2026-04-26T13:27:26.057Z</time></trkpt><trkpt lat="39.892363135926935" lon="18.260692334267155"><ele>99.0</ele><time>2026-04-26T13:27:27.057Z</time></trkpt><trkpt lat="39.89253108131402" lon="18.26048298717684"><ele>99.0</ele><time>2026-04-26T13:27:28.057Z</time></trkpt><trkpt lat="39.89269708080106" lon="18.260272323880212"><ele>99.0</ele><time>2026-04-26T13:27:29.057Z</time></trkpt><trkpt lat="39.89286773187627" lon="18.260056732816107"><ele>99.0</ele><time>2026-04-26T13:27:30.057Z</time></trkpt><trkpt lat="39.89303587545634" lon="18.25983841149953"><ele>99.0</ele><time>2026-04-26T13:27:31.057Z</time></trkpt><trkpt lat="39.89320396084924" lon="18.259610687773467"><ele>99.0</ele><time>2026-04-26T13:27:32.057Z</time></trkpt><trkpt lat="39.893375155520275" lon="18.259381265602393"><ele>99.0</ele><time>2026-04-26T13:27:33.056Z</time></trkpt><trkpt lat="39.89354390283451" lon="18.259159454739528"><ele>99.5</ele><time>2026-04-26T13:27:34.056Z</time></trkpt><trkpt lat="39.893702376382215" lon="18.258938889168146"><ele>100.0</ele><time>2026-04-26T13:27:35.057Z</time></trkpt><trkpt lat="39.893851328669896" lon="18.258730654149197"><ele>100.0</ele><time>2026-04-26T13:27:36.056Z</time></trkpt><trkpt lat="39.893994001808494" lon="18.25854216207371"><ele>100.0</ele><time>2026-04-26T13:27:37.056Z</time></trkpt><trkpt lat="39.894128804971" lon="18.258366850980615"><ele>100.0</ele><time>2026-04-26T13:27:38.056Z</time></trkpt><trkpt lat="39.89426323471592" lon="18.258185230325683"><ele>100.0</ele><time>2026-04-26T13:27:39.057Z</time></trkpt><trkpt lat="39.89438156695437" lon="18.258020521130742"><ele>100.0</ele><time>2026-04-26T13:27:40.057Z</time></trkpt><trkpt lat="39.89449129763807" lon="18.257869434123947"><ele>100.0</ele><time>2026-04-26T13:27:41.056Z</time></trkpt><trkpt lat="39.89459579085094" lon="18.25772382815556"><ele>100.0</ele><time>2026-04-26T13:27:42.056Z</time></trkpt><trkpt lat="39.894694309811904" lon="18.257595202162793"><ele>100.0</ele><time>2026-04-26T13:27:43.056Z</time></trkpt><trkpt lat="39.89479041554308" lon="18.25748809237997"><ele>100.0</ele><time>2026-04-26T13:27:44.056Z</time></trkpt><trkpt lat="39.89488425819494" lon="18.25739613736835"><ele>100.0</ele><time>2026-04-26T13:27:45.056Z</time></trkpt><trkpt lat="39.89497391804204" lon="18.25732027817927"><ele>99.83333333333334</ele><time>2026-04-26T13:27:46.056Z</time></trkpt><trkpt lat="39.89505009450009" lon="18.257268280819424"><ele>99.66666666666667</ele><time>2026-04-26T13:27:47.056Z</time></trkpt><trkpt lat="39.895118663522005" lon="18.25723272377738"><ele>99.5</ele><time>2026-04-26T13:27:48.056Z</time></trkpt><trkpt lat="39.89518285528545" lon="18.257216410543098"><ele>99.33333333333334</ele><time>2026-04-26T13:27:49.056Z</time></trkpt><trkpt lat="39.89524754493526" lon="18.25720072140172"><ele>99.16666666666667</ele><time>2026-04-26T13:27:50.056Z</time></trkpt><trkpt lat="39.89533317549282" lon="18.257209147945495"><ele>99.0</ele><time>2026-04-26T13:27:51.056Z</time></trkpt><trkpt lat="39.89542769572132" lon="18.257234829599557"><ele>99.75</ele><time>2026-04-26T13:27:52.056Z</time></trkpt><trkpt lat="39.8955082025294" lon="18.257281388596223"><ele>100.5</ele><time>2026-04-26T13:27:53.056Z</time></trkpt><trkpt lat="39.89559103498843" lon="18.257355086165354"><ele>101.25</ele><time>2026-04-26T13:27:54.056Z</time></trkpt><trkpt lat="39.89569002842814" lon="18.25746034563303"><ele>102.0</ele><time>2026-04-26T13:27:55.056Z</time></trkpt><trkpt lat="39.89580177244357" lon="18.257592384767964"><ele>102.0</ele><time>2026-04-26T13:27:56.056Z</time></trkpt><trkpt lat="39.89593557073915" lon="18.257739888911622"><ele>102.0</ele><time>2026-04-26T13:27:57.056Z</time></trkpt><trkpt lat="39.89608223011633" lon="18.25790278024881"><ele>102.0</ele><time>2026-04-26T13:27:58.056Z</time></trkpt><trkpt lat="39.896202790394625" lon="18.258032262292527"><ele>102.0</ele><time>2026-04-26T13:27:59.056Z</time></trkpt><trkpt lat="39.896289321378305" lon="18.258135984414984"><ele>102.0</ele><time>2026-04-26T13:28:00.056Z</time></trkpt><trkpt lat="39.89636860453064" lon="18.258185172408957"><ele>102.0</ele><time>2026-04-26T13:28:01.056Z</time></trkpt><trkpt lat="39.89645299487931" lon="18.258191084831417"><ele>102.0</ele><time>2026-04-26T13:28:02.056Z</time></trkpt><trkpt lat="39.89654394462143" lon="18.258163480764924"><ele>102.0</ele><time>2026-04-26T13:28:03.056Z</time></trkpt><trkpt lat="39.89661841602756" lon="18.258109750013137"><ele>102.0</ele><time>2026-04-26T13:28:04.056Z</time></trkpt><trkpt lat="39.89668179944153" lon="18.258071563222252"><ele>102.0</ele><time>2026-04-26T13:28:05.056Z</time></trkpt><trkpt lat="39.896792276487595" lon="18.258052176184975"><ele>102.0</ele><time>2026-04-26T13:28:07.056Z</time></trkpt><trkpt lat="39.89683062696855" lon="18.25796317011023"><ele>102.0</ele><time>2026-04-26T13:28:09.056Z</time></trkpt><trkpt lat="39.89677836617833" lon="18.25784054273883"><ele>102.0</ele><time>2026-04-26T13:28:11.056Z</time></trkpt><trkpt lat="39.89672296224836" lon="18.257788016611524"><ele>102.0</ele><time>2026-04-26T13:28:12.056Z</time></trkpt><trkpt lat="39.89665270898132" lon="18.257731227376055"><ele>102.0</ele><time>2026-04-26T13:28:13.056Z</time></trkpt><trkpt lat="39.89658154040253" lon="18.257673605188824"><ele>102.0</ele><time>2026-04-26T13:28:14.056Z</time></trkpt><trkpt lat="39.89651197897566" lon="18.2576190817357"><ele>102.0</ele><time>2026-04-26T13:28:15.056Z</time></trkpt><trkpt lat="39.89644695561547" lon="18.257566506995943"><ele>102.0</ele><time>2026-04-26T13:28:16.056Z</time></trkpt><trkpt lat="39.896388929752774" lon="18.257525189101493"><ele>102.0</ele><time>2026-04-26T13:28:17.056Z</time></trkpt><trkpt lat="39.896337819496964" lon="18.2574760250951"><ele>102.0</ele><time>2026-04-26T13:28:18.056Z</time></trkpt><trkpt lat="39.896278426351294" lon="18.257430446759685"><ele>102.0</ele><time>2026-04-26T13:28:19.056Z</time></trkpt><trkpt lat="39.896217191441785" lon="18.257369815895252"><ele>102.0</ele><time>2026-04-26T13:28:20.056Z</time></trkpt><trkpt lat="39.896146255785034" lon="18.257311746969194"><ele>102.0</ele><time>2026-04-26T13:28:21.056Z</time></trkpt><trkpt lat="39.89607957536679" lon="18.257249519123597"><ele>102.0</ele><time>2026-04-26T13:28:22.056Z</time></trkpt><trkpt lat="39.896023260883865" lon="18.25719587022106"><ele>102.0</ele><time>2026-04-26T13:28:23.056Z</time></trkpt><trkpt lat="39.89597245217075" lon="18.257128198853263"><ele>102.0</ele><time>2026-04-26T13:28:24.056Z</time></trkpt><trkpt lat="39.89592532748137" lon="18.257058272279746"><ele>102.0</ele><time>2026-04-26T13:28:25.056Z</time></trkpt><trkpt lat="39.89588001228986" lon="18.25696781636768"><ele>102.0</ele><time>2026-04-26T13:28:26.056Z</time></trkpt><trkpt lat="39.89583956948286" lon="18.256879364740023"><ele>102.0</ele><time>2026-04-26T13:28:27.056Z</time></trkpt><trkpt lat="39.89580619500344" lon="18.256790993632006"><ele>102.0</ele><time>2026-04-26T13:28:28.056Z</time></trkpt><trkpt lat="39.89577846627572" lon="18.256684004818155"><ele>102.0</ele><time>2026-04-26T13:28:29.056Z</time></trkpt><trkpt lat="39.89576667298285" lon="18.256555950674027"><ele>102.0</ele><time>2026-04-26T13:28:30.056Z</time></trkpt><trkpt lat="39.89577249337955" lon="18.256405735499534"><ele>101.8</ele><time>2026-04-26T13:28:31.056Z</time></trkpt><trkpt lat="39.89579020192759" lon="18.25625911757903"><ele>101.6</ele><time>2026-04-26T13:28:32.056Z</time></trkpt><trkpt lat="39.89582236491995" lon="18.256123001036386"><ele>101.39999999999999</ele><time>2026-04-26T13:28:33.056Z</time></trkpt><trkpt lat="39.8958786261782" lon="18.256003841934454"><ele>101.19999999999999</ele><time>2026-04-26T13:28:34.056Z</time></trkpt><trkpt lat="39.89595181682113" lon="18.25588450185159"><ele>101.0</ele><time>2026-04-26T13:28:35.056Z</time></trkpt><trkpt lat="39.89604326962335" lon="18.255756156200725"><ele>100.0</ele><time>2026-04-26T13:28:36.056Z</time></trkpt><trkpt lat="39.89615323767822" lon="18.255617549331166"><ele>99.0</ele><time>2026-04-26T13:28:37.056Z</time></trkpt><trkpt lat="39.8962721262366" lon="18.25546572135775"><ele>98.0</ele><time>2026-04-26T13:28:38.056Z</time></trkpt><trkpt lat="39.89640773966861" lon="18.255288502332814"><ele>98.0</ele><time>2026-04-26T13:28:39.056Z</time></trkpt><trkpt lat="39.896549112268815" lon="18.2551050846959"><ele>98.0</ele><time>2026-04-26T13:28:40.056Z</time></trkpt><trkpt lat="39.89669771449292" lon="18.254902849464592"><ele>98.0</ele><time>2026-04-26T13:28:41.056Z</time></trkpt><trkpt lat="39.89685561841053" lon="18.254683992716842"><ele>99.0</ele><time>2026-04-26T13:28:42.056Z</time></trkpt><trkpt lat="39.8970098024484" lon="18.25447052695852"><ele>100.0</ele><time>2026-04-26T13:28:43.056Z</time></trkpt><trkpt lat="39.8971590616122" lon="18.25427970606779"><ele>101.0</ele><time>2026-04-26T13:28:44.056Z</time></trkpt><trkpt lat="39.897306099342565" lon="18.254085197139723"><ele>101.0</ele><time>2026-04-26T13:28:45.056Z</time></trkpt><trkpt lat="39.897452539038795" lon="18.253886864993817"><ele>101.0</ele><time>2026-04-26T13:28:46.056Z</time></trkpt><trkpt lat="39.89760324910712" lon="18.25369104849723"><ele>101.0</ele><time>2026-04-26T13:28:47.056Z</time></trkpt><trkpt lat="39.89775108368545" lon="18.253494949769014"><ele>100.66666666666666</ele><time>2026-04-26T13:28:48.056Z</time></trkpt><trkpt lat="39.897899612840284" lon="18.253296300097947"><ele>100.33333333333334</ele><time>2026-04-26T13:28:49.056Z</time></trkpt><trkpt lat="39.89804832411019" lon="18.25309614797714"><ele>100.0</ele><time>2026-04-26T13:28:50.056Z</time></trkpt><trkpt lat="39.89819813569107" lon="18.252890954965387"><ele>100.0</ele><time>2026-04-26T13:28:51.056Z</time></trkpt><trkpt lat="39.89834927228788" lon="18.252686647731814"><ele>100.0</ele><time>2026-04-26T13:28:52.056Z</time></trkpt><trkpt lat="39.898501244035295" lon="18.252481689775053"><ele>100.0</ele><time>2026-04-26T13:28:53.056Z</time></trkpt><trkpt lat="39.89865428849048" lon="18.252273560366266"><ele>99.66666666666667</ele><time>2026-04-26T13:28:54.056Z</time></trkpt><trkpt lat="39.89880776058298" lon="18.252069091119882"><ele>99.33333333333334</ele><time>2026-04-26T13:28:55.056Z</time></trkpt><trkpt lat="39.8989631537685" lon="18.251863251964263"><ele>99.0</ele><time>2026-04-26T13:28:56.056Z</time></trkpt><trkpt lat="39.89911861812132" lon="18.25165416715912"><ele>99.66666666666666</ele><time>2026-04-26T13:28:57.056Z</time></trkpt><trkpt lat="39.899272042386144" lon="18.251450966979373"><ele>100.33333333333333</ele><time>2026-04-26T13:28:58.056Z</time></trkpt><trkpt lat="39.89941675746351" lon="18.251258056406108"><ele>101.0</ele><time>2026-04-26T13:28:59.056Z</time></trkpt><trkpt lat="39.89955030457538" lon="18.251083376460063"><ele>101.0</ele><time>2026-04-26T13:29:00.056Z</time></trkpt><trkpt lat="39.8996802298423" lon="18.250909371456792"><ele>101.0</ele><time>2026-04-26T13:29:01.056Z</time></trkpt><trkpt lat="39.89980947256714" lon="18.25073368413484"><ele>101.0</ele><time>2026-04-26T13:29:02.056Z</time></trkpt><trkpt lat="39.89993711454863" lon="18.250555413668316"><ele>101.0</ele><time>2026-04-26T13:29:03.056Z</time></trkpt><trkpt lat="39.90007071621741" lon="18.25037307819521"><ele>101.0</ele><time>2026-04-26T13:29:04.056Z</time></trkpt><trkpt lat="39.90020755347526" lon="18.250189316340677"><ele>101.0</ele><time>2026-04-26T13:29:05.056Z</time></trkpt><trkpt lat="39.900345223224285" lon="18.25000212458121"><ele>100.66666666666666</ele><time>2026-04-26T13:29:06.056Z</time></trkpt><trkpt lat="39.900485424105575" lon="18.249812507265492"><ele>100.33333333333334</ele><time>2026-04-26T13:29:07.056Z</time></trkpt><trkpt lat="39.900628027984844" lon="18.249621690475948"><ele>100.0</ele><time>2026-04-26T13:29:08.056Z</time></trkpt><trkpt lat="39.90076791986391" lon="18.249416159135468"><ele>100.0</ele><time>2026-04-26T13:29:09.056Z</time></trkpt><trkpt lat="39.90091827996714" lon="18.249207188902854"><ele>100.0</ele><time>2026-04-26T13:29:10.056Z</time></trkpt><trkpt lat="39.90104669369958" lon="18.24896767651827"><ele>100.0</ele><time>2026-04-26T13:29:11.056Z</time></trkpt><trkpt lat="39.90121289383847" lon="18.248767350770162"><ele>100.0</ele><time>2026-04-26T13:29:12.056Z</time></trkpt><trkpt lat="39.90140884077338" lon="18.24859096435626"><ele>100.0</ele><time>2026-04-26T13:29:13.056Z</time></trkpt><trkpt lat="39.901575208428405" lon="18.24836568459058"><ele>100.0</ele><time>2026-04-26T13:29:14.056Z</time></trkpt><trkpt lat="39.901744612513816" lon="18.248136189607035"><ele>100.0</ele><time>2026-04-26T13:29:15.056Z</time></trkpt><trkpt lat="39.90191334575076" lon="18.247902122657514"><ele>100.0</ele><time>2026-04-26T13:29:16.056Z</time></trkpt><trkpt lat="39.90208057485018" lon="18.247657603968605"><ele>100.0</ele><time>2026-04-26T13:29:17.056Z</time></trkpt><trkpt lat="39.90225237713336" lon="18.24741480155957"><ele>100.0</ele><time>2026-04-26T13:29:18.056Z</time></trkpt><trkpt lat="39.90243051228852" lon="18.247175594409104"><ele>100.0</ele><time>2026-04-26T13:29:19.056Z</time></trkpt><trkpt lat="39.90261027930584" lon="18.246939909448564"><ele>100.0</ele><time>2026-04-26T13:29:20.056Z</time></trkpt><trkpt lat="39.90279268901976" lon="18.24669939168112"><ele>100.0</ele><time>2026-04-26T13:29:21.056Z</time></trkpt><trkpt lat="39.90297843635588" lon="18.24646426233262"><ele>100.5</ele><time>2026-04-26T13:29:22.056Z</time></trkpt><trkpt lat="39.90316227454425" lon="18.246225240820273"><ele>101.0</ele><time>2026-04-26T13:29:23.056Z</time></trkpt><trkpt lat="39.90333881951687" lon="18.24599374463203"><ele>101.0</ele><time>2026-04-26T13:29:24.056Z</time></trkpt><trkpt lat="39.90350571468078" lon="18.24577811447041"><ele>101.0</ele><time>2026-04-26T13:29:25.056Z</time></trkpt><trkpt lat="39.903668692560935" lon="18.245564865620608"><ele>101.0</ele><time>2026-04-26T13:29:26.056Z</time></trkpt><trkpt lat="39.90382611804737" lon="18.245353387708224"><ele>101.0</ele><time>2026-04-26T13:29:27.056Z</time></trkpt><trkpt lat="39.903980673442454" lon="18.24514028465981"><ele>101.0</ele><time>2026-04-26T13:29:28.056Z</time></trkpt><trkpt lat="39.90413337759304" lon="18.244930922849292"><ele>101.0</ele><time>2026-04-26T13:29:29.056Z</time></trkpt><trkpt lat="39.90428029902837" lon="18.244717006216444"><ele>101.0</ele><time>2026-04-26T13:29:30.056Z</time></trkpt><trkpt lat="39.9044185235714" lon="18.244496884227296"><ele>101.66666666666666</ele><time>2026-04-26T13:29:31.056Z</time></trkpt><trkpt lat="39.904556512799424" lon="18.244267665874034"><ele>102.33333333333334</ele><time>2026-04-26T13:29:32.056Z</time></trkpt><trkpt lat="39.904684277110206" lon="18.244031932363605"><ele>103.0</ele><time>2026-04-26T13:29:33.056Z</time></trkpt><trkpt lat="39.90480669623677" lon="18.24379088821317"><ele>104.0</ele><time>2026-04-26T13:29:34.056Z</time></trkpt><trkpt lat="39.90492862581278" lon="18.24355061880433"><ele>105.0</ele><time>2026-04-26T13:29:35.056Z</time></trkpt><trkpt lat="39.905032040886354" lon="18.243305659590813"><ele>106.0</ele><time>2026-04-26T13:29:36.056Z</time></trkpt><trkpt lat="39.90514557862909" lon="18.24305340515782"><ele>106.0</ele><time>2026-04-26T13:29:37.056Z</time></trkpt><trkpt lat="39.90525748698595" lon="18.24279978557253"><ele>106.0</ele><time>2026-04-26T13:29:38.056Z</time></trkpt><trkpt lat="39.905365317118495" lon="18.242543164298798"><ele>106.0</ele><time>2026-04-26T13:29:39.056Z</time></trkpt><trkpt lat="39.905475594569715" lon="18.242288651755686"><ele>108.0</ele><time>2026-04-26T13:29:40.056Z</time></trkpt><trkpt lat="39.905585386869035" lon="18.242030369144313"><ele>110.0</ele><time>2026-04-26T13:29:41.056Z</time></trkpt><trkpt lat="39.9056938616793" lon="18.24176681280368"><ele>110.0</ele><time>2026-04-26T13:29:42.056Z</time></trkpt><trkpt lat="39.90579911732254" lon="18.24150504438241"><ele>110.0</ele><time>2026-04-26T13:29:43.056Z</time></trkpt><trkpt lat="39.90590921463585" lon="18.241240885263878"><ele>111.0</ele><time>2026-04-26T13:29:44.056Z</time></trkpt><trkpt lat="39.90602115745874" lon="18.24097195570453"><ele>112.0</ele><time>2026-04-26T13:29:45.056Z</time></trkpt><trkpt lat="39.90613473432357" lon="18.24068610373561"><ele>113.0</ele><time>2026-04-26T13:29:46.056Z</time></trkpt><trkpt lat="39.90624738218789" lon="18.24039581032902"><ele>114.0</ele><time>2026-04-26T13:29:47.056Z</time></trkpt><trkpt lat="39.906361643098705" lon="18.240101512518894"><ele>114.0</ele><time>2026-04-26T13:29:48.055Z</time></trkpt><trkpt lat="39.90647432543428" lon="18.239801719613915"><ele>114.0</ele><time>2026-04-26T13:29:49.055Z</time></trkpt><trkpt lat="39.90659782348987" lon="18.239502766733732"><ele>114.5</ele><time>2026-04-26T13:29:50.056Z</time></trkpt><trkpt lat="39.90672498551091" lon="18.23919312108498"><ele>115.0</ele><time>2026-04-26T13:29:51.055Z</time></trkpt><trkpt lat="39.90685503759205" lon="18.238890518013843"><ele>115.0</ele><time>2026-04-26T13:29:52.055Z</time></trkpt><trkpt lat="39.90699199206768" lon="18.23859321440869"><ele>115.0</ele><time>2026-04-26T13:29:53.055Z</time></trkpt><trkpt lat="39.90712318524788" lon="18.23829392725535"><ele>118.5</ele><time>2026-04-26T13:29:54.055Z</time></trkpt><trkpt lat="39.907247580737916" lon="18.237994928657532"><ele>122.0</ele><time>2026-04-26T13:29:55.055Z</time></trkpt><trkpt lat="39.90737320941977" lon="18.23769612090705"><ele>122.0</ele><time>2026-04-26T13:29:56.055Z</time></trkpt><trkpt lat="39.9074961122231" lon="18.23739036290256"><ele>122.0</ele><time>2026-04-26T13:29:57.055Z</time></trkpt><trkpt lat="39.907616754965865" lon="18.237088613124023"><ele>122.5</ele><time>2026-04-26T13:29:58.055Z</time></trkpt><trkpt lat="39.90774504869089" lon="18.236788328569627"><ele>123.0</ele><time>2026-04-26T13:29:59.055Z</time></trkpt><trkpt lat="39.9078798669067" lon="18.236493675913973"><ele>126.5</ele><time>2026-04-26T13:30:00.055Z</time></trkpt><trkpt lat="39.90802351189072" lon="18.23620765740438"><ele>130.0</ele><time>2026-04-26T13:30:01.055Z</time></trkpt><trkpt lat="39.90817925041494" lon="18.23592620865482"><ele>130.0</ele><time>2026-04-26T13:30:02.055Z</time></trkpt><trkpt lat="39.90835099959622" lon="18.2356651994092"><ele>130.0</ele><time>2026-04-26T13:30:03.055Z</time></trkpt><trkpt lat="39.90853278905299" lon="18.235411699394366"><ele>130.5</ele><time>2026-04-26T13:30:04.055Z</time></trkpt><trkpt lat="39.908721188309876" lon="18.235172632720623"><ele>131.0</ele><time>2026-04-26T13:30:05.055Z</time></trkpt><trkpt lat="39.908910919372424" lon="18.234956318694643"><ele>131.5</ele><time>2026-04-26T13:30:06.055Z</time></trkpt><trkpt lat="39.90910104175656" lon="18.23475196471891"><ele>132.0</ele><time>2026-04-26T13:30:07.055Z</time></trkpt><trkpt lat="39.9092989582655" lon="18.234561679408632"><ele>132.0</ele><time>2026-04-26T13:30:08.055Z</time></trkpt><trkpt lat="39.90950308097802" lon="18.234379600576663"><ele>132.0</ele><time>2026-04-26T13:30:09.055Z</time></trkpt><trkpt lat="39.90971584412461" lon="18.234219210155867"><ele>132.0</ele><time>2026-04-26T13:30:10.055Z</time></trkpt><trkpt lat="39.909927335037324" lon="18.23406911909648"><ele>132.0</ele><time>2026-04-26T13:30:11.055Z</time></trkpt><trkpt lat="39.91014331234375" lon="18.233929681841367"><ele>132.0</ele><time>2026-04-26T13:30:12.055Z</time></trkpt><trkpt lat="39.91036380650672" lon="18.233802658811403"><ele>132.0</ele><time>2026-04-26T13:30:13.055Z</time></trkpt><trkpt lat="39.91058636457494" lon="18.233691334548244"><ele>132.0</ele><time>2026-04-26T13:30:14.055Z</time></trkpt><trkpt lat="39.910811800521856" lon="18.23359437272755"><ele>132.0</ele><time>2026-04-26T13:30:15.055Z</time></trkpt><trkpt lat="39.91103921084791" lon="18.233504470732885"><ele>132.5</ele><time>2026-04-26T13:30:16.055Z</time></trkpt><trkpt lat="39.91126985087961" lon="18.233428516764153"><ele>133.0</ele><time>2026-04-26T13:30:17.055Z</time></trkpt><trkpt lat="39.91150328736744" lon="18.233363149117796"><ele>133.0</ele><time>2026-04-26T13:30:18.055Z</time></trkpt><trkpt lat="39.91173788707838" lon="18.23331175266825"><ele>133.0</ele><time>2026-04-26T13:30:19.055Z</time></trkpt><trkpt lat="39.911972266470414" lon="18.23327627005176"><ele>133.33333333333334</ele><time>2026-04-26T13:30:20.055Z</time></trkpt><trkpt lat="39.91218851424031" lon="18.233250227688966"><ele>133.66666666666666</ele><time>2026-04-26T13:30:21.055Z</time></trkpt><trkpt lat="39.91239235962324" lon="18.233245343346056"><ele>134.0</ele><time>2026-04-26T13:30:22.055Z</time></trkpt><trkpt lat="39.91258344466241" lon="18.233240892212535"><ele>134.0</ele><time>2026-04-26T13:30:23.055Z</time></trkpt><trkpt lat="39.912757615161" lon="18.23324977675775"><ele>134.0</ele><time>2026-04-26T13:30:24.055Z</time></trkpt><trkpt lat="39.91292471481879" lon="18.233271473255886"><ele>134.0</ele><time>2026-04-26T13:30:25.055Z</time></trkpt><trkpt lat="39.913089026615836" lon="18.23329754439504"><ele>134.0</ele><time>2026-04-26T13:30:26.055Z</time></trkpt><trkpt lat="39.91325514059726" lon="18.233323908873274"><ele>134.0</ele><time>2026-04-26T13:30:27.055Z</time></trkpt><trkpt lat="39.91341713331734" lon="18.233345458723555"><ele>134.0</ele><time>2026-04-26T13:30:28.055Z</time></trkpt><trkpt lat="39.91356160348923" lon="18.23337087183819"><ele>134.0</ele><time>2026-04-26T13:30:29.055Z</time></trkpt><trkpt lat="39.913689097032574" lon="18.233398304620348"><ele>134.0</ele><time>2026-04-26T13:30:30.055Z</time></trkpt><trkpt lat="39.9138053284749" lon="18.233425315800716"><ele>134.0</ele><time>2026-04-26T13:30:31.055Z</time></trkpt><trkpt lat="39.91391637449029" lon="18.23344666149275"><ele>134.0</ele><time>2026-04-26T13:30:32.055Z</time></trkpt><trkpt lat="39.91401525622531" lon="18.233469636948747"><ele>134.0</ele><time>2026-04-26T13:30:33.055Z</time></trkpt><trkpt lat="39.91410817355468" lon="18.233496115001408"><ele>134.0</ele><time>2026-04-26T13:30:34.055Z</time></trkpt><trkpt lat="39.914194190019636" lon="18.233508659953213"><ele>134.0</ele><time>2026-04-26T13:30:35.055Z</time></trkpt><trkpt lat="39.91427471254285" lon="18.23349690276576"><ele>134.0</ele><time>2026-04-26T13:30:36.055Z</time></trkpt><trkpt lat="39.91435787055111" lon="18.23345802245004"><ele>134.0</ele><time>2026-04-26T13:30:37.055Z</time></trkpt><trkpt lat="39.91443849466879" lon="18.23338965325459"><ele>134.0</ele><time>2026-04-26T13:30:38.055Z</time></trkpt><trkpt lat="39.91451223734447" lon="18.233289323448343"><ele>134.0</ele><time>2026-04-26T13:30:39.055Z</time></trkpt><trkpt lat="39.9145695479996" lon="18.23315582771255"><ele>134.0</ele><time>2026-04-26T13:30:40.055Z</time></trkpt><trkpt lat="39.91459851720638" lon="18.233004147462704"><ele>134.0</ele><time>2026-04-26T13:30:41.055Z</time></trkpt><trkpt lat="39.914605266183365" lon="18.23283870336484"><ele>134.0</ele><time>2026-04-26T13:30:42.055Z</time></trkpt><trkpt lat="39.91460244140691" lon="18.232654775140844"><ele>134.0</ele><time>2026-04-26T13:30:43.055Z</time></trkpt><trkpt lat="39.91460029538329" lon="18.23245246804683"><ele>134.0</ele><time>2026-04-26T13:30:44.055Z</time></trkpt><trkpt lat="39.91460520334286" lon="18.23222511667736"><ele>134.0</ele><time>2026-04-26T13:30:45.055Z</time></trkpt><trkpt lat="39.91462150078323" lon="18.231997430500286"><ele>134.33333333333331</ele><time>2026-04-26T13:30:46.055Z</time></trkpt><trkpt lat="39.91464696227615" lon="18.23177544459014"><ele>134.66666666666666</ele><time>2026-04-26T13:30:47.055Z</time></trkpt><trkpt lat="39.91467127946805" lon="18.231537532650922"><ele>135.0</ele><time>2026-04-26T13:30:48.055Z</time></trkpt><trkpt lat="39.914702062058076" lon="18.231280703407684"><ele>135.0</ele><time>2026-04-26T13:30:49.055Z</time></trkpt><trkpt lat="39.9147471679938" lon="18.23100523410832"><ele>135.0</ele><time>2026-04-26T13:30:50.055Z</time></trkpt><trkpt lat="39.914810889175364" lon="18.23071634240377"><ele>135.0</ele><time>2026-04-26T13:30:51.055Z</time></trkpt><trkpt lat="39.91489446512289" lon="18.23040908223786"><ele>134.0</ele><time>2026-04-26T13:30:52.055Z</time></trkpt><trkpt lat="39.914999195867" lon="18.230091453339128"><ele>133.0</ele><time>2026-04-26T13:30:53.055Z</time></trkpt><trkpt lat="39.915118009537515" lon="18.229769264297822"><ele>133.0</ele><time>2026-04-26T13:30:54.055Z</time></trkpt><trkpt lat="39.915245781696676" lon="18.229448479623574"><ele>133.0</ele><time>2026-04-26T13:30:55.055Z</time></trkpt><trkpt lat="39.91538300992912" lon="18.229140762735554"><ele>132.5</ele><time>2026-04-26T13:30:56.055Z</time></trkpt><trkpt lat="39.91553621044164" lon="18.22885071959186"><ele>132.0</ele><time>2026-04-26T13:30:57.055Z</time></trkpt><trkpt lat="39.91568896279095" lon="18.22856343457202"><ele>132.0</ele><time>2026-04-26T13:30:58.055Z</time></trkpt><trkpt lat="39.91583587874549" lon="18.228267605972874"><ele>132.0</ele><time>2026-04-26T13:30:59.055Z</time></trkpt><trkpt lat="39.9159675169162" lon="18.227960045892488"><ele>132.5</ele><time>2026-04-26T13:31:00.055Z</time></trkpt><trkpt lat="39.91609183951957" lon="18.22764850190575"><ele>133.0</ele><time>2026-04-26T13:31:01.055Z</time></trkpt><trkpt lat="39.916208871516005" lon="18.22734049542941"><ele>132.5</ele><time>2026-04-26T13:31:02.055Z</time></trkpt><trkpt lat="39.91632018361163" lon="18.22703215204879"><ele>132.0</ele><time>2026-04-26T13:31:03.055Z</time></trkpt><trkpt lat="39.91642682354991" lon="18.226721302690446"><ele>132.5</ele><time>2026-04-26T13:31:04.055Z</time></trkpt><trkpt lat="39.91652942964727" lon="18.22641511884399"><ele>133.0</ele><time>2026-04-26T13:31:05.055Z</time></trkpt><trkpt lat="39.91663060530986" lon="18.226102146809474"><ele>133.0</ele><time>2026-04-26T13:31:06.055Z</time></trkpt><trkpt lat="39.91673100365546" lon="18.225783015468462"><ele>133.0</ele><time>2026-04-26T13:31:07.055Z</time></trkpt><trkpt lat="39.91682339185919" lon="18.225458243856025"><ele>133.0</ele><time>2026-04-26T13:31:08.055Z</time></trkpt><trkpt lat="39.916903765717414" lon="18.225131127346334"><ele>133.0</ele><time>2026-04-26T13:31:09.055Z</time></trkpt><trkpt lat="39.91697806969152" lon="18.224799853890545"><ele>133.0</ele><time>2026-04-26T13:31:10.055Z</time></trkpt><trkpt lat="39.91704124743723" lon="18.2244640251244"><ele>133.0</ele><time>2026-04-26T13:31:11.055Z</time></trkpt><trkpt lat="39.91709417192974" lon="18.22412432864984"><ele>133.0</ele><time>2026-04-26T13:31:12.055Z</time></trkpt><trkpt lat="39.91714084106663" lon="18.223785613835783"><ele>133.0</ele><time>2026-04-26T13:31:13.055Z</time></trkpt><trkpt lat="39.91718485437318" lon="18.22344435197049"><ele>132.5</ele><time>2026-04-26T13:31:14.055Z</time></trkpt><trkpt lat="39.917227719667906" lon="18.223104992171155"><ele>132.0</ele><time>2026-04-26T13:31:15.055Z</time></trkpt><trkpt lat="39.917270544166946" lon="18.222767321082475"><ele>132.0</ele><time>2026-04-26T13:31:16.055Z</time></trkpt><trkpt lat="39.91731260720453" lon="18.2224296651496"><ele>132.0</ele><time>2026-04-26T13:31:17.055Z</time></trkpt><trkpt lat="39.91735835932713" lon="18.22209033948435"><ele>131.0</ele><time>2026-04-26T13:31:18.055Z</time></trkpt><trkpt lat="39.91740682183894" lon="18.22174912632121"><ele>130.0</ele><time>2026-04-26T13:31:19.055Z</time></trkpt><trkpt lat="39.917452804766256" lon="18.221408246027995"><ele>128.5</ele><time>2026-04-26T13:31:20.055Z</time></trkpt><trkpt lat="39.91749818426607" lon="18.22106868695791"><ele>127.0</ele><time>2026-04-26T13:31:21.055Z</time></trkpt><trkpt lat="39.91754753114732" lon="18.220728531757135"><ele>128.0</ele><time>2026-04-26T13:31:22.055Z</time></trkpt><trkpt lat="39.91758782304394" lon="18.220389928687364"><ele>129.0</ele><time>2026-04-26T13:31:23.055Z</time></trkpt><trkpt lat="39.91763495779505" lon="18.220047535649766"><ele>128.0</ele><time>2026-04-26T13:31:24.055Z</time></trkpt><trkpt lat="39.917681891458166" lon="18.219707768112155"><ele>127.0</ele><time>2026-04-26T13:31:25.055Z</time></trkpt><trkpt lat="39.917729687633155" lon="18.219365457809612"><ele>127.0</ele><time>2026-04-26T13:31:26.055Z</time></trkpt><trkpt lat="39.91777494569183" lon="18.219028196946926"><ele>127.0</ele><time>2026-04-26T13:31:27.055Z</time></trkpt><trkpt lat="39.91782029914932" lon="18.21868662663535"><ele>126.5</ele><time>2026-04-26T13:31:28.055Z</time></trkpt><trkpt lat="39.91786092448435" lon="18.21834711656584"><ele>126.0</ele><time>2026-04-26T13:31:29.055Z</time></trkpt><trkpt lat="39.917902283473154" lon="18.21800502697903"><ele>125.5</ele><time>2026-04-26T13:31:30.055Z</time></trkpt><trkpt lat="39.91794656637838" lon="18.21766731779492"><ele>125.0</ele><time>2026-04-26T13:31:31.055Z</time></trkpt><trkpt lat="39.917993701148134" lon="18.217329167629178"><ele>124.0</ele><time>2026-04-26T13:31:32.055Z</time></trkpt><trkpt lat="39.918040858140806" lon="18.216991744357273"><ele>123.0</ele><time>2026-04-26T13:31:33.055Z</time></trkpt><trkpt lat="39.91808692550112" lon="18.216649679675335"><ele>121.5</ele><time>2026-04-26T13:31:34.055Z</time></trkpt><trkpt lat="39.91813324741262" lon="18.216309017670397"><ele>120.0</ele><time>2026-04-26T13:31:35.055Z</time></trkpt><trkpt lat="39.91817829729418" lon="18.215972677893074"><ele>119.0</ele><time>2026-04-26T13:31:36.055Z</time></trkpt><trkpt lat="39.91822275986832" lon="18.21563669547387"><ele>118.0</ele><time>2026-04-26T13:31:37.055Z</time></trkpt><trkpt lat="39.91827100842714" lon="18.215295477933108"><ele>118.0</ele><time>2026-04-26T13:31:38.055Z</time></trkpt><trkpt lat="39.91831887217686" lon="18.21495850096889"><ele>118.0</ele><time>2026-04-26T13:31:39.056Z</time></trkpt><trkpt lat="39.91836622367102" lon="18.2146221806966"><ele>118.5</ele><time>2026-04-26T13:31:40.056Z</time></trkpt><trkpt lat="39.91841703398152" lon="18.214285665882407"><ele>119.0</ele><time>2026-04-26T13:31:41.056Z</time></trkpt><trkpt lat="39.91847053264838" lon="18.21395009145745"><ele>119.0</ele><time>2026-04-26T13:31:42.056Z</time></trkpt><trkpt lat="39.91852943383804" lon="18.213610615520047"><ele>119.0</ele><time>2026-04-26T13:31:43.056Z</time></trkpt><trkpt lat="39.91858715311082" lon="18.21327039745024"><ele>118.0</ele><time>2026-04-26T13:31:44.056Z</time></trkpt><trkpt lat="39.91864382563313" lon="18.212933600187817"><ele>117.0</ele><time>2026-04-26T13:31:45.056Z</time></trkpt><trkpt lat="39.91870141163201" lon="18.21259916533043"><ele>116.5</ele><time>2026-04-26T13:31:46.056Z</time></trkpt><trkpt lat="39.91875460463991" lon="18.212262833960928"><ele>116.0</ele><time>2026-04-26T13:31:47.056Z</time></trkpt><trkpt lat="39.918808673175384" lon="18.211928068028843"><ele>116.0</ele><time>2026-04-26T13:31:48.055Z</time></trkpt><trkpt lat="39.91886431187219" lon="18.211588230467523"><ele>116.0</ele><time>2026-04-26T13:31:49.055Z</time></trkpt><trkpt lat="39.91892049538862" lon="18.21125185158295"><ele>115.5</ele><time>2026-04-26T13:31:50.056Z</time></trkpt><trkpt lat="39.91897723292116" lon="18.210916966069863"><ele>115.0</ele><time>2026-04-26T13:31:51.055Z</time></trkpt><trkpt lat="39.91902883312785" lon="18.210581297789187"><ele>114.5</ele><time>2026-04-26T13:31:52.055Z</time></trkpt><trkpt lat="39.919084200125525" lon="18.210244039959232"><ele>114.0</ele><time>2026-04-26T13:31:53.056Z</time></trkpt><trkpt lat="39.91913831320656" lon="18.209909487737754"><ele>113.5</ele><time>2026-04-26T13:31:54.056Z</time></trkpt><trkpt lat="39.91919270806761" lon="18.209571602300954"><ele>113.0</ele><time>2026-04-26T13:31:55.056Z</time></trkpt><trkpt lat="39.91924492959797" lon="18.209234732934753"><ele>113.5</ele><time>2026-04-26T13:31:56.055Z</time></trkpt><trkpt lat="39.91930047056551" lon="18.208900739430497"><ele>114.0</ele><time>2026-04-26T13:31:57.056Z</time></trkpt><trkpt lat="39.91935525720617" lon="18.20856365819239"><ele>114.0</ele><time>2026-04-26T13:31:58.056Z</time></trkpt><trkpt lat="39.919410477669416" lon="18.208228108546223"><ele>114.0</ele><time>2026-04-26T13:31:59.056Z</time></trkpt><trkpt lat="39.91946893139424" lon="18.207889711276888"><ele>114.0</ele><time>2026-04-26T13:32:00.056Z</time></trkpt><trkpt lat="39.91952242751589" lon="18.207552336696544"><ele>114.0</ele><time>2026-04-26T13:32:01.056Z</time></trkpt><trkpt lat="39.919572832924075" lon="18.207216837733917"><ele>113.5</ele><time>2026-04-26T13:32:02.056Z</time></trkpt><trkpt lat="39.91962468682772" lon="18.206880832998568"><ele>113.0</ele><time>2026-04-26T13:32:03.056Z</time></trkpt><trkpt lat="39.919673890724965" lon="18.20654353415274"><ele>112.5</ele><time>2026-04-26T13:32:04.056Z</time></trkpt><trkpt lat="39.91971888715214" lon="18.206202887954483"><ele>112.0</ele><time>2026-04-26T13:32:05.056Z</time></trkpt><trkpt lat="39.91975678705513" lon="18.205861923308515"><ele>110.5</ele><time>2026-04-26T13:32:06.056Z</time></trkpt><trkpt lat="39.91979522824939" lon="18.20551981023859"><ele>109.0</ele><time>2026-04-26T13:32:07.056Z</time></trkpt><trkpt lat="39.91983287532013" lon="18.205178321770806"><ele>109.0</ele><time>2026-04-26T13:32:08.056Z</time></trkpt><trkpt lat="39.91987385193295" lon="18.204838698278397"><ele>109.0</ele><time>2026-04-26T13:32:09.056Z</time></trkpt><trkpt lat="39.91991465133355" lon="18.20449505545473"><ele>107.5</ele><time>2026-04-26T13:32:10.056Z</time></trkpt><trkpt lat="39.919953793690794" lon="18.20415598566487"><ele>106.0</ele><time>2026-04-26T13:32:11.056Z</time></trkpt><trkpt lat="39.91999587748431" lon="18.203812088086803"><ele>105.5</ele><time>2026-04-26T13:32:12.056Z</time></trkpt><trkpt lat="39.920034077684974" lon="18.203471218975157"><ele>105.0</ele><time>2026-04-26T13:32:13.056Z</time></trkpt><trkpt lat="39.92007222513772" lon="18.203130043465663"><ele>105.0</ele><time>2026-04-26T13:32:14.056Z</time></trkpt><trkpt lat="39.92011027693869" lon="18.202789028986146"><ele>105.0</ele><time>2026-04-26T13:32:15.056Z</time></trkpt><trkpt lat="39.920148967268624" lon="18.202448576097368"><ele>104.0</ele><time>2026-04-26T13:32:16.056Z</time></trkpt><trkpt lat="39.92018610358043" lon="18.202111285212236"><ele>103.0</ele><time>2026-04-26T13:32:17.056Z</time></trkpt><trkpt lat="39.920223138049494" lon="18.201771157947796"><ele>102.5</ele><time>2026-04-26T13:32:18.056Z</time></trkpt><trkpt lat="39.92025997314212" lon="18.201430616095358"><ele>102.0</ele><time>2026-04-26T13:32:19.056Z</time></trkpt><trkpt lat="39.920298758871354" lon="18.201089099010083"><ele>102.0</ele><time>2026-04-26T13:32:20.056Z</time></trkpt><trkpt lat="39.9203386477857" lon="18.200748415146574"><ele>102.0</ele><time>2026-04-26T13:32:21.056Z</time></trkpt><trkpt lat="39.92038087872746" lon="18.2004057991275"><ele>101.0</ele><time>2026-04-26T13:32:22.056Z</time></trkpt><trkpt lat="39.920420538160734" lon="18.20006620115096"><ele>100.0</ele><time>2026-04-26T13:32:23.056Z</time></trkpt><trkpt lat="39.92046002191204" lon="18.199728114614093"><ele>99.5</ele><time>2026-04-26T13:32:24.056Z</time></trkpt><trkpt lat="39.920499634136675" lon="18.19938862247605"><ele>99.0</ele><time>2026-04-26T13:32:25.056Z</time></trkpt><trkpt lat="39.920539351145536" lon="18.19904828753874"><ele>98.0</ele><time>2026-04-26T13:32:26.056Z</time></trkpt><trkpt lat="39.92057851291432" lon="18.198708674157015"><ele>97.0</ele><time>2026-04-26T13:32:27.056Z</time></trkpt><trkpt lat="39.9206149397311" lon="18.19836845655501"><ele>97.5</ele><time>2026-04-26T13:32:28.056Z</time></trkpt><trkpt lat="39.920654493132844" lon="18.19802487316896"><ele>98.0</ele><time>2026-04-26T13:32:29.056Z</time></trkpt><trkpt lat="39.92069339328656" lon="18.197684491654513"><ele>98.0</ele><time>2026-04-26T13:32:30.056Z</time></trkpt><trkpt lat="39.92073584775601" lon="18.197344372609642"><ele>98.0</ele><time>2026-04-26T13:32:31.056Z</time></trkpt><trkpt lat="39.9207782838392" lon="18.197007580299193"><ele>97.5</ele><time>2026-04-26T13:32:32.056Z</time></trkpt><trkpt lat="39.92082173385671" lon="18.196668574983168"><ele>97.0</ele><time>2026-04-26T13:32:33.056Z</time></trkpt><trkpt lat="39.920863451325026" lon="18.19633156991996"><ele>97.5</ele><time>2026-04-26T13:32:34.056Z</time></trkpt><trkpt lat="39.92090406457541" lon="18.195992274791525"><ele>98.0</ele><time>2026-04-26T13:32:35.056Z</time></trkpt><trkpt lat="39.92094444647044" lon="18.195650374810793"><ele>96.0</ele><time>2026-04-26T13:32:36.056Z</time></trkpt><trkpt lat="39.920983937728415" lon="18.195310519495376"><ele>94.0</ele><time>2026-04-26T13:32:37.056Z</time></trkpt><trkpt lat="39.92102464931245" lon="18.194966706242745"><ele>94.0</ele><time>2026-04-26T13:32:38.056Z</time></trkpt><trkpt lat="39.921062664760726" lon="18.194623750440417"><ele>94.0</ele><time>2026-04-26T13:32:39.056Z</time></trkpt><trkpt lat="39.92110246060082" lon="18.194282340592693"><ele>95.0</ele><time>2026-04-26T13:32:40.056Z</time></trkpt><trkpt lat="39.92113964121519" lon="18.193940457995673"><ele>96.0</ele><time>2026-04-26T13:32:41.056Z</time></trkpt><trkpt lat="39.92117714634865" lon="18.193598642802957"><ele>96.0</ele><time>2026-04-26T13:32:42.056Z</time></trkpt><trkpt lat="39.921215606917265" lon="18.193255266227236"><ele>96.0</ele><time>2026-04-26T13:32:43.056Z</time></trkpt><trkpt lat="39.92125315518818" lon="18.192918521197768"><ele>96.0</ele><time>2026-04-26T13:32:44.056Z</time></trkpt><trkpt lat="39.921291776701196" lon="18.192575795040774"><ele>96.0</ele><time>2026-04-26T13:32:45.056Z</time></trkpt><trkpt lat="39.92133242970937" lon="18.192225346285372"><ele>95.0</ele><time>2026-04-26T13:32:46.056Z</time></trkpt><trkpt lat="39.92136947385402" lon="18.19186035811704"><ele>94.0</ele><time>2026-04-26T13:32:47.056Z</time></trkpt><trkpt lat="39.9214032748681" lon="18.191518379454795"><ele>94.0</ele><time>2026-04-26T13:32:48.056Z</time></trkpt><trkpt lat="39.921441744196805" lon="18.191188930248053"><ele>94.0</ele><time>2026-04-26T13:32:49.056Z</time></trkpt><trkpt lat="39.92148074366002" lon="18.19086021147539"><ele>94.0</ele><time>2026-04-26T13:32:50.056Z</time></trkpt><trkpt lat="39.92152197795916" lon="18.19052857293648"><ele>94.0</ele><time>2026-04-26T13:32:51.056Z</time></trkpt><trkpt lat="39.921563668523184" lon="18.190192415382676"><ele>94.0</ele><time>2026-04-26T13:32:52.056Z</time></trkpt><trkpt lat="39.92160359316988" lon="18.189856783641105"><ele>94.0</ele><time>2026-04-26T13:32:53.056Z</time></trkpt><trkpt lat="39.921639869316145" lon="18.18952196308232"><ele>94.0</ele><time>2026-04-26T13:32:54.056Z</time></trkpt><trkpt lat="39.921678994477055" lon="18.189182607909444"><ele>94.0</ele><time>2026-04-26T13:32:55.056Z</time></trkpt><trkpt lat="39.92171560653248" lon="18.188842614987298"><ele>94.5</ele><time>2026-04-26T13:32:56.056Z</time></trkpt><trkpt lat="39.921752163160534" lon="18.188502287075174"><ele>95.0</ele><time>2026-04-26T13:32:57.056Z</time></trkpt><trkpt lat="39.92179002624765" lon="18.1881619349302"><ele>94.0</ele><time>2026-04-26T13:32:58.056Z</time></trkpt><trkpt lat="39.92182837457434" lon="18.187820246347314"><ele>93.0</ele><time>2026-04-26T13:32:59.056Z</time></trkpt><trkpt lat="39.92186647247133" lon="18.18747999086597"><ele>92.5</ele><time>2026-04-26T13:33:00.056Z</time></trkpt><trkpt lat="39.92190382289348" lon="18.187138753594233"><ele>92.0</ele><time>2026-04-26T13:33:01.056Z</time></trkpt><trkpt lat="39.92194329577658" lon="18.186799177293853"><ele>91.5</ele><time>2026-04-26T13:33:02.056Z</time></trkpt><trkpt lat="39.92198634217136" lon="18.186477846573716"><ele>91.0</ele><time>2026-04-26T13:33:03.056Z</time></trkpt><trkpt lat="39.92202554377562" lon="18.186174498617643"><ele>91.0</ele><time>2026-04-26T13:33:04.056Z</time></trkpt><trkpt lat="39.92206480261979" lon="18.185885487524835"><ele>91.0</ele><time>2026-04-26T13:33:05.056Z</time></trkpt><trkpt lat="39.92210808043649" lon="18.185609332284407"><ele>91.0</ele><time>2026-04-26T13:33:06.056Z</time></trkpt><trkpt lat="39.922156872922656" lon="18.18534135710999"><ele>90.33333333333333</ele><time>2026-04-26T13:33:07.056Z</time></trkpt><trkpt lat="39.92221810953383" lon="18.185070912827157"><ele>89.66666666666667</ele><time>2026-04-26T13:33:08.056Z</time></trkpt><trkpt lat="39.922287279892245" lon="18.184808340669576"><ele>89.0</ele><time>2026-04-26T13:33:09.056Z</time></trkpt><trkpt lat="39.922369157127804" lon="18.184545413665774"><ele>88.66666666666667</ele><time>2026-04-26T13:33:10.056Z</time></trkpt><trkpt lat="39.922462833983175" lon="18.184289531124538"><ele>88.33333333333333</ele><time>2026-04-26T13:33:11.056Z</time></trkpt><trkpt lat="39.922564201442825" lon="18.184053068226113"><ele>88.0</ele><time>2026-04-26T13:33:12.056Z</time></trkpt><trkpt lat="39.92267528891701" lon="18.18383719003056"><ele>88.66666666666666</ele><time>2026-04-26T13:33:13.056Z</time></trkpt><trkpt lat="39.9227812581664" lon="18.183633537702093"><ele>89.33333333333333</ele><time>2026-04-26T13:33:14.056Z</time></trkpt><trkpt lat="39.92289012444262" lon="18.183428768030527"><ele>90.0</ele><time>2026-04-26T13:33:15.056Z</time></trkpt><trkpt lat="39.922998907023974" lon="18.183219676932314"><ele>89.66666666666667</ele><time>2026-04-26T13:33:16.056Z</time></trkpt><trkpt lat="39.92312319084269" lon="18.183012947966787"><ele>89.33333333333334</ele><time>2026-04-26T13:33:17.056Z</time></trkpt><trkpt lat="39.92325710399018" lon="18.1828206484232"><ele>89.0</ele><time>2026-04-26T13:33:18.056Z</time></trkpt><trkpt lat="39.92339799810779" lon="18.182636434706772"><ele>88.33333333333334</ele><time>2026-04-26T13:33:19.056Z</time></trkpt><trkpt lat="39.92354130131048" lon="18.182459706548578"><ele>87.66666666666667</ele><time>2026-04-26T13:33:20.056Z</time></trkpt><trkpt lat="39.92368951741537" lon="18.182281512358117"><ele>87.0</ele><time>2026-04-26T13:33:21.056Z</time></trkpt><trkpt lat="39.923847376083195" lon="18.18210984365655"><ele>87.0</ele><time>2026-04-26T13:33:22.056Z</time></trkpt><trkpt lat="39.924010557425056" lon="18.181949842214642"><ele>87.0</ele><time>2026-04-26T13:33:23.056Z</time></trkpt><trkpt lat="39.924173551414746" lon="18.18179516086501"><ele>87.0</ele><time>2026-04-26T13:33:24.056Z</time></trkpt><trkpt lat="39.924330176519014" lon="18.18163156966457"><ele>86.66666666666667</ele><time>2026-04-26T13:33:25.056Z</time></trkpt><trkpt lat="39.924476083419215" lon="18.18146490917517"><ele>86.33333333333334</ele><time>2026-04-26T13:33:26.056Z</time></trkpt><trkpt lat="39.924611082064445" lon="18.181284966541643"><ele>86.0</ele><time>2026-04-26T13:33:27.056Z</time></trkpt><trkpt lat="39.92474660147978" lon="18.181108692396936"><ele>86.0</ele><time>2026-04-26T13:33:28.056Z</time></trkpt><trkpt lat="39.92487127388696" lon="18.180937204153203"><ele>86.0</ele><time>2026-04-26T13:33:29.056Z</time></trkpt><trkpt lat="39.92500822747457" lon="18.180782272534127"><ele>86.0</ele><time>2026-04-26T13:33:30.056Z</time></trkpt><trkpt lat="39.92515550575216" lon="18.180629364276825"><ele>85.5</ele><time>2026-04-26T13:33:31.056Z</time></trkpt><trkpt lat="39.925346584356824" lon="18.180475487229987"><ele>85.0</ele><time>2026-04-26T13:33:32.056Z</time></trkpt><trkpt lat="39.925538807270286" lon="18.180310299197657"><ele>85.0</ele><time>2026-04-26T13:33:33.056Z</time></trkpt><trkpt lat="39.925713111089514" lon="18.1801289328099"><ele>85.0</ele><time>2026-04-26T13:33:34.056Z</time></trkpt><trkpt lat="39.92589686732921" lon="18.179928643795552"><ele>84.5</ele><time>2026-04-26T13:33:35.056Z</time></trkpt><trkpt lat="39.92610137136552" lon="18.179731051653278"><ele>84.0</ele><time>2026-04-26T13:33:36.056Z</time></trkpt><trkpt lat="39.92629298817302" lon="18.179525184942346"><ele>84.0</ele><time>2026-04-26T13:33:37.056Z</time></trkpt><trkpt lat="39.92651582741073" lon="18.179330045333966"><ele>84.0</ele><time>2026-04-26T13:33:38.056Z</time></trkpt><trkpt lat="39.92674247555507" lon="18.179137636762558"><ele>84.0</ele><time>2026-04-26T13:33:39.056Z</time></trkpt><trkpt lat="39.92699416088592" lon="18.178950619069933"><ele>84.0</ele><time>2026-04-26T13:33:40.056Z</time></trkpt><trkpt lat="39.92725783923876" lon="18.178772988825415"><ele>84.0</ele><time>2026-04-26T13:33:41.056Z</time></trkpt><trkpt lat="39.927558435794126" lon="18.178606324197"><ele>84.0</ele><time>2026-04-26T13:33:42.056Z</time></trkpt><trkpt lat="39.92781054779124" lon="18.17841421304471"><ele>84.0</ele><time>2026-04-26T13:33:43.056Z</time></trkpt><trkpt lat="39.92804826203962" lon="18.178217518613575"><ele>84.0</ele><time>2026-04-26T13:33:44.056Z</time></trkpt><trkpt lat="39.92827746895398" lon="18.178020606426124"><ele>84.0</ele><time>2026-04-26T13:33:45.056Z</time></trkpt><trkpt lat="39.928505394004" lon="18.17781847956377"><ele>84.0</ele><time>2026-04-26T13:33:46.056Z</time></trkpt><trkpt lat="39.92873226191433" lon="18.177615375909227"><ele>84.0</ele><time>2026-04-26T13:33:47.056Z</time></trkpt><trkpt lat="39.92895800997859" lon="18.177412692374315"><ele>84.0</ele><time>2026-04-26T13:33:48.056Z</time></trkpt><trkpt lat="39.9291837560724" lon="18.17721187225862"><ele>84.0</ele><time>2026-04-26T13:33:49.056Z</time></trkpt><trkpt lat="39.929409892075824" lon="18.177010081186694"><ele>84.0</ele><time>2026-04-26T13:33:50.055Z</time></trkpt><trkpt lat="39.92963241640503" lon="18.176812029815363"><ele>84.0</ele><time>2026-04-26T13:33:51.055Z</time></trkpt><trkpt lat="39.92984926559495" lon="18.17661586628901"><ele>84.0</ele><time>2026-04-26T13:33:52.055Z</time></trkpt><trkpt lat="39.930062765932504" lon="18.176416242582256"><ele>84.5</ele><time>2026-04-26T13:33:53.055Z</time></trkpt><trkpt lat="39.930277807220726" lon="18.176212525973078"><ele>85.0</ele><time>2026-04-26T13:33:54.055Z</time></trkpt><trkpt lat="39.930496281296485" lon="18.176010466790352"><ele>85.0</ele><time>2026-04-26T13:33:55.055Z</time></trkpt><trkpt lat="39.93071702178073" lon="18.17581464155596"><ele>85.0</ele><time>2026-04-26T13:33:56.055Z</time></trkpt><trkpt lat="39.930937766822304" lon="18.175618883085843"><ele>85.5</ele><time>2026-04-26T13:33:57.055Z</time></trkpt><trkpt lat="39.93115358015748" lon="18.175417554347476"><ele>86.0</ele><time>2026-04-26T13:33:58.055Z</time></trkpt><trkpt lat="39.931370431180014" lon="18.175221640756476"><ele>86.0</ele><time>2026-04-26T13:33:59.055Z</time></trkpt><trkpt lat="39.93158182790024" lon="18.175019777106066"><ele>86.0</ele><time>2026-04-26T13:34:00.055Z</time></trkpt><trkpt lat="39.93179310857622" lon="18.17481784735565"><ele>85.5</ele><time>2026-04-26T13:34:01.055Z</time></trkpt><trkpt lat="39.93200728979142" lon="18.174618997920785"><ele>85.0</ele><time>2026-04-26T13:34:02.055Z</time></trkpt><trkpt lat="39.932223064147585" lon="18.17442262290051"><ele>85.0</ele><time>2026-04-26T13:34:03.055Z</time></trkpt><trkpt lat="39.932435964845816" lon="18.17423008460541"><ele>85.0</ele><time>2026-04-26T13:34:04.055Z</time></trkpt><trkpt lat="39.93264710831037" lon="18.174038691642657"><ele>84.5</ele><time>2026-04-26T13:34:05.055Z</time></trkpt><trkpt lat="39.932856864361206" lon="18.173850958880035"><ele>84.0</ele><time>2026-04-26T13:34:06.055Z</time></trkpt><trkpt lat="39.93306378157772" lon="18.17366251151803"><ele>84.0</ele><time>2026-04-26T13:34:07.055Z</time></trkpt><trkpt lat="39.93326866190798" lon="18.173470250381634"><ele>84.0</ele><time>2026-04-26T13:34:08.055Z</time></trkpt><trkpt lat="39.933470372915444" lon="18.173280858419208"><ele>84.0</ele><time>2026-04-26T13:34:09.055Z</time></trkpt><trkpt lat="39.93367484109052" lon="18.173089419812552"><ele>84.0</ele><time>2026-04-26T13:34:10.055Z</time></trkpt><trkpt lat="39.933877215554936" lon="18.172905637770846"><ele>84.0</ele><time>2026-04-26T13:34:11.055Z</time></trkpt><trkpt lat="39.934072155951085" lon="18.172723650587862"><ele>84.0</ele><time>2026-04-26T13:34:12.055Z</time></trkpt><trkpt lat="39.934255989484804" lon="18.17255401466656"><ele>83.66666666666667</ele><time>2026-04-26T13:34:13.055Z</time></trkpt><trkpt lat="39.93444090751757" lon="18.17238533539955"><ele>83.33333333333334</ele><time>2026-04-26T13:34:14.055Z</time></trkpt><trkpt lat="39.934623292845494" lon="18.172218413999627"><ele>83.0</ele><time>2026-04-26T13:34:15.055Z</time></trkpt><trkpt lat="39.93480618935811" lon="18.172048356575903"><ele>84.0</ele><time>2026-04-26T13:34:16.055Z</time></trkpt><trkpt lat="39.93498868234022" lon="18.171876404045335"><ele>85.0</ele><time>2026-04-26T13:34:17.055Z</time></trkpt><trkpt lat="39.935171812823484" lon="18.171700070117712"><ele>85.5</ele><time>2026-04-26T13:34:18.055Z</time></trkpt><trkpt lat="39.93535858956059" lon="18.17151627597534"><ele>86.0</ele><time>2026-04-26T13:34:19.055Z</time></trkpt><trkpt lat="39.935547987425096" lon="18.171335982752694"><ele>86.0</ele><time>2026-04-26T13:34:20.055Z</time></trkpt><trkpt lat="39.93574224781451" lon="18.171159537037745"><ele>86.0</ele><time>2026-04-26T13:34:21.055Z</time></trkpt><trkpt lat="39.93593881214632" lon="18.17098380294825"><ele>85.5</ele><time>2026-04-26T13:34:22.055Z</time></trkpt><trkpt lat="39.93613544059769" lon="18.170813597063802"><ele>85.0</ele><time>2026-04-26T13:34:23.055Z</time></trkpt><trkpt lat="39.93632169671762" lon="18.170653445583337"><ele>85.0</ele><time>2026-04-26T13:34:24.055Z</time></trkpt><trkpt lat="39.936489762174084" lon="18.170496894089613"><ele>85.0</ele><time>2026-04-26T13:34:25.055Z</time></trkpt><trkpt lat="39.9366442718382" lon="18.170342072421636"><ele>85.0</ele><time>2026-04-26T13:34:26.055Z</time></trkpt><trkpt lat="39.93679296409254" lon="18.17020051928467"><ele>85.0</ele><time>2026-04-26T13:34:27.055Z</time></trkpt><trkpt lat="39.93694383207997" lon="18.17005642831086"><ele>85.0</ele><time>2026-04-26T13:34:28.055Z</time></trkpt><trkpt lat="39.937103093976155" lon="18.169909618637686"><ele>85.0</ele><time>2026-04-26T13:34:29.055Z</time></trkpt><trkpt lat="39.93726638368208" lon="18.169757132628064"><ele>84.66666666666666</ele><time>2026-04-26T13:34:30.055Z</time></trkpt><trkpt lat="39.93743262299759" lon="18.169603383682535"><ele>84.33333333333333</ele><time>2026-04-26T13:34:31.055Z</time></trkpt><trkpt lat="39.93761558273243" lon="18.169450032559777"><ele>84.0</ele><time>2026-04-26T13:34:32.055Z</time></trkpt><trkpt lat="39.93780278689016" lon="18.169291822117394"><ele>83.5</ele><time>2026-04-26T13:34:33.055Z</time></trkpt><trkpt lat="39.937995426573686" lon="18.1691222586074"><ele>83.0</ele><time>2026-04-26T13:34:34.055Z</time></trkpt><trkpt lat="39.938198074143195" lon="18.16895000432686"><ele>82.0</ele><time>2026-04-26T13:34:35.055Z</time></trkpt><trkpt lat="39.93839168757573" lon="18.16877414466133"><ele>81.0</ele><time>2026-04-26T13:34:36.055Z</time></trkpt><trkpt lat="39.93860387559655" lon="18.16860146636231"><ele>81.0</ele><time>2026-04-26T13:34:37.055Z</time></trkpt><trkpt lat="39.93880557207384" lon="18.168422790825684"><ele>81.0</ele><time>2026-04-26T13:34:38.055Z</time></trkpt><trkpt lat="39.93900175000576" lon="18.168238825065195"><ele>80.5</ele><time>2026-04-26T13:34:39.055Z</time></trkpt><trkpt lat="39.93919603284106" lon="18.168049065407992"><ele>80.0</ele><time>2026-04-26T13:34:40.055Z</time></trkpt><trkpt lat="39.939399523525765" lon="18.167860353743038"><ele>79.5</ele><time>2026-04-26T13:34:41.055Z</time></trkpt><trkpt lat="39.93960243652995" lon="18.167674273304705"><ele>79.0</ele><time>2026-04-26T13:34:42.055Z</time></trkpt><trkpt lat="39.93980518596935" lon="18.16749199652328"><ele>79.0</ele><time>2026-04-26T13:34:43.055Z</time></trkpt><trkpt lat="39.9400031767008" lon="18.16729648656412"><ele>79.0</ele><time>2026-04-26T13:34:44.055Z</time></trkpt><trkpt lat="39.94020547082172" lon="18.1671057036383"><ele>79.0</ele><time>2026-04-26T13:34:45.055Z</time></trkpt><trkpt lat="39.940406867702784" lon="18.16690915193711"><ele>79.0</ele><time>2026-04-26T13:34:46.055Z</time></trkpt><trkpt lat="39.94060879690261" lon="18.166713146139575"><ele>78.5</ele><time>2026-04-26T13:34:47.055Z</time></trkpt><trkpt lat="39.94081327813391" lon="18.16651279875659"><ele>78.0</ele><time>2026-04-26T13:34:48.055Z</time></trkpt><trkpt lat="39.941012922373275" lon="18.166307266466056"><ele>77.5</ele><time>2026-04-26T13:34:49.055Z</time></trkpt><trkpt lat="39.94120667632255" lon="18.16609364403839"><ele>77.0</ele><time>2026-04-26T13:34:50.055Z</time></trkpt><trkpt lat="39.9413962579126" lon="18.16587362143646"><ele>76.5</ele><time>2026-04-26T13:34:51.055Z</time></trkpt><trkpt lat="39.94158193325925" lon="18.165646162515902"><ele>76.0</ele><time>2026-04-26T13:34:52.055Z</time></trkpt><trkpt lat="39.941763404518795" lon="18.165413434312217"><ele>77.5</ele><time>2026-04-26T13:34:53.055Z</time></trkpt><trkpt lat="39.941940634405405" lon="18.16517091023656"><ele>79.0</ele><time>2026-04-26T13:34:54.055Z</time></trkpt><trkpt lat="39.94211351027413" lon="18.164931893335318"><ele>78.5</ele><time>2026-04-26T13:34:55.055Z</time></trkpt><trkpt lat="39.94227973394847" lon="18.164685233612687"><ele>78.0</ele><time>2026-04-26T13:34:56.055Z</time></trkpt><trkpt lat="39.942439255852584" lon="18.1644350630442"><ele>76.5</ele><time>2026-04-26T13:34:57.055Z</time></trkpt><trkpt lat="39.94259579536409" lon="18.16417811077931"><ele>75.0</ele><time>2026-04-26T13:34:58.055Z</time></trkpt><trkpt lat="39.94274872044029" lon="18.1639145115629"><ele>75.0</ele><time>2026-04-26T13:34:59.055Z</time></trkpt><trkpt lat="39.94290011357281" lon="18.163647599704646"><ele>75.0</ele><time>2026-04-26T13:35:00.055Z</time></trkpt><trkpt lat="39.943041694640634" lon="18.16337541807054"><ele>74.5</ele><time>2026-04-26T13:35:01.055Z</time></trkpt><trkpt lat="39.94317824544202" lon="18.163093992084583"><ele>74.0</ele><time>2026-04-26T13:35:02.055Z</time></trkpt><trkpt lat="39.94330641535804" lon="18.162811884304954"><ele>74.0</ele><time>2026-04-26T13:35:03.055Z</time></trkpt><trkpt lat="39.94343106416519" lon="18.162523764398752"><ele>74.0</ele><time>2026-04-26T13:35:04.055Z</time></trkpt><trkpt lat="39.943551812881694" lon="18.16222960412871"><ele>74.0</ele><time>2026-04-26T13:35:05.055Z</time></trkpt><trkpt lat="39.94366948031499" lon="18.161938676362595"><ele>74.0</ele><time>2026-04-26T13:35:06.055Z</time></trkpt><trkpt lat="39.943781802391904" lon="18.161642599975533"><ele>72.5</ele><time>2026-04-26T13:35:07.055Z</time></trkpt><trkpt lat="39.94389576449577" lon="18.16134482517097"><ele>71.0</ele><time>2026-04-26T13:35:08.055Z</time></trkpt><trkpt lat="39.9440054891975" lon="18.161053011658304"><ele>71.0</ele><time>2026-04-26T13:35:09.055Z</time></trkpt><trkpt lat="39.9441210132553" lon="18.160758694890905"><ele>71.0</ele><time>2026-04-26T13:35:10.055Z</time></trkpt><trkpt lat="39.9442325944148" lon="18.16046410541167"><ele>69.5</ele><time>2026-04-26T13:35:11.055Z</time></trkpt><trkpt lat="39.94434499001603" lon="18.160173681882657"><ele>68.0</ele><time>2026-04-26T13:35:12.055Z</time></trkpt><trkpt lat="39.94445786996891" lon="18.159880254976088"><ele>68.5</ele><time>2026-04-26T13:35:13.055Z</time></trkpt><trkpt lat="39.944567001649055" lon="18.159586294406438"><ele>69.0</ele><time>2026-04-26T13:35:14.055Z</time></trkpt><trkpt lat="39.94467884442213" lon="18.15928508151148"><ele>69.5</ele><time>2026-04-26T13:35:15.055Z</time></trkpt><trkpt lat="39.94479274427792" lon="18.15898853424435"><ele>70.0</ele><time>2026-04-26T13:35:16.055Z</time></trkpt><trkpt lat="39.94490983991478" lon="18.15870435959753"><ele>70.0</ele><time>2026-04-26T13:35:17.055Z</time></trkpt><trkpt lat="39.94502372433207" lon="18.15841058065325"><ele>70.0</ele><time>2026-04-26T13:35:18.055Z</time></trkpt><trkpt lat="39.94513882902376" lon="18.15810531312892"><ele>68.0</ele><time>2026-04-26T13:35:19.055Z</time></trkpt><trkpt lat="39.94525369359389" lon="18.157809156700743"><ele>66.0</ele><time>2026-04-26T13:35:20.055Z</time></trkpt><trkpt lat="39.94536891422626" lon="18.157515514388855"><ele>66.0</ele><time>2026-04-26T13:35:21.055Z</time></trkpt><trkpt lat="39.94547966224654" lon="18.15721790819161"><ele>66.0</ele><time>2026-04-26T13:35:22.055Z</time></trkpt><trkpt lat="39.94559716656942" lon="18.156925034298087"><ele>66.0</ele><time>2026-04-26T13:35:23.055Z</time></trkpt><trkpt lat="39.94571233330245" lon="18.15662983764004"><ele>66.0</ele><time>2026-04-26T13:35:24.055Z</time></trkpt><trkpt lat="39.945826206676585" lon="18.15634094549132"><ele>66.5</ele><time>2026-04-26T13:35:25.055Z</time></trkpt><trkpt lat="39.94593960858649" lon="18.156046970658362"><ele>67.0</ele><time>2026-04-26T13:35:26.055Z</time></trkpt><trkpt lat="39.946052093915675" lon="18.155752936360145"><ele>67.0</ele><time>2026-04-26T13:35:27.055Z</time></trkpt><trkpt lat="39.94616629647309" lon="18.15545516818147"><ele>67.0</ele><time>2026-04-26T13:35:28.055Z</time></trkpt><trkpt lat="39.94627926154531" lon="18.155159066512514"><ele>66.5</ele><time>2026-04-26T13:35:29.055Z</time></trkpt><trkpt lat="39.946391542838434" lon="18.15486459039007"><ele>66.0</ele><time>2026-04-26T13:35:30.055Z</time></trkpt><trkpt lat="39.946503985369496" lon="18.154572176540327"><ele>66.0</ele><time>2026-04-26T13:35:31.055Z</time></trkpt><trkpt lat="39.94661720980714" lon="18.154282964726953"><ele>66.0</ele><time>2026-04-26T13:35:32.055Z</time></trkpt><trkpt lat="39.94673690483754" lon="18.153987231220704"><ele>65.5</ele><time>2026-04-26T13:35:33.055Z</time></trkpt><trkpt lat="39.946853422881254" lon="18.15368847482392"><ele>65.0</ele><time>2026-04-26T13:35:34.055Z</time></trkpt><trkpt lat="39.94696614534482" lon="18.153393556374844"><ele>65.5</ele><time>2026-04-26T13:35:35.055Z</time></trkpt><trkpt lat="39.94707774884352" lon="18.15309490185219"><ele>66.0</ele><time>2026-04-26T13:35:36.055Z</time></trkpt><trkpt lat="39.94718935467944" lon="18.15279866252633"><ele>66.0</ele><time>2026-04-26T13:35:37.055Z</time></trkpt><trkpt lat="39.94729979627651" lon="18.1525040262255"><ele>66.0</ele><time>2026-04-26T13:35:38.055Z</time></trkpt><trkpt lat="39.947405087883666" lon="18.152202488932076"><ele>65.0</ele><time>2026-04-26T13:35:39.055Z</time></trkpt><trkpt lat="39.94751088691617" lon="18.15189865749236"><ele>64.0</ele><time>2026-04-26T13:35:40.055Z</time></trkpt><trkpt lat="39.94761856946723" lon="18.15160476810884"><ele>63.0</ele><time>2026-04-26T13:35:41.055Z</time></trkpt><trkpt lat="39.947734136524154" lon="18.151315285635416"><ele>62.0</ele><time>2026-04-26T13:35:42.055Z</time></trkpt><trkpt lat="39.94785122018297" lon="18.151014346644956"><ele>62.0</ele><time>2026-04-26T13:35:43.055Z</time></trkpt><trkpt lat="39.94796873879663" lon="18.150732868204283"><ele>62.0</ele><time>2026-04-26T13:35:44.055Z</time></trkpt><trkpt lat="39.948090758017734" lon="18.15044398880769"><ele>61.0</ele><time>2026-04-26T13:35:45.055Z</time></trkpt><trkpt lat="39.948213042097635" lon="18.15015218113279"><ele>60.0</ele><time>2026-04-26T13:35:46.055Z</time></trkpt><trkpt lat="39.94833108703437" lon="18.149858757703562"><ele>59.5</ele><time>2026-04-26T13:35:47.055Z</time></trkpt><trkpt lat="39.94844180983806" lon="18.149562045865405"><ele>59.0</ele><time>2026-04-26T13:35:48.055Z</time></trkpt><trkpt lat="39.948552839558474" lon="18.14926692190044"><ele>58.5</ele><time>2026-04-26T13:35:49.055Z</time></trkpt><trkpt lat="39.948668043688166" lon="18.14897809432102"><ele>58.0</ele><time>2026-04-26T13:35:50.055Z</time></trkpt><trkpt lat="39.94878496907777" lon="18.14868359920325"><ele>58.0</ele><time>2026-04-26T13:35:51.055Z</time></trkpt><trkpt lat="39.9489040144623" lon="18.148392986056475"><ele>58.0</ele><time>2026-04-26T13:35:52.055Z</time></trkpt><trkpt lat="39.94901746880671" lon="18.148098745017506"><ele>58.0</ele><time>2026-04-26T13:35:53.055Z</time></trkpt><trkpt lat="39.94913402250579" lon="18.147805636749883"><ele>58.0</ele><time>2026-04-26T13:35:54.055Z</time></trkpt><trkpt lat="39.94924788114258" lon="18.14751106533132"><ele>57.5</ele><time>2026-04-26T13:35:55.055Z</time></trkpt><trkpt lat="39.949360802209156" lon="18.14721399985209"><ele>57.0</ele><time>2026-04-26T13:35:56.055Z</time></trkpt><trkpt lat="39.94947391622166" lon="18.146921958566665"><ele>57.0</ele><time>2026-04-26T13:35:57.054Z</time></trkpt><trkpt lat="39.94958760735609" lon="18.146626814188245"><ele>57.0</ele><time>2026-04-26T13:35:58.054Z</time></trkpt><trkpt lat="39.94970202026129" lon="18.14633551532459"><ele>57.0</ele><time>2026-04-26T13:35:59.055Z</time></trkpt><trkpt lat="39.94981317218243" lon="18.146041015108484"><ele>57.0</ele><time>2026-04-26T13:36:00.054Z</time></trkpt><trkpt lat="39.949926293029556" lon="18.14574822238859"><ele>56.0</ele><time>2026-04-26T13:36:01.054Z</time></trkpt><trkpt lat="39.95004042856007" lon="18.145453708802805"><ele>55.0</ele><time>2026-04-26T13:36:02.055Z</time></trkpt><trkpt lat="39.950154247031556" lon="18.14516168138327"><ele>54.5</ele><time>2026-04-26T13:36:03.054Z</time></trkpt><trkpt lat="39.95026953832516" lon="18.144866327130423"><ele>54.0</ele><time>2026-04-26T13:36:04.054Z</time></trkpt><trkpt lat="39.95038781297529" lon="18.144572213661156"><ele>54.0</ele><time>2026-04-26T13:36:05.055Z</time></trkpt><trkpt lat="39.950502272644734" lon="18.144278346873197"><ele>54.0</ele><time>2026-04-26T13:36:06.054Z</time></trkpt><trkpt lat="39.95061038730584" lon="18.143984513008167"><ele>54.0</ele><time>2026-04-26T13:36:07.054Z</time></trkpt><trkpt lat="39.950724233139454" lon="18.143690676147127"><ele>54.0</ele><time>2026-04-26T13:36:08.055Z</time></trkpt><trkpt lat="39.950833936332465" lon="18.14339793462648"><ele>53.5</ele><time>2026-04-26T13:36:09.054Z</time></trkpt><trkpt lat="39.95094544885957" lon="18.143102626331483"><ele>53.0</ele><time>2026-04-26T13:36:10.054Z</time></trkpt><trkpt lat="39.95105917782325" lon="18.142808110128428"><ele>53.0</ele><time>2026-04-26T13:36:11.054Z</time></trkpt><trkpt lat="39.951174540263914" lon="18.142513957442407"><ele>53.0</ele><time>2026-04-26T13:36:12.054Z</time></trkpt><trkpt lat="39.95128922885334" lon="18.142214440418066"><ele>53.0</ele><time>2026-04-26T13:36:13.054Z</time></trkpt><trkpt lat="39.95140754071188" lon="18.141923026228575"><ele>53.0</ele><time>2026-04-26T13:36:14.054Z</time></trkpt><trkpt lat="39.951522196119" lon="18.14163445211891"><ele>52.5</ele><time>2026-04-26T13:36:15.054Z</time></trkpt><trkpt lat="39.95163627214591" lon="18.14134473654721"><ele>52.0</ele><time>2026-04-26T13:36:16.054Z</time></trkpt><trkpt lat="39.95174813535398" lon="18.14105044051454"><ele>51.5</ele><time>2026-04-26T13:36:17.054Z</time></trkpt><trkpt lat="39.951865065279975" lon="18.140754222334355"><ele>51.0</ele><time>2026-04-26T13:36:18.054Z</time></trkpt><trkpt lat="39.951976304423425" lon="18.14046404863153"><ele>51.0</ele><time>2026-04-26T13:36:19.054Z</time></trkpt><trkpt lat="39.95209581738862" lon="18.1401735534511"><ele>51.0</ele><time>2026-04-26T13:36:20.054Z</time></trkpt><trkpt lat="39.952208725776195" lon="18.139881547960254"><ele>51.0</ele><time>2026-04-26T13:36:21.054Z</time></trkpt><trkpt lat="39.95232044807639" lon="18.139583574441446"><ele>51.0</ele><time>2026-04-26T13:36:22.054Z</time></trkpt><trkpt lat="39.95243179443625" lon="18.13928783602467"><ele>51.0</ele><time>2026-04-26T13:36:23.054Z</time></trkpt><trkpt lat="39.952548790003206" lon="18.138993981352534"><ele>51.0</ele><time>2026-04-26T13:36:24.054Z</time></trkpt><trkpt lat="39.95266097035822" lon="18.138696693427832"><ele>51.0</ele><time>2026-04-26T13:36:25.054Z</time></trkpt><trkpt lat="39.95276893100548" lon="18.138404913693165"><ele>51.0</ele><time>2026-04-26T13:36:26.054Z</time></trkpt><trkpt lat="39.9528821323473" lon="18.138112229742802"><ele>51.0</ele><time>2026-04-26T13:36:27.054Z</time></trkpt><trkpt lat="39.952999303230825" lon="18.1378163987326"><ele>51.0</ele><time>2026-04-26T13:36:28.054Z</time></trkpt><trkpt lat="39.953116692447296" lon="18.13752457063891"><ele>51.0</ele><time>2026-04-26T13:36:29.054Z</time></trkpt><trkpt lat="39.95323042029378" lon="18.137236301654607"><ele>51.0</ele><time>2026-04-26T13:36:30.054Z</time></trkpt><trkpt lat="39.95334551912467" lon="18.136941092134098"><ele>50.5</ele><time>2026-04-26T13:36:31.054Z</time></trkpt><trkpt lat="39.9534597259632" lon="18.136644709721715"><ele>50.0</ele><time>2026-04-26T13:36:32.054Z</time></trkpt><trkpt lat="39.95357313218674" lon="18.136350945090555"><ele>50.0</ele><time>2026-04-26T13:36:33.054Z</time></trkpt><trkpt lat="39.95369079507158" lon="18.136058815420963"><ele>50.0</ele><time>2026-04-26T13:36:34.054Z</time></trkpt><trkpt lat="39.95380856537404" lon="18.135764660813013"><ele>50.5</ele><time>2026-04-26T13:36:35.054Z</time></trkpt><trkpt lat="39.953922162401355" lon="18.135477616840785"><ele>51.0</ele><time>2026-04-26T13:36:36.054Z</time></trkpt><trkpt lat="39.954034597660126" lon="18.135181365268647"><ele>51.0</ele><time>2026-04-26T13:36:37.054Z</time></trkpt><trkpt lat="39.95414110925926" lon="18.13488373544705"><ele>51.0</ele><time>2026-04-26T13:36:38.054Z</time></trkpt><trkpt lat="39.95425700648494" lon="18.13459011679057"><ele>51.0</ele><time>2026-04-26T13:36:39.054Z</time></trkpt><trkpt lat="39.954367510156" lon="18.134296639473554"><ele>51.0</ele><time>2026-04-26T13:36:40.054Z</time></trkpt><trkpt lat="39.95448486045944" lon="18.133998613151864"><ele>52.5</ele><time>2026-04-26T13:36:41.054Z</time></trkpt><trkpt lat="39.95460110449564" lon="18.13370613102248"><ele>54.0</ele><time>2026-04-26T13:36:42.054Z</time></trkpt><trkpt lat="39.9547155860585" lon="18.133407016107785"><ele>54.0</ele><time>2026-04-26T13:36:43.054Z</time></trkpt><trkpt lat="39.95482763784866" lon="18.13311868860397"><ele>54.0</ele><time>2026-04-26T13:36:44.054Z</time></trkpt><trkpt lat="39.95494192281999" lon="18.132823984010766"><ele>54.5</ele><time>2026-04-26T13:36:45.054Z</time></trkpt><trkpt lat="39.95505253963094" lon="18.13252973989785"><ele>55.0</ele><time>2026-04-26T13:36:46.054Z</time></trkpt><trkpt lat="39.95516433706712" lon="18.132231490552808"><ele>55.0</ele><time>2026-04-26T13:36:47.054Z</time></trkpt><trkpt lat="39.95527786567841" lon="18.13193919549065"><ele>55.0</ele><time>2026-04-26T13:36:48.054Z</time></trkpt><trkpt lat="39.95539168631519" lon="18.131645687961704"><ele>54.5</ele><time>2026-04-26T13:36:49.054Z</time></trkpt><trkpt lat="39.95550503163925" lon="18.13135455919376"><ele>54.0</ele><time>2026-04-26T13:36:50.054Z</time></trkpt><trkpt lat="39.955620113649466" lon="18.131062019912203"><ele>54.0</ele><time>2026-04-26T13:36:51.054Z</time></trkpt><trkpt lat="39.95573219707437" lon="18.130768351920352"><ele>54.0</ele><time>2026-04-26T13:36:52.054Z</time></trkpt><trkpt lat="39.95584918289455" lon="18.13047870117833"><ele>53.5</ele><time>2026-04-26T13:36:53.054Z</time></trkpt><trkpt lat="39.95596229961156" lon="18.130182369116127"><ele>53.0</ele><time>2026-04-26T13:36:54.054Z</time></trkpt><trkpt lat="39.956075970356956" lon="18.12988753903338"><ele>53.0</ele><time>2026-04-26T13:36:55.054Z</time></trkpt><trkpt lat="39.95619344193456" lon="18.129596939923555"><ele>53.0</ele><time>2026-04-26T13:36:56.054Z</time></trkpt><trkpt lat="39.95631052567808" lon="18.129303875075973"><ele>52.5</ele><time>2026-04-26T13:36:57.054Z</time></trkpt><trkpt lat="39.956421851624285" lon="18.129008584392995"><ele>52.0</ele><time>2026-04-26T13:36:58.054Z</time></trkpt><trkpt lat="39.956540697721415" lon="18.128708728323375"><ele>52.0</ele><time>2026-04-26T13:36:59.054Z</time></trkpt><trkpt lat="39.956655226175954" lon="18.128416616528476"><ele>52.0</ele><time>2026-04-26T13:37:00.054Z</time></trkpt><trkpt lat="39.95676803491985" lon="18.128125207276707"><ele>51.5</ele><time>2026-04-26T13:37:01.054Z</time></trkpt><trkpt lat="39.956878218447876" lon="18.12783235108331"><ele>51.0</ele><time>2026-04-26T13:37:02.054Z</time></trkpt><trkpt lat="39.95699256327205" lon="18.127539451068156"><ele>50.5</ele><time>2026-04-26T13:37:03.054Z</time></trkpt><trkpt lat="39.95710512004945" lon="18.12724496804567"><ele>50.0</ele><time>2026-04-26T13:37:04.054Z</time></trkpt><trkpt lat="39.957220830883465" lon="18.126951880253817"><ele>50.0</ele><time>2026-04-26T13:37:05.054Z</time></trkpt><trkpt lat="39.95733533286611" lon="18.126654947180594"><ele>50.0</ele><time>2026-04-26T13:37:06.054Z</time></trkpt><trkpt lat="39.95744795640291" lon="18.126363144174636"><ele>49.5</ele><time>2026-04-26T13:37:07.054Z</time></trkpt><trkpt lat="39.95756184945043" lon="18.126065718308812"><ele>49.0</ele><time>2026-04-26T13:37:08.054Z</time></trkpt><trkpt lat="39.957674226701684" lon="18.12577088453321"><ele>49.5</ele><time>2026-04-26T13:37:09.054Z</time></trkpt><trkpt lat="39.957788258624504" lon="18.125480341144847"><ele>50.0</ele><time>2026-04-26T13:37:10.054Z</time></trkpt><trkpt lat="39.957902192457595" lon="18.125186265232657"><ele>50.0</ele><time>2026-04-26T13:37:11.054Z</time></trkpt><trkpt lat="39.95801608356746" lon="18.124890134694464"><ele>50.0</ele><time>2026-04-26T13:37:12.054Z</time></trkpt><trkpt lat="39.958131467291366" lon="18.124595400562416"><ele>50.0</ele><time>2026-04-26T13:37:13.054Z</time></trkpt><trkpt lat="39.958243827582315" lon="18.12429961334496"><ele>50.0</ele><time>2026-04-26T13:37:14.054Z</time></trkpt><trkpt lat="39.95835326678308" lon="18.124006816425215"><ele>48.5</ele><time>2026-04-26T13:37:15.054Z</time></trkpt><trkpt lat="39.95846884058675" lon="18.123716289768975"><ele>47.0</ele><time>2026-04-26T13:37:16.054Z</time></trkpt><trkpt lat="39.95858545315988" lon="18.123425778445593"><ele>47.0</ele><time>2026-04-26T13:37:17.054Z</time></trkpt><trkpt lat="39.958701744553174" lon="18.1231286590894"><ele>47.0</ele><time>2026-04-26T13:37:18.054Z</time></trkpt><trkpt lat="39.958815485093346" lon="18.122833897876458"><ele>47.0</ele><time>2026-04-26T13:37:19.054Z</time></trkpt><trkpt lat="39.95892628103558" lon="18.12254017576997"><ele>47.0</ele><time>2026-04-26T13:37:20.054Z</time></trkpt><trkpt lat="39.95903754285858" lon="18.12224616190235"><ele>47.5</ele><time>2026-04-26T13:37:21.054Z</time></trkpt><trkpt lat="39.95915074271153" lon="18.12195188447001"><ele>48.0</ele><time>2026-04-26T13:37:22.054Z</time></trkpt><trkpt lat="39.959261019749995" lon="18.12165306271361"><ele>47.5</ele><time>2026-04-26T13:37:23.054Z</time></trkpt><trkpt lat="39.959371112407034" lon="18.12135162585645"><ele>47.0</ele><time>2026-04-26T13:37:24.054Z</time></trkpt><trkpt lat="39.959486875896495" lon="18.12105974966701"><ele>47.0</ele><time>2026-04-26T13:37:25.054Z</time></trkpt><trkpt lat="39.95960429130401" lon="18.120766101215782"><ele>47.0</ele><time>2026-04-26T13:37:26.054Z</time></trkpt><trkpt lat="39.9597173186241" lon="18.120472944924153"><ele>47.0</ele><time>2026-04-26T13:37:27.054Z</time></trkpt><trkpt lat="39.959838226876556" lon="18.120181538261157"><ele>47.0</ele><time>2026-04-26T13:37:28.054Z</time></trkpt><trkpt lat="39.959954503682525" lon="18.119889616665734"><ele>47.5</ele><time>2026-04-26T13:37:29.054Z</time></trkpt><trkpt lat="39.960073875716034" lon="18.119594699325635"><ele>48.0</ele><time>2026-04-26T13:37:30.054Z</time></trkpt><trkpt lat="39.96019429869672" lon="18.11930729324304"><ele>48.0</ele><time>2026-04-26T13:37:31.054Z</time></trkpt><trkpt lat="39.96032003786811" lon="18.119021852738264"><ele>48.0</ele><time>2026-04-26T13:37:32.054Z</time></trkpt><trkpt lat="39.96045408041312" lon="18.11874320068678"><ele>48.0</ele><time>2026-04-26T13:37:33.054Z</time></trkpt><trkpt lat="39.96059211266324" lon="18.118465188770315"><ele>48.0</ele><time>2026-04-26T13:37:34.054Z</time></trkpt><trkpt lat="39.96073495638698" lon="18.118195595583607"><ele>47.5</ele><time>2026-04-26T13:37:35.054Z</time></trkpt><trkpt lat="39.96088528116555" lon="18.117930335485273"><ele>47.0</ele><time>2026-04-26T13:37:36.054Z</time></trkpt><trkpt lat="39.961043516719236" lon="18.11767567870379"><ele>47.0</ele><time>2026-04-26T13:37:37.054Z</time></trkpt><trkpt lat="39.96120770212932" lon="18.117424167592215"><ele>47.0</ele><time>2026-04-26T13:37:38.054Z</time></trkpt><trkpt lat="39.96137858924174" lon="18.11717339265843"><ele>46.5</ele><time>2026-04-26T13:37:39.054Z</time></trkpt><trkpt lat="39.961553371820145" lon="18.116930102491654"><ele>46.0</ele><time>2026-04-26T13:37:40.054Z</time></trkpt><trkpt lat="39.961730003917204" lon="18.116694062866593"><ele>47.5</ele><time>2026-04-26T13:37:41.054Z</time></trkpt><trkpt lat="39.96190873785231" lon="18.116466540069307"><ele>49.0</ele><time>2026-04-26T13:37:42.054Z</time></trkpt><trkpt lat="39.96209104947307" lon="18.11624492534457"><ele>49.0</ele><time>2026-04-26T13:37:43.054Z</time></trkpt><trkpt lat="39.962282435640894" lon="18.11602852455259"><ele>49.0</ele><time>2026-04-26T13:37:44.054Z</time></trkpt><trkpt lat="39.96247898265276" lon="18.115818275028225"><ele>49.0</ele><time>2026-04-26T13:37:45.054Z</time></trkpt><trkpt lat="39.962681579368194" lon="18.115617781111016"><ele>49.0</ele><time>2026-04-26T13:37:46.054Z</time></trkpt><trkpt lat="39.96288496720541" lon="18.11542080842764"><ele>49.0</ele><time>2026-04-26T13:37:47.054Z</time></trkpt><trkpt lat="39.96309318229349" lon="18.11523262116606"><ele>49.0</ele><time>2026-04-26T13:37:48.054Z</time></trkpt><trkpt lat="39.963305539747964" lon="18.11504966746794"><ele>51.0</ele><time>2026-04-26T13:37:49.054Z</time></trkpt><trkpt lat="39.96352364382869" lon="18.11487649192707"><ele>53.0</ele><time>2026-04-26T13:37:50.054Z</time></trkpt><trkpt lat="39.96373864546354" lon="18.114713996532398"><ele>53.0</ele><time>2026-04-26T13:37:51.054Z</time></trkpt><trkpt lat="39.96395294947647" lon="18.114556509796156"><ele>53.0</ele><time>2026-04-26T13:37:52.054Z</time></trkpt><trkpt lat="39.96417660324681" lon="18.1144067068454"><ele>52.5</ele><time>2026-04-26T13:37:53.054Z</time></trkpt><trkpt lat="39.964401502481216" lon="18.114264857693527"><ele>52.0</ele><time>2026-04-26T13:37:54.054Z</time></trkpt><trkpt lat="39.96463017627962" lon="18.114130191154622"><ele>52.0</ele><time>2026-04-26T13:37:55.054Z</time></trkpt><trkpt lat="39.9648631469741" lon="18.113999421385465"><ele>52.0</ele><time>2026-04-26T13:37:56.054Z</time></trkpt><trkpt lat="39.96509818714911" lon="18.113870842245824"><ele>51.0</ele><time>2026-04-26T13:37:57.054Z</time></trkpt><trkpt lat="39.96533416071277" lon="18.1137423603743"><ele>50.0</ele><time>2026-04-26T13:37:58.054Z</time></trkpt><trkpt lat="39.96557000490616" lon="18.113613083338954"><ele>50.0</ele><time>2026-04-26T13:37:59.054Z</time></trkpt><trkpt lat="39.96580579866619" lon="18.1134820025864"><ele>50.0</ele><time>2026-04-26T13:38:00.054Z</time></trkpt><trkpt lat="39.96604089261215" lon="18.113352549835017"><ele>49.5</ele><time>2026-04-26T13:38:01.054Z</time></trkpt><trkpt lat="39.96627523659349" lon="18.113226228040382"><ele>49.0</ele><time>2026-04-26T13:38:02.054Z</time></trkpt><trkpt lat="39.966508191509604" lon="18.113096094154056"><ele>50.0</ele><time>2026-04-26T13:38:03.054Z</time></trkpt><trkpt lat="39.96674024153087" lon="18.112966048733288"><ele>51.0</ele><time>2026-04-26T13:38:04.054Z</time></trkpt><trkpt lat="39.96697239474908" lon="18.112837374470793"><ele>51.0</ele><time>2026-04-26T13:38:05.054Z</time></trkpt><trkpt lat="39.96720538778241" lon="18.11270911898437"><ele>51.0</ele><time>2026-04-26T13:38:06.054Z</time></trkpt><trkpt lat="39.96743826541531" lon="18.112580187279928"><ele>50.0</ele><time>2026-04-26T13:38:07.054Z</time></trkpt><trkpt lat="39.967670148836746" lon="18.112453096686956"><ele>49.0</ele><time>2026-04-26T13:38:08.054Z</time></trkpt><trkpt lat="39.96790209498316" lon="18.112324396222625"><ele>49.0</ele><time>2026-04-26T13:38:09.054Z</time></trkpt><trkpt lat="39.968133386999" lon="18.112197847208886"><ele>49.0</ele><time>2026-04-26T13:38:10.054Z</time></trkpt><trkpt lat="39.96836556433381" lon="18.11207110700164"><ele>49.5</ele><time>2026-04-26T13:38:11.054Z</time></trkpt><trkpt lat="39.96859764444057" lon="18.111941943301087"><ele>50.0</ele><time>2026-04-26T13:38:12.053Z</time></trkpt><trkpt lat="39.968829373654074" lon="18.11181385537609"><ele>50.0</ele><time>2026-04-26T13:38:13.053Z</time></trkpt><trkpt lat="39.96906002720542" lon="18.11168519691618"><ele>50.0</ele><time>2026-04-26T13:38:14.054Z</time></trkpt><trkpt lat="39.96929399334131" lon="18.111554104636358"><ele>50.0</ele><time>2026-04-26T13:38:15.054Z</time></trkpt><trkpt lat="39.96952896009817" lon="18.11142188888833"><ele>50.0</ele><time>2026-04-26T13:38:16.054Z</time></trkpt><trkpt lat="39.969763815745296" lon="18.11128968187532"><ele>50.0</ele><time>2026-04-26T13:38:17.054Z</time></trkpt><trkpt lat="39.96999852832276" lon="18.11115745189258"><ele>50.0</ele><time>2026-04-26T13:38:18.054Z</time></trkpt><trkpt lat="39.97023347023216" lon="18.11102559641929"><ele>50.0</ele><time>2026-04-26T13:38:19.054Z</time></trkpt><trkpt lat="39.97046435374181" lon="18.11089760182795"><ele>50.0</ele><time>2026-04-26T13:38:20.054Z</time></trkpt><trkpt lat="39.97069798944174" lon="18.11076867173295"><ele>49.5</ele><time>2026-04-26T13:38:21.054Z</time></trkpt><trkpt lat="39.97092713889951" lon="18.11063838400694"><ele>49.0</ele><time>2026-04-26T13:38:22.054Z</time></trkpt><trkpt lat="39.97116148692964" lon="18.110506340800104"><ele>49.0</ele><time>2026-04-26T13:38:23.054Z</time></trkpt><trkpt lat="39.97139385230996" lon="18.110377013064223"><ele>49.0</ele><time>2026-04-26T13:38:24.054Z</time></trkpt><trkpt lat="39.971627975939775" lon="18.11024805045821"><ele>49.0</ele><time>2026-04-26T13:38:25.054Z</time></trkpt><trkpt lat="39.9718598921249" lon="18.1101224712348"><ele>49.0</ele><time>2026-04-26T13:38:26.054Z</time></trkpt><trkpt lat="39.97208780921961" lon="18.109996958336286"><ele>49.0</ele><time>2026-04-26T13:38:27.054Z</time></trkpt><trkpt lat="39.972315947824974" lon="18.109869165500864"><ele>49.0</ele><time>2026-04-26T13:38:28.054Z</time></trkpt><trkpt lat="39.972545759950364" lon="18.109739751871754"><ele>49.0</ele><time>2026-04-26T13:38:29.054Z</time></trkpt><trkpt lat="39.972777467080284" lon="18.109608012015805"><ele>49.0</ele><time>2026-04-26T13:38:30.054Z</time></trkpt><trkpt lat="39.9730116393391" lon="18.109475560489507"><ele>49.0</ele><time>2026-04-26T13:38:31.054Z</time></trkpt><trkpt lat="39.97324378862438" lon="18.109342233792887"><ele>49.0</ele><time>2026-04-26T13:38:32.054Z</time></trkpt><trkpt lat="39.97347594649028" lon="18.10921067482982"><ele>49.0</ele><time>2026-04-26T13:38:33.054Z</time></trkpt><trkpt lat="39.973710651193024" lon="18.109077565759875"><ele>49.0</ele><time>2026-04-26T13:38:34.054Z</time></trkpt><trkpt lat="39.97394606886233" lon="18.108946541925615"><ele>49.5</ele><time>2026-04-26T13:38:35.054Z</time></trkpt><trkpt lat="39.97418042431329" lon="18.10881633394614"><ele>50.0</ele><time>2026-04-26T13:38:36.054Z</time></trkpt><trkpt lat="39.97441423537573" lon="18.108686708854712"><ele>50.0</ele><time>2026-04-26T13:38:37.054Z</time></trkpt><trkpt lat="39.974648119534436" lon="18.108556089450595"><ele>50.0</ele><time>2026-04-26T13:38:38.054Z</time></trkpt><trkpt lat="39.97488415554632" lon="18.108426187425053"><ele>49.0</ele><time>2026-04-26T13:38:39.054Z</time></trkpt><trkpt lat="39.97511642995627" lon="18.108298624600092"><ele>48.0</ele><time>2026-04-26T13:38:40.054Z</time></trkpt><trkpt lat="39.9753483882589" lon="18.108170382590345"><ele>47.0</ele><time>2026-04-26T13:38:41.054Z</time></trkpt><trkpt lat="39.975580299415725" lon="18.108041817652328"><ele>46.0</ele><time>2026-04-26T13:38:42.054Z</time></trkpt><trkpt lat="39.975812729346934" lon="18.1079134796516"><ele>48.5</ele><time>2026-04-26T13:38:43.054Z</time></trkpt><trkpt lat="39.97604595481202" lon="18.107783417319776"><ele>51.0</ele><time>2026-04-26T13:38:44.054Z</time></trkpt><trkpt lat="39.9762796261825" lon="18.107655423716004"><ele>51.0</ele><time>2026-04-26T13:38:45.054Z</time></trkpt><trkpt lat="39.976511595394385" lon="18.107529958311392"><ele>51.0</ele><time>2026-04-26T13:38:46.054Z</time></trkpt><trkpt lat="39.97674426810349" lon="18.10740744615711"><ele>50.5</ele><time>2026-04-26T13:38:47.054Z</time></trkpt><trkpt lat="39.976976735995315" lon="18.107283082817524"><ele>50.0</ele><time>2026-04-26T13:38:48.054Z</time></trkpt><trkpt lat="39.97721123123109" lon="18.10715928046845"><ele>50.0</ele><time>2026-04-26T13:38:49.054Z</time></trkpt><trkpt lat="39.97744195202707" lon="18.107031066838477"><ele>50.0</ele><time>2026-04-26T13:38:50.054Z</time></trkpt><trkpt lat="39.977673777961925" lon="18.10689886542767"><ele>49.5</ele><time>2026-04-26T13:38:51.054Z</time></trkpt><trkpt lat="39.977903301335154" lon="18.106764924285876"><ele>49.0</ele><time>2026-04-26T13:38:52.054Z</time></trkpt><trkpt lat="39.978133422930604" lon="18.106629391688582"><ele>48.5</ele><time>2026-04-26T13:38:53.054Z</time></trkpt><trkpt lat="39.97836711336609" lon="18.106494088823236"><ele>48.0</ele><time>2026-04-26T13:38:54.054Z</time></trkpt><trkpt lat="39.9786000391038" lon="18.106363216911973"><ele>48.0</ele><time>2026-04-26T13:38:55.054Z</time></trkpt><trkpt lat="39.978832105310694" lon="18.106234501544712"><ele>48.0</ele><time>2026-04-26T13:38:56.054Z</time></trkpt><trkpt lat="39.97906696598234" lon="18.106108820035015"><ele>48.0</ele><time>2026-04-26T13:38:57.054Z</time></trkpt><trkpt lat="39.97929931575806" lon="18.10598219850862"><ele>48.0</ele><time>2026-04-26T13:38:58.054Z</time></trkpt><trkpt lat="39.97953208302845" lon="18.105850530966247"><ele>48.5</ele><time>2026-04-26T13:38:59.054Z</time></trkpt><trkpt lat="39.97976513828945" lon="18.105719829933996"><ele>49.0</ele><time>2026-04-26T13:39:00.054Z</time></trkpt><trkpt lat="39.97999372850475" lon="18.105588999929545"><ele>49.0</ele><time>2026-04-26T13:39:01.054Z</time></trkpt><trkpt lat="39.98022328211987" lon="18.10546025843423"><ele>49.0</ele><time>2026-04-26T13:39:02.054Z</time></trkpt><trkpt lat="39.98046096085814" lon="18.105337215504235"><ele>49.0</ele><time>2026-04-26T13:39:03.054Z</time></trkpt><trkpt lat="39.98069731416492" lon="18.105213898232773"><ele>49.0</ele><time>2026-04-26T13:39:04.054Z</time></trkpt><trkpt lat="39.980932256117924" lon="18.105087237702293"><ele>48.5</ele><time>2026-04-26T13:39:05.054Z</time></trkpt><trkpt lat="39.98116869074017" lon="18.104959548830465"><ele>48.0</ele><time>2026-04-26T13:39:06.054Z</time></trkpt><trkpt lat="39.981406615731146" lon="18.10483428590386"><ele>47.5</ele><time>2026-04-26T13:39:07.054Z</time></trkpt><trkpt lat="39.98164191421916" lon="18.10470994987574"><ele>47.0</ele><time>2026-04-26T13:39:08.054Z</time></trkpt><trkpt lat="39.98188028369163" lon="18.104581357313393"><ele>48.5</ele><time>2026-04-26T13:39:09.054Z</time></trkpt><trkpt lat="39.982116043126304" lon="18.10445362438159"><ele>50.0</ele><time>2026-04-26T13:39:10.054Z</time></trkpt><trkpt lat="39.98235152857855" lon="18.10432674229952"><ele>49.0</ele><time>2026-04-26T13:39:11.054Z</time></trkpt><trkpt lat="39.98258839969806" lon="18.104199716041517"><ele>48.0</ele><time>2026-04-26T13:39:12.054Z</time></trkpt><trkpt lat="39.9828209536944" lon="18.10407425710559"><ele>48.0</ele><time>2026-04-26T13:39:13.054Z</time></trkpt><trkpt lat="39.98305590742534" lon="18.10394948970037"><ele>48.0</ele><time>2026-04-26T13:39:14.054Z</time></trkpt><trkpt lat="39.98328900762904" lon="18.103820060474504"><ele>48.0</ele><time>2026-04-26T13:39:15.054Z</time></trkpt><trkpt lat="39.98352102426302" lon="18.10368799431727"><ele>48.0</ele><time>2026-04-26T13:39:16.054Z</time></trkpt><trkpt lat="39.98374990071748" lon="18.10355423494813"><ele>48.0</ele><time>2026-04-26T13:39:17.054Z</time></trkpt><trkpt lat="39.98397979702698" lon="18.103419557562894"><ele>48.0</ele><time>2026-04-26T13:39:18.054Z</time></trkpt><trkpt lat="39.98421246647066" lon="18.103286852051472"><ele>47.5</ele><time>2026-04-26T13:39:19.054Z</time></trkpt><trkpt lat="39.98444660409376" lon="18.103155739297957"><ele>47.0</ele><time>2026-04-26T13:39:20.054Z</time></trkpt><trkpt lat="39.98467877641038" lon="18.103027820401127"><ele>47.0</ele><time>2026-04-26T13:39:21.054Z</time></trkpt><trkpt lat="39.98491094145662" lon="18.10289838631795"><ele>47.0</ele><time>2026-04-26T13:39:22.054Z</time></trkpt><trkpt lat="39.98514431027628" lon="18.102765035863555"><ele>47.0</ele><time>2026-04-26T13:39:23.054Z</time></trkpt><trkpt lat="39.985380248676506" lon="18.102637572969904"><ele>47.0</ele><time>2026-04-26T13:39:24.054Z</time></trkpt><trkpt lat="39.985619250146286" lon="18.102515629848945"><ele>46.5</ele><time>2026-04-26T13:39:25.054Z</time></trkpt><trkpt lat="39.98585875067928" lon="18.10239884670098"><ele>46.0</ele><time>2026-04-26T13:39:26.054Z</time></trkpt><trkpt lat="39.986102592279074" lon="18.102301732268828"><ele>46.0</ele><time>2026-04-26T13:39:27.054Z</time></trkpt><trkpt lat="39.98634716116058" lon="18.102216592645217"><ele>46.0</ele><time>2026-04-26T13:39:28.054Z</time></trkpt><trkpt lat="39.98658932142897" lon="18.1021411168983"><ele>46.5</ele><time>2026-04-26T13:39:29.054Z</time></trkpt><trkpt lat="39.98683371148905" lon="18.10208032754752"><ele>47.0</ele><time>2026-04-26T13:39:30.054Z</time></trkpt><trkpt lat="39.98708048469047" lon="18.10202872843986"><ele>47.0</ele><time>2026-04-26T13:39:31.054Z</time></trkpt><trkpt lat="39.98732619598251" lon="18.10198621623089"><ele>47.0</ele><time>2026-04-26T13:39:32.054Z</time></trkpt><trkpt lat="39.987577894762666" lon="18.10195365086613"><ele>47.5</ele><time>2026-04-26T13:39:33.054Z</time></trkpt><trkpt lat="39.987831024848894" lon="18.101933463093435"><ele>48.0</ele><time>2026-04-26T13:39:34.054Z</time></trkpt><trkpt lat="39.98808303031793" lon="18.1019241504472"><ele>48.0</ele><time>2026-04-26T13:39:35.054Z</time></trkpt><trkpt lat="39.98833402235968" lon="18.10192215927603"><ele>48.0</ele><time>2026-04-26T13:39:36.054Z</time></trkpt><trkpt lat="39.98858566999237" lon="18.10192472386396"><ele>47.0</ele><time>2026-04-26T13:39:37.054Z</time></trkpt><trkpt lat="39.98883561682775" lon="18.101921420536307"><ele>46.0</ele><time>2026-04-26T13:39:38.054Z</time></trkpt><trkpt lat="39.98908559327198" lon="18.101912952066943"><ele>47.0</ele><time>2026-04-26T13:39:39.054Z</time></trkpt><trkpt lat="39.98933855922931" lon="18.101897608187283"><ele>48.0</ele><time>2026-04-26T13:39:40.054Z</time></trkpt><trkpt lat="39.989594216635176" lon="18.10187015168606"><ele>48.0</ele><time>2026-04-26T13:39:41.054Z</time></trkpt><trkpt lat="39.98984804230018" lon="18.1018313566532"><ele>48.0</ele><time>2026-04-26T13:39:42.054Z</time></trkpt><trkpt lat="39.990099168774535" lon="18.10177907082425"><ele>48.0</ele><time>2026-04-26T13:39:43.054Z</time></trkpt><trkpt lat="39.99034707225634" lon="18.10171488428028"><ele>48.0</ele><time>2026-04-26T13:39:44.054Z</time></trkpt><trkpt lat="39.99059414578285" lon="18.101640644645155"><ele>47.5</ele><time>2026-04-26T13:39:45.054Z</time></trkpt><trkpt lat="39.99083824937604" lon="18.101553128622974"><ele>47.0</ele><time>2026-04-26T13:39:46.054Z</time></trkpt><trkpt lat="39.99108021727904" lon="18.101451939535785"><ele>48.0</ele><time>2026-04-26T13:39:47.054Z</time></trkpt><trkpt lat="39.99131515121458" lon="18.101339918695395"><ele>49.0</ele><time>2026-04-26T13:39:48.054Z</time></trkpt><trkpt lat="39.99154869969557" lon="18.101219953661364"><ele>48.5</ele><time>2026-04-26T13:39:49.054Z</time></trkpt><trkpt lat="39.9917760728296" lon="18.101078690831528"><ele>48.0</ele><time>2026-04-26T13:39:50.054Z</time></trkpt><trkpt lat="39.992004313165985" lon="18.1009244479131"><ele>48.0</ele><time>2026-04-26T13:39:51.054Z</time></trkpt><trkpt lat="39.99222951975177" lon="18.100761333534603"><ele>48.0</ele><time>2026-04-26T13:39:52.054Z</time></trkpt><trkpt lat="39.99244839227089" lon="18.100593226521493"><ele>48.0</ele><time>2026-04-26T13:39:53.054Z</time></trkpt><trkpt lat="39.9926614218926" lon="18.100410371086152"><ele>48.0</ele><time>2026-04-26T13:39:54.054Z</time></trkpt><trkpt lat="39.992864314354776" lon="18.100215548231052"><ele>48.0</ele><time>2026-04-26T13:39:55.054Z</time></trkpt><trkpt lat="39.993062932875276" lon="18.100014791368274"><ele>48.0</ele><time>2026-04-26T13:39:56.054Z</time></trkpt><trkpt lat="39.99325803145715" lon="18.09980056634557"><ele>49.5</ele><time>2026-04-26T13:39:57.054Z</time></trkpt><trkpt lat="39.99344859898279" lon="18.09957897014356"><ele>51.0</ele><time>2026-04-26T13:39:58.054Z</time></trkpt><trkpt lat="39.99363462676863" lon="18.099349639245183"><ele>51.0</ele><time>2026-04-26T13:39:59.054Z</time></trkpt><trkpt lat="39.99380952071984" lon="18.099110399791055"><ele>51.0</ele><time>2026-04-26T13:40:00.054Z</time></trkpt><trkpt lat="39.993976278608535" lon="18.09886334714162"><ele>51.5</ele><time>2026-04-26T13:40:01.054Z</time></trkpt><trkpt lat="39.99413003942688" lon="18.098606001762768"><ele>52.0</ele><time>2026-04-26T13:40:02.054Z</time></trkpt><trkpt lat="39.99427870432796" lon="18.09833774414181"><ele>51.0</ele><time>2026-04-26T13:40:03.054Z</time></trkpt><trkpt lat="39.994417992066445" lon="18.098063733552756"><ele>50.0</ele><time>2026-04-26T13:40:04.054Z</time></trkpt><trkpt lat="39.99455085422897" lon="18.097783181400082"><ele>50.0</ele><time>2026-04-26T13:40:05.054Z</time></trkpt><trkpt lat="39.994671969997334" lon="18.09749740470077"><ele>50.0</ele><time>2026-04-26T13:40:06.054Z</time></trkpt><trkpt lat="39.99478844839213" lon="18.097205182200923"><ele>50.5</ele><time>2026-04-26T13:40:07.054Z</time></trkpt><trkpt lat="39.994892167398355" lon="18.096907009964795"><ele>51.0</ele><time>2026-04-26T13:40:08.054Z</time></trkpt><trkpt lat="39.9949924452678" lon="18.096603227842685"><ele>49.0</ele><time>2026-04-26T13:40:09.054Z</time></trkpt><trkpt lat="39.99508347358938" lon="18.096298748030037"><ele>47.0</ele><time>2026-04-26T13:40:10.054Z</time></trkpt><trkpt lat="39.99515892288683" lon="18.095987602040243"><ele>47.0</ele><time>2026-04-26T13:40:11.054Z</time></trkpt><trkpt lat="39.995225325120416" lon="18.095670305881576"><ele>47.0</ele><time>2026-04-26T13:40:12.053Z</time></trkpt><trkpt lat="39.99528793147523" lon="18.095348049148996"><ele>47.0</ele><time>2026-04-26T13:40:13.053Z</time></trkpt><trkpt lat="39.99534745670052" lon="18.095030025073655"><ele>47.0</ele><time>2026-04-26T13:40:14.054Z</time></trkpt><trkpt lat="39.99539814172218" lon="18.09470665780858"><ele>47.0</ele><time>2026-04-26T13:40:15.054Z</time></trkpt><trkpt lat="39.99545335711806" lon="18.094381252774085"><ele>47.0</ele><time>2026-04-26T13:40:16.054Z</time></trkpt><trkpt lat="39.99550688704293" lon="18.09406164883189"><ele>47.0</ele><time>2026-04-26T13:40:17.054Z</time></trkpt><trkpt lat="39.995554715440484" lon="18.09373807138111"><ele>47.0</ele><time>2026-04-26T13:40:18.053Z</time></trkpt><trkpt lat="39.99560561504358" lon="18.093414272176027"><ele>47.5</ele><time>2026-04-26T13:40:19.053Z</time></trkpt><trkpt lat="39.99565892444089" lon="18.09309007602404"><ele>48.0</ele><time>2026-04-26T13:40:20.053Z</time></trkpt><trkpt lat="39.99571227788183" lon="18.09276780952812"><ele>48.0</ele><time>2026-04-26T13:40:21.054Z</time></trkpt><trkpt lat="39.99576498604108" lon="18.092442783235207"><ele>48.0</ele><time>2026-04-26T13:40:22.054Z</time></trkpt><trkpt lat="39.995817061126395" lon="18.092121628682335"><ele>47.5</ele><time>2026-04-26T13:40:23.054Z</time></trkpt><trkpt lat="39.99586730861561" lon="18.091801641317097"><ele>47.0</ele><time>2026-04-26T13:40:24.054Z</time></trkpt><trkpt lat="39.99591897249209" lon="18.09147907384115"><ele>47.0</ele><time>2026-04-26T13:40:25.054Z</time></trkpt><trkpt lat="39.99597091237814" lon="18.091155935279534"><ele>47.0</ele><time>2026-04-26T13:40:26.054Z</time></trkpt><trkpt lat="39.99601993941923" lon="18.090832578566996"><ele>47.0</ele><time>2026-04-26T13:40:27.054Z</time></trkpt><trkpt lat="39.99606932449872" lon="18.09051048353243"><ele>47.0</ele><time>2026-04-26T13:40:28.054Z</time></trkpt><trkpt lat="39.99612115550618" lon="18.09018651492206"><ele>46.5</ele><time>2026-04-26T13:40:29.054Z</time></trkpt><trkpt lat="39.99617219188213" lon="18.089862495112154"><ele>46.0</ele><time>2026-04-26T13:40:30.054Z</time></trkpt><trkpt lat="39.99622477400438" lon="18.08954046282137"><ele>46.0</ele><time>2026-04-26T13:40:31.054Z</time></trkpt><trkpt lat="39.996278382631786" lon="18.089216299225974"><ele>46.0</ele><time>2026-04-26T13:40:32.054Z</time></trkpt><trkpt lat="39.99633077204015" lon="18.08889199209723"><ele>46.0</ele><time>2026-04-26T13:40:33.054Z</time></trkpt><trkpt lat="39.99638462258239" lon="18.088567776345396"><ele>46.0</ele><time>2026-04-26T13:40:34.054Z</time></trkpt><trkpt lat="39.99643789004717" lon="18.088243999360927"><ele>47.0</ele><time>2026-04-26T13:40:35.054Z</time></trkpt><trkpt lat="39.9964899644001" lon="18.087919832155023"><ele>48.0</ele><time>2026-04-26T13:40:36.054Z</time></trkpt><trkpt lat="39.99654153220763" lon="18.087598787935836"><ele>47.5</ele><time>2026-04-26T13:40:37.054Z</time></trkpt><trkpt lat="39.99658892318213" lon="18.087277619869703"><ele>47.0</ele><time>2026-04-26T13:40:38.054Z</time></trkpt><trkpt lat="39.996637847561146" lon="18.086956674123925"><ele>46.5</ele><time>2026-04-26T13:40:39.054Z</time></trkpt><trkpt lat="39.99668828447207" lon="18.08665696784224"><ele>46.0</ele><time>2026-04-26T13:40:40.054Z</time></trkpt><trkpt lat="39.99673499936653" lon="18.086369971739515"><ele>45.66666666666667</ele><time>2026-04-26T13:40:41.054Z</time></trkpt><trkpt lat="39.99677581724945" lon="18.086100262215485"><ele>45.333333333333336</ele><time>2026-04-26T13:40:42.054Z</time></trkpt><trkpt lat="39.99681742238193" lon="18.085839962613505"><ele>45.0</ele><time>2026-04-26T13:40:43.054Z</time></trkpt><trkpt lat="39.99685887386508" lon="18.085591608798403"><ele>45.0</ele><time>2026-04-26T13:40:44.054Z</time></trkpt><trkpt lat="39.99689819693241" lon="18.08535130206524"><ele>45.0</ele><time>2026-04-26T13:40:45.054Z</time></trkpt><trkpt lat="39.996936324994486" lon="18.085113661393034"><ele>45.0</ele><time>2026-04-26T13:40:46.054Z</time></trkpt><trkpt lat="39.9969749236798" lon="18.084871594543507"><ele>45.0</ele><time>2026-04-26T13:40:47.054Z</time></trkpt><trkpt lat="39.997012564648934" lon="18.08461944222652"><ele>45.0</ele><time>2026-04-26T13:40:48.054Z</time></trkpt><trkpt lat="39.99705225266369" lon="18.08435725796791"><ele>45.0</ele><time>2026-04-26T13:40:49.054Z</time></trkpt><trkpt lat="39.99708916285182" lon="18.084084973556298"><ele>45.0</ele><time>2026-04-26T13:40:50.054Z</time></trkpt><trkpt lat="39.99712919111377" lon="18.083799877013966"><ele>45.0</ele><time>2026-04-26T13:40:51.054Z</time></trkpt><trkpt lat="39.9971687629243" lon="18.083509981388158"><ele>45.0</ele><time>2026-04-26T13:40:52.054Z</time></trkpt><trkpt lat="39.997212866705375" lon="18.083222775349466"><ele>45.0</ele><time>2026-04-26T13:40:53.054Z</time></trkpt><trkpt lat="39.99726148553759" lon="18.082933567712796"><ele>45.0</ele><time>2026-04-26T13:40:54.054Z</time></trkpt><trkpt lat="39.99731039826998" lon="18.08263817796378"><ele>45.0</ele><time>2026-04-26T13:40:55.054Z</time></trkpt><trkpt lat="39.99736474617109" lon="18.082339924103294"><ele>45.0</ele><time>2026-04-26T13:40:56.054Z</time></trkpt><trkpt lat="39.99741609501555" lon="18.082046310530735"><ele>45.0</ele><time>2026-04-26T13:40:57.054Z</time></trkpt><trkpt lat="39.99746497883393" lon="18.081777512652323"><ele>45.0</ele><time>2026-04-26T13:40:58.054Z</time></trkpt><trkpt lat="39.99750721604035" lon="18.081509091611164"><ele>45.0</ele><time>2026-04-26T13:40:59.054Z</time></trkpt><trkpt lat="39.997548189937035" lon="18.08123365103853"><ele>44.5</ele><time>2026-04-26T13:41:00.054Z</time></trkpt><trkpt lat="39.9975945379132" lon="18.080940433458636"><ele>44.0</ele><time>2026-04-26T13:41:01.054Z</time></trkpt><trkpt lat="39.997645270650125" lon="18.080635605974816"><ele>44.0</ele><time>2026-04-26T13:41:02.054Z</time></trkpt><trkpt lat="39.99770361262003" lon="18.080323146758946"><ele>44.0</ele><time>2026-04-26T13:41:03.054Z</time></trkpt><trkpt lat="39.997759361161876" lon="18.080005436596245"><ele>44.0</ele><time>2026-04-26T13:41:04.054Z</time></trkpt><trkpt lat="39.99781307147065" lon="18.079682721244644"><ele>44.0</ele><time>2026-04-26T13:41:05.054Z</time></trkpt><trkpt lat="39.997866803986675" lon="18.07935509141678"><ele>43.5</ele><time>2026-04-26T13:41:06.054Z</time></trkpt><trkpt lat="39.99792185917406" lon="18.079021859459502"><ele>43.0</ele><time>2026-04-26T13:41:07.054Z</time></trkpt><trkpt lat="39.997974486172076" lon="18.07868752330939"><ele>43.0</ele><time>2026-04-26T13:41:08.054Z</time></trkpt><trkpt lat="39.998026551131325" lon="18.078354171019356"><ele>43.0</ele><time>2026-04-26T13:41:09.054Z</time></trkpt><trkpt lat="39.99807895279978" lon="18.07802224218014"><ele>43.0</ele><time>2026-04-26T13:41:10.054Z</time></trkpt><trkpt lat="39.99813093511666" lon="18.07769176313172"><ele>43.0</ele><time>2026-04-26T13:41:11.054Z</time></trkpt><trkpt lat="39.99818299750506" lon="18.077361912397407"><ele>43.0</ele><time>2026-04-26T13:41:12.054Z</time></trkpt><trkpt lat="39.99823397068102" lon="18.077030904352963"><ele>43.0</ele><time>2026-04-26T13:41:13.054Z</time></trkpt><trkpt lat="39.998285362294325" lon="18.076703651226058"><ele>43.0</ele><time>2026-04-26T13:41:14.054Z</time></trkpt><trkpt lat="39.99833744006076" lon="18.076374329993232"><ele>43.0</ele><time>2026-04-26T13:41:15.054Z</time></trkpt><trkpt lat="39.998390260982916" lon="18.07604587647908"><ele>42.0</ele><time>2026-04-26T13:41:16.054Z</time></trkpt><trkpt lat="39.998444576706326" lon="18.075716382381444"><ele>41.0</ele><time>2026-04-26T13:41:17.054Z</time></trkpt><trkpt lat="39.99849959022521" lon="18.07538470557637"><ele>41.0</ele><time>2026-04-26T13:41:18.054Z</time></trkpt><trkpt lat="39.998553439810415" lon="18.07505404480101"><ele>41.0</ele><time>2026-04-26T13:41:19.054Z</time></trkpt><trkpt lat="39.998609353836265" lon="18.074724835399298"><ele>41.0</ele><time>2026-04-26T13:41:20.054Z</time></trkpt><trkpt lat="39.99866285260457" lon="18.074395121334334"><ele>41.0</ele><time>2026-04-26T13:41:21.054Z</time></trkpt><trkpt lat="39.998715267269816" lon="18.074068280225905"><ele>40.0</ele><time>2026-04-26T13:41:22.054Z</time></trkpt><trkpt lat="39.99876558255396" lon="18.07374213709344"><ele>39.0</ele><time>2026-04-26T13:41:23.054Z</time></trkpt><trkpt lat="39.99881792310913" lon="18.07341731575308"><ele>40.0</ele><time>2026-04-26T13:41:24.054Z</time></trkpt><trkpt lat="39.99887176665482" lon="18.073091559593255"><ele>41.0</ele><time>2026-04-26T13:41:25.054Z</time></trkpt><trkpt lat="39.99892308741025" lon="18.07276645530422"><ele>41.0</ele><time>2026-04-26T13:41:26.054Z</time></trkpt><trkpt lat="39.998975653813545" lon="18.072440545651904"><ele>41.0</ele><time>2026-04-26T13:41:27.054Z</time></trkpt><trkpt lat="39.999028790866745" lon="18.072117136719765"><ele>41.0</ele><time>2026-04-26T13:41:28.054Z</time></trkpt><trkpt lat="39.99907944559867" lon="18.07179482929949"><ele>41.0</ele><time>2026-04-26T13:41:29.054Z</time></trkpt><trkpt lat="39.99913133828906" lon="18.071472064001576"><ele>40.0</ele><time>2026-04-26T13:41:30.054Z</time></trkpt><trkpt lat="39.99918299865697" lon="18.071150714025663"><ele>39.0</ele><time>2026-04-26T13:41:31.054Z</time></trkpt><trkpt lat="39.99923800144993" lon="18.07082688697304"><ele>39.0</ele><time>2026-04-26T13:41:32.054Z</time></trkpt><trkpt lat="39.99929202162509" lon="18.070499805275364"><ele>39.0</ele><time>2026-04-26T13:41:33.054Z</time></trkpt><trkpt lat="39.99934439382756" lon="18.070177137183965"><ele>39.0</ele><time>2026-04-26T13:41:34.054Z</time></trkpt><trkpt lat="39.99939794502877" lon="18.06986109503789"><ele>39.0</ele><time>2026-04-26T13:41:35.054Z</time></trkpt><trkpt lat="39.99945498652791" lon="18.06954035215075"><ele>39.0</ele><time>2026-04-26T13:41:36.054Z</time></trkpt><trkpt lat="39.999513988943306" lon="18.06922158537335"><ele>39.0</ele><time>2026-04-26T13:41:37.054Z</time></trkpt><trkpt lat="39.99957932797663" lon="18.068902439487154"><ele>39.0</ele><time>2026-04-26T13:41:38.054Z</time></trkpt><trkpt lat="39.999647620814336" lon="18.068588824777702"><ele>39.0</ele><time>2026-04-26T13:41:39.054Z</time></trkpt><trkpt lat="39.99972312395428" lon="18.06827346008129"><ele>39.0</ele><time>2026-04-26T13:41:40.054Z</time></trkpt><trkpt lat="39.99980234322746" lon="18.06795530006452"><ele>39.0</ele><time>2026-04-26T13:41:41.054Z</time></trkpt><trkpt lat="39.99988286493533" lon="18.06763758912075"><ele>39.5</ele><time>2026-04-26T13:41:42.054Z</time></trkpt><trkpt lat="39.99996719844572" lon="18.067324374238986"><ele>40.0</ele><time>2026-04-26T13:41:43.054Z</time></trkpt><trkpt lat="40.0000527687624" lon="18.067018256125603"><ele>40.0</ele><time>2026-04-26T13:41:44.054Z</time></trkpt><trkpt lat="40.00014302229855" lon="18.0667166981697"><ele>40.0</ele><time>2026-04-26T13:41:45.054Z</time></trkpt><trkpt lat="40.000243454327084" lon="18.066418382664494"><ele>41.5</ele><time>2026-04-26T13:41:46.054Z</time></trkpt><trkpt lat="40.00034965437955" lon="18.06612376222861"><ele>43.0</ele><time>2026-04-26T13:41:47.054Z</time></trkpt><trkpt lat="40.00046005745454" lon="18.06582748255219"><ele>41.0</ele><time>2026-04-26T13:41:48.054Z</time></trkpt><trkpt lat="40.00056609035489" lon="18.06553493679111"><ele>39.0</ele><time>2026-04-26T13:41:49.054Z</time></trkpt><trkpt lat="40.0006708825186" lon="18.06524721236607"><ele>39.0</ele><time>2026-04-26T13:41:50.054Z</time></trkpt><trkpt lat="40.00076666543485" lon="18.064965751856253"><ele>39.0</ele><time>2026-04-26T13:41:51.054Z</time></trkpt><trkpt lat="40.000862487511526" lon="18.06469023914559"><ele>39.0</ele><time>2026-04-26T13:41:52.054Z</time></trkpt><trkpt lat="40.00095751171332" lon="18.06441400959079"><ele>39.0</ele><time>2026-04-26T13:41:53.054Z</time></trkpt><trkpt lat="40.00105052426932" lon="18.064132703909436"><ele>38.5</ele><time>2026-04-26T13:41:54.054Z</time></trkpt><trkpt lat="40.0011441622535" lon="18.063859456185895"><ele>38.0</ele><time>2026-04-26T13:41:55.054Z</time></trkpt><trkpt lat="40.001244408061424" lon="18.063592636132242"><ele>38.0</ele><time>2026-04-26T13:41:56.054Z</time></trkpt><trkpt lat="40.00135181837515" lon="18.063339366297335"><ele>38.0</ele><time>2026-04-26T13:41:57.054Z</time></trkpt><trkpt lat="40.001472485508344" lon="18.063096934443536"><ele>38.0</ele><time>2026-04-26T13:41:58.054Z</time></trkpt><trkpt lat="40.00161544550147" lon="18.06286239927144"><ele>38.0</ele><time>2026-04-26T13:41:59.054Z</time></trkpt><trkpt lat="40.001771685309" lon="18.06264195618429"><ele>38.0</ele><time>2026-04-26T13:42:00.054Z</time></trkpt><trkpt lat="40.001939698355606" lon="18.062434913865737"><ele>37.5</ele><time>2026-04-26T13:42:01.054Z</time></trkpt><trkpt lat="40.002116567240826" lon="18.062239935410133"><ele>37.0</ele><time>2026-04-26T13:42:02.054Z</time></trkpt><trkpt lat="40.002299304894585" lon="18.062047510702364"><ele>37.0</ele><time>2026-04-26T13:42:03.054Z</time></trkpt><trkpt lat="40.00248392578396" lon="18.061849617464027"><ele>37.0</ele><time>2026-04-26T13:42:04.054Z</time></trkpt><trkpt lat="40.00266982075723" lon="18.06165071686415"><ele>36.5</ele><time>2026-04-26T13:42:05.054Z</time></trkpt><trkpt lat="40.00285601065831" lon="18.061451940996175"><ele>36.0</ele><time>2026-04-26T13:42:06.054Z</time></trkpt><trkpt lat="40.00304271994307" lon="18.061254549239262"><ele>36.0</ele><time>2026-04-26T13:42:07.054Z</time></trkpt><trkpt lat="40.00323131655485" lon="18.06105537113806"><ele>36.0</ele><time>2026-04-26T13:42:08.054Z</time></trkpt><trkpt lat="40.003420452953286" lon="18.060854913357574"><ele>35.5</ele><time>2026-04-26T13:42:09.054Z</time></trkpt><trkpt lat="40.003610107228624" lon="18.060654218063064"><ele>35.0</ele><time>2026-04-26T13:42:10.054Z</time></trkpt><trkpt lat="40.003796842220105" lon="18.06045187532065"><ele>35.0</ele><time>2026-04-26T13:42:11.054Z</time></trkpt><trkpt lat="40.00398209346947" lon="18.060248840874948"><ele>35.0</ele><time>2026-04-26T13:42:12.054Z</time></trkpt><trkpt lat="40.004167618225786" lon="18.06004956029497"><ele>34.5</ele><time>2026-04-26T13:42:13.054Z</time></trkpt><trkpt lat="40.004351462549835" lon="18.059854917924287"><ele>34.0</ele><time>2026-04-26T13:42:14.053Z</time></trkpt><trkpt lat="40.00453498125348" lon="18.05966068414565"><ele>34.0</ele><time>2026-04-26T13:42:15.053Z</time></trkpt><trkpt lat="40.00471554781334" lon="18.059466457031053"><ele>34.0</ele><time>2026-04-26T13:42:16.053Z</time></trkpt><trkpt lat="40.004895474897516" lon="18.059274985216398"><ele>33.5</ele><time>2026-04-26T13:42:17.053Z</time></trkpt><trkpt lat="40.00507329895843" lon="18.059085902558706"><ele>33.0</ele><time>2026-04-26T13:42:18.054Z</time></trkpt><trkpt lat="40.005249285636125" lon="18.05889602022669"><ele>33.0</ele><time>2026-04-26T13:42:19.054Z</time></trkpt><trkpt lat="40.0054229446668" lon="18.05870870918391"><ele>33.0</ele><time>2026-04-26T13:42:20.053Z</time></trkpt><trkpt lat="40.00559859092126" lon="18.058524423335268"><ele>33.0</ele><time>2026-04-26T13:42:21.052Z</time></trkpt><trkpt lat="40.005775734088765" lon="18.05833872248564"><ele>33.0</ele><time>2026-04-26T13:42:22.052Z</time></trkpt><trkpt lat="40.00595009048475" lon="18.058151138573855"><ele>32.5</ele><time>2026-04-26T13:42:23.053Z</time></trkpt><trkpt lat="40.00612538871539" lon="18.057964674304714"><ele>32.0</ele><time>2026-04-26T13:42:24.053Z</time></trkpt><trkpt lat="40.006301442178604" lon="18.057776721819522"><ele>32.0</ele><time>2026-04-26T13:42:25.053Z</time></trkpt><trkpt lat="40.0064782669956" lon="18.057586360313696"><ele>32.0</ele><time>2026-04-26T13:42:26.053Z</time></trkpt><trkpt lat="40.006654383441784" lon="18.057394724108292"><ele>32.0</ele><time>2026-04-26T13:42:27.054Z</time></trkpt><trkpt lat="40.006829341166465" lon="18.057203250828092"><ele>32.0</ele><time>2026-04-26T13:42:28.054Z</time></trkpt><trkpt lat="40.00700981723815" lon="18.05701254312841"><ele>32.0</ele><time>2026-04-26T13:42:29.054Z</time></trkpt><trkpt lat="40.00718715507825" lon="18.05681873100549"><ele>32.0</ele><time>2026-04-26T13:42:30.054Z</time></trkpt><trkpt lat="40.00736565046783" lon="18.05662627197554"><ele>31.5</ele><time>2026-04-26T13:42:31.054Z</time></trkpt><trkpt lat="40.00754126692001" lon="18.05643201297825"><ele>31.0</ele><time>2026-04-26T13:42:32.054Z</time></trkpt><trkpt lat="40.00771707823615" lon="18.056238749776828"><ele>31.0</ele><time>2026-04-26T13:42:33.054Z</time></trkpt><trkpt lat="40.00789617644732" lon="18.05604276381729"><ele>31.0</ele><time>2026-04-26T13:42:34.054Z</time></trkpt><trkpt lat="40.008075601391305" lon="18.05584882340799"><ele>30.5</ele><time>2026-04-26T13:42:35.054Z</time></trkpt><trkpt lat="40.00825359384518" lon="18.055656342533858"><ele>30.0</ele><time>2026-04-26T13:42:36.054Z</time></trkpt><trkpt lat="40.008433590729304" lon="18.055465480508346"><ele>28.5</ele><time>2026-04-26T13:42:37.054Z</time></trkpt><trkpt lat="40.00861055189827" lon="18.055273694517712"><ele>27.0</ele><time>2026-04-26T13:42:38.054Z</time></trkpt><trkpt lat="40.00878563100282" lon="18.055078715317617"><ele>27.0</ele><time>2026-04-26T13:42:39.054Z</time></trkpt><trkpt lat="40.00896432221335" lon="18.054883069037945"><ele>27.0</ele><time>2026-04-26T13:42:40.054Z</time></trkpt><trkpt lat="40.00914334543963" lon="18.054689762887886"><ele>26.0</ele><time>2026-04-26T13:42:41.054Z</time></trkpt><trkpt lat="40.00932212871831" lon="18.054496386211444"><ele>25.0</ele><time>2026-04-26T13:42:42.054Z</time></trkpt><trkpt lat="40.009501139027115" lon="18.05430136360731"><ele>24.5</ele><time>2026-04-26T13:42:43.054Z</time></trkpt><trkpt lat="40.009677675642436" lon="18.054110086938515"><ele>24.0</ele><time>2026-04-26T13:42:44.054Z</time></trkpt><trkpt lat="40.00985019273863" lon="18.053921466398602"><ele>24.0</ele><time>2026-04-26T13:42:45.054Z</time></trkpt><trkpt lat="40.010024838123684" lon="18.053732928682123"><ele>24.0</ele><time>2026-04-26T13:42:46.054Z</time></trkpt><trkpt lat="40.010202112987386" lon="18.05354548005184"><ele>24.0</ele><time>2026-04-26T13:42:47.054Z</time></trkpt><trkpt lat="40.010376557586554" lon="18.053358188491508"><ele>24.0</ele><time>2026-04-26T13:42:48.054Z</time></trkpt><trkpt lat="40.01055263425238" lon="18.0531679207167"><ele>24.0</ele><time>2026-04-26T13:42:49.054Z</time></trkpt><trkpt lat="40.01072935918679" lon="18.052979612538067"><ele>24.0</ele><time>2026-04-26T13:42:50.054Z</time></trkpt><trkpt lat="40.010906610853105" lon="18.052786655732238"><ele>24.0</ele><time>2026-04-26T13:42:51.054Z</time></trkpt><trkpt lat="40.011081806838895" lon="18.05259372442181"><ele>24.0</ele><time>2026-04-26T13:42:52.054Z</time></trkpt><trkpt lat="40.01125856142329" lon="18.05239958413931"><ele>24.0</ele><time>2026-04-26T13:42:53.054Z</time></trkpt><trkpt lat="40.01143538705469" lon="18.052206404922394"><ele>24.0</ele><time>2026-04-26T13:42:54.054Z</time></trkpt><trkpt lat="40.01161237740124" lon="18.052014795332127"><ele>24.0</ele><time>2026-04-26T13:42:55.054Z</time></trkpt><trkpt lat="40.011790994541784" lon="18.051824616648524"><ele>24.0</ele><time>2026-04-26T13:42:56.054Z</time></trkpt><trkpt lat="40.01197028309649" lon="18.051634656562534"><ele>24.5</ele><time>2026-04-26T13:42:57.054Z</time></trkpt><trkpt lat="40.0121483136033" lon="18.05144171468666"><ele>25.0</ele><time>2026-04-26T13:42:58.054Z</time></trkpt><trkpt lat="40.01232499889832" lon="18.051250157690774"><ele>24.0</ele><time>2026-04-26T13:42:59.054Z</time></trkpt><trkpt lat="40.01249846237641" lon="18.051058321570366"><ele>23.0</ele><time>2026-04-26T13:43:00.054Z</time></trkpt><trkpt lat="40.01267483662997" lon="18.050864072558053"><ele>23.0</ele><time>2026-04-26T13:43:01.054Z</time></trkpt><trkpt lat="40.01285230305414" lon="18.050671608255527"><ele>23.0</ele><time>2026-04-26T13:43:02.054Z</time></trkpt><trkpt lat="40.01303183552528" lon="18.0504768150094"><ele>23.0</ele><time>2026-04-26T13:43:03.054Z</time></trkpt><trkpt lat="40.01321327963659" lon="18.05028200133197"><ele>23.0</ele><time>2026-04-26T13:43:04.054Z</time></trkpt><trkpt lat="40.01339017293387" lon="18.050086436869943"><ele>23.0</ele><time>2026-04-26T13:43:05.054Z</time></trkpt><trkpt lat="40.01356966953121" lon="18.049891693701426"><ele>23.0</ele><time>2026-04-26T13:43:06.054Z</time></trkpt><trkpt lat="40.01375335884397" lon="18.04969721935459"><ele>23.0</ele><time>2026-04-26T13:43:07.054Z</time></trkpt><trkpt lat="40.01393825588149" lon="18.049505408002926"><ele>23.0</ele><time>2026-04-26T13:43:08.054Z</time></trkpt><trkpt lat="40.0141190604175" lon="18.049309062732625"><ele>23.0</ele><time>2026-04-26T13:43:09.054Z</time></trkpt><trkpt lat="40.014302124785694" lon="18.049119906708686"><ele>23.0</ele><time>2026-04-26T13:43:10.054Z</time></trkpt><trkpt lat="40.014480409098795" lon="18.048934212880916"><ele>23.0</ele><time>2026-04-26T13:43:11.054Z</time></trkpt><trkpt lat="40.01465537280203" lon="18.048751467600162"><ele>23.0</ele><time>2026-04-26T13:43:12.054Z</time></trkpt><trkpt lat="40.0148333868806" lon="18.048567945513042"><ele>22.0</ele><time>2026-04-26T13:43:13.054Z</time></trkpt><trkpt lat="40.015005964559705" lon="18.048382467063632"><ele>21.0</ele><time>2026-04-26T13:43:14.054Z</time></trkpt><trkpt lat="40.01518182226235" lon="18.048191146502194"><ele>20.5</ele><time>2026-04-26T13:43:15.054Z</time></trkpt><trkpt lat="40.015356847737735" lon="18.047997291899474"><ele>20.0</ele><time>2026-04-26T13:43:16.054Z</time></trkpt><trkpt lat="40.01553212449487" lon="18.047797987689307"><ele>20.0</ele><time>2026-04-26T13:43:17.054Z</time></trkpt><trkpt lat="40.01570986393974" lon="18.047597402143463"><ele>20.0</ele><time>2026-04-26T13:43:18.054Z</time></trkpt><trkpt lat="40.015891246569616" lon="18.047396423591792"><ele>19.0</ele><time>2026-04-26T13:43:19.054Z</time></trkpt><trkpt lat="40.01607377136541" lon="18.0471940706637"><ele>18.0</ele><time>2026-04-26T13:43:20.054Z</time></trkpt><trkpt lat="40.016256860511" lon="18.046992630656828"><ele>18.0</ele><time>2026-04-26T13:43:21.054Z</time></trkpt><trkpt lat="40.016442862545965" lon="18.04679201293762"><ele>18.0</ele><time>2026-04-26T13:43:22.054Z</time></trkpt><trkpt lat="40.016630348924195" lon="18.046589108158944"><ele>16.5</ele><time>2026-04-26T13:43:23.054Z</time></trkpt><trkpt lat="40.01681741825169" lon="18.046385218328748"><ele>15.0</ele><time>2026-04-26T13:43:24.054Z</time></trkpt><trkpt lat="40.01700614074434" lon="18.046180524432195"><ele>15.0</ele><time>2026-04-26T13:43:25.054Z</time></trkpt><trkpt lat="40.01719684965381" lon="18.045972539582994"><ele>15.0</ele><time>2026-04-26T13:43:26.054Z</time></trkpt><trkpt lat="40.017388780967735" lon="18.04576417525733"><ele>15.0</ele><time>2026-04-26T13:43:27.054Z</time></trkpt><trkpt lat="40.01758217954322" lon="18.045554955668866"><ele>15.0</ele><time>2026-04-26T13:43:28.054Z</time></trkpt><trkpt lat="40.01777243775466" lon="18.045349167242613"><ele>15.0</ele><time>2026-04-26T13:43:29.054Z</time></trkpt><trkpt lat="40.01796178778487" lon="18.04514074697339"><ele>15.0</ele><time>2026-04-26T13:43:30.054Z</time></trkpt><trkpt lat="40.01815645293874" lon="18.044929418635505"><ele>14.0</ele><time>2026-04-26T13:43:31.054Z</time></trkpt><trkpt lat="40.01835057783569" lon="18.044717760536773"><ele>13.0</ele><time>2026-04-26T13:43:32.054Z</time></trkpt><trkpt lat="40.01854313398118" lon="18.04450673824534"><ele>13.0</ele><time>2026-04-26T13:43:33.054Z</time></trkpt><trkpt lat="40.01873836756126" lon="18.04429301609546"><ele>13.0</ele><time>2026-04-26T13:43:34.054Z</time></trkpt><trkpt lat="40.018933439400016" lon="18.044079025930703"><ele>13.0</ele><time>2026-04-26T13:43:35.054Z</time></trkpt><trkpt lat="40.019127906994555" lon="18.04386620168739"><ele>13.0</ele><time>2026-04-26T13:43:36.054Z</time></trkpt><trkpt lat="40.019322376446745" lon="18.04365259317916"><ele>13.0</ele><time>2026-04-26T13:43:37.054Z</time></trkpt><trkpt lat="40.01951739016692" lon="18.04344011227625"><ele>13.0</ele><time>2026-04-26T13:43:38.054Z</time></trkpt><trkpt lat="40.01971335563918" lon="18.043227115405646"><ele>13.0</ele><time>2026-04-26T13:43:39.054Z</time></trkpt><trkpt lat="40.019909515813964" lon="18.04301550865453"><ele>13.0</ele><time>2026-04-26T13:43:40.054Z</time></trkpt><trkpt lat="40.02010597851038" lon="18.042804318460078"><ele>13.0</ele><time>2026-04-26T13:43:41.054Z</time></trkpt><trkpt lat="40.02030292015865" lon="18.042594178134934"><ele>13.0</ele><time>2026-04-26T13:43:42.054Z</time></trkpt><trkpt lat="40.02050063833904" lon="18.042383315037306"><ele>12.5</ele><time>2026-04-26T13:43:43.054Z</time></trkpt><trkpt lat="40.02069660046107" lon="18.042168159373578"><ele>12.0</ele><time>2026-04-26T13:43:44.054Z</time></trkpt><trkpt lat="40.02089789363221" lon="18.04195143567241"><ele>12.0</ele><time>2026-04-26T13:43:45.054Z</time></trkpt><trkpt lat="40.02109554953529" lon="18.04173498419102"><ele>12.0</ele><time>2026-04-26T13:43:46.054Z</time></trkpt><trkpt lat="40.021292780182456" lon="18.041519381441216"><ele>11.5</ele><time>2026-04-26T13:43:47.054Z</time></trkpt><trkpt lat="40.021492752931614" lon="18.04130442921624"><ele>11.0</ele><time>2026-04-26T13:43:48.054Z</time></trkpt><trkpt lat="40.02169366641685" lon="18.041087024229228"><ele>10.5</ele><time>2026-04-26T13:43:49.054Z</time></trkpt><trkpt lat="40.02189309096638" lon="18.040870268824193"><ele>10.0</ele><time>2026-04-26T13:43:50.054Z</time></trkpt><trkpt lat="40.022092846799296" lon="18.040650393212058"><ele>10.0</ele><time>2026-04-26T13:43:51.054Z</time></trkpt><trkpt lat="40.022291438394625" lon="18.040431762759248"><ele>10.0</ele><time>2026-04-26T13:43:52.054Z</time></trkpt><trkpt lat="40.02249082815834" lon="18.04021202368429"><ele>10.0</ele><time>2026-04-26T13:43:53.054Z</time></trkpt><trkpt lat="40.02269225807746" lon="18.039994328387195"><ele>10.0</ele><time>2026-04-26T13:43:54.054Z</time></trkpt><trkpt lat="40.02289227620347" lon="18.039775294981883"><ele>9.5</ele><time>2026-04-26T13:43:55.054Z</time></trkpt><trkpt lat="40.023092997596414" lon="18.039559971361083"><ele>9.0</ele><time>2026-04-26T13:43:56.054Z</time></trkpt><trkpt lat="40.02329427462733" lon="18.039344385760614"><ele>8.5</ele><time>2026-04-26T13:43:57.054Z</time></trkpt><trkpt lat="40.023493723606094" lon="18.03912722889759"><ele>8.0</ele><time>2026-04-26T13:43:58.054Z</time></trkpt><trkpt lat="40.02369179421606" lon="18.038901732481595"><ele>8.0</ele><time>2026-04-26T13:43:59.054Z</time></trkpt><trkpt lat="40.0238876582636" lon="18.038672918216164"><ele>8.0</ele><time>2026-04-26T13:44:00.054Z</time></trkpt><trkpt lat="40.02408440239461" lon="18.038446151079487"><ele>9.0</ele><time>2026-04-26T13:44:01.054Z</time></trkpt><trkpt lat="40.02428783180342" lon="18.038218444789017"><ele>10.0</ele><time>2026-04-26T13:44:02.054Z</time></trkpt><trkpt lat="40.024493218795534" lon="18.037993345513776"><ele>10.0</ele><time>2026-04-26T13:44:03.054Z</time></trkpt><trkpt lat="40.02469695578173" lon="18.037772014208592"><ele>10.0</ele><time>2026-04-26T13:44:04.054Z</time></trkpt><trkpt lat="40.02490163530986" lon="18.037551880225273"><ele>10.5</ele><time>2026-04-26T13:44:05.054Z</time></trkpt><trkpt lat="40.025106454858225" lon="18.037331019651994"><ele>11.0</ele><time>2026-04-26T13:44:06.054Z</time></trkpt><trkpt lat="40.02531552807849" lon="18.037108859779988"><ele>11.0</ele><time>2026-04-26T13:44:07.054Z</time></trkpt><trkpt lat="40.0255252554186" lon="18.036888591909538"><ele>11.0</ele><time>2026-04-26T13:44:08.054Z</time></trkpt><trkpt lat="40.025735413371514" lon="18.036667845937767"><ele>12.0</ele><time>2026-04-26T13:44:09.054Z</time></trkpt><trkpt lat="40.02594625389563" lon="18.03644574284883"><ele>13.0</ele><time>2026-04-26T13:44:10.054Z</time></trkpt><trkpt lat="40.026154768064046" lon="18.036223981290906"><ele>13.0</ele><time>2026-04-26T13:44:11.054Z</time></trkpt><trkpt lat="40.02636116670875" lon="18.036002121002323"><ele>13.0</ele><time>2026-04-26T13:44:12.054Z</time></trkpt><trkpt lat="40.02656817302651" lon="18.03577900689602"><ele>13.0</ele><time>2026-04-26T13:44:13.054Z</time></trkpt><trkpt lat="40.02677155988367" lon="18.03555709544721"><ele>13.0</ele><time>2026-04-26T13:44:14.054Z</time></trkpt><trkpt lat="40.02697377473125" lon="18.035335833428952"><ele>13.0</ele><time>2026-04-26T13:44:15.054Z</time></trkpt><trkpt lat="40.02717656706241" lon="18.035116570449937"><ele>13.0</ele><time>2026-04-26T13:44:16.054Z</time></trkpt><trkpt lat="40.027381150669314" lon="18.034895714785105"><ele>12.0</ele><time>2026-04-26T13:44:17.054Z</time></trkpt><trkpt lat="40.02758274352053" lon="18.03467752224134"><ele>11.0</ele><time>2026-04-26T13:44:18.054Z</time></trkpt><trkpt lat="40.0277836198819" lon="18.034456551464714"><ele>11.0</ele><time>2026-04-26T13:44:19.054Z</time></trkpt><trkpt lat="40.02798302399422" lon="18.034236370171023"><ele>11.0</ele><time>2026-04-26T13:44:20.053Z</time></trkpt><trkpt lat="40.02818415489882" lon="18.034015906041187"><ele>9.5</ele><time>2026-04-26T13:44:21.053Z</time></trkpt><trkpt lat="40.02838336920168" lon="18.033794644545623"><ele>8.0</ele><time>2026-04-26T13:44:22.053Z</time></trkpt><trkpt lat="40.02858316437881" lon="18.033576011678385"><ele>8.0</ele><time>2026-04-26T13:44:23.053Z</time></trkpt><trkpt lat="40.02878251085659" lon="18.033356472363344"><ele>8.0</ele><time>2026-04-26T13:44:24.052Z</time></trkpt><trkpt lat="40.02898090593072" lon="18.03313546214617"><ele>7.0</ele><time>2026-04-26T13:44:25.053Z</time></trkpt><trkpt lat="40.0291783269664" lon="18.032919432422464"><ele>6.0</ele><time>2026-04-26T13:44:26.053Z</time></trkpt><trkpt lat="40.02937748497788" lon="18.03270674513099"><ele>6.0</ele><time>2026-04-26T13:44:27.053Z</time></trkpt><trkpt lat="40.029576637173506" lon="18.032492415390305"><ele>6.0</ele><time>2026-04-26T13:44:28.053Z</time></trkpt><trkpt lat="40.029777403081894" lon="18.03227176447712"><ele>5.5</ele><time>2026-04-26T13:44:29.053Z</time></trkpt><trkpt lat="40.02997841516244" lon="18.032050994221475"><ele>5.0</ele><time>2026-04-26T13:44:30.052Z</time></trkpt><trkpt lat="40.0301798135402" lon="18.031830921132606"><ele>5.0</ele><time>2026-04-26T13:44:31.052Z</time></trkpt><trkpt lat="40.03037797049275" lon="18.03161747757396"><ele>5.0</ele><time>2026-04-26T13:44:32.053Z</time></trkpt><trkpt lat="40.03057384103161" lon="18.03140445590456"><ele>5.0</ele><time>2026-04-26T13:44:33.053Z</time></trkpt><trkpt lat="40.03076806475665" lon="18.0311902530986"><ele>5.0</ele><time>2026-04-26T13:44:34.053Z</time></trkpt><trkpt lat="40.03096116347008" lon="18.030975189935173"><ele>5.0</ele><time>2026-04-26T13:44:35.053Z</time></trkpt><trkpt lat="40.03115560289083" lon="18.0307603472017"><ele>5.0</ele><time>2026-04-26T13:44:36.053Z</time></trkpt><trkpt lat="40.03135123454578" lon="18.03054761810888"><ele>5.0</ele><time>2026-04-26T13:44:37.053Z</time></trkpt><trkpt lat="40.03154486459006" lon="18.030336479986087"><ele>5.0</ele><time>2026-04-26T13:44:38.053Z</time></trkpt><trkpt lat="40.03173412194346" lon="18.030128390306963"><ele>4.5</ele><time>2026-04-26T13:44:39.053Z</time></trkpt><trkpt lat="40.03192966232182" lon="18.029917414930612"><ele>4.0</ele><time>2026-04-26T13:44:40.053Z</time></trkpt><trkpt lat="40.03212148642529" lon="18.029711808348928"><ele>4.0</ele><time>2026-04-26T13:44:41.053Z</time></trkpt><trkpt lat="40.03230828552819" lon="18.02950756977416"><ele>4.0</ele><time>2026-04-26T13:44:42.053Z</time></trkpt><trkpt lat="40.03249074004439" lon="18.02930262204016"><ele>2.5</ele><time>2026-04-26T13:44:43.053Z</time></trkpt><trkpt lat="40.03267633458476" lon="18.029097758073345"><ele>1.0</ele><time>2026-04-26T13:44:44.053Z</time></trkpt><trkpt lat="40.03286456378364" lon="18.028895258359505"><ele>1.0</ele><time>2026-04-26T13:44:45.053Z</time></trkpt><trkpt lat="40.03305365096694" lon="18.02868043395119"><ele>1.0</ele><time>2026-04-26T13:44:46.053Z</time></trkpt><trkpt lat="40.03325195969178" lon="18.028454587195128"><ele>1.5</ele><time>2026-04-26T13:44:47.053Z</time></trkpt><trkpt lat="40.03345772599649" lon="18.02823525435103"><ele>2.0</ele><time>2026-04-26T13:44:48.053Z</time></trkpt><trkpt lat="40.03366781265615" lon="18.028027934843724"><ele>2.0</ele><time>2026-04-26T13:44:49.053Z</time></trkpt><trkpt lat="40.03387261323057" lon="18.027817069114004"><ele>2.0</ele><time>2026-04-26T13:44:50.053Z</time></trkpt><trkpt lat="40.034075066181536" lon="18.027599445532516"><ele>1.5</ele><time>2026-04-26T13:44:51.053Z</time></trkpt><trkpt lat="40.03427373488514" lon="18.027382322289824"><ele>1.0</ele><time>2026-04-26T13:44:52.053Z</time></trkpt><trkpt lat="40.03447396230591" lon="18.027166496876216"><ele>1.0</ele><time>2026-04-26T13:44:53.053Z</time></trkpt><trkpt lat="40.03466716753229" lon="18.02695750913812"><ele>1.0</ele><time>2026-04-26T13:44:54.053Z</time></trkpt><trkpt lat="40.03486461937783" lon="18.026747938604373"><ele>1.5</ele><time>2026-04-26T13:44:55.053Z</time></trkpt><trkpt lat="40.0350574702554" lon="18.026543716588844"><ele>2.0</ele><time>2026-04-26T13:44:56.053Z</time></trkpt><trkpt lat="40.035245976744925" lon="18.02634001873768"><ele>2.0</ele><time>2026-04-26T13:44:57.053Z</time></trkpt><trkpt lat="40.0354338086298" lon="18.026136898439795"><ele>2.0</ele><time>2026-04-26T13:44:58.053Z</time></trkpt><trkpt lat="40.03562051991562" lon="18.025934895390588"><ele>1.5</ele><time>2026-04-26T13:44:59.053Z</time></trkpt><trkpt lat="40.035806029271164" lon="18.025734121297074"><ele>1.0</ele><time>2026-04-26T13:45:00.053Z</time></trkpt><trkpt lat="40.03598688055431" lon="18.025530842549344"><ele>1.0</ele><time>2026-04-26T13:45:01.053Z</time></trkpt><trkpt lat="40.03616693117557" lon="18.025329864919215"><ele>1.0</ele><time>2026-04-26T13:45:02.053Z</time></trkpt><trkpt lat="40.03635048940584" lon="18.02512864968446"><ele>1.0</ele><time>2026-04-26T13:45:03.053Z</time></trkpt><trkpt lat="40.036533160167856" lon="18.024927898919174"><ele>1.0</ele><time>2026-04-26T13:45:04.053Z</time></trkpt><trkpt lat="40.036717450584035" lon="18.024728798758485"><ele>1.5</ele><time>2026-04-26T13:45:05.053Z</time></trkpt><trkpt lat="40.03690056003069" lon="18.024528714594254"><ele>2.0</ele><time>2026-04-26T13:45:06.053Z</time></trkpt><trkpt lat="40.03708766691623" lon="18.02432373264495"><ele>1.0</ele><time>2026-04-26T13:45:07.053Z</time></trkpt><trkpt lat="40.03727594973417" lon="18.024117198558574"><ele>0.0</ele><time>2026-04-26T13:45:08.053Z</time></trkpt><trkpt lat="40.03746574937798" lon="18.023907303764346"><ele>0.5</ele><time>2026-04-26T13:45:09.053Z</time></trkpt><trkpt lat="40.037656534895426" lon="18.02369436994895"><ele>1.0</ele><time>2026-04-26T13:45:10.053Z</time></trkpt><trkpt lat="40.03784848341629" lon="18.023481430457036"><ele>1.0</ele><time>2026-04-26T13:45:11.053Z</time></trkpt><trkpt lat="40.03804442545453" lon="18.023270621069596"><ele>1.0</ele><time>2026-04-26T13:45:12.053Z</time></trkpt><trkpt lat="40.038238734105356" lon="18.02306044510169"><ele>2.0</ele><time>2026-04-26T13:45:13.053Z</time></trkpt><trkpt lat="40.03843183481064" lon="18.02285763572281"><ele>3.0</ele><time>2026-04-26T13:45:14.053Z</time></trkpt><trkpt lat="40.0386250588944" lon="18.02265935401772"><ele>2.0</ele><time>2026-04-26T13:45:15.053Z</time></trkpt><trkpt lat="40.038816863702785" lon="18.02246383546539"><ele>1.0</ele><time>2026-04-26T13:45:16.053Z</time></trkpt><trkpt lat="40.039007199838146" lon="18.022269840774992"><ele>1.0</ele><time>2026-04-26T13:45:17.053Z</time></trkpt><trkpt lat="40.039195776123684" lon="18.02208108737739"><ele>1.0</ele><time>2026-04-26T13:45:18.053Z</time></trkpt><trkpt lat="40.039388334122314" lon="18.02190499951877"><ele>1.0</ele><time>2026-04-26T13:45:19.053Z</time></trkpt><trkpt lat="40.0395834240406" lon="18.0217456728247"><ele>1.0</ele><time>2026-04-26T13:45:20.053Z</time></trkpt><trkpt lat="40.039785737760084" lon="18.021594250906787"><ele>1.0</ele><time>2026-04-26T13:45:21.053Z</time></trkpt><trkpt lat="40.039992064854516" lon="18.021460055246155"><ele>1.0</ele><time>2026-04-26T13:45:22.053Z</time></trkpt><trkpt lat="40.04020156945341" lon="18.021336826620644"><ele>1.0</ele><time>2026-04-26T13:45:23.053Z</time></trkpt><trkpt lat="40.04041211611277" lon="18.02122659899631"><ele>1.0</ele><time>2026-04-26T13:45:24.053Z</time></trkpt><trkpt lat="40.040625790205986" lon="18.02113401455398"><ele>1.6666666666666665</ele><time>2026-04-26T13:45:25.053Z</time></trkpt><trkpt lat="40.04084019268953" lon="18.021056326768715"><ele>2.3333333333333335</ele><time>2026-04-26T13:45:26.053Z</time></trkpt><trkpt lat="40.04105881568943" lon="18.020998746992298"><ele>3.0</ele><time>2026-04-26T13:45:27.053Z</time></trkpt><trkpt lat="40.04128041758046" lon="18.0209504110531"><ele>3.0</ele><time>2026-04-26T13:45:28.053Z</time></trkpt><trkpt lat="40.04150240523886" lon="18.020918219863184"><ele>3.0</ele><time>2026-04-26T13:45:29.053Z</time></trkpt><trkpt lat="40.04172767361391" lon="18.02089633524578"><ele>3.0</ele><time>2026-04-26T13:45:30.053Z</time></trkpt><trkpt lat="40.04195579387992" lon="18.02088398707376"><ele>4.0</ele><time>2026-04-26T13:45:31.053Z</time></trkpt><trkpt lat="40.042189953618674" lon="18.02087112241148"><ele>5.0</ele><time>2026-04-26T13:45:32.053Z</time></trkpt><trkpt lat="40.04242882018597" lon="18.020851894647713"><ele>5.0</ele><time>2026-04-26T13:45:33.053Z</time></trkpt><trkpt lat="40.04265107798469" lon="18.020833779266624"><ele>5.0</ele><time>2026-04-26T13:45:34.053Z</time></trkpt><trkpt lat="40.04285015351765" lon="18.02081776893804"><ele>5.0</ele><time>2026-04-26T13:45:35.053Z</time></trkpt><trkpt lat="40.04304140877616" lon="18.02079457983704"><ele>5.333333333333334</ele><time>2026-04-26T13:45:36.053Z</time></trkpt><trkpt lat="40.043219759807116" lon="18.020748979973146"><ele>5.666666666666667</ele><time>2026-04-26T13:45:37.053Z</time></trkpt><trkpt lat="40.0433989176486" lon="18.02067283741861"><ele>6.0</ele><time>2026-04-26T13:45:38.053Z</time></trkpt><trkpt lat="40.04357751484321" lon="18.020574235033003"><ele>7.0</ele><time>2026-04-26T13:45:39.053Z</time></trkpt><trkpt lat="40.04374728750213" lon="18.02044219052939"><ele>8.0</ele><time>2026-04-26T13:45:40.053Z</time></trkpt><trkpt lat="40.04390298211883" lon="18.020284945330065"><ele>9.0</ele><time>2026-04-26T13:45:41.053Z</time></trkpt><trkpt lat="40.04404724217643" lon="18.020105164605138"><ele>9.0</ele><time>2026-04-26T13:45:42.053Z</time></trkpt><trkpt lat="40.04417428262095" lon="18.019902493186937"><ele>9.0</ele><time>2026-04-26T13:45:43.053Z</time></trkpt><trkpt lat="40.04428854166353" lon="18.019687090749787"><ele>9.0</ele><time>2026-04-26T13:45:44.053Z</time></trkpt><trkpt lat="40.04438599274056" lon="18.01945597206719"><ele>9.0</ele><time>2026-04-26T13:45:45.053Z</time></trkpt><trkpt lat="40.044459814268556" lon="18.01920357998158"><ele>9.0</ele><time>2026-04-26T13:45:46.053Z</time></trkpt><trkpt lat="40.04450745772623" lon="18.018935697581917"><ele>9.0</ele><time>2026-04-26T13:45:47.053Z</time></trkpt><trkpt lat="40.04453423034935" lon="18.01867821000429"><ele>8.0</ele><time>2026-04-26T13:45:48.053Z</time></trkpt><trkpt lat="40.04454377177858" lon="18.018412182906438"><ele>7.0</ele><time>2026-04-26T13:45:49.053Z</time></trkpt><trkpt lat="40.044526662343024" lon="18.018142773613047"><ele>6.0</ele><time>2026-04-26T13:45:50.053Z</time></trkpt><trkpt lat="40.04449337907041" lon="18.017872142659996"><ele>5.666666666666667</ele><time>2026-04-26T13:45:51.053Z</time></trkpt><trkpt lat="40.044458282170496" lon="18.01760929171341"><ele>5.333333333333334</ele><time>2026-04-26T13:45:52.053Z</time></trkpt><trkpt lat="40.04442676152077" lon="18.017381418938953"><ele>5.0</ele><time>2026-04-26T13:45:53.053Z</time></trkpt><trkpt lat="40.044402069284324" lon="18.017170519021278"><ele>4.75</ele><time>2026-04-26T13:45:54.053Z</time></trkpt><trkpt lat="40.04438624882962" lon="18.01698703093018"><ele>4.5</ele><time>2026-04-26T13:45:55.053Z</time></trkpt><trkpt lat="40.0443855875452" lon="18.0168093810893"><ele>4.25</ele><time>2026-04-26T13:45:56.053Z</time></trkpt><trkpt lat="40.04439982128115" lon="18.016635035518163"><ele>4.0</ele><time>2026-04-26T13:45:57.053Z</time></trkpt><trkpt lat="40.04443000165942" lon="18.016466473876854"><ele>4.0</ele><time>2026-04-26T13:45:58.053Z</time></trkpt><trkpt lat="40.04448212948883" lon="18.01632212936317"><ele>4.0</ele><time>2026-04-26T13:45:59.053Z</time></trkpt><trkpt lat="40.04456768445878" lon="18.01618144398656"><ele>4.0</ele><time>2026-04-26T13:46:00.053Z</time></trkpt><trkpt lat="40.04470154562719" lon="18.016052174137137"><ele>4.0</ele><time>2026-04-26T13:46:01.053Z</time></trkpt><trkpt lat="40.04487618574445" lon="18.015910065716394"><ele>3.5</ele><time>2026-04-26T13:46:02.053Z</time></trkpt><trkpt lat="40.04507952899833" lon="18.01574277366028"><ele>3.0</ele><time>2026-04-26T13:46:03.053Z</time></trkpt><trkpt lat="40.045302438167425" lon="18.015557463079247"><ele>3.0</ele><time>2026-04-26T13:46:04.053Z</time></trkpt><trkpt lat="40.04520780219134" lon="18.01536050912472"><ele>3.0</ele><time>2026-04-26T13:46:05.053Z</time></trkpt><trkpt lat="40.04535899608407" lon="18.015205512887054"><ele>3.0</ele><time>2026-04-26T13:46:06.053Z</time></trkpt><trkpt lat="40.04549527908615" lon="18.015063552949954"><ele>3.0</ele><time>2026-04-26T13:46:07.053Z</time></trkpt><trkpt lat="40.0456261382933" lon="18.014920089077428"><ele>3.0</ele><time>2026-04-26T13:46:08.053Z</time></trkpt><trkpt lat="40.045762191058756" lon="18.014775173651106"><ele>3.0</ele><time>2026-04-26T13:46:09.053Z</time></trkpt><trkpt lat="40.04589943898646" lon="18.014634153718628"><ele>3.0</ele><time>2026-04-26T13:46:10.053Z</time></trkpt><trkpt lat="40.04603416910204" lon="18.01449451583753"><ele>3.0</ele><time>2026-04-26T13:46:11.053Z</time></trkpt><trkpt lat="40.04616871500773" lon="18.01435156641435"><ele>3.0</ele><time>2026-04-26T13:46:12.053Z</time></trkpt><trkpt lat="40.04630085482041" lon="18.01420867130646"><ele>3.0</ele><time>2026-04-26T13:46:13.053Z</time></trkpt><trkpt lat="40.0464177883674" lon="18.014085510490666"><ele>3.0</ele><time>2026-04-26T13:46:14.053Z</time></trkpt><trkpt lat="40.0465176782234" lon="18.013976527522097"><ele>3.0</ele><time>2026-04-26T13:46:15.053Z</time></trkpt><trkpt lat="40.04660925984181" lon="18.0138854575029"><ele>3.0</ele><time>2026-04-26T13:46:16.053Z</time></trkpt><trkpt lat="40.0466833748181" lon="18.013820843515955"><ele>3.0</ele><time>2026-04-26T13:46:17.053Z</time></trkpt><trkpt lat="40.04674494697994" lon="18.013763552792135"><ele>3.0</ele><time>2026-04-26T13:46:18.053Z</time></trkpt><trkpt lat="40.04680967734066" lon="18.013703004183782"><ele>3.0</ele><time>2026-04-26T13:46:19.053Z</time></trkpt><trkpt lat="40.046885738870074" lon="18.013643527860904"><ele>3.0</ele><time>2026-04-26T13:46:20.053Z</time></trkpt><trkpt lat="40.046963375938475" lon="18.01360091863091"><ele>3.0</ele><time>2026-04-26T13:46:21.053Z</time></trkpt><trkpt lat="40.04705337232629" lon="18.013591446000916"><ele>3.0</ele><time>2026-04-26T13:46:22.053Z</time></trkpt><trkpt lat="40.04715428378104" lon="18.013612012980445"><ele>3.0</ele><time>2026-04-26T13:46:23.053Z</time></trkpt><trkpt lat="40.047257856218046" lon="18.01367711960117"><ele>3.0</ele><time>2026-04-26T13:46:24.053Z</time></trkpt><trkpt lat="40.04737026172132" lon="18.01377826189731"><ele>3.0</ele><time>2026-04-26T13:46:25.053Z</time></trkpt><trkpt lat="40.04748607606466" lon="18.013918354510544"><ele>3.0</ele><time>2026-04-26T13:46:26.053Z</time></trkpt><trkpt lat="40.047591343685134" lon="18.014072277537416"><ele>4.25</ele><time>2026-04-26T13:46:27.052Z</time></trkpt><trkpt lat="40.04769516064637" lon="18.014274163364867"><ele>5.5</ele><time>2026-04-26T13:46:28.052Z</time></trkpt><trkpt lat="40.047793685995465" lon="18.014352950901767"><ele>6.75</ele><time>2026-04-26T13:46:29.052Z</time></trkpt><trkpt lat="40.04789006793984" lon="18.01442198979714"><ele>8.0</ele><time>2026-04-26T13:46:30.053Z</time></trkpt><trkpt lat="40.04802617098205" lon="18.014408986937717"><ele>8.0</ele><time>2026-04-26T13:46:31.053Z</time></trkpt><trkpt lat="40.04817781856416" lon="18.014366979414113"><ele>8.0</ele><time>2026-04-26T13:46:32.053Z</time></trkpt><trkpt lat="40.0483209531348" lon="18.01431161746079"><ele>8.0</ele><time>2026-04-26T13:46:33.053Z</time></trkpt><trkpt lat="40.048454706781946" lon="18.014231937212404"><ele>8.333333333333332</ele><time>2026-04-26T13:46:34.053Z</time></trkpt><trkpt lat="40.048582442556516" lon="18.014119274652778"><ele>8.666666666666666</ele><time>2026-04-26T13:46:35.053Z</time></trkpt><trkpt lat="40.04869138440309" lon="18.01398162714681"><ele>9.0</ele><time>2026-04-26T13:46:36.052Z</time></trkpt><trkpt lat="40.048773824950096" lon="18.013822080609195"><ele>9.0</ele><time>2026-04-26T13:46:37.052Z</time></trkpt><trkpt lat="40.04882181851784" lon="18.013653451243265"><ele>9.0</ele><time>2026-04-26T13:46:38.052Z</time></trkpt><trkpt lat="40.04884582401438" lon="18.013461045212193"><ele>9.0</ele><time>2026-04-26T13:46:39.053Z</time></trkpt><trkpt lat="40.0488437391651" lon="18.013253354005627"><ele>9.0</ele><time>2026-04-26T13:46:40.053Z</time></trkpt><trkpt lat="40.0488076972229" lon="18.01303918600565"><ele>8.0</ele><time>2026-04-26T13:46:41.053Z</time></trkpt><trkpt lat="40.04873540012749" lon="18.012792125805365"><ele>7.0</ele><time>2026-04-26T13:46:42.053Z</time></trkpt><trkpt lat="40.048659921202415" lon="18.01253174576846"><ele>6.0</ele><time>2026-04-26T13:46:43.053Z</time></trkpt><trkpt lat="40.04858456906842" lon="18.012262093655426"><ele>6.0</ele><time>2026-04-26T13:46:44.053Z</time></trkpt><trkpt lat="40.04852005331608" lon="18.012022584952334"><ele>6.0</ele><time>2026-04-26T13:46:45.053Z</time></trkpt><trkpt lat="40.04847030078362" lon="18.01182276130629"><ele>6.0</ele><time>2026-04-26T13:46:46.053Z</time></trkpt><trkpt lat="40.04842215628044" lon="18.011651083688264"><ele>6.0</ele><time>2026-04-26T13:46:47.053Z</time></trkpt><trkpt lat="40.04836806969621" lon="18.011474256027658"><ele>6.0</ele><time>2026-04-26T13:46:48.053Z</time></trkpt><trkpt lat="40.04831358990097" lon="18.01128584684972"><ele>6.0</ele><time>2026-04-26T13:46:49.053Z</time></trkpt><trkpt lat="40.04826168545014" lon="18.011077912811672"><ele>5.333333333333333</ele><time>2026-04-26T13:46:50.053Z</time></trkpt><trkpt lat="40.04820601529964" lon="18.010841793530542"><ele>4.666666666666666</ele><time>2026-04-26T13:46:51.053Z</time></trkpt><trkpt lat="40.04814898327608" lon="18.010600386436085"><ele>4.0</ele><time>2026-04-26T13:46:52.053Z</time></trkpt><trkpt lat="40.04809490604877" lon="18.010382442082445"><ele>3.75</ele><time>2026-04-26T13:46:53.053Z</time></trkpt><trkpt lat="40.048044282213155" lon="18.010189356281277"><ele>3.5</ele><time>2026-04-26T13:46:54.053Z</time></trkpt><trkpt lat="40.047996359730504" lon="18.010005848323217"><ele>3.25</ele><time>2026-04-26T13:46:55.053Z</time></trkpt><trkpt lat="40.04795533687117" lon="18.009827855669734"><ele>3.0</ele><time>2026-04-26T13:46:56.053Z</time></trkpt><trkpt lat="40.04791214271793" lon="18.009646712983297"><ele>3.0</ele><time>2026-04-26T13:46:57.053Z</time></trkpt><trkpt lat="40.047870492328286" lon="18.009459362405952"><ele>3.0</ele><time>2026-04-26T13:46:58.053Z</time></trkpt><trkpt lat="40.047828765687825" lon="18.00928792512267"><ele>3.0</ele><time>2026-04-26T13:46:59.053Z</time></trkpt><trkpt lat="40.04778656541278" lon="18.009120480588535"><ele>3.0</ele><time>2026-04-26T13:47:00.053Z</time></trkpt><trkpt lat="40.047747100586186" lon="18.00894102627813"><ele>3.0</ele><time>2026-04-26T13:47:01.053Z</time></trkpt><trkpt lat="40.04772407239235" lon="18.008753639891587"><ele>3.0</ele><time>2026-04-26T13:47:02.053Z</time></trkpt><trkpt lat="40.04770659071949" lon="18.008560406954704"><ele>3.0</ele><time>2026-04-26T13:47:03.053Z</time></trkpt><trkpt lat="40.04769485849294" lon="18.008364541764056"><ele>3.0</ele><time>2026-04-26T13:47:04.053Z</time></trkpt><trkpt lat="40.04768467978696" lon="18.008171507848203"><ele>2.5</ele><time>2026-04-26T13:47:05.053Z</time></trkpt><trkpt lat="40.04767316607821" lon="18.007986644028254"><ele>2.0</ele><time>2026-04-26T13:47:06.053Z</time></trkpt><trkpt lat="40.04766223900213" lon="18.007818248802096"><ele>1.5</ele><time>2026-04-26T13:47:07.053Z</time></trkpt><trkpt lat="40.04764896895242" lon="18.007669798536227"><ele>1.0</ele><time>2026-04-26T13:47:08.053Z</time></trkpt><trkpt lat="40.04763277792822" lon="18.007531984227548"><ele>1.2000000000000002</ele><time>2026-04-26T13:47:09.053Z</time></trkpt><trkpt lat="40.04762429539604" lon="18.007391047409307"><ele>1.4000000000000001</ele><time>2026-04-26T13:47:10.053Z</time></trkpt><trkpt lat="40.04761627914115" lon="18.00725469443737"><ele>1.6</ele><time>2026-04-26T13:47:11.053Z</time></trkpt><trkpt lat="40.047607377569776" lon="18.007139739392894"><ele>1.8</ele><time>2026-04-26T13:47:12.053Z</time></trkpt><trkpt lat="40.047597236163945" lon="18.00704805860872"><ele>2.0</ele><time>2026-04-26T13:47:13.053Z</time></trkpt><trkpt lat="40.04753344386351" lon="18.00694832776944"><ele>1.9999999999999998</ele><time>2026-04-26T13:47:15.053Z</time></trkpt><trkpt lat="40.04747459719778" lon="18.006918019165813"><ele>2.0</ele><time>2026-04-26T13:47:16.053Z</time></trkpt><trkpt lat="40.04740211839093" lon="18.006879221606663"><ele>2.0</ele><time>2026-04-26T13:47:17.053Z</time></trkpt><trkpt lat="40.04732677289361" lon="18.0068238778017"><ele>2.0</ele><time>2026-04-26T13:47:18.053Z</time></trkpt><trkpt lat="40.04725255574485" lon="18.006752119606357"><ele>1.9999999999999998</ele><time>2026-04-26T13:47:19.053Z</time></trkpt><trkpt lat="40.04718882118961" lon="18.00667336604433"><ele>2.0</ele><time>2026-04-26T13:47:20.053Z</time></trkpt><trkpt lat="40.04713530065527" lon="18.006595594415213"><ele>1.9999999999999998</ele><time>2026-04-26T13:47:21.053Z</time></trkpt><trkpt lat="40.04708402964728" lon="18.006533744696057"><ele>2.0</ele><time>2026-04-26T13:47:22.053Z</time></trkpt><trkpt lat="40.04703949365593" lon="18.00646711358038"><ele>2.0</ele><time>2026-04-26T13:47:23.053Z</time></trkpt><trkpt lat="40.046995875015014" lon="18.006398628306542"><ele>2.0</ele><time>2026-04-26T13:47:24.053Z</time></trkpt><trkpt lat="40.04696157780011" lon="18.006318245479402"><ele>1.9999999999999998</ele><time>2026-04-26T13:47:25.053Z</time></trkpt><trkpt lat="40.046924225530475" lon="18.006217477339572"><ele>2.0</ele><time>2026-04-26T13:47:27.053Z</time></trkpt><trkpt lat="40.046929940064686" lon="18.006092652997097"><ele>1.9999999999999998</ele><time>2026-04-26T13:47:31.053Z</time></trkpt><trkpt lat="40.04691017345885" lon="18.005970854445557"><ele>2.0</ele><time>2026-04-26T13:47:33.053Z</time></trkpt><trkpt lat="40.04684742972074" lon="18.00592999931147"><ele>2.0</ele><time>2026-04-26T13:47:35.053Z</time></trkpt><trkpt lat="40.04676368357522" lon="18.005988462818635"><ele>2.0</ele><time>2026-04-26T13:47:37.053Z</time></trkpt><trkpt lat="40.04670515411458" lon="18.006046490546534"><ele>1.9999999999999998</ele><time>2026-04-26T13:47:38.053Z</time></trkpt><trkpt lat="40.04661827586197" lon="18.00612923499681"><ele>2.0</ele><time>2026-04-26T13:47:39.053Z</time></trkpt><trkpt lat="40.04651350530418" lon="18.006230226619962"><ele>1.6</ele><time>2026-04-26T13:47:40.053Z</time></trkpt><trkpt lat="40.04641591627923" lon="18.006323071729444"><ele>1.2000000000000002</ele><time>2026-04-26T13:47:41.053Z</time></trkpt><trkpt lat="40.04633339473689" lon="18.006419902049778"><ele>0.8</ele><time>2026-04-26T13:47:42.053Z</time></trkpt><trkpt lat="40.04626192776532" lon="18.006494029073483"><ele>0.4</ele><time>2026-04-26T13:47:43.053Z</time></trkpt><trkpt lat="40.046198683487965" lon="18.00655749479503"><ele>0.0</ele><time>2026-04-26T13:47:44.053Z</time></trkpt><trkpt lat="40.046145287841405" lon="18.006614765034822"><ele>0.0</ele><time>2026-04-26T13:47:45.053Z</time></trkpt><trkpt lat="40.046058231086946" lon="18.00670663100776"><ele>0.0</ele><time>2026-04-26T13:47:47.053Z</time></trkpt><trkpt lat="40.04599422453364" lon="18.006775551525642"><ele>0.0</ele><time>2026-04-26T13:47:49.053Z</time></trkpt><trkpt lat="40.04592626705722" lon="18.006843855827473"><ele>0.0</ele><time>2026-04-26T13:47:51.053Z</time></trkpt><trkpt lat="40.04585150410507" lon="18.006935081754275"><ele>0.0</ele><time>2026-04-26T13:47:53.053Z</time></trkpt><trkpt lat="40.0457917021938" lon="18.00700859994463"><ele>0.0</ele><time>2026-04-26T13:47:55.053Z</time></trkpt><trkpt lat="40.045727436848416" lon="18.00707568168555"><ele>0.0</ele><time>2026-04-26T13:47:57.053Z</time></trkpt><trkpt lat="40.045674722563874" lon="18.007149670897803"><ele>0.0</ele><time>2026-04-26T13:47:59.053Z</time></trkpt><trkpt lat="40.04560525992643" lon="18.007229852438005"><ele>0.0</ele><time>2026-04-26T13:48:01.053Z</time></trkpt><trkpt lat="40.04552006174687" lon="18.007333041213016"><ele>0.0</ele><time>2026-04-26T13:48:03.053Z</time></trkpt><trkpt lat="40.04546352656054" lon="18.007391319315126"><ele>0.0</ele><time>2026-04-26T13:48:04.053Z</time></trkpt><trkpt lat="40.04541038851097" lon="18.007450127713675"><ele>0.0</ele><time>2026-04-26T13:48:05.053Z</time></trkpt><trkpt lat="40.04533311305672" lon="18.007540512468"><ele>1.0</ele><time>2026-04-26T13:48:07.053Z</time></trkpt><trkpt lat="40.04528290414527" lon="18.007603500475543"><ele>1.0</ele><time>2026-04-26T13:48:10.053Z</time></trkpt><trkpt lat="40.04529271259017" lon="18.007692118257527"><ele>1.0</ele><time>2026-04-26T13:48:17.053Z</time></trkpt></trkseg><trkseg><trkpt lat="40.049911882676746" lon="17.999778893472755"><ele>0.0</ele><time>2026-04-26T16:31:51.088Z</time></trkpt><trkpt lat="40.049865435156036" lon="17.99985379658189"><ele>0.0</ele><time>2026-04-26T16:31:53.088Z</time></trkpt><trkpt lat="40.04981587032294" lon="17.99993054283297"><ele>0.0</ele><time>2026-04-26T16:31:56.088Z</time></trkpt><trkpt lat="40.04977238534262" lon="18.000004138075113"><ele>0.0</ele><time>2026-04-26T16:31:58.088Z</time></trkpt><trkpt lat="40.049725605819866" lon="18.000085602555757"><ele>0.0</ele><time>2026-04-26T16:32:00.088Z</time></trkpt><trkpt lat="40.04967538296824" lon="18.000161028652958"><ele>0.0</ele><time>2026-04-26T16:32:02.088Z</time></trkpt><trkpt lat="40.049631230790794" lon="18.000227818370973"><ele>0.0</ele><time>2026-04-26T16:32:04.088Z</time></trkpt><trkpt lat="40.04958035337107" lon="18.000299088220434"><ele>0.0</ele><time>2026-04-26T16:32:08.088Z</time></trkpt><trkpt lat="40.04953638595015" lon="18.000372056188688"><ele>0.0</ele><time>2026-04-26T16:32:11.088Z</time></trkpt><trkpt lat="40.049499678818236" lon="18.00043941252969"><ele>0.0</ele><time>2026-04-26T16:32:13.088Z</time></trkpt><trkpt lat="40.04942254463264" lon="18.00052651032091"><ele>0.0</ele><time>2026-04-26T16:32:15.088Z</time></trkpt><trkpt lat="40.049350402629145" lon="18.000644140642247"><ele>0.0</ele><time>2026-04-26T16:32:17.088Z</time></trkpt><trkpt lat="40.04929542347749" lon="18.000745768947993"><ele>0.0</ele><time>2026-04-26T16:32:19.088Z</time></trkpt><trkpt lat="40.049253076293326" lon="18.00083156914591"><ele>0.0</ele><time>2026-04-26T16:32:21.088Z</time></trkpt><trkpt lat="40.049213175320425" lon="18.000906251826056"><ele>0.0</ele><time>2026-04-26T16:32:23.088Z</time></trkpt><trkpt lat="40.04917727173352" lon="18.00098266705108"><ele>0.0</ele><time>2026-04-26T16:32:25.088Z</time></trkpt><trkpt lat="40.04913642421959" lon="18.00105661728441"><ele>0.0</ele><time>2026-04-26T16:32:27.088Z</time></trkpt><trkpt lat="40.04909662365933" lon="18.00115010731142"><ele>0.0</ele><time>2026-04-26T16:32:29.088Z</time></trkpt><trkpt lat="40.04905873305177" lon="18.00123745395186"><ele>0.0</ele><time>2026-04-26T16:32:31.088Z</time></trkpt><trkpt lat="40.04900679886622" lon="18.001336369483557"><ele>0.0</ele><time>2026-04-26T16:32:33.088Z</time></trkpt><trkpt lat="40.04895658157682" lon="18.001446079455345"><ele>0.0</ele><time>2026-04-26T16:32:35.088Z</time></trkpt><trkpt lat="40.04891223858623" lon="18.001564000047676"><ele>0.0</ele><time>2026-04-26T16:32:37.088Z</time></trkpt><trkpt lat="40.04886588796971" lon="18.001664764332677"><ele>0.0</ele><time>2026-04-26T16:32:39.088Z</time></trkpt><trkpt lat="40.048820101054375" lon="18.001737479495944"><ele>0.0</ele><time>2026-04-26T16:32:42.089Z</time></trkpt><trkpt lat="40.048785595466136" lon="18.001818954105847"><ele>0.0</ele><time>2026-04-26T16:32:46.089Z</time></trkpt><trkpt lat="40.04874506186094" lon="18.00189817591886"><ele>0.6666666666666666</ele><time>2026-04-26T16:32:49.089Z</time></trkpt><trkpt lat="40.048710799994275" lon="18.001976820896875"><ele>1.3333333333333333</ele><time>2026-04-26T16:32:51.089Z</time></trkpt><trkpt lat="40.04866382853352" lon="18.00206987462707"><ele>2.0</ele><time>2026-04-26T16:32:53.089Z</time></trkpt><trkpt lat="40.04862412494899" lon="18.00214898765245"><ele>2.6666666666666665</ele><time>2026-04-26T16:32:56.089Z</time></trkpt><trkpt lat="40.04858509021818" lon="18.002225393102307"><ele>3.333333333333333</ele><time>2026-04-26T16:33:00.089Z</time></trkpt><trkpt lat="40.04855599901333" lon="18.002307125114257"><ele>4.0</ele><time>2026-04-26T16:33:02.089Z</time></trkpt><trkpt lat="40.04851863745109" lon="18.00242370670777"><ele>3.6666666666666665</ele><time>2026-04-26T16:33:04.089Z</time></trkpt><trkpt lat="40.04849268687104" lon="18.002508645855407"><ele>3.333333333333333</ele><time>2026-04-26T16:33:05.089Z</time></trkpt><trkpt lat="40.04846535980137" lon="18.002612655186194"><ele>3.0</ele><time>2026-04-26T16:33:06.089Z</time></trkpt><trkpt lat="40.04842956691893" lon="18.00272766139655"><ele>2.6666666666666665</ele><time>2026-04-26T16:33:07.089Z</time></trkpt><trkpt lat="40.04838799301213" lon="18.002845176096177"><ele>2.333333333333333</ele><time>2026-04-26T16:33:08.089Z</time></trkpt><trkpt lat="40.04834758110348" lon="18.00295371813937"><ele>2.0</ele><time>2026-04-26T16:33:09.089Z</time></trkpt><trkpt lat="40.048306320200126" lon="18.003067513898017"><ele>1.6</ele><time>2026-04-26T16:33:10.089Z</time></trkpt><trkpt lat="40.048267898652206" lon="18.00317743100703"><ele>1.2000000000000002</ele><time>2026-04-26T16:33:11.089Z</time></trkpt><trkpt lat="40.048224648124396" lon="18.003299315809528"><ele>0.8</ele><time>2026-04-26T16:33:12.089Z</time></trkpt><trkpt lat="40.04818315262581" lon="18.00341102345553"><ele>0.4</ele><time>2026-04-26T16:33:13.089Z</time></trkpt><trkpt lat="40.048137158109206" lon="18.003519332684682"><ele>0.0</ele><time>2026-04-26T16:33:14.089Z</time></trkpt><trkpt lat="40.04808682185667" lon="18.003630334670294"><ele>0.0</ele><time>2026-04-26T16:33:15.089Z</time></trkpt><trkpt lat="40.04803777020886" lon="18.003735845468533"><ele>0.0</ele><time>2026-04-26T16:33:16.089Z</time></trkpt><trkpt lat="40.04798399601815" lon="18.003850475535625"><ele>0.0</ele><time>2026-04-26T16:33:17.089Z</time></trkpt><trkpt lat="40.04792113706852" lon="18.003968623839597"><ele>0.0</ele><time>2026-04-26T16:33:18.089Z</time></trkpt><trkpt lat="40.04785406903177" lon="18.004088768147113"><ele>0.0</ele><time>2026-04-26T16:33:19.089Z</time></trkpt><trkpt lat="40.04778849995861" lon="18.00420207553153"><ele>0.2</ele><time>2026-04-26T16:33:20.089Z</time></trkpt><trkpt lat="40.04772749335915" lon="18.004336785422094"><ele>0.4</ele><time>2026-04-26T16:33:21.089Z</time></trkpt><trkpt lat="40.04765815574028" lon="18.00445246949497"><ele>0.6000000000000001</ele><time>2026-04-26T16:33:22.089Z</time></trkpt><trkpt lat="40.04759859084241" lon="18.004568759350832"><ele>0.8</ele><time>2026-04-26T16:33:23.089Z</time></trkpt><trkpt lat="40.04754210342651" lon="18.00467646332191"><ele>1.0</ele><time>2026-04-26T16:33:24.089Z</time></trkpt><trkpt lat="40.04748998929459" lon="18.00477554710257"><ele>0.9999999999999999</ele><time>2026-04-26T16:33:25.089Z</time></trkpt><trkpt lat="40.047444013649674" lon="18.004868270095994"><ele>1.0</ele><time>2026-04-26T16:33:26.089Z</time></trkpt><trkpt lat="40.04739763883617" lon="18.00495967620165"><ele>1.0</ele><time>2026-04-26T16:33:27.089Z</time></trkpt><trkpt lat="40.04735517962441" lon="18.005041888909304"><ele>1.0</ele><time>2026-04-26T16:33:28.089Z</time></trkpt><trkpt lat="40.04730732935025" lon="18.00512886803865"><ele>0.9999999999999999</ele><time>2026-04-26T16:33:29.089Z</time></trkpt><trkpt lat="40.04726094817334" lon="18.005215989358263"><ele>1.0</ele><time>2026-04-26T16:33:30.089Z</time></trkpt><trkpt lat="40.04721301937605" lon="18.005304361323407"><ele>0.9999999999999999</ele><time>2026-04-26T16:33:31.089Z</time></trkpt><trkpt lat="40.04716668783793" lon="18.005381112667006"><ele>1.0</ele><time>2026-04-26T16:33:32.089Z</time></trkpt><trkpt lat="40.04712272915492" lon="18.00545536627067"><ele>1.0</ele><time>2026-04-26T16:33:33.089Z</time></trkpt><trkpt lat="40.04707717655473" lon="18.00551676599976"><ele>1.0</ele><time>2026-04-26T16:33:34.089Z</time></trkpt><trkpt lat="40.047032212276626" lon="18.005576905057396"><ele>0.9999999999999999</ele><time>2026-04-26T16:33:35.089Z</time></trkpt><trkpt lat="40.046984685480176" lon="18.0056355382414"><ele>1.0</ele><time>2026-04-26T16:33:36.089Z</time></trkpt><trkpt lat="40.04690055978657" lon="18.00575182034344"><ele>1.2000000000000002</ele><time>2026-04-26T16:33:38.089Z</time></trkpt><trkpt lat="40.04683471949578" lon="18.005851819978588"><ele>1.4000000000000001</ele><time>2026-04-26T16:33:40.089Z</time></trkpt><trkpt lat="40.046761615952015" lon="18.005932256794427"><ele>1.6</ele><time>2026-04-26T16:33:42.089Z</time></trkpt><trkpt lat="40.04675722986369" lon="18.006070686467957"><ele>1.8</ele><time>2026-04-26T16:33:44.089Z</time></trkpt><trkpt lat="40.046795562750965" lon="18.00615184846062"><ele>2.0</ele><time>2026-04-26T16:33:45.089Z</time></trkpt><trkpt lat="40.04684531734231" lon="18.006242687627406"><ele>2.0</ele><time>2026-04-26T16:33:46.089Z</time></trkpt><trkpt lat="40.04691950752554" lon="18.006363605508028"><ele>2.0</ele><time>2026-04-26T16:33:47.089Z</time></trkpt><trkpt lat="40.04700464144669" lon="18.006480104097342"><ele>2.0</ele><time>2026-04-26T16:33:48.089Z</time></trkpt><trkpt lat="40.04707422595222" lon="18.00658554102029"><ele>2.0</ele><time>2026-04-26T16:33:49.089Z</time></trkpt><trkpt lat="40.04712674109523" lon="18.00665858960816"><ele>2.0</ele><time>2026-04-26T16:33:50.089Z</time></trkpt><trkpt lat="40.047167822825216" lon="18.006723499881236"><ele>1.9999999999999998</ele><time>2026-04-26T16:33:51.089Z</time></trkpt><trkpt lat="40.04724861430481" lon="18.006826223079496"><ele>2.0</ele><time>2026-04-26T16:33:53.089Z</time></trkpt><trkpt lat="40.04731981050304" lon="18.006897657365414"><ele>2.0</ele><time>2026-04-26T16:33:55.089Z</time></trkpt><trkpt lat="40.047382333019634" lon="18.00693232994263"><ele>2.0</ele><time>2026-04-26T16:33:57.089Z</time></trkpt><trkpt lat="40.047437541016876" lon="18.00698322817878"><ele>1.9999999999999998</ele><time>2026-04-26T16:33:59.089Z</time></trkpt><trkpt lat="40.04750002242328" lon="18.00703888009296"><ele>2.0</ele><time>2026-04-26T16:34:01.089Z</time></trkpt><trkpt lat="40.047548178908094" lon="18.007145649417417"><ele>2.0</ele><time>2026-04-26T16:34:03.089Z</time></trkpt><trkpt lat="40.047575586971305" lon="18.00731515213564"><ele>2.0</ele><time>2026-04-26T16:34:05.089Z</time></trkpt><trkpt lat="40.04758788837389" lon="18.007443673158228"><ele>2.0</ele><time>2026-04-26T16:34:06.089Z</time></trkpt><trkpt lat="40.04759258609014" lon="18.007598003017417"><ele>2.0</ele><time>2026-04-26T16:34:07.089Z</time></trkpt><trkpt lat="40.047604134916504" lon="18.00777183940415"><ele>1.75</ele><time>2026-04-26T16:34:08.089Z</time></trkpt><trkpt lat="40.047616254777026" lon="18.007962143521414"><ele>1.5</ele><time>2026-04-26T16:34:09.089Z</time></trkpt><trkpt lat="40.047624608447705" lon="18.008133668049595"><ele>1.25</ele><time>2026-04-26T16:34:10.089Z</time></trkpt><trkpt lat="40.047638547662444" lon="18.0082989672309"><ele>1.0</ele><time>2026-04-26T16:34:11.089Z</time></trkpt><trkpt lat="40.04764619885734" lon="18.00846624676427"><ele>1.5</ele><time>2026-04-26T16:34:12.089Z</time></trkpt><trkpt lat="40.04765394101132" lon="18.008633402817356"><ele>2.0</ele><time>2026-04-26T16:34:13.089Z</time></trkpt><trkpt lat="40.04766676350971" lon="18.00880722704174"><ele>2.5</ele><time>2026-04-26T16:34:14.089Z</time></trkpt><trkpt lat="40.04769139288976" lon="18.00898243768995"><ele>3.0</ele><time>2026-04-26T16:34:15.089Z</time></trkpt><trkpt lat="40.04774162608047" lon="18.00914839874049"><ele>2.6666666666666665</ele><time>2026-04-26T16:34:16.089Z</time></trkpt><trkpt lat="40.04779058852639" lon="18.009343607458323"><ele>2.333333333333333</ele><time>2026-04-26T16:34:17.089Z</time></trkpt><trkpt lat="40.047822830323845" lon="18.009530717280953"><ele>2.0</ele><time>2026-04-26T16:34:18.089Z</time></trkpt><trkpt lat="40.04787867660858" lon="18.009764323496018"><ele>2.333333333333333</ele><time>2026-04-26T16:34:19.089Z</time></trkpt><trkpt lat="40.04793855658822" lon="18.010013799515807"><ele>2.6666666666666665</ele><time>2026-04-26T16:34:20.089Z</time></trkpt><trkpt lat="40.04799874315134" lon="18.01023782494457"><ele>3.0</ele><time>2026-04-26T16:34:21.089Z</time></trkpt><trkpt lat="40.048052440451535" lon="18.01043141417697"><ele>3.0</ele><time>2026-04-26T16:34:22.089Z</time></trkpt><trkpt lat="40.04809914738186" lon="18.010602722420096"><ele>3.0</ele><time>2026-04-26T16:34:23.089Z</time></trkpt><trkpt lat="40.0481399148919" lon="18.010761154725156"><ele>3.0</ele><time>2026-04-26T16:34:24.089Z</time></trkpt><trkpt lat="40.048179880594965" lon="18.0109194238127"><ele>3.0</ele><time>2026-04-26T16:34:25.089Z</time></trkpt><trkpt lat="40.048218104853376" lon="18.011074120017888"><ele>3.2</ele><time>2026-04-26T16:34:26.089Z</time></trkpt><trkpt lat="40.04825546157839" lon="18.01122014841357"><ele>3.4</ele><time>2026-04-26T16:34:27.089Z</time></trkpt><trkpt lat="40.048292268608925" lon="18.01136511578987"><ele>3.6000000000000005</ele><time>2026-04-26T16:34:28.089Z</time></trkpt><trkpt lat="40.048325135778484" lon="18.011496778542202"><ele>3.8000000000000003</ele><time>2026-04-26T16:34:29.089Z</time></trkpt><trkpt lat="40.04835769745293" lon="18.011617786500192"><ele>4.0</ele><time>2026-04-26T16:34:30.089Z</time></trkpt><trkpt lat="40.04838873458187" lon="18.01172851265861"><ele>4.4</ele><time>2026-04-26T16:34:31.089Z</time></trkpt><trkpt lat="40.04842038495913" lon="18.0118358898336"><ele>4.800000000000001</ele><time>2026-04-26T16:34:32.089Z</time></trkpt><trkpt lat="40.04845092787187" lon="18.01195748290045"><ele>5.199999999999999</ele><time>2026-04-26T16:34:33.089Z</time></trkpt><trkpt lat="40.04847953025931" lon="18.012085320473787"><ele>5.6</ele><time>2026-04-26T16:34:34.089Z</time></trkpt><trkpt lat="40.04850858197093" lon="18.012204154558088"><ele>6.0</ele><time>2026-04-26T16:34:35.089Z</time></trkpt><trkpt lat="40.04853411962011" lon="18.012317533525305"><ele>6.0</ele><time>2026-04-26T16:34:36.089Z</time></trkpt><trkpt lat="40.048560749478895" lon="18.01243651164762"><ele>6.0</ele><time>2026-04-26T16:34:37.089Z</time></trkpt><trkpt lat="40.048593361790616" lon="18.012551320483983"><ele>6.0</ele><time>2026-04-26T16:34:38.089Z</time></trkpt><trkpt lat="40.048620124708506" lon="18.01266320045559"><ele>6.0</ele><time>2026-04-26T16:34:39.089Z</time></trkpt><trkpt lat="40.04864481290593" lon="18.012767137492073"><ele>6.0</ele><time>2026-04-26T16:34:40.089Z</time></trkpt><trkpt lat="40.04867078094301" lon="18.012850650623847"><ele>6.0</ele><time>2026-04-26T16:34:41.089Z</time></trkpt><trkpt lat="40.04869221785586" lon="18.0129507319529"><ele>6.0</ele><time>2026-04-26T16:34:42.089Z</time></trkpt><trkpt lat="40.048718860668224" lon="18.013062832547813"><ele>6.0</ele><time>2026-04-26T16:34:43.089Z</time></trkpt><trkpt lat="40.04874407034091" lon="18.013165763887613"><ele>6.0</ele><time>2026-04-26T16:34:44.089Z</time></trkpt><trkpt lat="40.04876214036295" lon="18.013265771066404"><ele>6.0</ele><time>2026-04-26T16:34:45.089Z</time></trkpt><trkpt lat="40.048776399496155" lon="18.013357875727927"><ele>6.0</ele><time>2026-04-26T16:34:46.089Z</time></trkpt><trkpt lat="40.04877425439462" lon="18.013448911558637"><ele>6.0</ele><time>2026-04-26T16:34:47.088Z</time></trkpt><trkpt lat="40.048761092085336" lon="18.013543247548306"><ele>6.5</ele><time>2026-04-26T16:34:48.088Z</time></trkpt><trkpt lat="40.04874160815097" lon="18.013637815004433"><ele>7.0</ele><time>2026-04-26T16:34:49.088Z</time></trkpt><trkpt lat="40.048721393617946" lon="18.013731686319385"><ele>7.5</ele><time>2026-04-26T16:34:50.088Z</time></trkpt><trkpt lat="40.048690955885945" lon="18.0138255863169"><ele>8.0</ele><time>2026-04-26T16:34:51.089Z</time></trkpt><trkpt lat="40.048650619597275" lon="18.01391503820731"><ele>8.5</ele><time>2026-04-26T16:34:52.089Z</time></trkpt><trkpt lat="40.04859672628558" lon="18.01398989462811"><ele>9.0</ele><time>2026-04-26T16:34:53.088Z</time></trkpt><trkpt lat="40.0485304637639" lon="18.01406598832172"><ele>9.0</ele><time>2026-04-26T16:34:54.088Z</time></trkpt><trkpt lat="40.048457891910466" lon="18.014140411564405"><ele>9.0</ele><time>2026-04-26T16:34:55.088Z</time></trkpt><trkpt lat="40.048371995885766" lon="18.014210734613393"><ele>9.0</ele><time>2026-04-26T16:34:56.089Z</time></trkpt><trkpt lat="40.04827630273484" lon="18.014271864351223"><ele>9.0</ele><time>2026-04-26T16:34:57.088Z</time></trkpt><trkpt lat="40.04818155476799" lon="18.014318020183428"><ele>9.0</ele><time>2026-04-26T16:34:58.088Z</time></trkpt><trkpt lat="40.04808626883961" lon="18.01434304269097"><ele>8.833333333333334</ele><time>2026-04-26T16:34:59.088Z</time></trkpt><trkpt lat="40.04799707161825" lon="18.01435209020899"><ele>8.666666666666666</ele><time>2026-04-26T16:35:00.089Z</time></trkpt><trkpt lat="40.047910904004326" lon="18.01433164711424"><ele>8.5</ele><time>2026-04-26T16:35:01.089Z</time></trkpt><trkpt lat="40.04782589348351" lon="18.01430120345268"><ele>8.333333333333332</ele><time>2026-04-26T16:35:02.089Z</time></trkpt><trkpt lat="40.047743906369064" lon="18.014255921206615"><ele>8.166666666666666</ele><time>2026-04-26T16:35:03.089Z</time></trkpt><trkpt lat="40.04766927990528" lon="18.01420118064942"><ele>8.0</ele><time>2026-04-26T16:35:04.089Z</time></trkpt><trkpt lat="40.0476034351818" lon="18.014147295274107"><ele>7.4</ele><time>2026-04-26T16:35:05.089Z</time></trkpt><trkpt lat="40.04753922339745" lon="18.014086310109153"><ele>6.800000000000001</ele><time>2026-04-26T16:35:06.089Z</time></trkpt><trkpt lat="40.047478047313206" lon="18.014021565646086"><ele>6.2</ele><time>2026-04-26T16:35:07.089Z</time></trkpt><trkpt lat="40.04742980451205" lon="18.013956053312036"><ele>5.6</ele><time>2026-04-26T16:35:08.089Z</time></trkpt><trkpt lat="40.04735887118259" lon="18.013837051523723"><ele>5.0</ele><time>2026-04-26T16:35:10.089Z</time></trkpt><trkpt lat="40.04729258200053" lon="18.01372110085666"><ele>4.666666666666667</ele><time>2026-04-26T16:35:12.089Z</time></trkpt><trkpt lat="40.04721872203069" lon="18.013616557461212"><ele>4.333333333333334</ele><time>2026-04-26T16:35:14.089Z</time></trkpt><trkpt lat="40.047172387258485" lon="18.01353473713697"><ele>4.0</ele><time>2026-04-26T16:35:16.089Z</time></trkpt><trkpt lat="40.04712041395872" lon="18.013473380884957"><ele>3.666666666666667</ele><time>2026-04-26T16:35:19.089Z</time></trkpt><trkpt lat="40.04702865814083" lon="18.013426010337312"><ele>3.3333333333333335</ele><time>2026-04-26T16:35:54.089Z</time></trkpt><trkpt lat="40.0469560153096" lon="18.013455351680204"><ele>3.0</ele><time>2026-04-26T16:35:55.089Z</time></trkpt><trkpt lat="40.046881369699115" lon="18.01350038633425"><ele>3.0</ele><time>2026-04-26T16:35:56.089Z</time></trkpt><trkpt lat="40.046798822892775" lon="18.013595335052486"><ele>3.0</ele><time>2026-04-26T16:35:57.089Z</time></trkpt><trkpt lat="40.04669551263882" lon="18.013720806326642"><ele>3.0</ele><time>2026-04-26T16:35:58.089Z</time></trkpt><trkpt lat="40.04658239624402" lon="18.013852761464726"><ele>3.0</ele><time>2026-04-26T16:35:59.089Z</time></trkpt><trkpt lat="40.046449592148385" lon="18.014000139007"><ele>3.0</ele><time>2026-04-26T16:36:00.089Z</time></trkpt><trkpt lat="40.04630722109713" lon="18.014156691777195"><ele>3.0</ele><time>2026-04-26T16:36:01.089Z</time></trkpt><trkpt lat="40.04616328928137" lon="18.014312391808364"><ele>3.0</ele><time>2026-04-26T16:36:02.089Z</time></trkpt><trkpt lat="40.046036035415156" lon="18.014457085274525"><ele>3.0</ele><time>2026-04-26T16:36:03.089Z</time></trkpt><trkpt lat="40.04592443259545" lon="18.014583503926648"><ele>3.0</ele><time>2026-04-26T16:36:04.089Z</time></trkpt><trkpt lat="40.04581655374457" lon="18.014700204321294"><ele>3.0</ele><time>2026-04-26T16:36:05.089Z</time></trkpt><trkpt lat="40.04571361074168" lon="18.014810227058828"><ele>3.0</ele><time>2026-04-26T16:36:06.089Z</time></trkpt><trkpt lat="40.04560972431352" lon="18.014919721615698"><ele>3.0</ele><time>2026-04-26T16:36:07.089Z</time></trkpt><trkpt lat="40.045502734676106" lon="18.015039326679947"><ele>3.0</ele><time>2026-04-26T16:36:08.089Z</time></trkpt><trkpt lat="40.0453896916162" lon="18.01515597079771"><ele>3.0</ele><time>2026-04-26T16:36:09.089Z</time></trkpt><trkpt lat="40.04527578130963" lon="18.015282278078775"><ele>3.0</ele><time>2026-04-26T16:36:10.089Z</time></trkpt><trkpt lat="40.045152062625256" lon="18.015420370450432"><ele>3.0</ele><time>2026-04-26T16:36:11.089Z</time></trkpt><trkpt lat="40.0450236676025" lon="18.015564303485544"><ele>3.0</ele><time>2026-04-26T16:36:12.089Z</time></trkpt><trkpt lat="40.04489357489268" lon="18.015695317045793"><ele>3.0</ele><time>2026-04-26T16:36:13.089Z</time></trkpt><trkpt lat="40.044781530615" lon="18.015826261896887"><ele>3.25</ele><time>2026-04-26T16:36:14.089Z</time></trkpt><trkpt lat="40.044686423870985" lon="18.015945457598317"><ele>3.5</ele><time>2026-04-26T16:36:15.089Z</time></trkpt><trkpt lat="40.0445846463212" lon="18.01604772077821"><ele>3.75</ele><time>2026-04-26T16:36:16.089Z</time></trkpt><trkpt lat="40.04448676550882" lon="18.016158454041005"><ele>4.0</ele><time>2026-04-26T16:36:17.089Z</time></trkpt><trkpt lat="40.04439393836376" lon="18.01626328591563"><ele>4.0</ele><time>2026-04-26T16:36:18.089Z</time></trkpt><trkpt lat="40.044325356709834" lon="18.01635152336863"><ele>4.0</ele><time>2026-04-26T16:36:19.089Z</time></trkpt><trkpt lat="40.04427265963942" lon="18.01642097369051"><ele>4.0</ele><time>2026-04-26T16:36:20.089Z</time></trkpt><trkpt lat="40.044227754394115" lon="18.01648018143949"><ele>4.0</ele><time>2026-04-26T16:36:21.089Z</time></trkpt><trkpt lat="40.044155322250646" lon="18.016594091850177"><ele>4.0</ele><time>2026-04-26T16:36:23.089Z</time></trkpt><trkpt lat="40.04414491173496" lon="18.016755748111766"><ele>4.0</ele><time>2026-04-26T16:36:25.089Z</time></trkpt><trkpt lat="40.04417295717768" lon="18.016856151569907"><ele>4.0</ele><time>2026-04-26T16:36:26.089Z</time></trkpt><trkpt lat="40.04422429043962" lon="18.016973810796884"><ele>4.0</ele><time>2026-04-26T16:36:27.089Z</time></trkpt><trkpt lat="40.04429536915447" lon="18.01710402609159"><ele>4.0</ele><time>2026-04-26T16:36:28.089Z</time></trkpt><trkpt lat="40.0443541830744" lon="18.01727567950727"><ele>4.0</ele><time>2026-04-26T16:36:29.089Z</time></trkpt><trkpt lat="40.044402760555286" lon="18.017482845867743"><ele>4.0</ele><time>2026-04-26T16:36:30.089Z</time></trkpt><trkpt lat="40.044436016315764" lon="18.01773732084274"><ele>4.0</ele><time>2026-04-26T16:36:31.089Z</time></trkpt><trkpt lat="40.04446560567089" lon="18.01802010616899"><ele>4.333333333333333</ele><time>2026-04-26T16:36:32.089Z</time></trkpt><trkpt lat="40.04448744648148" lon="18.018281647704562"><ele>4.666666666666667</ele><time>2026-04-26T16:36:33.089Z</time></trkpt><trkpt lat="40.0444963409346" lon="18.018512130313255"><ele>5.0</ele><time>2026-04-26T16:36:34.089Z</time></trkpt><trkpt lat="40.0444947800677" lon="18.01872706256471"><ele>5.333333333333334</ele><time>2026-04-26T16:36:35.089Z</time></trkpt><trkpt lat="40.04446655834835" lon="18.018942909974836"><ele>5.666666666666667</ele><time>2026-04-26T16:36:36.089Z</time></trkpt><trkpt lat="40.04443044838505" lon="18.0191627941744"><ele>6.0</ele><time>2026-04-26T16:36:37.089Z</time></trkpt><trkpt lat="40.04436927752056" lon="18.019368040415305"><ele>7.0</ele><time>2026-04-26T16:36:38.089Z</time></trkpt><trkpt lat="40.04429451860358" lon="18.0195593093346"><ele>8.0</ele><time>2026-04-26T16:36:39.089Z</time></trkpt><trkpt lat="40.04421569149524" lon="18.01975127510088"><ele>9.0</ele><time>2026-04-26T16:36:40.089Z</time></trkpt><trkpt lat="40.04413957033812" lon="18.019945784311602"><ele>9.0</ele><time>2026-04-26T16:36:41.089Z</time></trkpt><trkpt lat="40.04403734822738" lon="18.020126307116236"><ele>9.0</ele><time>2026-04-26T16:36:42.089Z</time></trkpt><trkpt lat="40.04390493789438" lon="18.02026947908631"><ele>9.0</ele><time>2026-04-26T16:36:43.089Z</time></trkpt><trkpt lat="40.043758502523396" lon="18.020376570904542"><ele>9.0</ele><time>2026-04-26T16:36:44.089Z</time></trkpt><trkpt lat="40.04361627675304" lon="18.02048631360173"><ele>9.0</ele><time>2026-04-26T16:36:45.089Z</time></trkpt><trkpt lat="40.04346741237191" lon="18.020584810884742"><ele>9.0</ele><time>2026-04-26T16:36:46.089Z</time></trkpt><trkpt lat="40.043319264881575" lon="18.02065908285638"><ele>8.25</ele><time>2026-04-26T16:36:47.089Z</time></trkpt><trkpt lat="40.043178220943346" lon="18.020710388873354"><ele>7.5</ele><time>2026-04-26T16:36:48.089Z</time></trkpt><trkpt lat="40.04304391897129" lon="18.020748132508988"><ele>6.75</ele><time>2026-04-26T16:36:49.089Z</time></trkpt><trkpt lat="40.04291253972576" lon="18.02078254502322"><ele>6.0</ele><time>2026-04-26T16:36:50.089Z</time></trkpt><trkpt lat="40.04279755883931" lon="18.02078792243424"><ele>6.0</ele><time>2026-04-26T16:36:51.089Z</time></trkpt><trkpt lat="40.04269664619851" lon="18.020781230845675"><ele>6.0</ele><time>2026-04-26T16:36:52.089Z</time></trkpt><trkpt lat="40.042615943698486" lon="18.020766704520593"><ele>6.0</ele><time>2026-04-26T16:36:53.088Z</time></trkpt><trkpt lat="40.04253228016461" lon="18.02071096904558"><ele>6.0</ele><time>2026-04-26T16:36:54.088Z</time></trkpt><trkpt lat="40.04245852855395" lon="18.02062544912201"><ele>6.0</ele><time>2026-04-26T16:36:55.088Z</time></trkpt><trkpt lat="40.04240382511406" lon="18.020520196490732"><ele>6.0</ele><time>2026-04-26T16:36:56.089Z</time></trkpt><trkpt lat="40.04237390857916" lon="18.020405574629923"><ele>6.0</ele><time>2026-04-26T16:36:57.088Z</time></trkpt><trkpt lat="40.04236856634415" lon="18.020283782812772"><ele>6.0</ele><time>2026-04-26T16:36:58.088Z</time></trkpt><trkpt lat="40.042383748677445" lon="18.020160419066666"><ele>6.0</ele><time>2026-04-26T16:36:59.088Z</time></trkpt><trkpt lat="40.04241612765248" lon="18.020040028849643"><ele>6.0</ele><time>2026-04-26T16:37:00.088Z</time></trkpt><trkpt lat="40.042474092605445" lon="18.019934248931822"><ele>6.0</ele><time>2026-04-26T16:37:01.088Z</time></trkpt><trkpt lat="40.04256060896283" lon="18.019853514672388"><ele>6.0</ele><time>2026-04-26T16:37:02.088Z</time></trkpt><trkpt lat="40.04265850237075" lon="18.019792439101806"><ele>6.0</ele><time>2026-04-26T16:37:03.088Z</time></trkpt><trkpt lat="40.0427916662863" lon="18.019750020882025"><ele>6.0</ele><time>2026-04-26T16:37:04.088Z</time></trkpt><trkpt lat="40.04295315790465" lon="18.019725340806687"><ele>6.0</ele><time>2026-04-26T16:37:05.088Z</time></trkpt><trkpt lat="40.0431332715337" lon="18.019696667793486"><ele>6.0</ele><time>2026-04-26T16:37:06.088Z</time></trkpt><trkpt lat="40.04332656117005" lon="18.019673505075065"><ele>6.0</ele><time>2026-04-26T16:37:07.088Z</time></trkpt><trkpt lat="40.043538506885525" lon="18.019655311112434"><ele>7.0</ele><time>2026-04-26T16:37:08.088Z</time></trkpt><trkpt lat="40.043756028507225" lon="18.01963916934949"><ele>8.0</ele><time>2026-04-26T16:37:09.088Z</time></trkpt><trkpt lat="40.04399242550102" lon="18.01965074914054"><ele>8.5</ele><time>2026-04-26T16:37:10.088Z</time></trkpt><trkpt lat="40.04423073965126" lon="18.019681555293094"><ele>9.0</ele><time>2026-04-26T16:37:11.088Z</time></trkpt><trkpt lat="40.0444707206003" lon="18.019714010826835"><ele>9.0</ele><time>2026-04-26T16:37:12.088Z</time></trkpt><trkpt lat="40.044709816136056" lon="18.01974512616885"><ele>9.0</ele><time>2026-04-26T16:37:13.088Z</time></trkpt><trkpt lat="40.04495094771069" lon="18.019771489050157"><ele>9.5</ele><time>2026-04-26T16:37:14.088Z</time></trkpt><trkpt lat="40.04519329279168" lon="18.019798502817483"><ele>10.0</ele><time>2026-04-26T16:37:15.088Z</time></trkpt><trkpt lat="40.04543626688932" lon="18.01982688511035"><ele>10.0</ele><time>2026-04-26T16:37:16.088Z</time></trkpt><trkpt lat="40.04568187390437" lon="18.019857711060034"><ele>10.0</ele><time>2026-04-26T16:37:17.088Z</time></trkpt><trkpt lat="40.045927656987296" lon="18.0198852942886"><ele>11.0</ele><time>2026-04-26T16:37:18.088Z</time></trkpt><trkpt lat="40.04617263271814" lon="18.01991471873754"><ele>12.0</ele><time>2026-04-26T16:37:19.088Z</time></trkpt><trkpt lat="40.04641827921664" lon="18.0199437690322"><ele>15.0</ele><time>2026-04-26T16:37:20.088Z</time></trkpt><trkpt lat="40.04666311875182" lon="18.0199742771698"><ele>18.0</ele><time>2026-04-26T16:37:21.088Z</time></trkpt><trkpt lat="40.04691229828472" lon="18.020007468444536"><ele>18.5</ele><time>2026-04-26T16:37:22.088Z</time></trkpt><trkpt lat="40.04716147149443" lon="18.02004947261497"><ele>19.0</ele><time>2026-04-26T16:37:23.088Z</time></trkpt><trkpt lat="40.047404770489834" lon="18.020089132137034"><ele>20.0</ele><time>2026-04-26T16:37:24.088Z</time></trkpt><trkpt lat="40.04764589318299" lon="18.020128261365677"><ele>21.0</ele><time>2026-04-26T16:37:25.088Z</time></trkpt><trkpt lat="40.04788570900469" lon="18.020168984428356"><ele>21.0</ele><time>2026-04-26T16:37:26.088Z</time></trkpt><trkpt lat="40.04812382281349" lon="18.020206810177793"><ele>21.0</ele><time>2026-04-26T16:37:27.088Z</time></trkpt><trkpt lat="40.048361412536316" lon="18.02024948308962"><ele>20.5</ele><time>2026-04-26T16:37:28.088Z</time></trkpt><trkpt lat="40.048597245683666" lon="18.02028497060121"><ele>20.0</ele><time>2026-04-26T16:37:29.088Z</time></trkpt><trkpt lat="40.048843430491374" lon="18.020315666660274"><ele>20.0</ele><time>2026-04-26T16:37:30.088Z</time></trkpt><trkpt lat="40.04910363467371" lon="18.02034902029034"><ele>20.0</ele><time>2026-04-26T16:37:31.088Z</time></trkpt><trkpt lat="40.04936758150757" lon="18.02038660711548"><ele>19.0</ele><time>2026-04-26T16:37:32.088Z</time></trkpt><trkpt lat="40.04962748768414" lon="18.020424823847662"><ele>18.0</ele><time>2026-04-26T16:37:33.088Z</time></trkpt><trkpt lat="40.049884130110655" lon="18.020459610144204"><ele>18.0</ele><time>2026-04-26T16:37:34.088Z</time></trkpt><trkpt lat="40.05014345321359" lon="18.020489799807287"><ele>18.0</ele><time>2026-04-26T16:37:35.088Z</time></trkpt><trkpt lat="40.05040203023639" lon="18.02051854533504"><ele>18.0</ele><time>2026-04-26T16:37:36.088Z</time></trkpt><trkpt lat="40.05065448310643" lon="18.02054104673142"><ele>18.0</ele><time>2026-04-26T16:37:37.088Z</time></trkpt><trkpt lat="40.050894741152085" lon="18.02055516676205"><ele>17.5</ele><time>2026-04-26T16:37:38.088Z</time></trkpt><trkpt lat="40.051135209613705" lon="18.020562231686025"><ele>17.0</ele><time>2026-04-26T16:37:39.088Z</time></trkpt><trkpt lat="40.05137638608861" lon="18.020563332777865"><ele>17.0</ele><time>2026-04-26T16:37:40.088Z</time></trkpt><trkpt lat="40.05160042297262" lon="18.02056107980783"><ele>17.0</ele><time>2026-04-26T16:37:41.088Z</time></trkpt><trkpt lat="40.05181403688729" lon="18.020557549124195"><ele>17.0</ele><time>2026-04-26T16:37:42.088Z</time></trkpt><trkpt lat="40.05201787766042" lon="18.0205507249914"><ele>17.333333333333336</ele><time>2026-04-26T16:37:43.088Z</time></trkpt><trkpt lat="40.05222052684329" lon="18.02053857822194"><ele>17.666666666666668</ele><time>2026-04-26T16:37:44.088Z</time></trkpt><trkpt lat="40.05242309055317" lon="18.02052239842061"><ele>18.0</ele><time>2026-04-26T16:37:45.088Z</time></trkpt><trkpt lat="40.052622416241384" lon="18.020505513633594"><ele>19.333333333333332</ele><time>2026-04-26T16:37:46.088Z</time></trkpt><trkpt lat="40.05281442925472" lon="18.020482420496652"><ele>20.666666666666664</ele><time>2026-04-26T16:37:47.088Z</time></trkpt><trkpt lat="40.053009884917046" lon="18.02045499736008"><ele>22.0</ele><time>2026-04-26T16:37:48.088Z</time></trkpt><trkpt lat="40.05320908547376" lon="18.020420771037227"><ele>22.333333333333332</ele><time>2026-04-26T16:37:49.088Z</time></trkpt><trkpt lat="40.05340855060582" lon="18.020385634026113"><ele>22.666666666666668</ele><time>2026-04-26T16:37:50.088Z</time></trkpt><trkpt lat="40.053595177846454" lon="18.020351279983593"><ele>23.0</ele><time>2026-04-26T16:37:51.088Z</time></trkpt><trkpt lat="40.05378269389641" lon="18.020311762200276"><ele>23.0</ele><time>2026-04-26T16:37:52.088Z</time></trkpt><trkpt lat="40.053968675630045" lon="18.02026472425857"><ele>23.0</ele><time>2026-04-26T16:37:53.088Z</time></trkpt><trkpt lat="40.054149906896065" lon="18.02021937671268"><ele>23.0</ele><time>2026-04-26T16:37:54.088Z</time></trkpt><trkpt lat="40.05432755104368" lon="18.02016625311998"><ele>24.0</ele><time>2026-04-26T16:37:55.088Z</time></trkpt><trkpt lat="40.054502083062495" lon="18.020114274517617"><ele>25.0</ele><time>2026-04-26T16:37:56.088Z</time></trkpt><trkpt lat="40.05467538343819" lon="18.02006007462869"><ele>26.0</ele><time>2026-04-26T16:37:57.088Z</time></trkpt><trkpt lat="40.054849908362186" lon="18.020000128864666"><ele>26.333333333333332</ele><time>2026-04-26T16:37:58.088Z</time></trkpt><trkpt lat="40.05502952231475" lon="18.01994298709898"><ele>26.666666666666664</ele><time>2026-04-26T16:37:59.088Z</time></trkpt><trkpt lat="40.055207328427144" lon="18.019898563612426"><ele>27.0</ele><time>2026-04-26T16:38:00.088Z</time></trkpt><trkpt lat="40.055378533824616" lon="18.01985620706421"><ele>27.0</ele><time>2026-04-26T16:38:01.088Z</time></trkpt><trkpt lat="40.05553116463601" lon="18.0197972484409"><ele>27.0</ele><time>2026-04-26T16:38:02.088Z</time></trkpt><trkpt lat="40.05566078419491" lon="18.019740404807767"><ele>27.0</ele><time>2026-04-26T16:38:03.088Z</time></trkpt><trkpt lat="40.05578011373155" lon="18.01970448350526"><ele>27.0</ele><time>2026-04-26T16:38:04.088Z</time></trkpt><trkpt lat="40.055891005671995" lon="18.01968445155392"><ele>28.75</ele><time>2026-04-26T16:38:05.088Z</time></trkpt><trkpt lat="40.05601614355149" lon="18.019685328207252"><ele>30.5</ele><time>2026-04-26T16:38:06.088Z</time></trkpt><trkpt lat="40.05614548863215" lon="18.019719095461593"><ele>32.25</ele><time>2026-04-26T16:38:07.088Z</time></trkpt><trkpt lat="40.0562755590235" lon="18.019783940012505"><ele>34.0</ele><time>2026-04-26T16:38:08.088Z</time></trkpt><trkpt lat="40.05638579645553" lon="18.019888432225432"><ele>33.333333333333336</ele><time>2026-04-26T16:38:09.088Z</time></trkpt><trkpt lat="40.056481062458786" lon="18.020019982251043"><ele>32.666666666666664</ele><time>2026-04-26T16:38:10.088Z</time></trkpt><trkpt lat="40.05657182635197" lon="18.020190716155817"><ele>32.0</ele><time>2026-04-26T16:38:11.088Z</time></trkpt><trkpt lat="40.05664713478841" lon="18.020392100186186"><ele>35.0</ele><time>2026-04-26T16:38:12.088Z</time></trkpt><trkpt lat="40.05670679136308" lon="18.020585173673307"><ele>38.0</ele><time>2026-04-26T16:38:13.088Z</time></trkpt><trkpt lat="40.05677374816201" lon="18.020754341153662"><ele>41.0</ele><time>2026-04-26T16:38:14.088Z</time></trkpt><trkpt lat="40.05687092228265" lon="18.020908786376857"><ele>42.0</ele><time>2026-04-26T16:38:15.088Z</time></trkpt><trkpt lat="40.056978134093825" lon="18.021034466033655"><ele>43.0</ele><time>2026-04-26T16:38:16.088Z</time></trkpt><trkpt lat="40.057113375996025" lon="18.021128725084584"><ele>44.0</ele><time>2026-04-26T16:38:17.088Z</time></trkpt><trkpt lat="40.05726595141326" lon="18.02118892196965"><ele>44.0</ele><time>2026-04-26T16:38:18.088Z</time></trkpt><trkpt lat="40.057446798132744" lon="18.021209192628476"><ele>44.0</ele><time>2026-04-26T16:38:19.088Z</time></trkpt><trkpt lat="40.05761598320251" lon="18.02119646045198"><ele>44.0</ele><time>2026-04-26T16:38:20.088Z</time></trkpt><trkpt lat="40.05774640946347" lon="18.021199547799707"><ele>44.5</ele><time>2026-04-26T16:38:21.088Z</time></trkpt><trkpt lat="40.057864304761154" lon="18.021217938546055"><ele>45.0</ele><time>2026-04-26T16:38:22.088Z</time></trkpt><trkpt lat="40.05798005323599" lon="18.021285818859358"><ele>45.5</ele><time>2026-04-26T16:38:23.088Z</time></trkpt><trkpt lat="40.05808897499374" lon="18.021392437626375"><ele>46.0</ele><time>2026-04-26T16:38:24.088Z</time></trkpt><trkpt lat="40.05816519481822" lon="18.021500208548012"><ele>46.0</ele><time>2026-04-26T16:38:25.088Z</time></trkpt><trkpt lat="40.05822115764778" lon="18.02161185313864"><ele>46.0</ele><time>2026-04-26T16:38:26.088Z</time></trkpt><trkpt lat="40.05825242295722" lon="18.021692908559466"><ele>46.0</ele><time>2026-04-26T16:38:27.088Z</time></trkpt><trkpt lat="40.058275071223676" lon="18.021782226527897"><ele>46.0</ele><time>2026-04-26T16:38:38.088Z</time></trkpt><trkpt lat="40.05829337935351" lon="18.021863024203412"><ele>46.0</ele><time>2026-04-26T16:38:39.088Z</time></trkpt><trkpt lat="40.05831029786026" lon="18.021964232346697"><ele>46.0</ele><time>2026-04-26T16:38:40.088Z</time></trkpt><trkpt lat="40.05832328234202" lon="18.022104868891724"><ele>46.0</ele><time>2026-04-26T16:38:41.088Z</time></trkpt><trkpt lat="40.05833523270171" lon="18.02228559985399"><ele>46.0</ele><time>2026-04-26T16:38:42.088Z</time></trkpt><trkpt lat="40.05835132847755" lon="18.022492148498777"><ele>46.0</ele><time>2026-04-26T16:38:43.088Z</time></trkpt><trkpt lat="40.05836549970119" lon="18.022719385853854"><ele>46.0</ele><time>2026-04-26T16:38:44.088Z</time></trkpt><trkpt lat="40.058380053696496" lon="18.022980081875854"><ele>46.0</ele><time>2026-04-26T16:38:45.088Z</time></trkpt><trkpt lat="40.05839390647797" lon="18.023258696811908"><ele>46.0</ele><time>2026-04-26T16:38:46.088Z</time></trkpt><trkpt lat="40.05840991343317" lon="18.023552953078"><ele>45.333333333333336</ele><time>2026-04-26T16:38:47.088Z</time></trkpt><trkpt lat="40.058426896611095" lon="18.023843890486862"><ele>44.666666666666664</ele><time>2026-04-26T16:38:48.088Z</time></trkpt><trkpt lat="40.05844335048077" lon="18.024118345206254"><ele>44.0</ele><time>2026-04-26T16:38:49.088Z</time></trkpt><trkpt lat="40.05845907750106" lon="18.024371867024097"><ele>44.0</ele><time>2026-04-26T16:38:50.088Z</time></trkpt><trkpt lat="40.058476670864266" lon="18.024614365228704"><ele>44.0</ele><time>2026-04-26T16:38:51.088Z</time></trkpt><trkpt lat="40.058499515403916" lon="18.024839970065266"><ele>44.0</ele><time>2026-04-26T16:38:52.088Z</time></trkpt><trkpt lat="40.058515882421545" lon="18.025058931312085"><ele>43.666666666666664</ele><time>2026-04-26T16:38:53.088Z</time></trkpt><trkpt lat="40.05853228692102" lon="18.025276642859534"><ele>43.333333333333336</ele><time>2026-04-26T16:38:54.088Z</time></trkpt><trkpt lat="40.05854917237258" lon="18.02549084341425"><ele>43.0</ele><time>2026-04-26T16:38:55.088Z</time></trkpt><trkpt lat="40.05856269711744" lon="18.02570714976231"><ele>43.66666666666667</ele><time>2026-04-26T16:38:56.088Z</time></trkpt><trkpt lat="40.05856892990115" lon="18.025929944904007"><ele>44.333333333333336</ele><time>2026-04-26T16:38:57.088Z</time></trkpt><trkpt lat="40.05857621319846" lon="18.02615098869932"><ele>45.0</ele><time>2026-04-26T16:38:58.088Z</time></trkpt><trkpt lat="40.05858374873695" lon="18.026374924102708"><ele>45.0</ele><time>2026-04-26T16:38:59.087Z</time></trkpt><trkpt lat="40.05859408247469" lon="18.02660006575995"><ele>45.0</ele><time>2026-04-26T16:39:00.087Z</time></trkpt><trkpt lat="40.05860348897507" lon="18.026823298465832"><ele>45.0</ele><time>2026-04-26T16:39:01.087Z</time></trkpt><trkpt lat="40.05861519260041" lon="18.027049654817894"><ele>45.0</ele><time>2026-04-26T16:39:02.087Z</time></trkpt><trkpt lat="40.05862670494663" lon="18.02727579891833"><ele>45.0</ele><time>2026-04-26T16:39:03.088Z</time></trkpt><trkpt lat="40.058638975120445" lon="18.027501321222996"><ele>45.0</ele><time>2026-04-26T16:39:04.088Z</time></trkpt><trkpt lat="40.05864848606739" lon="18.02772591377786"><ele>43.333333333333336</ele><time>2026-04-26T16:39:05.087Z</time></trkpt><trkpt lat="40.05865914215553" lon="18.027947755034464"><ele>41.66666666666667</ele><time>2026-04-26T16:39:06.088Z</time></trkpt><trkpt lat="40.058672377487206" lon="18.028168486002762"><ele>40.0</ele><time>2026-04-26T16:39:07.088Z</time></trkpt><trkpt lat="40.058686925008516" lon="18.02839120226641"><ele>39.66666666666667</ele><time>2026-04-26T16:39:08.087Z</time></trkpt><trkpt lat="40.05869990986433" lon="18.028616607310706"><ele>39.333333333333336</ele><time>2026-04-26T16:39:09.088Z</time></trkpt><trkpt lat="40.058712963149304" lon="18.028841693686207"><ele>39.0</ele><time>2026-04-26T16:39:10.088Z</time></trkpt><trkpt lat="40.058726381289375" lon="18.029070834959764"><ele>39.666666666666664</ele><time>2026-04-26T16:39:11.087Z</time></trkpt><trkpt lat="40.05873902313766" lon="18.029299895161493"><ele>40.33333333333333</ele><time>2026-04-26T16:39:12.087Z</time></trkpt><trkpt lat="40.05875187032727" lon="18.029528734054097"><ele>41.0</ele><time>2026-04-26T16:39:13.087Z</time></trkpt><trkpt lat="40.0587647883261" lon="18.029759132229113"><ele>41.33333333333333</ele><time>2026-04-26T16:39:14.087Z</time></trkpt><trkpt lat="40.05877806286919" lon="18.02998999799968"><ele>41.666666666666664</ele><time>2026-04-26T16:39:15.087Z</time></trkpt><trkpt lat="40.05879105729326" lon="18.030223259603993"><ele>42.0</ele><time>2026-04-26T16:39:16.087Z</time></trkpt><trkpt lat="40.05880377402639" lon="18.030455491050823"><ele>42.0</ele><time>2026-04-26T16:39:17.087Z</time></trkpt><trkpt lat="40.05881609049224" lon="18.0306873846447"><ele>42.0</ele><time>2026-04-26T16:39:18.087Z</time></trkpt><trkpt lat="40.0588289100954" lon="18.030919680445336"><ele>42.0</ele><time>2026-04-26T16:39:19.087Z</time></trkpt><trkpt lat="40.05884161576791" lon="18.031149395726537"><ele>42.666666666666664</ele><time>2026-04-26T16:39:20.087Z</time></trkpt><trkpt lat="40.05885347158218" lon="18.03137863577939"><ele>43.33333333333333</ele><time>2026-04-26T16:39:21.087Z</time></trkpt><trkpt lat="40.0588659143378" lon="18.03161016319084"><ele>44.0</ele><time>2026-04-26T16:39:22.087Z</time></trkpt><trkpt lat="40.05887807133538" lon="18.031838652086922"><ele>44.0</ele><time>2026-04-26T16:39:23.087Z</time></trkpt><trkpt lat="40.05888908828779" lon="18.032064009508055"><ele>44.0</ele><time>2026-04-26T16:39:24.087Z</time></trkpt><trkpt lat="40.05890119232715" lon="18.032275547504206"><ele>44.0</ele><time>2026-04-26T16:39:25.087Z</time></trkpt><trkpt lat="40.058910895115986" lon="18.03248915703799"><ele>44.666666666666664</ele><time>2026-04-26T16:39:26.087Z</time></trkpt><trkpt lat="40.05892049062033" lon="18.03270092042005"><ele>45.333333333333336</ele><time>2026-04-26T16:39:27.087Z</time></trkpt><trkpt lat="40.05893209229346" lon="18.032917421835528"><ele>46.0</ele><time>2026-04-26T16:39:28.087Z</time></trkpt><trkpt lat="40.0589450117725" lon="18.03313789077734"><ele>45.333333333333336</ele><time>2026-04-26T16:39:29.087Z</time></trkpt><trkpt lat="40.05895716339339" lon="18.03336401128615"><ele>44.666666666666664</ele><time>2026-04-26T16:39:30.087Z</time></trkpt><trkpt lat="40.05897142359602" lon="18.033594129831865"><ele>44.0</ele><time>2026-04-26T16:39:31.087Z</time></trkpt><trkpt lat="40.05898426718557" lon="18.033825841720937"><ele>44.0</ele><time>2026-04-26T16:39:32.087Z</time></trkpt><trkpt lat="40.058999053150764" lon="18.03405691508694"><ele>44.0</ele><time>2026-04-26T16:39:33.087Z</time></trkpt><trkpt lat="40.0590128736493" lon="18.03428731306275"><ele>44.0</ele><time>2026-04-26T16:39:34.087Z</time></trkpt><trkpt lat="40.059028847285795" lon="18.034519047527088"><ele>43.666666666666664</ele><time>2026-04-26T16:39:35.087Z</time></trkpt><trkpt lat="40.05904493144424" lon="18.03475150474074"><ele>43.333333333333336</ele><time>2026-04-26T16:39:36.087Z</time></trkpt><trkpt lat="40.05905865196296" lon="18.034987660743518"><ele>43.0</ele><time>2026-04-26T16:39:37.087Z</time></trkpt><trkpt lat="40.05907215366843" lon="18.03522435777648"><ele>43.0</ele><time>2026-04-26T16:39:38.087Z</time></trkpt><trkpt lat="40.05908453686545" lon="18.035456696016272"><ele>43.0</ele><time>2026-04-26T16:39:39.087Z</time></trkpt><trkpt lat="40.059096795544136" lon="18.03568070154738"><ele>43.0</ele><time>2026-04-26T16:39:40.087Z</time></trkpt><trkpt lat="40.059108849361465" lon="18.03590683531008"><ele>43.333333333333336</ele><time>2026-04-26T16:39:41.087Z</time></trkpt><trkpt lat="40.05911953912709" lon="18.03613124237096"><ele>43.666666666666664</ele><time>2026-04-26T16:39:42.087Z</time></trkpt><trkpt lat="40.059132826562454" lon="18.0363529113971"><ele>44.0</ele><time>2026-04-26T16:39:43.087Z</time></trkpt><trkpt lat="40.059145134121685" lon="18.036574047986342"><ele>44.0</ele><time>2026-04-26T16:39:44.087Z</time></trkpt><trkpt lat="40.059154006959986" lon="18.036798379707022"><ele>44.0</ele><time>2026-04-26T16:39:45.087Z</time></trkpt><trkpt lat="40.05916731568579" lon="18.03701762023046"><ele>44.0</ele><time>2026-04-26T16:39:46.087Z</time></trkpt><trkpt lat="40.05918137442766" lon="18.037237375351545"><ele>44.0</ele><time>2026-04-26T16:39:47.087Z</time></trkpt><trkpt lat="40.05919510825897" lon="18.037456424974796"><ele>44.0</ele><time>2026-04-26T16:39:48.087Z</time></trkpt><trkpt lat="40.05920664838011" lon="18.037672021132966"><ele>44.0</ele><time>2026-04-26T16:39:49.087Z</time></trkpt><trkpt lat="40.05922000281931" lon="18.037872852748567"><ele>44.0</ele><time>2026-04-26T16:39:50.087Z</time></trkpt><trkpt lat="40.05923169688391" lon="18.03807071423435"><ele>44.0</ele><time>2026-04-26T16:39:51.087Z</time></trkpt><trkpt lat="40.05924247538121" lon="18.03826989443213"><ele>44.0</ele><time>2026-04-26T16:39:52.087Z</time></trkpt><trkpt lat="40.05925405843802" lon="18.038468111189044"><ele>44.25</ele><time>2026-04-26T16:39:53.087Z</time></trkpt><trkpt lat="40.059266805308894" lon="18.03866390677674"><ele>44.5</ele><time>2026-04-26T16:39:54.087Z</time></trkpt><trkpt lat="40.05927644915709" lon="18.038858212778678"><ele>44.75</ele><time>2026-04-26T16:39:55.087Z</time></trkpt><trkpt lat="40.05928666357754" lon="18.039052539798707"><ele>45.0</ele><time>2026-04-26T16:39:56.087Z</time></trkpt><trkpt lat="40.05930065922663" lon="18.039248784531615"><ele>45.0</ele><time>2026-04-26T16:39:57.087Z</time></trkpt><trkpt lat="40.05931603322146" lon="18.03944366062617"><ele>45.0</ele><time>2026-04-26T16:39:58.087Z</time></trkpt><trkpt lat="40.05932772108076" lon="18.039639350368812"><ele>45.0</ele><time>2026-04-26T16:39:59.087Z</time></trkpt><trkpt lat="40.059340323506525" lon="18.03983539764248"><ele>45.666666666666664</ele><time>2026-04-26T16:40:00.087Z</time></trkpt><trkpt lat="40.05935300619554" lon="18.040038728000994"><ele>46.33333333333333</ele><time>2026-04-26T16:40:01.087Z</time></trkpt><trkpt lat="40.05936711914649" lon="18.04024116611969"><ele>47.0</ele><time>2026-04-26T16:40:02.087Z</time></trkpt><trkpt lat="40.05937945326993" lon="18.04043710098648"><ele>47.0</ele><time>2026-04-26T16:40:03.087Z</time></trkpt><trkpt lat="40.05939275725855" lon="18.04063230239821"><ele>47.0</ele><time>2026-04-26T16:40:04.087Z</time></trkpt><trkpt lat="40.05940479173691" lon="18.04082139354124"><ele>47.0</ele><time>2026-04-26T16:40:05.087Z</time></trkpt><trkpt lat="40.059420748834306" lon="18.041015329150515"><ele>47.0</ele><time>2026-04-26T16:40:06.087Z</time></trkpt><trkpt lat="40.05943090401983" lon="18.041212752052488"><ele>47.0</ele><time>2026-04-26T16:40:07.087Z</time></trkpt><trkpt lat="40.059437975523224" lon="18.0414081936077"><ele>47.0</ele><time>2026-04-26T16:40:08.087Z</time></trkpt><trkpt lat="40.05944923349798" lon="18.041604380220626"><ele>47.0</ele><time>2026-04-26T16:40:09.087Z</time></trkpt><trkpt lat="40.059464596678126" lon="18.041799969748173"><ele>47.25</ele><time>2026-04-26T16:40:10.087Z</time></trkpt><trkpt lat="40.059477309037014" lon="18.041998250740562"><ele>47.5</ele><time>2026-04-26T16:40:11.087Z</time></trkpt><trkpt lat="40.059488946098575" lon="18.042187590497072"><ele>47.75</ele><time>2026-04-26T16:40:12.087Z</time></trkpt><trkpt lat="40.059500873583545" lon="18.04237077649875"><ele>48.0</ele><time>2026-04-26T16:40:13.087Z</time></trkpt><trkpt lat="40.05950867752311" lon="18.042549662172434"><ele>48.5</ele><time>2026-04-26T16:40:14.087Z</time></trkpt><trkpt lat="40.05952287840571" lon="18.042714942921798"><ele>49.0</ele><time>2026-04-26T16:40:15.087Z</time></trkpt><trkpt lat="40.059533933810705" lon="18.04287178536207"><ele>49.5</ele><time>2026-04-26T16:40:16.087Z</time></trkpt><trkpt lat="40.05954518597893" lon="18.043027004766454"><ele>50.0</ele><time>2026-04-26T16:40:17.087Z</time></trkpt><trkpt lat="40.059555955290506" lon="18.043178469480303"><ele>50.0</ele><time>2026-04-26T16:40:18.087Z</time></trkpt><trkpt lat="40.05956240286596" lon="18.043324488068908"><ele>50.0</ele><time>2026-04-26T16:40:19.087Z</time></trkpt><trkpt lat="40.05956869359576" lon="18.04347133167451"><ele>50.0</ele><time>2026-04-26T16:40:20.087Z</time></trkpt><trkpt lat="40.05957166471703" lon="18.04362162025211"><ele>50.0</ele><time>2026-04-26T16:40:21.087Z</time></trkpt><trkpt lat="40.059583219375945" lon="18.043762737247967"><ele>50.0</ele><time>2026-04-26T16:40:22.087Z</time></trkpt><trkpt lat="40.059596394428205" lon="18.043915618938296"><ele>50.0</ele><time>2026-04-26T16:40:23.087Z</time></trkpt><trkpt lat="40.0596078022251" lon="18.044070781147873"><ele>50.0</ele><time>2026-04-26T16:40:24.087Z</time></trkpt><trkpt lat="40.059615506643944" lon="18.044214830872683"><ele>50.0</ele><time>2026-04-26T16:40:25.087Z</time></trkpt><trkpt lat="40.05961897443944" lon="18.044338949186354"><ele>50.0</ele><time>2026-04-26T16:40:26.087Z</time></trkpt><trkpt lat="40.05962118162894" lon="18.044446620772877"><ele>50.0</ele><time>2026-04-26T16:40:27.087Z</time></trkpt><trkpt lat="40.05962515637721" lon="18.04454197302798"><ele>50.2</ele><time>2026-04-26T16:40:28.087Z</time></trkpt><trkpt lat="40.05962250823946" lon="18.04469138355417"><ele>50.4</ele><time>2026-04-26T16:40:30.087Z</time></trkpt><trkpt lat="40.05958587707282" lon="18.04479908695205"><ele>50.599999999999994</ele><time>2026-04-26T16:40:32.087Z</time></trkpt><trkpt lat="40.059489615279745" lon="18.04488196060571"><ele>50.8</ele><time>2026-04-26T16:40:34.087Z</time></trkpt><trkpt lat="40.05942261401382" lon="18.044895671292267"><ele>51.0</ele><time>2026-04-26T16:40:35.087Z</time></trkpt><trkpt lat="40.05934062248658" lon="18.044892596494705"><ele>51.0</ele><time>2026-04-26T16:40:36.087Z</time></trkpt><trkpt lat="40.05923405400732" lon="18.04488485371517"><ele>51.0</ele><time>2026-04-26T16:40:37.087Z</time></trkpt><trkpt lat="40.05909443020567" lon="18.044899460420563"><ele>51.0</ele><time>2026-04-26T16:40:38.087Z</time></trkpt><trkpt lat="40.058951957366354" lon="18.04492158963678"><ele>51.0</ele><time>2026-04-26T16:40:39.087Z</time></trkpt><trkpt lat="40.058822370395916" lon="18.044944534884106"><ele>51.25</ele><time>2026-04-26T16:40:40.087Z</time></trkpt><trkpt lat="40.058705167212175" lon="18.04498010571167"><ele>51.5</ele><time>2026-04-26T16:40:41.087Z</time></trkpt><trkpt lat="40.05859350404973" lon="18.045040336615685"><ele>51.75</ele><time>2026-04-26T16:40:42.087Z</time></trkpt><trkpt lat="40.058489574152055" lon="18.045130647224756"><ele>52.0</ele><time>2026-04-26T16:40:43.087Z</time></trkpt><trkpt lat="40.05839253395673" lon="18.045231801778872"><ele>52.0</ele><time>2026-04-26T16:40:44.087Z</time></trkpt><trkpt lat="40.05830672621661" lon="18.045341822435475"><ele>52.0</ele><time>2026-04-26T16:40:45.087Z</time></trkpt><trkpt lat="40.05823294749722" lon="18.04546810417163"><ele>52.0</ele><time>2026-04-26T16:40:46.087Z</time></trkpt><trkpt lat="40.05817266097036" lon="18.045607962021943"><ele>52.0</ele><time>2026-04-26T16:40:47.087Z</time></trkpt><trkpt lat="40.05813114112539" lon="18.04576198322289"><ele>51.75</ele><time>2026-04-26T16:40:48.087Z</time></trkpt><trkpt lat="40.058111069220324" lon="18.04591317522669"><ele>51.5</ele><time>2026-04-26T16:40:49.087Z</time></trkpt><trkpt lat="40.05810180999251" lon="18.046066876880026"><ele>51.25</ele><time>2026-04-26T16:40:50.087Z</time></trkpt><trkpt lat="40.05809970535702" lon="18.04622112266166"><ele>51.0</ele><time>2026-04-26T16:40:51.087Z</time></trkpt><trkpt lat="40.05811523677262" lon="18.04638386157711"><ele>51.0</ele><time>2026-04-26T16:40:52.087Z</time></trkpt><trkpt lat="40.05814556006634" lon="18.046551920461184"><ele>51.0</ele><time>2026-04-26T16:40:53.087Z</time></trkpt><trkpt lat="40.05818007744045" lon="18.046735791823664"><ele>51.0</ele><time>2026-04-26T16:40:54.087Z</time></trkpt><trkpt lat="40.05821724076445" lon="18.046931935273616"><ele>51.0</ele><time>2026-04-26T16:40:55.087Z</time></trkpt><trkpt lat="40.05825250677211" lon="18.04713726421951"><ele>51.33333333333333</ele><time>2026-04-26T16:40:56.087Z</time></trkpt><trkpt lat="40.05828838126955" lon="18.047355865446498"><ele>51.666666666666664</ele><time>2026-04-26T16:40:57.087Z</time></trkpt><trkpt lat="40.05832431196439" lon="18.047582610695656"><ele>52.0</ele><time>2026-04-26T16:40:58.087Z</time></trkpt><trkpt lat="40.05835743691493" lon="18.047821341682454"><ele>52.0</ele><time>2026-04-26T16:40:59.087Z</time></trkpt><trkpt lat="40.05839318014463" lon="18.048066350433924"><ele>52.0</ele><time>2026-04-26T16:41:00.087Z</time></trkpt><trkpt lat="40.058423660403506" lon="18.048323478511925"><ele>52.0</ele><time>2026-04-26T16:41:01.087Z</time></trkpt><trkpt lat="40.0584516757897" lon="18.04857943913487"><ele>52.33333333333333</ele><time>2026-04-26T16:41:02.087Z</time></trkpt><trkpt lat="40.05848032687196" lon="18.048845886752137"><ele>52.66666666666667</ele><time>2026-04-26T16:41:03.087Z</time></trkpt><trkpt lat="40.058514104385786" lon="18.04911195605797"><ele>53.0</ele><time>2026-04-26T16:41:04.087Z</time></trkpt><trkpt lat="40.05855107477515" lon="18.04935379345544"><ele>53.0</ele><time>2026-04-26T16:41:05.087Z</time></trkpt><trkpt lat="40.058585663321296" lon="18.04957559963095"><ele>53.0</ele><time>2026-04-26T16:41:06.087Z</time></trkpt><trkpt lat="40.058638503567046" lon="18.0497829070087"><ele>53.0</ele><time>2026-04-26T16:41:07.087Z</time></trkpt><trkpt lat="40.05862019662669" lon="18.050034145909994"><ele>53.0</ele><time>2026-04-26T16:41:08.087Z</time></trkpt><trkpt lat="40.05864915299472" lon="18.05025605867074"><ele>53.0</ele><time>2026-04-26T16:41:09.086Z</time></trkpt><trkpt lat="40.0586821849489" lon="18.050481806823413"><ele>53.0</ele><time>2026-04-26T16:41:10.086Z</time></trkpt><trkpt lat="40.05870951880179" lon="18.050693217427796"><ele>53.5</ele><time>2026-04-26T16:41:11.087Z</time></trkpt><trkpt lat="40.05873668335331" lon="18.050881614063247"><ele>54.0</ele><time>2026-04-26T16:41:12.087Z</time></trkpt><trkpt lat="40.058764761384964" lon="18.051068468697267"><ele>54.5</ele><time>2026-04-26T16:41:13.087Z</time></trkpt><trkpt lat="40.05879203052704" lon="18.051245701955605"><ele>55.0</ele><time>2026-04-26T16:41:14.086Z</time></trkpt><trkpt lat="40.05881751225371" lon="18.051416095762495"><ele>55.0</ele><time>2026-04-26T16:41:15.086Z</time></trkpt><trkpt lat="40.05884281850011" lon="18.05157659831011"><ele>55.0</ele><time>2026-04-26T16:41:16.086Z</time></trkpt><trkpt lat="40.05886667041996" lon="18.051755259315755"><ele>55.0</ele><time>2026-04-26T16:41:17.087Z</time></trkpt><trkpt lat="40.05889086489741" lon="18.051955740973444"><ele>55.0</ele><time>2026-04-26T16:41:18.087Z</time></trkpt><trkpt lat="40.05892211377553" lon="18.05218069544785"><ele>55.0</ele><time>2026-04-26T16:41:19.087Z</time></trkpt><trkpt lat="40.058952113710184" lon="18.052396355100626"><ele>55.0</ele><time>2026-04-26T16:41:20.087Z</time></trkpt><trkpt lat="40.05898168354107" lon="18.05257712742567"><ele>55.0</ele><time>2026-04-26T16:41:21.087Z</time></trkpt><trkpt lat="40.05900340471317" lon="18.05273528796585"><ele>55.0</ele><time>2026-04-26T16:41:22.087Z</time></trkpt><trkpt lat="40.059026097163866" lon="18.052864251300537"><ele>54.99999999999999</ele><time>2026-04-26T16:41:23.087Z</time></trkpt><trkpt lat="40.05904209482523" lon="18.052963344792058"><ele>55.0</ele><time>2026-04-26T16:41:24.087Z</time></trkpt><trkpt lat="40.05905253696197" lon="18.053087937930826"><ele>55.0</ele><time>2026-04-26T16:41:26.087Z</time></trkpt><trkpt lat="40.0590662261179" lon="18.053213125892544"><ele>55.0</ele><time>2026-04-26T16:41:28.087Z</time></trkpt><trkpt lat="40.059076204513175" lon="18.053296836075415"><ele>54.99999999999999</ele><time>2026-04-26T16:41:29.087Z</time></trkpt><trkpt lat="40.05908069956628" lon="18.053416571022574"><ele>55.0</ele><time>2026-04-26T16:41:31.087Z</time></trkpt><trkpt lat="40.05908973654174" lon="18.053529227052387"><ele>54.99999999999999</ele><time>2026-04-26T16:41:33.087Z</time></trkpt><trkpt lat="40.0590876247791" lon="18.053627223407098"><ele>55.0</ele><time>2026-04-26T16:41:41.087Z</time></trkpt><trkpt lat="40.05910266255812" lon="18.05371573753793"><ele>55.0</ele><time>2026-04-26T16:41:43.087Z</time></trkpt><trkpt lat="40.05903634000679" lon="18.05379785247755"><ele>55.0</ele><time>2026-04-26T16:41:44.087Z</time></trkpt><trkpt lat="40.058975076928036" lon="18.053872395031128"><ele>54.99999999999999</ele><time>2026-04-26T16:41:45.087Z</time></trkpt><trkpt lat="40.058905157215875" lon="18.05394420960421"><ele>55.0</ele><time>2026-04-26T16:41:46.087Z</time></trkpt><trkpt lat="40.05882028263821" lon="18.054024468101645"><ele>55.0</ele><time>2026-04-26T16:41:47.087Z</time></trkpt><trkpt lat="40.058733380172484" lon="18.054112844118293"><ele>55.0</ele><time>2026-04-26T16:41:48.087Z</time></trkpt><trkpt lat="40.058638863832805" lon="18.054203022406423"><ele>55.0</ele><time>2026-04-26T16:41:49.087Z</time></trkpt><trkpt lat="40.058538484725744" lon="18.054293490422882"><ele>55.0</ele><time>2026-04-26T16:41:50.087Z</time></trkpt><trkpt lat="40.05843486331474" lon="18.05439564668156"><ele>55.33333333333333</ele><time>2026-04-26T16:41:51.087Z</time></trkpt><trkpt lat="40.058344686302604" lon="18.054490078828383"><ele>55.666666666666664</ele><time>2026-04-26T16:41:52.087Z</time></trkpt><trkpt lat="40.058274598144436" lon="18.05455958819688"><ele>56.0</ele><time>2026-04-26T16:41:53.087Z</time></trkpt><trkpt lat="40.058211281262494" lon="18.0546150346338"><ele>56.33333333333333</ele><time>2026-04-26T16:41:54.087Z</time></trkpt><trkpt lat="40.0581555201342" lon="18.05467825912648"><ele>56.666666666666664</ele><time>2026-04-26T16:41:55.087Z</time></trkpt><trkpt lat="40.05810989447128" lon="18.054746495069562"><ele>57.0</ele><time>2026-04-26T16:41:56.087Z</time></trkpt><trkpt lat="40.058064847683035" lon="18.054821669198564"><ele>57.0</ele><time>2026-04-26T16:41:57.087Z</time></trkpt><trkpt lat="40.05802538518198" lon="18.05489748905823"><ele>57.0</ele><time>2026-04-26T16:41:58.087Z</time></trkpt><trkpt lat="40.05798811912992" lon="18.05497482129085"><ele>57.0</ele><time>2026-04-26T16:41:59.087Z</time></trkpt><trkpt lat="40.057950791021916" lon="18.055065885818767"><ele>57.0</ele><time>2026-04-26T16:42:00.087Z</time></trkpt><trkpt lat="40.05790426580936" lon="18.055156580693378"><ele>57.0</ele><time>2026-04-26T16:42:01.087Z</time></trkpt><trkpt lat="40.05786040734952" lon="18.05524034320188"><ele>57.0</ele><time>2026-04-26T16:42:02.087Z</time></trkpt><trkpt lat="40.05782162904021" lon="18.055333435539946"><ele>57.0</ele><time>2026-04-26T16:42:03.087Z</time></trkpt><trkpt lat="40.057798268815475" lon="18.055439263420563"><ele>57.0</ele><time>2026-04-26T16:42:04.087Z</time></trkpt><trkpt lat="40.057779822830916" lon="18.055550040152895"><ele>57.0</ele><time>2026-04-26T16:42:05.087Z</time></trkpt><trkpt lat="40.05777083815533" lon="18.05567623537662"><ele>57.0</ele><time>2026-04-26T16:42:06.087Z</time></trkpt><trkpt lat="40.05775829557498" lon="18.055814656149288"><ele>57.0</ele><time>2026-04-26T16:42:07.087Z</time></trkpt><trkpt lat="40.05772488281958" lon="18.055957149883604"><ele>57.6</ele><time>2026-04-26T16:42:08.087Z</time></trkpt><trkpt lat="40.05772176105502" lon="18.05608851264434"><ele>58.2</ele><time>2026-04-26T16:42:09.087Z</time></trkpt><trkpt lat="40.05772908459204" lon="18.05621927627965"><ele>58.8</ele><time>2026-04-26T16:42:10.087Z</time></trkpt><trkpt lat="40.05774109473213" lon="18.056353396586857"><ele>59.4</ele><time>2026-04-26T16:42:11.087Z</time></trkpt><trkpt lat="40.05775236078865" lon="18.05648716301875"><ele>60.0</ele><time>2026-04-26T16:42:12.087Z</time></trkpt><trkpt lat="40.057760959380296" lon="18.056610599573073"><ele>60.2</ele><time>2026-04-26T16:42:13.087Z</time></trkpt><trkpt lat="40.05777292082354" lon="18.05672750757423"><ele>60.4</ele><time>2026-04-26T16:42:14.087Z</time></trkpt><trkpt lat="40.057784388416394" lon="18.056850220667226"><ele>60.599999999999994</ele><time>2026-04-26T16:42:15.087Z</time></trkpt><trkpt lat="40.057799049587494" lon="18.056965394374433"><ele>60.8</ele><time>2026-04-26T16:42:16.087Z</time></trkpt><trkpt lat="40.057806307191264" lon="18.057094374834204"><ele>61.0</ele><time>2026-04-26T16:42:17.087Z</time></trkpt><trkpt lat="40.05782063071421" lon="18.05722249842416"><ele>61.0</ele><time>2026-04-26T16:42:18.087Z</time></trkpt><trkpt lat="40.057836004608596" lon="18.057347132579306"><ele>60.99999999999999</ele><time>2026-04-26T16:42:19.087Z</time></trkpt><trkpt lat="40.05785375004014" lon="18.057470786218428"><ele>60.99999999999999</ele><time>2026-04-26T16:42:20.087Z</time></trkpt><trkpt lat="40.057874205059726" lon="18.057595948248863"><ele>61.0</ele><time>2026-04-26T16:42:21.087Z</time></trkpt><trkpt lat="40.05788833632754" lon="18.05771597576318"><ele>61.0</ele><time>2026-04-26T16:42:22.087Z</time></trkpt><trkpt lat="40.05790138289054" lon="18.05782919314205"><ele>60.99999999999999</ele><time>2026-04-26T16:42:23.087Z</time></trkpt><trkpt lat="40.05791629891816" lon="18.057946415305793"><ele>61.0</ele><time>2026-04-26T16:42:24.087Z</time></trkpt><trkpt lat="40.05793103286586" lon="18.058048024295463"><ele>61.0</ele><time>2026-04-26T16:42:25.087Z</time></trkpt><trkpt lat="40.05794581765377" lon="18.05816464301133"><ele>61.0</ele><time>2026-04-26T16:42:26.087Z</time></trkpt><trkpt lat="40.05794755729229" lon="18.05828453539094"><ele>60.99999999999999</ele><time>2026-04-26T16:42:27.087Z</time></trkpt><trkpt lat="40.05796442556327" lon="18.05840084970081"><ele>61.0</ele><time>2026-04-26T16:42:28.087Z</time></trkpt><trkpt lat="40.05800634306225" lon="18.05852660346977"><ele>61.0</ele><time>2026-04-26T16:42:29.087Z</time></trkpt><trkpt lat="40.0580390429821" lon="18.05865751934118"><ele>60.99999999999999</ele><time>2026-04-26T16:42:30.087Z</time></trkpt><trkpt lat="40.05807950876195" lon="18.05877724675814"><ele>60.99999999999999</ele><time>2026-04-26T16:42:31.087Z</time></trkpt><trkpt lat="40.058122971232144" lon="18.05888726179518"><ele>61.0</ele><time>2026-04-26T16:42:32.087Z</time></trkpt><trkpt lat="40.05816533567733" lon="18.058993459171464"><ele>61.0</ele><time>2026-04-26T16:42:33.087Z</time></trkpt><trkpt lat="40.05819487376059" lon="18.059114982995148"><ele>60.8</ele><time>2026-04-26T16:42:34.087Z</time></trkpt><trkpt lat="40.058234794549534" lon="18.059219297618135"><ele>60.599999999999994</ele><time>2026-04-26T16:42:35.087Z</time></trkpt><trkpt lat="40.05828273718973" lon="18.05934457367082"><ele>60.4</ele><time>2026-04-26T16:42:37.087Z</time></trkpt><trkpt lat="40.05833897431813" lon="18.059487598334016"><ele>60.2</ele><time>2026-04-26T16:42:39.087Z</time></trkpt><trkpt lat="40.05837533494424" lon="18.059579478041204"><ele>60.0</ele><time>2026-04-26T16:42:40.087Z</time></trkpt><trkpt lat="40.05841463346999" lon="18.059687892972292"><ele>60.333333333333336</ele><time>2026-04-26T16:42:41.087Z</time></trkpt><trkpt lat="40.05845083860242" lon="18.05979430590047"><ele>60.66666666666667</ele><time>2026-04-26T16:42:42.087Z</time></trkpt><trkpt lat="40.058475490607115" lon="18.059897095141316"><ele>61.0</ele><time>2026-04-26T16:42:43.087Z</time></trkpt><trkpt lat="40.05849211003507" lon="18.060009037091227"><ele>61.333333333333336</ele><time>2026-04-26T16:42:44.087Z</time></trkpt><trkpt lat="40.058500261583916" lon="18.060121497625893"><ele>61.66666666666667</ele><time>2026-04-26T16:42:45.087Z</time></trkpt><trkpt lat="40.05850210939546" lon="18.06023742492693"><ele>62.0</ele><time>2026-04-26T16:42:46.087Z</time></trkpt><trkpt lat="40.058508196341094" lon="18.060350651042935"><ele>62.0</ele><time>2026-04-26T16:42:47.087Z</time></trkpt><trkpt lat="40.05851800367931" lon="18.060472089210702"><ele>62.0</ele><time>2026-04-26T16:42:48.087Z</time></trkpt><trkpt lat="40.058521664318334" lon="18.06060087597794"><ele>62.0</ele><time>2026-04-26T16:42:49.087Z</time></trkpt><trkpt lat="40.05853067957127" lon="18.06076083002363"><ele>62.0</ele><time>2026-04-26T16:42:50.087Z</time></trkpt><trkpt lat="40.05851846075851" lon="18.0609485055061"><ele>62.25</ele><time>2026-04-26T16:42:51.087Z</time></trkpt><trkpt lat="40.0585235920776" lon="18.061118727964676"><ele>62.5</ele><time>2026-04-26T16:42:52.087Z</time></trkpt><trkpt lat="40.05852486084584" lon="18.061276730253592"><ele>62.75</ele><time>2026-04-26T16:42:53.087Z</time></trkpt><trkpt lat="40.05852413131296" lon="18.0614216205854"><ele>63.0</ele><time>2026-04-26T16:42:54.087Z</time></trkpt><trkpt lat="40.058518830135476" lon="18.061569250088084"><ele>63.0</ele><time>2026-04-26T16:42:55.087Z</time></trkpt><trkpt lat="40.05850444663476" lon="18.06171855822515"><ele>63.0</ele><time>2026-04-26T16:42:56.087Z</time></trkpt><trkpt lat="40.05846246288562" lon="18.06187107104749"><ele>63.0</ele><time>2026-04-26T16:42:57.087Z</time></trkpt><trkpt lat="40.05845347115856" lon="18.06202703980365"><ele>63.0</ele><time>2026-04-26T16:42:58.087Z</time></trkpt><trkpt lat="40.05840712354382" lon="18.062170605312875"><ele>63.0</ele><time>2026-04-26T16:42:59.087Z</time></trkpt><trkpt lat="40.058394933960564" lon="18.062306814787807"><ele>63.0</ele><time>2026-04-26T16:43:00.087Z</time></trkpt><trkpt lat="40.05838605898867" lon="18.062432449062662"><ele>63.0</ele><time>2026-04-26T16:43:01.087Z</time></trkpt><trkpt lat="40.058373349388866" lon="18.06253853419254"><ele>63.0</ele><time>2026-04-26T16:43:02.087Z</time></trkpt><trkpt lat="40.05836263662832" lon="18.062656224719326"><ele>63.0</ele><time>2026-04-26T16:43:04.087Z</time></trkpt><trkpt lat="40.05835540812598" lon="18.062785447683478"><ele>63.2</ele><time>2026-04-26T16:43:07.087Z</time></trkpt><trkpt lat="40.05835201087964" lon="18.06287570864623"><ele>63.4</ele><time>2026-04-26T16:43:08.087Z</time></trkpt><trkpt lat="40.058342473981305" lon="18.06298883755779"><ele>63.60000000000001</ele><time>2026-04-26T16:43:09.087Z</time></trkpt><trkpt lat="40.05832293737173" lon="18.06312422967079"><ele>63.800000000000004</ele><time>2026-04-26T16:43:10.087Z</time></trkpt><trkpt lat="40.05830215342455" lon="18.063282933077492"><ele>64.0</ele><time>2026-04-26T16:43:11.086Z</time></trkpt><trkpt lat="40.058287809315836" lon="18.063437558271147"><ele>63.6</ele><time>2026-04-26T16:43:12.086Z</time></trkpt><trkpt lat="40.058278242032024" lon="18.063550037459652"><ele>63.2</ele><time>2026-04-26T16:43:13.086Z</time></trkpt><trkpt lat="40.058269733323364" lon="18.06366309072673"><ele>62.800000000000004</ele><time>2026-04-26T16:43:14.086Z</time></trkpt><trkpt lat="40.05825996508131" lon="18.063790192659976"><ele>62.400000000000006</ele><time>2026-04-26T16:43:15.086Z</time></trkpt><trkpt lat="40.058237287548025" lon="18.063953190371645"><ele>62.0</ele><time>2026-04-26T16:43:16.086Z</time></trkpt><trkpt lat="40.058217975502956" lon="18.06416010597337"><ele>61.66666666666667</ele><time>2026-04-26T16:43:17.086Z</time></trkpt><trkpt lat="40.05820126892868" lon="18.064392418514547"><ele>61.33333333333333</ele><time>2026-04-26T16:43:18.086Z</time></trkpt><trkpt lat="40.05819569519081" lon="18.064640875858924"><ele>61.0</ele><time>2026-04-26T16:43:19.086Z</time></trkpt><trkpt lat="40.058203446619096" lon="18.064874641891862"><ele>60.75</ele><time>2026-04-26T16:43:20.086Z</time></trkpt><trkpt lat="40.058223649592954" lon="18.06507489673453"><ele>60.5</ele><time>2026-04-26T16:43:21.085Z</time></trkpt><trkpt lat="40.05824796289164" lon="18.06525683419199"><ele>60.25</ele><time>2026-04-26T16:43:22.085Z</time></trkpt><trkpt lat="40.05827785519867" lon="18.065422351111405"><ele>60.0</ele><time>2026-04-26T16:43:23.086Z</time></trkpt><trkpt lat="40.05831081992777" lon="18.06557271584241"><ele>60.2</ele><time>2026-04-26T16:43:24.085Z</time></trkpt><trkpt lat="40.05834616089287" lon="18.06570087230728"><ele>60.4</ele><time>2026-04-26T16:43:25.085Z</time></trkpt><trkpt lat="40.058384857425295" lon="18.065826303027254"><ele>60.599999999999994</ele><time>2026-04-26T16:43:26.085Z</time></trkpt><trkpt lat="40.05843572082175" lon="18.06594101919691"><ele>60.8</ele><time>2026-04-26T16:43:27.085Z</time></trkpt><trkpt lat="40.05848903727341" lon="18.066039532686595"><ele>61.0</ele><time>2026-04-26T16:43:28.085Z</time></trkpt><trkpt lat="40.05853528651547" lon="18.066135553945536"><ele>61.0</ele><time>2026-04-26T16:43:29.085Z</time></trkpt><trkpt lat="40.05856108990255" lon="18.066266966022415"><ele>61.0</ele><time>2026-04-26T16:43:30.085Z</time></trkpt><trkpt lat="40.058599284693926" lon="18.066417814249082"><ele>61.0</ele><time>2026-04-26T16:43:31.085Z</time></trkpt><trkpt lat="40.0586638413942" lon="18.066562441520638"><ele>61.0</ele><time>2026-04-26T16:43:32.085Z</time></trkpt><trkpt lat="40.05871566971908" lon="18.06668131844073"><ele>60.8</ele><time>2026-04-26T16:43:33.085Z</time></trkpt><trkpt lat="40.05872464110509" lon="18.06681681085709"><ele>60.599999999999994</ele><time>2026-04-26T16:43:34.085Z</time></trkpt><trkpt lat="40.05873458667105" lon="18.066963885604665"><ele>60.4</ele><time>2026-04-26T16:43:35.085Z</time></trkpt><trkpt lat="40.05871727965304" lon="18.067102330484854"><ele>60.2</ele><time>2026-04-26T16:43:36.085Z</time></trkpt><trkpt lat="40.058691796901755" lon="18.06725838780707"><ele>60.0</ele><time>2026-04-26T16:43:37.085Z</time></trkpt><trkpt lat="40.05866014580365" lon="18.067433582888594"><ele>60.0</ele><time>2026-04-26T16:43:38.085Z</time></trkpt><trkpt lat="40.058627655542224" lon="18.067608310953617"><ele>60.0</ele><time>2026-04-26T16:43:39.085Z</time></trkpt><trkpt lat="40.05860259168569" lon="18.067764747580288"><ele>60.0</ele><time>2026-04-26T16:43:40.085Z</time></trkpt><trkpt lat="40.05857794062444" lon="18.06790793174423"><ele>60.0</ele><time>2026-04-26T16:43:41.085Z</time></trkpt><trkpt lat="40.0585494776536" lon="18.068064478692698"><ele>60.0</ele><time>2026-04-26T16:43:42.085Z</time></trkpt><trkpt lat="40.058524509595955" lon="18.06822276921694"><ele>60.0</ele><time>2026-04-26T16:43:43.085Z</time></trkpt><trkpt lat="40.05849136638934" lon="18.06840344887365"><ele>60.0</ele><time>2026-04-26T16:43:44.085Z</time></trkpt><trkpt lat="40.058462264425245" lon="18.068613426331535"><ele>60.0</ele><time>2026-04-26T16:43:45.085Z</time></trkpt><trkpt lat="40.058412932730285" lon="18.068867110391025"><ele>60.0</ele><time>2026-04-26T16:43:46.085Z</time></trkpt><trkpt lat="40.058345334093296" lon="18.06913205387689"><ele>60.0</ele><time>2026-04-26T16:43:47.085Z</time></trkpt><trkpt lat="40.058294517449895" lon="18.069432777247016"><ele>60.0</ele><time>2026-04-26T16:43:48.085Z</time></trkpt><trkpt lat="40.058228142790355" lon="18.06974236549224"><ele>59.5</ele><time>2026-04-26T16:43:49.085Z</time></trkpt><trkpt lat="40.05816717692331" lon="18.070081438211307"><ele>59.0</ele><time>2026-04-26T16:43:50.085Z</time></trkpt><trkpt lat="40.05809717754585" lon="18.070424741067146"><ele>59.0</ele><time>2026-04-26T16:43:51.085Z</time></trkpt><trkpt lat="40.05803226900069" lon="18.07077136459674"><ele>59.0</ele><time>2026-04-26T16:43:52.085Z</time></trkpt><trkpt lat="40.057974376084026" lon="18.07111383439693"><ele>59.0</ele><time>2026-04-26T16:43:53.085Z</time></trkpt><trkpt lat="40.05791468411611" lon="18.071454365139388"><ele>59.0</ele><time>2026-04-26T16:43:54.085Z</time></trkpt><trkpt lat="40.05785975862298" lon="18.071792686165384"><ele>59.5</ele><time>2026-04-26T16:43:55.085Z</time></trkpt><trkpt lat="40.05780236274399" lon="18.072129218088413"><ele>60.0</ele><time>2026-04-26T16:43:56.085Z</time></trkpt><trkpt lat="40.05774474602981" lon="18.072464641646018"><ele>60.0</ele><time>2026-04-26T16:43:57.085Z</time></trkpt><trkpt lat="40.05768859664577" lon="18.072796199292434"><ele>60.0</ele><time>2026-04-26T16:43:58.085Z</time></trkpt><trkpt lat="40.05763351108648" lon="18.073123090058893"><ele>59.5</ele><time>2026-04-26T16:43:59.085Z</time></trkpt><trkpt lat="40.057577402689134" lon="18.07344627520515"><ele>59.0</ele><time>2026-04-26T16:44:00.085Z</time></trkpt><trkpt lat="40.057521223077025" lon="18.073767050712846"><ele>59.0</ele><time>2026-04-26T16:44:01.085Z</time></trkpt><trkpt lat="40.05746512243027" lon="18.07408936036673"><ele>59.0</ele><time>2026-04-26T16:44:02.085Z</time></trkpt><trkpt lat="40.057414111134975" lon="18.07441055978588"><ele>59.0</ele><time>2026-04-26T16:44:03.085Z</time></trkpt><trkpt lat="40.05735859545262" lon="18.07472751475144"><ele>59.0</ele><time>2026-04-26T16:44:04.085Z</time></trkpt><trkpt lat="40.05729987951831" lon="18.075046538820576"><ele>59.0</ele><time>2026-04-26T16:44:05.085Z</time></trkpt><trkpt lat="40.057244777200964" lon="18.075367019628775"><ele>59.0</ele><time>2026-04-26T16:44:06.085Z</time></trkpt><trkpt lat="40.05718012098426" lon="18.07567991927436"><ele>59.0</ele><time>2026-04-26T16:44:07.085Z</time></trkpt><trkpt lat="40.057123639602125" lon="18.07599574021019"><ele>59.0</ele><time>2026-04-26T16:44:08.085Z</time></trkpt><trkpt lat="40.05706747412876" lon="18.07630979472175"><ele>59.5</ele><time>2026-04-26T16:44:09.085Z</time></trkpt><trkpt lat="40.0570109820972" lon="18.076625737303655"><ele>60.0</ele><time>2026-04-26T16:44:10.085Z</time></trkpt><trkpt lat="40.05696977087691" lon="18.076949132499934"><ele>60.0</ele><time>2026-04-26T16:44:11.085Z</time></trkpt><trkpt lat="40.05690283063968" lon="18.077297335471755"><ele>60.0</ele><time>2026-04-26T16:44:12.085Z</time></trkpt><trkpt lat="40.05684595453103" lon="18.077607828121003"><ele>60.5</ele><time>2026-04-26T16:44:13.085Z</time></trkpt><trkpt lat="40.0567914734367" lon="18.077919806883287"><ele>61.0</ele><time>2026-04-26T16:44:14.085Z</time></trkpt><trkpt lat="40.0567369289985" lon="18.078228886149635"><ele>60.5</ele><time>2026-04-26T16:44:15.085Z</time></trkpt><trkpt lat="40.05668141847326" lon="18.078540374771965"><ele>60.0</ele><time>2026-04-26T16:44:16.085Z</time></trkpt><trkpt lat="40.056628328461684" lon="18.078847897561317"><ele>58.5</ele><time>2026-04-26T16:44:17.085Z</time></trkpt><trkpt lat="40.05655879007164" lon="18.079150998760753"><ele>57.0</ele><time>2026-04-26T16:44:18.085Z</time></trkpt><trkpt lat="40.05652011375687" lon="18.07945979859148"><ele>57.0</ele><time>2026-04-26T16:44:19.085Z</time></trkpt><trkpt lat="40.05646764730377" lon="18.07975780024871"><ele>57.0</ele><time>2026-04-26T16:44:20.085Z</time></trkpt><trkpt lat="40.0564000188721" lon="18.08004550364534"><ele>57.33333333333333</ele><time>2026-04-26T16:44:21.085Z</time></trkpt><trkpt lat="40.056365577145854" lon="18.080332506692336"><ele>57.666666666666664</ele><time>2026-04-26T16:44:22.085Z</time></trkpt><trkpt lat="40.05629712160548" lon="18.080580736601565"><ele>58.0</ele><time>2026-04-26T16:44:23.085Z</time></trkpt><trkpt lat="40.05625817880393" lon="18.080802510320627"><ele>58.33333333333333</ele><time>2026-04-26T16:44:24.085Z</time></trkpt><trkpt lat="40.056220780552756" lon="18.081022216693494"><ele>58.66666666666667</ele><time>2026-04-26T16:44:25.085Z</time></trkpt><trkpt lat="40.056184205738646" lon="18.081234550588203"><ele>59.0</ele><time>2026-04-26T16:44:26.085Z</time></trkpt><trkpt lat="40.056149967151235" lon="18.08143523970885"><ele>59.0</ele><time>2026-04-26T16:44:27.085Z</time></trkpt><trkpt lat="40.05611655240152" lon="18.08163138158294"><ele>59.0</ele><time>2026-04-26T16:44:28.085Z</time></trkpt><trkpt lat="40.05608444743103" lon="18.08182715369935"><ele>59.0</ele><time>2026-04-26T16:44:29.085Z</time></trkpt><trkpt lat="40.056048628275775" lon="18.082030245845598"><ele>59.0</ele><time>2026-04-26T16:44:30.085Z</time></trkpt><trkpt lat="40.056010571850315" lon="18.082234392302325"><ele>59.0</ele><time>2026-04-26T16:44:31.085Z</time></trkpt><trkpt lat="40.055978742691835" lon="18.082438416936164"><ele>59.0</ele><time>2026-04-26T16:44:32.085Z</time></trkpt><trkpt lat="40.05594391210323" lon="18.082634990731055"><ele>59.0</ele><time>2026-04-26T16:44:33.085Z</time></trkpt><trkpt lat="40.05591000665904" lon="18.082823822350477"><ele>59.0</ele><time>2026-04-26T16:44:34.085Z</time></trkpt><trkpt lat="40.055867259754635" lon="18.08299829439093"><ele>59.0</ele><time>2026-04-26T16:44:35.085Z</time></trkpt><trkpt lat="40.05583616461365" lon="18.08318885304754"><ele>59.0</ele><time>2026-04-26T16:44:36.085Z</time></trkpt><trkpt lat="40.055803896989914" lon="18.08337861795636"><ele>58.66666666666667</ele><time>2026-04-26T16:44:37.085Z</time></trkpt><trkpt lat="40.055770296702775" lon="18.083579209256285"><ele>58.33333333333333</ele><time>2026-04-26T16:44:38.085Z</time></trkpt><trkpt lat="40.055737457617006" lon="18.08377665233271"><ele>58.0</ele><time>2026-04-26T16:44:39.085Z</time></trkpt><trkpt lat="40.05570225405159" lon="18.083976828231066"><ele>58.33333333333333</ele><time>2026-04-26T16:44:40.085Z</time></trkpt><trkpt lat="40.055665164684314" lon="18.084179343256164"><ele>58.66666666666667</ele><time>2026-04-26T16:44:41.085Z</time></trkpt><trkpt lat="40.05563260454266" lon="18.084374598742677"><ele>59.0</ele><time>2026-04-26T16:44:42.085Z</time></trkpt><trkpt lat="40.05559930173591" lon="18.084564208912294"><ele>59.0</ele><time>2026-04-26T16:44:43.085Z</time></trkpt><trkpt lat="40.05556780118054" lon="18.084753542378895"><ele>59.0</ele><time>2026-04-26T16:44:44.085Z</time></trkpt><trkpt lat="40.055536751249704" lon="18.084943256809474"><ele>59.0</ele><time>2026-04-26T16:44:45.085Z</time></trkpt><trkpt lat="40.055502393443554" lon="18.085135934745278"><ele>59.0</ele><time>2026-04-26T16:44:46.085Z</time></trkpt><trkpt lat="40.05546991648106" lon="18.08532867646195"><ele>59.0</ele><time>2026-04-26T16:44:47.085Z</time></trkpt><trkpt lat="40.0554412012027" lon="18.085512498308045"><ele>59.0</ele><time>2026-04-26T16:44:48.085Z</time></trkpt><trkpt lat="40.05540718563223" lon="18.08569544443078"><ele>59.0</ele><time>2026-04-26T16:44:49.085Z</time></trkpt><trkpt lat="40.05537182027596" lon="18.085877812436234"><ele>59.0</ele><time>2026-04-26T16:44:50.085Z</time></trkpt><trkpt lat="40.055339728051294" lon="18.086064815759258"><ele>59.0</ele><time>2026-04-26T16:44:51.085Z</time></trkpt><trkpt lat="40.05530763937952" lon="18.086254472927784"><ele>59.0</ele><time>2026-04-26T16:44:52.085Z</time></trkpt><trkpt lat="40.05527191935346" lon="18.086437433031207"><ele>59.0</ele><time>2026-04-26T16:44:53.085Z</time></trkpt><trkpt lat="40.05523828713454" lon="18.086620719597548"><ele>59.0</ele><time>2026-04-26T16:44:54.085Z</time></trkpt><trkpt lat="40.05520271793758" lon="18.086817143424685"><ele>59.0</ele><time>2026-04-26T16:44:55.085Z</time></trkpt><trkpt lat="40.05516633600986" lon="18.087022170036118"><ele>59.0</ele><time>2026-04-26T16:44:56.085Z</time></trkpt><trkpt lat="40.05512876806814" lon="18.08724231865924"><ele>59.0</ele><time>2026-04-26T16:44:57.085Z</time></trkpt><trkpt lat="40.0550895601198" lon="18.08747260912428"><ele>59.0</ele><time>2026-04-26T16:44:58.085Z</time></trkpt><trkpt lat="40.05503315455498" lon="18.08771310026491"><ele>59.0</ele><time>2026-04-26T16:44:59.085Z</time></trkpt><trkpt lat="40.05498592452549" lon="18.08797606404364"><ele>59.0</ele><time>2026-04-26T16:45:00.085Z</time></trkpt><trkpt lat="40.054936971450346" lon="18.088248621258824"><ele>58.0</ele><time>2026-04-26T16:45:01.085Z</time></trkpt><trkpt lat="40.05488509959667" lon="18.088537429421446"><ele>57.0</ele><time>2026-04-26T16:45:02.085Z</time></trkpt><trkpt lat="40.05483147690171" lon="18.08883746731292"><ele>57.0</ele><time>2026-04-26T16:45:03.085Z</time></trkpt><trkpt lat="40.0547875089512" lon="18.089143675890394"><ele>57.0</ele><time>2026-04-26T16:45:04.085Z</time></trkpt><trkpt lat="40.054731957128574" lon="18.08944420488133"><ele>57.0</ele><time>2026-04-26T16:45:05.085Z</time></trkpt><trkpt lat="40.05467884807864" lon="18.089748064891875"><ele>57.0</ele><time>2026-04-26T16:45:06.085Z</time></trkpt><trkpt lat="40.05463044154636" lon="18.090047232032394"><ele>57.5</ele><time>2026-04-26T16:45:07.085Z</time></trkpt><trkpt lat="40.05457336502829" lon="18.09035065328346"><ele>58.0</ele><time>2026-04-26T16:45:08.085Z</time></trkpt><trkpt lat="40.05451982698094" lon="18.090648786693365"><ele>57.0</ele><time>2026-04-26T16:45:09.085Z</time></trkpt><trkpt lat="40.054465173768975" lon="18.090946557825774"><ele>56.0</ele><time>2026-04-26T16:45:10.085Z</time></trkpt><trkpt lat="40.05441045803384" lon="18.091252051285608"><ele>56.0</ele><time>2026-04-26T16:45:11.085Z</time></trkpt><trkpt lat="40.05435679628198" lon="18.091556378908617"><ele>56.0</ele><time>2026-04-26T16:45:12.085Z</time></trkpt><trkpt lat="40.054306516081105" lon="18.09185965644624"><ele>57.0</ele><time>2026-04-26T16:45:13.085Z</time></trkpt><trkpt lat="40.054254934060424" lon="18.092165396029994"><ele>58.0</ele><time>2026-04-26T16:45:14.085Z</time></trkpt><trkpt lat="40.05418575675691" lon="18.092460265928256"><ele>58.0</ele><time>2026-04-26T16:45:15.085Z</time></trkpt><trkpt lat="40.054132894384445" lon="18.092756045210212"><ele>58.0</ele><time>2026-04-26T16:45:16.085Z</time></trkpt><trkpt lat="40.054080530904294" lon="18.093048937630986"><ele>58.0</ele><time>2026-04-26T16:45:17.085Z</time></trkpt><trkpt lat="40.054028021355435" lon="18.093342647078046"><ele>58.0</ele><time>2026-04-26T16:45:18.085Z</time></trkpt><trkpt lat="40.053975544168516" lon="18.09363558841296"><ele>58.0</ele><time>2026-04-26T16:45:19.086Z</time></trkpt><trkpt lat="40.05392397653056" lon="18.093923723663078"><ele>58.0</ele><time>2026-04-26T16:45:20.085Z</time></trkpt><trkpt lat="40.053872104141554" lon="18.094214509854133"><ele>58.0</ele><time>2026-04-26T16:45:21.085Z</time></trkpt><trkpt lat="40.053835893545234" lon="18.09450923637135"><ele>58.0</ele><time>2026-04-26T16:45:22.085Z</time></trkpt><trkpt lat="40.05376970327006" lon="18.09479243933356"><ele>57.5</ele><time>2026-04-26T16:45:23.085Z</time></trkpt><trkpt lat="40.05373240948494" lon="18.09508721520906"><ele>57.0</ele><time>2026-04-26T16:45:24.085Z</time></trkpt><trkpt lat="40.05368080541358" lon="18.095376791699934"><ele>57.0</ele><time>2026-04-26T16:45:25.085Z</time></trkpt><trkpt lat="40.05361461540312" lon="18.095663037053964"><ele>57.0</ele><time>2026-04-26T16:45:26.085Z</time></trkpt><trkpt lat="40.053578650313945" lon="18.09595916553192"><ele>57.0</ele><time>2026-04-26T16:45:27.085Z</time></trkpt><trkpt lat="40.05351095959063" lon="18.096244916907693"><ele>57.0</ele><time>2026-04-26T16:45:28.085Z</time></trkpt><trkpt lat="40.0534597509835" lon="18.09653238037749"><ele>57.0</ele><time>2026-04-26T16:45:29.085Z</time></trkpt><trkpt lat="40.05340774353885" lon="18.09682432818581"><ele>57.0</ele><time>2026-04-26T16:45:30.085Z</time></trkpt><trkpt lat="40.05335577060871" lon="18.097116082225437"><ele>57.0</ele><time>2026-04-26T16:45:31.085Z</time></trkpt><trkpt lat="40.053304413357495" lon="18.097404380113552"><ele>57.0</ele><time>2026-04-26T16:45:32.085Z</time></trkpt><trkpt lat="40.05325188781729" lon="18.097699424515824"><ele>57.0</ele><time>2026-04-26T16:45:33.085Z</time></trkpt><trkpt lat="40.053200736186234" lon="18.09798700620792"><ele>57.0</ele><time>2026-04-26T16:45:34.085Z</time></trkpt><trkpt lat="40.05314850412166" lon="18.098280662265456"><ele>57.0</ele><time>2026-04-26T16:45:35.085Z</time></trkpt><trkpt lat="40.05311019821396" lon="18.09857997084034"><ele>57.0</ele><time>2026-04-26T16:45:36.085Z</time></trkpt><trkpt lat="40.05305803618101" lon="18.098873854453014"><ele>57.0</ele><time>2026-04-26T16:45:37.085Z</time></trkpt><trkpt lat="40.053006834753866" lon="18.099167339557585"><ele>57.0</ele><time>2026-04-26T16:45:38.085Z</time></trkpt><trkpt lat="40.0529544613516" lon="18.099458349269085"><ele>57.0</ele><time>2026-04-26T16:45:39.085Z</time></trkpt><trkpt lat="40.0528999664568" lon="18.09975096263071"><ele>57.0</ele><time>2026-04-26T16:45:40.085Z</time></trkpt><trkpt lat="40.05284695659525" lon="18.100045963696175"><ele>56.5</ele><time>2026-04-26T16:45:41.085Z</time></trkpt><trkpt lat="40.05279331742329" lon="18.100337939246238"><ele>56.0</ele><time>2026-04-26T16:45:42.085Z</time></trkpt><trkpt lat="40.05274384571207" lon="18.100630626642054"><ele>56.0</ele><time>2026-04-26T16:45:43.085Z</time></trkpt><trkpt lat="40.0526908115029" lon="18.10092451881828"><ele>56.0</ele><time>2026-04-26T16:45:44.085Z</time></trkpt><trkpt lat="40.0526426750645" lon="18.101215540861194"><ele>56.0</ele><time>2026-04-26T16:45:45.085Z</time></trkpt><trkpt lat="40.05259167643891" lon="18.101512100177697"><ele>56.0</ele><time>2026-04-26T16:45:46.085Z</time></trkpt><trkpt lat="40.05254158263524" lon="18.101805892290354"><ele>56.0</ele><time>2026-04-26T16:45:47.085Z</time></trkpt><trkpt lat="40.05248806313473" lon="18.102092614484366"><ele>56.0</ele><time>2026-04-26T16:45:48.085Z</time></trkpt><trkpt lat="40.05243968875326" lon="18.102361814792577"><ele>56.0</ele><time>2026-04-26T16:45:49.085Z</time></trkpt><trkpt lat="40.052393697629505" lon="18.10261521628052"><ele>56.0</ele><time>2026-04-26T16:45:50.085Z</time></trkpt><trkpt lat="40.052350388383694" lon="18.102854210437272"><ele>56.0</ele><time>2026-04-26T16:45:51.085Z</time></trkpt><trkpt lat="40.05230915444682" lon="18.103079177562854"><ele>56.0</ele><time>2026-04-26T16:45:52.085Z</time></trkpt><trkpt lat="40.052272172662555" lon="18.103295407756168"><ele>56.0</ele><time>2026-04-26T16:45:53.085Z</time></trkpt><trkpt lat="40.052235492738625" lon="18.10350448040633"><ele>56.0</ele><time>2026-04-26T16:45:54.085Z</time></trkpt><trkpt lat="40.05219959115384" lon="18.10371436325101"><ele>56.0</ele><time>2026-04-26T16:45:55.085Z</time></trkpt><trkpt lat="40.05216254819766" lon="18.103921228182635"><ele>55.333333333333336</ele><time>2026-04-26T16:45:56.085Z</time></trkpt><trkpt lat="40.05212485421252" lon="18.104122848694278"><ele>54.66666666666667</ele><time>2026-04-26T16:45:57.085Z</time></trkpt><trkpt lat="40.05208891605206" lon="18.104314121582373"><ele>54.0</ele><time>2026-04-26T16:45:58.085Z</time></trkpt><trkpt lat="40.0520554115944" lon="18.10449933720117"><ele>54.0</ele><time>2026-04-26T16:45:59.085Z</time></trkpt><trkpt lat="40.052011371976924" lon="18.104676955443537"><ele>54.0</ele><time>2026-04-26T16:46:00.085Z</time></trkpt><trkpt lat="40.051990921096355" lon="18.10485756028562"><ele>54.0</ele><time>2026-04-26T16:46:01.085Z</time></trkpt><trkpt lat="40.05195857191362" lon="18.10502738792091"><ele>54.0</ele><time>2026-04-26T16:46:02.085Z</time></trkpt><trkpt lat="40.051925334587466" lon="18.10519536399942"><ele>54.5</ele><time>2026-04-26T16:46:03.085Z</time></trkpt><trkpt lat="40.0518990628526" lon="18.10535309661465"><ele>55.0</ele><time>2026-04-26T16:46:04.085Z</time></trkpt><trkpt lat="40.051874234376" lon="18.105510506091214"><ele>55.5</ele><time>2026-04-26T16:46:05.085Z</time></trkpt><trkpt lat="40.05184943296421" lon="18.105674259282825"><ele>56.0</ele><time>2026-04-26T16:46:06.085Z</time></trkpt><trkpt lat="40.05182727476435" lon="18.10584100050691"><ele>56.0</ele><time>2026-04-26T16:46:07.085Z</time></trkpt><trkpt lat="40.05180829506093" lon="18.1059969060926"><ele>56.0</ele><time>2026-04-26T16:46:08.085Z</time></trkpt><trkpt lat="40.051787241133475" lon="18.106148872357206"><ele>56.0</ele><time>2026-04-26T16:46:09.085Z</time></trkpt><trkpt lat="40.051763406376935" lon="18.106300634383537"><ele>56.0</ele><time>2026-04-26T16:46:10.085Z</time></trkpt><trkpt lat="40.05174980346423" lon="18.106454198461172"><ele>56.0</ele><time>2026-04-26T16:46:11.085Z</time></trkpt><trkpt lat="40.051735800753775" lon="18.10660471899312"><ele>55.99999999999999</ele><time>2026-04-26T16:46:12.085Z</time></trkpt><trkpt lat="40.05172268944669" lon="18.106748468407694"><ele>55.99999999999999</ele><time>2026-04-26T16:46:13.085Z</time></trkpt><trkpt lat="40.05170716079495" lon="18.106885008195086"><ele>56.0</ele><time>2026-04-26T16:46:14.085Z</time></trkpt><trkpt lat="40.05169104723346" lon="18.10701701576478"><ele>56.0</ele><time>2026-04-26T16:46:15.085Z</time></trkpt><trkpt lat="40.05167707506442" lon="18.107141905807012"><ele>56.00000000000001</ele><time>2026-04-26T16:46:16.085Z</time></trkpt><trkpt lat="40.05166488040139" lon="18.107266796724176"><ele>56.0</ele><time>2026-04-26T16:46:17.085Z</time></trkpt><trkpt lat="40.05165319197063" lon="18.107376644445438"><ele>56.0</ele><time>2026-04-26T16:46:18.085Z</time></trkpt><trkpt lat="40.051639260871774" lon="18.107479236905423"><ele>56.0</ele><time>2026-04-26T16:46:19.085Z</time></trkpt><trkpt lat="40.05162118313235" lon="18.10755849045716"><ele>56.00000000000001</ele><time>2026-04-26T16:46:20.085Z</time></trkpt><trkpt lat="40.0515700610384" lon="18.107697091735748"><ele>56.0</ele><time>2026-04-26T16:46:22.085Z</time></trkpt><trkpt lat="40.05152912395048" lon="18.107766102431853"><ele>56.0</ele><time>2026-04-26T16:46:23.085Z</time></trkpt><trkpt lat="40.0514866311707" lon="18.107855336867086"><ele>55.99999999999999</ele><time>2026-04-26T16:46:24.085Z</time></trkpt><trkpt lat="40.05145690267719" lon="18.10797754793867"><ele>55.99999999999999</ele><time>2026-04-26T16:46:25.085Z</time></trkpt><trkpt lat="40.05142603285451" lon="18.10812485128057"><ele>56.0</ele><time>2026-04-26T16:46:26.085Z</time></trkpt><trkpt lat="40.05138284244262" lon="18.108310873747264"><ele>56.0</ele><time>2026-04-26T16:46:27.085Z</time></trkpt><trkpt lat="40.051324024758806" lon="18.108522678204917"><ele>56.0</ele><time>2026-04-26T16:46:28.085Z</time></trkpt><trkpt lat="40.051299224909364" lon="18.10874346042963"><ele>56.0</ele><time>2026-04-26T16:46:29.085Z</time></trkpt><trkpt lat="40.05123798910245" lon="18.108998200058583"><ele>56.0</ele><time>2026-04-26T16:46:30.085Z</time></trkpt><trkpt lat="40.05120056346312" lon="18.109285920354893"><ele>56.0</ele><time>2026-04-26T16:46:31.085Z</time></trkpt><trkpt lat="40.051136349678195" lon="18.10956303273162"><ele>56.0</ele><time>2026-04-26T16:46:32.085Z</time></trkpt><trkpt lat="40.05109007769675" lon="18.109819785289275"><ele>56.0</ele><time>2026-04-26T16:46:33.085Z</time></trkpt><trkpt lat="40.05105258458563" lon="18.110029000979758"><ele>55.75</ele><time>2026-04-26T16:46:34.085Z</time></trkpt><trkpt lat="40.05101992704203" lon="18.110211576739218"><ele>55.5</ele><time>2026-04-26T16:46:35.085Z</time></trkpt><trkpt lat="40.050989018021895" lon="18.110384377155693"><ele>55.25</ele><time>2026-04-26T16:46:36.085Z</time></trkpt><trkpt lat="40.05096109337516" lon="18.11054049312655"><ele>55.0</ele><time>2026-04-26T16:46:37.085Z</time></trkpt><trkpt lat="40.05092357859173" lon="18.110687711189833"><ele>55.166666666666664</ele><time>2026-04-26T16:46:38.085Z</time></trkpt><trkpt lat="40.050903786087886" lon="18.110796651632857"><ele>55.33333333333333</ele><time>2026-04-26T16:46:39.085Z</time></trkpt><trkpt lat="40.05089001914309" lon="18.11088859771753"><ele>55.5</ele><time>2026-04-26T16:46:40.085Z</time></trkpt><trkpt lat="40.05087516636308" lon="18.11097940333642"><ele>55.66666666666667</ele><time>2026-04-26T16:46:41.085Z</time></trkpt><trkpt lat="40.050859589301744" lon="18.111074391464143"><ele>55.833333333333336</ele><time>2026-04-26T16:46:42.085Z</time></trkpt><trkpt lat="40.050838653743014" lon="18.11118688178815"><ele>56.0</ele><time>2026-04-26T16:46:43.085Z</time></trkpt><trkpt lat="40.05081655943747" lon="18.11131736676711"><ele>56.0</ele><time>2026-04-26T16:46:44.085Z</time></trkpt><trkpt lat="40.05078897336918" lon="18.111464570666985"><ele>55.99999999999999</ele><time>2026-04-26T16:46:45.085Z</time></trkpt><trkpt lat="40.05076920478639" lon="18.111592665401147"><ele>55.99999999999999</ele><time>2026-04-26T16:46:46.085Z</time></trkpt><trkpt lat="40.05074734723512" lon="18.111718421833924"><ele>56.0</ele><time>2026-04-26T16:46:47.085Z</time></trkpt><trkpt lat="40.05072656057321" lon="18.11184058875212"><ele>56.0</ele><time>2026-04-26T16:46:48.085Z</time></trkpt><trkpt lat="40.05070537010993" lon="18.111969515562322"><ele>56.0</ele><time>2026-04-26T16:46:49.085Z</time></trkpt><trkpt lat="40.05068095266135" lon="18.112092899530644"><ele>55.99999999999999</ele><time>2026-04-26T16:46:50.085Z</time></trkpt><trkpt lat="40.050659903107686" lon="18.112225184730598"><ele>55.99999999999999</ele><time>2026-04-26T16:46:51.085Z</time></trkpt><trkpt lat="40.050639461540136" lon="18.11236015817331"><ele>56.0</ele><time>2026-04-26T16:46:52.085Z</time></trkpt><trkpt lat="40.05061632718525" lon="18.112485190617747"><ele>56.0</ele><time>2026-04-26T16:46:53.085Z</time></trkpt><trkpt lat="40.05059608701793" lon="18.112597712161413"><ele>56.199999999999996</ele><time>2026-04-26T16:46:54.085Z</time></trkpt><trkpt lat="40.05057373519057" lon="18.112713830127117"><ele>56.39999999999999</ele><time>2026-04-26T16:46:55.085Z</time></trkpt><trkpt lat="40.050551049633334" lon="18.112836138249257"><ele>56.6</ele><time>2026-04-26T16:46:56.085Z</time></trkpt><trkpt lat="40.05052840360263" lon="18.112961902611588"><ele>56.8</ele><time>2026-04-26T16:46:57.085Z</time></trkpt><trkpt lat="40.05050850437673" lon="18.113092467285934"><ele>57.0</ele><time>2026-04-26T16:46:58.085Z</time></trkpt><trkpt lat="40.05048602265412" lon="18.11322725658281"><ele>57.0</ele><time>2026-04-26T16:46:59.085Z</time></trkpt><trkpt lat="40.05046930184842" lon="18.113356343961808"><ele>57.0</ele><time>2026-04-26T16:47:00.085Z</time></trkpt><trkpt lat="40.0504469447356" lon="18.113485451097898"><ele>57.0</ele><time>2026-04-26T16:47:01.085Z</time></trkpt><trkpt lat="40.05042452730256" lon="18.113616936014754"><ele>57.0</ele><time>2026-04-26T16:47:02.085Z</time></trkpt><trkpt lat="40.05040123190822" lon="18.113752681888133"><ele>57.0</ele><time>2026-04-26T16:47:03.085Z</time></trkpt><trkpt lat="40.05037244829827" lon="18.113896350597408"><ele>57.0</ele><time>2026-04-26T16:47:04.085Z</time></trkpt><trkpt lat="40.050346202782" lon="18.114046807278378"><ele>57.0</ele><time>2026-04-26T16:47:05.085Z</time></trkpt><trkpt lat="40.05031947621138" lon="18.11420255485085"><ele>57.0</ele><time>2026-04-26T16:47:06.085Z</time></trkpt><trkpt lat="40.050295474212724" lon="18.114346037673496"><ele>57.0</ele><time>2026-04-26T16:47:07.085Z</time></trkpt><trkpt lat="40.0502517504768" lon="18.114495853068707"><ele>57.0</ele><time>2026-04-26T16:47:08.085Z</time></trkpt><trkpt lat="40.050227062468196" lon="18.114641011768068"><ele>57.0</ele><time>2026-04-26T16:47:09.085Z</time></trkpt><trkpt lat="40.050198914374846" lon="18.114791693013103"><ele>57.0</ele><time>2026-04-26T16:47:10.085Z</time></trkpt><trkpt lat="40.05017171469515" lon="18.11494502852092"><ele>57.0</ele><time>2026-04-26T16:47:11.085Z</time></trkpt><trkpt lat="40.05014607818606" lon="18.115092890278525"><ele>57.0</ele><time>2026-04-26T16:47:12.085Z</time></trkpt><trkpt lat="40.05011579434128" lon="18.115246415459712"><ele>57.0</ele><time>2026-04-26T16:47:13.085Z</time></trkpt><trkpt lat="40.05009181011683" lon="18.115399984753044"><ele>57.0</ele><time>2026-04-26T16:47:14.085Z</time></trkpt><trkpt lat="40.050068906851386" lon="18.11554757085081"><ele>57.0</ele><time>2026-04-26T16:47:15.085Z</time></trkpt><trkpt lat="40.05004170310571" lon="18.115690238045055"><ele>56.8</ele><time>2026-04-26T16:47:16.085Z</time></trkpt><trkpt lat="40.050019684798166" lon="18.11582940668185"><ele>56.6</ele><time>2026-04-26T16:47:17.085Z</time></trkpt><trkpt lat="40.04999892304873" lon="18.11596188157359"><ele>56.39999999999999</ele><time>2026-04-26T16:47:18.085Z</time></trkpt><trkpt lat="40.0499738888403" lon="18.116094524611643"><ele>56.199999999999996</ele><time>2026-04-26T16:47:19.085Z</time></trkpt><trkpt lat="40.04994868546299" lon="18.11622977527233"><ele>56.0</ele><time>2026-04-26T16:47:20.085Z</time></trkpt><trkpt lat="40.049920923629" lon="18.11637314237731"><ele>55.75</ele><time>2026-04-26T16:47:21.085Z</time></trkpt><trkpt lat="40.049892088107576" lon="18.11652317630921"><ele>55.5</ele><time>2026-04-26T16:47:22.085Z</time></trkpt><trkpt lat="40.049867989083864" lon="18.11667427528421"><ele>55.25</ele><time>2026-04-26T16:47:23.085Z</time></trkpt><trkpt lat="40.04984808255289" lon="18.116824843442828"><ele>55.0</ele><time>2026-04-26T16:47:24.085Z</time></trkpt><trkpt lat="40.049824215013444" lon="18.116973402052345"><ele>55.5</ele><time>2026-04-26T16:47:25.085Z</time></trkpt><trkpt lat="40.04979714508486" lon="18.11711946588992"><ele>56.0</ele><time>2026-04-26T16:47:26.085Z</time></trkpt><trkpt lat="40.04977065139497" lon="18.1172704363138"><ele>56.5</ele><time>2026-04-26T16:47:27.085Z</time></trkpt><trkpt lat="40.049746749928" lon="18.117422709845936"><ele>57.0</ele><time>2026-04-26T16:47:28.085Z</time></trkpt><trkpt lat="40.049704405755094" lon="18.117580735559017"><ele>57.400000000000006</ele><time>2026-04-26T16:47:29.084Z</time></trkpt><trkpt lat="40.04967899372587" lon="18.11773713462693"><ele>57.800000000000004</ele><time>2026-04-26T16:47:30.084Z</time></trkpt><trkpt lat="40.04965287243471" lon="18.117883756559454"><ele>58.2</ele><time>2026-04-26T16:47:31.085Z</time></trkpt><trkpt lat="40.04963499769057" lon="18.118018610417536"><ele>58.6</ele><time>2026-04-26T16:47:32.085Z</time></trkpt><trkpt lat="40.0496142771311" lon="18.118136993445237"><ele>59.0</ele><time>2026-04-26T16:47:33.085Z</time></trkpt><trkpt lat="40.04959012947215" lon="18.118247560096687"><ele>59.333333333333336</ele><time>2026-04-26T16:47:34.085Z</time></trkpt><trkpt lat="40.04956984295834" lon="18.118354636148613"><ele>59.66666666666667</ele><time>2026-04-26T16:47:35.084Z</time></trkpt><trkpt lat="40.049549044936676" lon="18.118469625761193"><ele>60.0</ele><time>2026-04-26T16:47:36.084Z</time></trkpt><trkpt lat="40.049527731995504" lon="18.118589454605317"><ele>60.33333333333333</ele><time>2026-04-26T16:47:37.084Z</time></trkpt><trkpt lat="40.04951131451356" lon="18.11870087045733"><ele>60.666666666666664</ele><time>2026-04-26T16:47:38.084Z</time></trkpt><trkpt lat="40.049497141999275" lon="18.118803451015157"><ele>61.0</ele><time>2026-04-26T16:47:39.084Z</time></trkpt><trkpt lat="40.049474417063784" lon="18.118941943431032"><ele>61.0</ele><time>2026-04-26T16:47:41.084Z</time></trkpt><trkpt lat="40.04944381496565" lon="18.119023608755843"><ele>60.99999999999999</ele><time>2026-04-26T16:47:44.084Z</time></trkpt><trkpt lat="40.04942751438302" lon="18.119113233724093"><ele>60.99999999999999</ele><time>2026-04-26T16:47:47.084Z</time></trkpt><trkpt lat="40.04940486256023" lon="18.119237779490653"><ele>61.0</ele><time>2026-04-26T16:47:49.084Z</time></trkpt><trkpt lat="40.04937505917923" lon="18.119401646464368"><ele>61.0</ele><time>2026-04-26T16:47:51.084Z</time></trkpt><trkpt lat="40.049346420262346" lon="18.11955911087847"><ele>61.0</ele><time>2026-04-26T16:47:53.084Z</time></trkpt><trkpt lat="40.04932140745265" lon="18.11969663800434"><ele>60.99999999999999</ele><time>2026-04-26T16:47:55.084Z</time></trkpt><trkpt lat="40.04929391431137" lon="18.119846004815216"><ele>60.99999999999999</ele><time>2026-04-26T16:47:57.084Z</time></trkpt><trkpt lat="40.04927689769559" lon="18.11994029709821"><ele>61.0</ele><time>2026-04-26T16:47:58.084Z</time></trkpt><trkpt lat="40.04925809855076" lon="18.120045831254224"><ele>61.0</ele><time>2026-04-26T16:47:59.084Z</time></trkpt><trkpt lat="40.04923701673982" lon="18.12016417561501"><ele>61.166666666666664</ele><time>2026-04-26T16:48:00.084Z</time></trkpt><trkpt lat="40.04921724450578" lon="18.12027081911386"><ele>61.33333333333333</ele><time>2026-04-26T16:48:01.084Z</time></trkpt><trkpt lat="40.0491996364936" lon="18.12036726631127"><ele>61.5</ele><time>2026-04-26T16:48:02.084Z</time></trkpt><trkpt lat="40.049181760412445" lon="18.120464485130285"><ele>61.66666666666667</ele><time>2026-04-26T16:48:03.084Z</time></trkpt><trkpt lat="40.04916436684984" lon="18.120558403220688"><ele>61.833333333333336</ele><time>2026-04-26T16:48:04.084Z</time></trkpt><trkpt lat="40.04914733007668" lon="18.120650394789493"><ele>62.0</ele><time>2026-04-26T16:48:05.084Z</time></trkpt><trkpt lat="40.04912863862308" lon="18.120751259991717"><ele>62.16666666666667</ele><time>2026-04-26T16:48:06.084Z</time></trkpt><trkpt lat="40.04911089699557" lon="18.120846989882658"><ele>62.333333333333336</ele><time>2026-04-26T16:48:07.084Z</time></trkpt><trkpt lat="40.04909439050452" lon="18.120935778963428"><ele>62.5</ele><time>2026-04-26T16:48:08.084Z</time></trkpt><trkpt lat="40.04907819539007" lon="18.121022995552494"><ele>62.66666666666667</ele><time>2026-04-26T16:48:09.084Z</time></trkpt><trkpt lat="40.0490495476068" lon="18.121179567465767"><ele>62.833333333333336</ele><time>2026-04-26T16:48:11.084Z</time></trkpt><trkpt lat="40.0490346854599" lon="18.121261789201455"><ele>63.0</ele><time>2026-04-26T16:48:12.084Z</time></trkpt><trkpt lat="40.04900604554184" lon="18.121417045996115"><ele>63.0</ele><time>2026-04-26T16:48:14.084Z</time></trkpt><trkpt lat="40.04898932827723" lon="18.121506761574455"><ele>63.0</ele><time>2026-04-26T16:48:15.084Z</time></trkpt><trkpt lat="40.048961635952544" lon="18.12165515585651"><ele>63.0</ele><time>2026-04-26T16:48:17.084Z</time></trkpt><trkpt lat="40.048934215010284" lon="18.121804302090354"><ele>63.0</ele><time>2026-04-26T16:48:19.084Z</time></trkpt><trkpt lat="40.048933903701865" lon="18.121896931132472"><ele>63.0</ele><time>2026-04-26T16:48:20.084Z</time></trkpt><trkpt lat="40.04891620506165" lon="18.121996737510234"><ele>63.5</ele><time>2026-04-26T16:48:21.084Z</time></trkpt><trkpt lat="40.0488822839906" lon="18.12209454215052"><ele>64.0</ele><time>2026-04-26T16:48:22.084Z</time></trkpt><trkpt lat="40.0488650319285" lon="18.122191972000202"><ele>64.5</ele><time>2026-04-26T16:48:23.084Z</time></trkpt><trkpt lat="40.04884457611218" lon="18.122307495245064"><ele>65.0</ele><time>2026-04-26T16:48:25.084Z</time></trkpt><trkpt lat="40.048825511678196" lon="18.122411702445145"><ele>65.5</ele><time>2026-04-26T16:48:27.084Z</time></trkpt><trkpt lat="40.048801368611315" lon="18.122545000139976"><ele>66.0</ele><time>2026-04-26T16:48:29.084Z</time></trkpt><trkpt lat="40.048775281121195" lon="18.122698689499924"><ele>66.0</ele><time>2026-04-26T16:48:31.084Z</time></trkpt><trkpt lat="40.04876199348401" lon="18.122780642646866"><ele>66.0</ele><time>2026-04-26T16:48:32.084Z</time></trkpt><trkpt lat="40.04875777806653" lon="18.122931273276947"><ele>66.0</ele><time>2026-04-26T16:48:34.084Z</time></trkpt><trkpt lat="40.04878278244549" lon="18.123068420016907"><ele>66.0</ele><time>2026-04-26T16:48:36.084Z</time></trkpt><trkpt lat="40.048842553514284" lon="18.123166655718965"><ele>66.0</ele><time>2026-04-26T16:48:38.084Z</time></trkpt><trkpt lat="40.04886973288456" lon="18.12325075634129"><ele>66.39999999999999</ele><time>2026-04-26T16:48:40.084Z</time></trkpt><trkpt lat="40.04890239587611" lon="18.12334873446476"><ele>66.8</ele><time>2026-04-26T16:48:42.084Z</time></trkpt><trkpt lat="40.04893494404036" lon="18.123449997342888"><ele>67.19999999999999</ele><time>2026-04-26T16:48:44.084Z</time></trkpt><trkpt lat="40.04897036144806" lon="18.123559482901914"><ele>67.6</ele><time>2026-04-26T16:49:03.084Z</time></trkpt><trkpt lat="40.049003822519346" lon="18.12369515185839"><ele>68.0</ele><time>2026-04-26T16:49:06.084Z</time></trkpt><trkpt lat="40.04905062672284" lon="18.123802321503927"><ele>68.0</ele><time>2026-04-26T16:49:08.084Z</time></trkpt><trkpt lat="40.04910026174335" lon="18.123936381348926"><ele>68.0</ele><time>2026-04-26T16:49:10.084Z</time></trkpt><trkpt lat="40.04914423470001" lon="18.12407294912099"><ele>68.0</ele><time>2026-04-26T16:49:12.084Z</time></trkpt><trkpt lat="40.04918180467925" lon="18.12422132574528"><ele>68.0</ele><time>2026-04-26T16:49:14.084Z</time></trkpt><trkpt lat="40.049231250759746" lon="18.124329388300566"><ele>68.0</ele><time>2026-04-26T16:49:16.084Z</time></trkpt><trkpt lat="40.04926484842277" lon="18.124465104018483"><ele>69.25</ele><time>2026-04-26T16:49:18.084Z</time></trkpt><trkpt lat="40.049310086345805" lon="18.12459465894785"><ele>70.5</ele><time>2026-04-26T16:49:20.084Z</time></trkpt><trkpt lat="40.04937873271425" lon="18.124746264423596"><ele>71.75</ele><time>2026-04-26T16:49:22.084Z</time></trkpt><trkpt lat="40.04943114359725" lon="18.12488789569724"><ele>73.0</ele><time>2026-04-26T16:49:24.084Z</time></trkpt><trkpt lat="40.04948040927127" lon="18.12504555551406"><ele>73.2</ele><time>2026-04-26T16:49:26.084Z</time></trkpt><trkpt lat="40.04953678973738" lon="18.125181463687053"><ele>73.4</ele><time>2026-04-26T16:49:28.085Z</time></trkpt><trkpt lat="40.04959201189788" lon="18.125335671457005"><ele>73.60000000000001</ele><time>2026-04-26T16:49:30.084Z</time></trkpt><trkpt lat="40.04961953092696" lon="18.12541898479035"><ele>73.8</ele><time>2026-04-26T16:49:31.085Z</time></trkpt><trkpt lat="40.04966845036015" lon="18.12556594028969"><ele>74.0</ele><time>2026-04-26T16:49:33.084Z</time></trkpt><trkpt lat="40.04969718558499" lon="18.125682846521727"><ele>74.33333333333334</ele><time>2026-04-26T16:49:35.084Z</time></trkpt><trkpt lat="40.049735615592766" lon="18.125765871454398"><ele>74.66666666666667</ele><time>2026-04-26T16:49:37.084Z</time></trkpt><trkpt lat="40.04976273631163" lon="18.125845852965558"><ele>75.0</ele><time>2026-04-26T16:49:39.084Z</time></trkpt><trkpt lat="40.0497601112818" lon="18.12592910322853"><ele>75.33333333333333</ele><time>2026-04-26T16:49:42.085Z</time></trkpt><trkpt lat="40.04961011795904" lon="18.126003952477728"><ele>75.66666666666666</ele><time>2026-04-26T16:49:43.085Z</time></trkpt><trkpt lat="40.04953507146348" lon="18.126038480602084"><ele>76.0</ele><time>2026-04-26T16:49:44.085Z</time></trkpt><trkpt lat="40.04946528520146" lon="18.12607584232715"><ele>76.0</ele><time>2026-04-26T16:49:45.085Z</time></trkpt><trkpt lat="40.04940263273744" lon="18.126111256911614"><ele>76.0</ele><time>2026-04-26T16:49:46.085Z</time></trkpt><trkpt lat="40.04933663711725" lon="18.126133598171805"><ele>76.0</ele><time>2026-04-26T16:49:47.085Z</time></trkpt><trkpt lat="40.04927533934417" lon="18.126155988414855"><ele>76.0</ele><time>2026-04-26T16:49:48.085Z</time></trkpt><trkpt lat="40.04921522875218" lon="18.126181540880363"><ele>76.0</ele><time>2026-04-26T16:49:49.085Z</time></trkpt><trkpt lat="40.049102961658775" lon="18.12622772450476"><ele>76.0</ele><time>2026-04-26T16:49:51.085Z</time></trkpt><trkpt lat="40.048994508641215" lon="18.126271800447253"><ele>75.6</ele><time>2026-04-26T16:49:53.085Z</time></trkpt><trkpt lat="40.04888514334236" lon="18.126313727736157"><ele>75.19999999999999</ele><time>2026-04-26T16:49:55.085Z</time></trkpt><trkpt lat="40.04879265872572" lon="18.126355609098706"><ele>74.80000000000001</ele><time>2026-04-26T16:49:57.085Z</time></trkpt><trkpt lat="40.04870527087807" lon="18.126393977966657"><ele>74.4</ele><time>2026-04-26T16:49:59.085Z</time></trkpt><trkpt lat="40.048626370005366" lon="18.126428800238823"><ele>74.0</ele><time>2026-04-26T16:50:01.085Z</time></trkpt><trkpt lat="40.04855953918423" lon="18.126458100619026"><ele>74.0</ele><time>2026-04-26T16:50:03.085Z</time></trkpt><trkpt lat="40.04848463820881" lon="18.126513627342153"><ele>74.0</ele><time>2026-04-26T16:50:13.085Z</time></trkpt><trkpt lat="40.048424719692875" lon="18.126542029539877"><ele>74.0</ele><time>2026-04-26T16:50:15.085Z</time></trkpt><trkpt lat="40.04835144801206" lon="18.126576761442706"><ele>74.0</ele><time>2026-04-26T16:50:18.085Z</time></trkpt><trkpt lat="40.04831578395921" lon="18.126440267172093"><ele>74.0</ele><time>2026-04-26T16:50:19.085Z</time></trkpt><trkpt lat="40.04827514201809" lon="18.126362425467743"><ele>74.0</ele><time>2026-04-26T16:50:20.085Z</time></trkpt><trkpt lat="40.048238244488175" lon="18.12627017223538"><ele>73.5</ele><time>2026-04-26T16:50:21.085Z</time></trkpt><trkpt lat="40.048180411121095" lon="18.126147717932607"><ele>73.0</ele><time>2026-04-26T16:50:22.085Z</time></trkpt><trkpt lat="40.04810853814074" lon="18.125979220806613"><ele>72.5</ele><time>2026-04-26T16:50:23.085Z</time></trkpt><trkpt lat="40.0480578520773" lon="18.125823586817926"><ele>72.0</ele><time>2026-04-26T16:50:24.085Z</time></trkpt><trkpt lat="40.04801312619419" lon="18.12571270593577"><ele>71.8</ele><time>2026-04-26T16:50:25.085Z</time></trkpt><trkpt lat="40.04797826322765" lon="18.125616968597292"><ele>71.6</ele><time>2026-04-26T16:50:26.085Z</time></trkpt><trkpt lat="40.04792726909327" lon="18.125489712964193"><ele>71.39999999999999</ele><time>2026-04-26T16:50:28.085Z</time></trkpt><trkpt lat="40.04785192571724" lon="18.12535119249137"><ele>71.2</ele><time>2026-04-26T16:50:30.085Z</time></trkpt><trkpt lat="40.047824877420794" lon="18.125271035655057"><ele>71.0</ele><time>2026-04-26T16:50:31.085Z</time></trkpt><trkpt lat="40.04779608252794" lon="18.125196514782335"><ele>71.0</ele><time>2026-04-26T16:50:32.085Z</time></trkpt><trkpt lat="40.04774504964089" lon="18.125053129836797"><ele>71.0</ele><time>2026-04-26T16:50:34.085Z</time></trkpt><trkpt lat="40.047714092018325" lon="18.124977470260212"><ele>71.0</ele><time>2026-04-26T16:50:35.085Z</time></trkpt><trkpt lat="40.04767800808967" lon="18.124892681469362"><ele>71.0</ele><time>2026-04-26T16:50:36.085Z</time></trkpt><trkpt lat="40.04762831456251" lon="18.12480040780507"><ele>71.0</ele><time>2026-04-26T16:50:37.085Z</time></trkpt><trkpt lat="40.04759944021575" lon="18.12468602448489"><ele>71.0</ele><time>2026-04-26T16:50:38.085Z</time></trkpt><trkpt lat="40.04756339960713" lon="18.124595494309432"><ele>71.0</ele><time>2026-04-26T16:50:39.085Z</time></trkpt><trkpt lat="40.047533016054565" lon="18.12452095422504"><ele>71.0</ele><time>2026-04-26T16:50:40.085Z</time></trkpt><trkpt lat="40.04747249502082" lon="18.124394797284282"><ele>71.0</ele><time>2026-04-26T16:50:42.085Z</time></trkpt><trkpt lat="40.047419575095795" lon="18.12427967664749"><ele>71.0</ele><time>2026-04-26T16:50:44.085Z</time></trkpt><trkpt lat="40.04737478219741" lon="18.124184427750507"><ele>71.0</ele><time>2026-04-26T16:50:46.085Z</time></trkpt><trkpt lat="40.04734209525358" lon="18.124098739410922"><ele>71.0</ele><time>2026-04-26T16:50:49.085Z</time></trkpt><trkpt lat="40.04725407263613" lon="18.12407272817718"><ele>71.0</ele><time>2026-04-26T16:51:00.085Z</time></trkpt><trkpt lat="40.047190965187575" lon="18.124114941131463"><ele>71.0</ele><time>2026-04-26T16:51:01.085Z</time></trkpt><trkpt lat="40.047118474364304" lon="18.124160286769808"><ele>71.0</ele><time>2026-04-26T16:51:02.085Z</time></trkpt><trkpt lat="40.04703456970124" lon="18.124212336237804"><ele>71.0</ele><time>2026-04-26T16:51:03.085Z</time></trkpt><trkpt lat="40.046939563539375" lon="18.12427221381357"><ele>71.0</ele><time>2026-04-26T16:51:04.085Z</time></trkpt><trkpt lat="40.046843946950716" lon="18.12434155871367"><ele>71.0</ele><time>2026-04-26T16:51:05.085Z</time></trkpt><trkpt lat="40.0467332974741" lon="18.12441147229782"><ele>71.0</ele><time>2026-04-26T16:51:06.085Z</time></trkpt><trkpt lat="40.04661806963837" lon="18.124486470922886"><ele>71.0</ele><time>2026-04-26T16:51:07.085Z</time></trkpt><trkpt lat="40.046498612704454" lon="18.124565315429923"><ele>71.0</ele><time>2026-04-26T16:51:08.085Z</time></trkpt><trkpt lat="40.04637607120811" lon="18.12464608025119"><ele>71.5</ele><time>2026-04-26T16:51:09.085Z</time></trkpt><trkpt lat="40.04625800315943" lon="18.12472059372557"><ele>72.0</ele><time>2026-04-26T16:51:10.085Z</time></trkpt><trkpt lat="40.0461422025995" lon="18.124800431944394"><ele>72.5</ele><time>2026-04-26T16:51:11.085Z</time></trkpt><trkpt lat="40.046032867956" lon="18.124888382764063"><ele>73.0</ele><time>2026-04-26T16:51:12.085Z</time></trkpt><trkpt lat="40.04591951452398" lon="18.12496922045141"><ele>72.5</ele><time>2026-04-26T16:51:13.085Z</time></trkpt><trkpt lat="40.04579360057416" lon="18.12504397600952"><ele>72.0</ele><time>2026-04-26T16:51:14.085Z</time></trkpt><trkpt lat="40.045677373903615" lon="18.125118833139577"><ele>71.5</ele><time>2026-04-26T16:51:15.085Z</time></trkpt><trkpt lat="40.04557517752312" lon="18.125180177523514"><ele>71.0</ele><time>2026-04-26T16:51:16.085Z</time></trkpt><trkpt lat="40.04548475560919" lon="18.12524935667221"><ele>71.0</ele><time>2026-04-26T16:51:17.085Z</time></trkpt><trkpt lat="40.045383541438845" lon="18.12532823493941"><ele>71.0</ele><time>2026-04-26T16:51:18.085Z</time></trkpt><trkpt lat="40.04527843242246" lon="18.125398285169265"><ele>71.0</ele><time>2026-04-26T16:51:19.085Z</time></trkpt><trkpt lat="40.04516435494481" lon="18.125477210661515"><ele>71.0</ele><time>2026-04-26T16:51:20.085Z</time></trkpt><trkpt lat="40.045039674718126" lon="18.125563164395164"><ele>71.0</ele><time>2026-04-26T16:51:21.085Z</time></trkpt><trkpt lat="40.04491006855621" lon="18.12564894840571"><ele>71.0</ele><time>2026-04-26T16:51:22.085Z</time></trkpt><trkpt lat="40.04476985735648" lon="18.12574103958316"><ele>71.0</ele><time>2026-04-26T16:51:23.085Z</time></trkpt><trkpt lat="40.0446257533708" lon="18.12583446410727"><ele>70.75</ele><time>2026-04-26T16:51:24.085Z</time></trkpt><trkpt lat="40.044493413789546" lon="18.125919551271686"><ele>70.5</ele><time>2026-04-26T16:51:25.085Z</time></trkpt><trkpt lat="40.04436117290642" lon="18.125996693089995"><ele>70.25</ele><time>2026-04-26T16:51:26.085Z</time></trkpt><trkpt lat="40.044232768989936" lon="18.126081242094177"><ele>70.0</ele><time>2026-04-26T16:51:27.085Z</time></trkpt><trkpt lat="40.044107085140816" lon="18.12616846052315"><ele>70.0</ele><time>2026-04-26T16:51:28.085Z</time></trkpt><trkpt lat="40.04397804978882" lon="18.126258288769694"><ele>70.0</ele><time>2026-04-26T16:51:29.085Z</time></trkpt><trkpt lat="40.04384331337829" lon="18.126370072098116"><ele>70.0</ele><time>2026-04-26T16:51:30.085Z</time></trkpt><trkpt lat="40.04370083526907" lon="18.126470673686306"><ele>70.0</ele><time>2026-04-26T16:51:31.085Z</time></trkpt><trkpt lat="40.04354944534681" lon="18.126575066625236"><ele>70.0</ele><time>2026-04-26T16:51:32.085Z</time></trkpt><trkpt lat="40.04337785834849" lon="18.126693252813602"><ele>70.0</ele><time>2026-04-26T16:51:33.085Z</time></trkpt><trkpt lat="40.043190113274534" lon="18.126819321255237"><ele>70.0</ele><time>2026-04-26T16:51:34.084Z</time></trkpt><trkpt lat="40.042994891533446" lon="18.12694944367408"><ele>70.0</ele><time>2026-04-26T16:51:35.084Z</time></trkpt><trkpt lat="40.04279068366541" lon="18.127087228717414"><ele>70.0</ele><time>2026-04-26T16:51:36.084Z</time></trkpt><trkpt lat="40.0426088557912" lon="18.127212645486676"><ele>69.33333333333333</ele><time>2026-04-26T16:51:37.084Z</time></trkpt><trkpt lat="40.04245249947214" lon="18.1273090089096"><ele>68.66666666666667</ele><time>2026-04-26T16:51:38.084Z</time></trkpt><trkpt lat="40.04230841176775" lon="18.127424311938025"><ele>68.0</ele><time>2026-04-26T16:51:39.084Z</time></trkpt><trkpt lat="40.04216913223351" lon="18.127528010019358"><ele>69.33333333333334</ele><time>2026-04-26T16:51:40.084Z</time></trkpt><trkpt lat="40.04202687901467" lon="18.127621286016897"><ele>70.66666666666667</ele><time>2026-04-26T16:51:41.084Z</time></trkpt><trkpt lat="40.041889726377505" lon="18.127716848240592"><ele>72.0</ele><time>2026-04-26T16:51:42.084Z</time></trkpt><trkpt lat="40.04176900266358" lon="18.127806417048685"><ele>72.0</ele><time>2026-04-26T16:51:43.084Z</time></trkpt><trkpt lat="40.04165233158012" lon="18.127893529167913"><ele>72.0</ele><time>2026-04-26T16:51:44.084Z</time></trkpt><trkpt lat="40.04154727697092" lon="18.12795619892172"><ele>72.0</ele><time>2026-04-26T16:51:45.084Z</time></trkpt><trkpt lat="40.041458398838024" lon="18.12801825581248"><ele>72.0</ele><time>2026-04-26T16:51:46.084Z</time></trkpt><trkpt lat="40.04139244807015" lon="18.128061013983974"><ele>72.0</ele><time>2026-04-26T16:51:47.084Z</time></trkpt><trkpt lat="40.04131673116802" lon="18.12810370838208"><ele>71.8</ele><time>2026-04-26T16:51:49.084Z</time></trkpt><trkpt lat="40.04125838732591" lon="18.12815412030013"><ele>71.6</ele><time>2026-04-26T16:51:51.084Z</time></trkpt><trkpt lat="40.041299085444464" lon="18.12834303922759"><ele>71.39999999999999</ele><time>2026-04-26T16:51:54.084Z</time></trkpt><trkpt lat="40.041343256697054" lon="18.128404292794016"><ele>71.2</ele><time>2026-04-26T16:51:55.084Z</time></trkpt><trkpt lat="40.04140550930859" lon="18.1285428778595"><ele>71.0</ele><time>2026-04-26T16:51:57.084Z</time></trkpt><trkpt lat="40.041428391490726" lon="18.128632806142544"><ele>71.0</ele><time>2026-04-26T16:51:58.084Z</time></trkpt><trkpt lat="40.041449571178795" lon="18.128754864390487"><ele>71.0</ele><time>2026-04-26T16:51:59.084Z</time></trkpt><trkpt lat="40.04144950667499" lon="18.128904569326455"><ele>71.0</ele><time>2026-04-26T16:52:00.084Z</time></trkpt><trkpt lat="40.041463632582285" lon="18.129089086358082"><ele>71.0</ele><time>2026-04-26T16:52:01.084Z</time></trkpt><trkpt lat="40.04147765027546" lon="18.129285809856132"><ele>73.33333333333334</ele><time>2026-04-26T16:52:02.084Z</time></trkpt><trkpt lat="40.041491939059355" lon="18.129482154553706"><ele>75.66666666666667</ele><time>2026-04-26T16:52:03.084Z</time></trkpt><trkpt lat="40.04150694888691" lon="18.12968840702364"><ele>78.0</ele><time>2026-04-26T16:52:04.084Z</time></trkpt><trkpt lat="40.041524836867" lon="18.129910276928918"><ele>80.66666666666667</ele><time>2026-04-26T16:52:05.084Z</time></trkpt><trkpt lat="40.041555060742866" lon="18.13014379668707"><ele>83.33333333333334</ele><time>2026-04-26T16:52:06.084Z</time></trkpt><trkpt lat="40.04156928828607" lon="18.13033600527836"><ele>86.0</ele><time>2026-04-26T16:52:07.084Z</time></trkpt><trkpt lat="40.04158765730883" lon="18.130513744203817"><ele>86.0</ele><time>2026-04-26T16:52:08.084Z</time></trkpt><trkpt lat="40.041604223850655" lon="18.13066435758599"><ele>86.0</ele><time>2026-04-26T16:52:09.084Z</time></trkpt><trkpt lat="40.04161358963449" lon="18.130759980557677"><ele>86.0</ele><time>2026-04-26T16:52:10.084Z</time></trkpt><trkpt lat="40.041642925473845" lon="18.130903283565743"><ele>86.0</ele><time>2026-04-26T16:52:12.084Z</time></trkpt><trkpt lat="40.04165840557653" lon="18.131002843191148"><ele>86.0</ele><time>2026-04-26T16:52:13.084Z</time></trkpt><trkpt lat="40.04166710477953" lon="18.131133834248107"><ele>88.25</ele><time>2026-04-26T16:52:14.084Z</time></trkpt><trkpt lat="40.04167274910873" lon="18.13128507818905"><ele>90.5</ele><time>2026-04-26T16:52:15.084Z</time></trkpt><trkpt lat="40.04169013722038" lon="18.131460201436603"><ele>92.75</ele><time>2026-04-26T16:52:16.084Z</time></trkpt><trkpt lat="40.04170658903765" lon="18.131636415671093"><ele>95.0</ele><time>2026-04-26T16:52:17.084Z</time></trkpt><trkpt lat="40.041717262229874" lon="18.131783460512498"><ele>96.2</ele><time>2026-04-26T16:52:18.084Z</time></trkpt><trkpt lat="40.04172245832777" lon="18.13193121103121"><ele>97.4</ele><time>2026-04-26T16:52:19.084Z</time></trkpt><trkpt lat="40.041728120003405" lon="18.132075568227105"><ele>98.6</ele><time>2026-04-26T16:52:20.084Z</time></trkpt><trkpt lat="40.04173402657798" lon="18.13222616974221"><ele>99.8</ele><time>2026-04-26T16:52:21.084Z</time></trkpt><trkpt lat="40.04173933024734" lon="18.132361398780525"><ele>101.0</ele><time>2026-04-26T16:52:22.084Z</time></trkpt><trkpt lat="40.04174328002033" lon="18.13246210711503"><ele>102.19999999999999</ele><time>2026-04-26T16:52:23.084Z</time></trkpt><trkpt lat="40.04174861156528" lon="18.132574714239276"><ele>103.39999999999999</ele><time>2026-04-26T16:52:25.084Z</time></trkpt><trkpt lat="40.0417534236842" lon="18.13266585266209"><ele>104.6</ele><time>2026-04-26T16:52:27.084Z</time></trkpt><trkpt lat="40.04176429190524" lon="18.132850447382705"><ele>105.8</ele><time>2026-04-26T16:52:29.084Z</time></trkpt><trkpt lat="40.04177122111127" lon="18.132945482772996"><ele>107.0</ele><time>2026-04-26T16:52:30.084Z</time></trkpt><trkpt lat="40.041778862003575" lon="18.133048533626173"><ele>107.0</ele><time>2026-04-26T16:52:31.084Z</time></trkpt><trkpt lat="40.04178860366439" lon="18.133176386370838"><ele>106.99999999999999</ele><time>2026-04-26T16:52:32.084Z</time></trkpt><trkpt lat="40.04179927134277" lon="18.133316392754622"><ele>106.99999999999999</ele><time>2026-04-26T16:52:33.084Z</time></trkpt><trkpt lat="40.041805259388155" lon="18.133448919632734"><ele>107.0</ele><time>2026-04-26T16:52:34.084Z</time></trkpt><trkpt lat="40.041813259976635" lon="18.13358742915847"><ele>107.0</ele><time>2026-04-26T16:52:35.084Z</time></trkpt><trkpt lat="40.04182873708978" lon="18.13372841099796"><ele>107.39999999999999</ele><time>2026-04-26T16:52:36.084Z</time></trkpt><trkpt lat="40.041861344737875" lon="18.13385155087083"><ele>107.79999999999998</ele><time>2026-04-26T16:52:37.084Z</time></trkpt><trkpt lat="40.041881053029584" lon="18.13396807691032"><ele>108.2</ele><time>2026-04-26T16:52:38.084Z</time></trkpt><trkpt lat="40.04191882722167" lon="18.13406859714745"><ele>108.6</ele><time>2026-04-26T16:52:39.084Z</time></trkpt><trkpt lat="40.0419772359017" lon="18.134155813011773"><ele>109.0</ele><time>2026-04-26T16:52:40.084Z</time></trkpt><trkpt lat="40.04205092194901" lon="18.13423026739285"><ele>108.80000000000001</ele><time>2026-04-26T16:52:41.084Z</time></trkpt><trkpt lat="40.04213467769974" lon="18.134289156865357"><ele>108.60000000000001</ele><time>2026-04-26T16:52:42.084Z</time></trkpt><trkpt lat="40.042235145000575" lon="18.13434051317741"><ele>108.4</ele><time>2026-04-26T16:52:43.084Z</time></trkpt><trkpt lat="40.042343754888876" lon="18.134382328162996"><ele>108.2</ele><time>2026-04-26T16:52:44.084Z</time></trkpt><trkpt lat="40.04246184843583" lon="18.134424847511752"><ele>108.0</ele><time>2026-04-26T16:52:45.084Z</time></trkpt><trkpt lat="40.0425894254454" lon="18.134479725776387"><ele>108.0</ele><time>2026-04-26T16:52:46.084Z</time></trkpt><trkpt lat="40.042725255121475" lon="18.134541450749474"><ele>108.0</ele><time>2026-04-26T16:52:47.084Z</time></trkpt><trkpt lat="40.042872487622894" lon="18.1346110816438"><ele>108.0</ele><time>2026-04-26T16:52:48.084Z</time></trkpt><trkpt lat="40.04303212854563" lon="18.13468549412269"><ele>108.0</ele><time>2026-04-26T16:52:49.084Z</time></trkpt><trkpt lat="40.04319537369455" lon="18.13476686242551"><ele>108.0</ele><time>2026-04-26T16:52:50.084Z</time></trkpt><trkpt lat="40.04336337312718" lon="18.134848278649745"><ele>108.0</ele><time>2026-04-26T16:52:51.084Z</time></trkpt><trkpt lat="40.04353520396036" lon="18.13492862813005"><ele>109.0</ele><time>2026-04-26T16:52:52.084Z</time></trkpt><trkpt lat="40.043693831216025" lon="18.13499086296281"><ele>110.0</ele><time>2026-04-26T16:52:53.084Z</time></trkpt><trkpt lat="40.04383009249142" lon="18.135069796459824"><ele>111.0</ele><time>2026-04-26T16:52:54.084Z</time></trkpt><trkpt lat="40.043968765929655" lon="18.135126278646876"><ele>111.0</ele><time>2026-04-26T16:52:55.084Z</time></trkpt><trkpt lat="40.044079859788766" lon="18.13522084709946"><ele>111.0</ele><time>2026-04-26T16:52:56.084Z</time></trkpt><trkpt lat="40.04419194294097" lon="18.135342890170204"><ele>111.0</ele><time>2026-04-26T16:52:57.084Z</time></trkpt><trkpt lat="40.04428993599547" lon="18.13548546664346"><ele>111.0</ele><time>2026-04-26T16:52:58.084Z</time></trkpt><trkpt lat="40.04437173358696" lon="18.135664997958155"><ele>113.33333333333334</ele><time>2026-04-26T16:52:59.084Z</time></trkpt><trkpt lat="40.044419772876175" lon="18.135849336655134"><ele>115.66666666666667</ele><time>2026-04-26T16:53:00.084Z</time></trkpt><trkpt lat="40.04446465010004" lon="18.13604542202187"><ele>118.0</ele><time>2026-04-26T16:53:01.084Z</time></trkpt><trkpt lat="40.04451083757101" lon="18.136258559753713"><ele>118.0</ele><time>2026-04-26T16:53:02.084Z</time></trkpt><trkpt lat="40.044541838912046" lon="18.136489422440143"><ele>118.0</ele><time>2026-04-26T16:53:03.084Z</time></trkpt><trkpt lat="40.0445971653432" lon="18.136688992845578"><ele>118.0</ele><time>2026-04-26T16:53:04.084Z</time></trkpt><trkpt lat="40.04463966029441" lon="18.13685189348042"><ele>119.0</ele><time>2026-04-26T16:53:05.084Z</time></trkpt><trkpt lat="40.044692508015714" lon="18.136969502308986"><ele>120.0</ele><time>2026-04-26T16:53:06.084Z</time></trkpt><trkpt lat="40.04471609842055" lon="18.137092100722768"><ele>121.0</ele><time>2026-04-26T16:53:07.084Z</time></trkpt><trkpt lat="40.0447543735196" lon="18.13723183963177"><ele>122.0</ele><time>2026-04-26T16:53:08.084Z</time></trkpt><trkpt lat="40.04481946514978" lon="18.137404478192288"><ele>123.33333333333333</ele><time>2026-04-26T16:53:09.084Z</time></trkpt><trkpt lat="40.04488323187724" lon="18.137587868514483"><ele>124.66666666666666</ele><time>2026-04-26T16:53:10.084Z</time></trkpt><trkpt lat="40.04495297225043" lon="18.13779366887865"><ele>126.0</ele><time>2026-04-26T16:53:11.084Z</time></trkpt><trkpt lat="40.045027585961776" lon="18.138007094881427"><ele>127.0</ele><time>2026-04-26T16:53:12.084Z</time></trkpt><trkpt lat="40.04510397357529" lon="18.13822897439347"><ele>128.0</ele><time>2026-04-26T16:53:13.084Z</time></trkpt><trkpt lat="40.04519033825011" lon="18.13846326815504"><ele>129.0</ele><time>2026-04-26T16:53:14.084Z</time></trkpt><trkpt lat="40.0452785285292" lon="18.1387103145975"><ele>129.0</ele><time>2026-04-26T16:53:15.084Z</time></trkpt><trkpt lat="40.04537203158512" lon="18.138955231877556"><ele>129.0</ele><time>2026-04-26T16:53:16.084Z</time></trkpt><trkpt lat="40.04547481989291" lon="18.13921128413633"><ele>129.0</ele><time>2026-04-26T16:53:17.084Z</time></trkpt><trkpt lat="40.04557910691446" lon="18.13947558508768"><ele>131.0</ele><time>2026-04-26T16:53:18.084Z</time></trkpt><trkpt lat="40.045684242215344" lon="18.13973951982237"><ele>133.0</ele><time>2026-04-26T16:53:19.084Z</time></trkpt><trkpt lat="40.045786160783436" lon="18.140004884560458"><ele>133.5</ele><time>2026-04-26T16:53:20.084Z</time></trkpt><trkpt lat="40.04589015784396" lon="18.14027056296383"><ele>134.0</ele><time>2026-04-26T16:53:21.084Z</time></trkpt><trkpt lat="40.04599178392924" lon="18.140536105729794"><ele>134.33333333333331</ele><time>2026-04-26T16:53:22.084Z</time></trkpt><trkpt lat="40.04609620164209" lon="18.140796892865783"><ele>134.66666666666666</ele><time>2026-04-26T16:53:23.084Z</time></trkpt><trkpt lat="40.0461987097293" lon="18.14105395563168"><ele>135.0</ele><time>2026-04-26T16:53:24.084Z</time></trkpt><trkpt lat="40.04629276437141" lon="18.14131708810206"><ele>135.66666666666666</ele><time>2026-04-26T16:53:25.084Z</time></trkpt><trkpt lat="40.04638941659795" lon="18.141578688044046"><ele>136.33333333333331</ele><time>2026-04-26T16:53:26.084Z</time></trkpt><trkpt lat="40.046487559616956" lon="18.14183637711138"><ele>137.0</ele><time>2026-04-26T16:53:27.084Z</time></trkpt><trkpt lat="40.04659696264007" lon="18.142084924979816"><ele>137.33333333333331</ele><time>2026-04-26T16:53:28.084Z</time></trkpt><trkpt lat="40.04672826893143" lon="18.142309183844354"><ele>137.66666666666666</ele><time>2026-04-26T16:53:29.084Z</time></trkpt><trkpt lat="40.04686994469378" lon="18.142522743579896"><ele>138.0</ele><time>2026-04-26T16:53:30.084Z</time></trkpt><trkpt lat="40.04702867088556" lon="18.142724205140887"><ele>138.33333333333334</ele><time>2026-04-26T16:53:31.084Z</time></trkpt><trkpt lat="40.04719179066748" lon="18.142919312166146"><ele>138.66666666666669</ele><time>2026-04-26T16:53:32.084Z</time></trkpt><trkpt lat="40.04736070246472" lon="18.1431117732666"><ele>139.0</ele><time>2026-04-26T16:53:33.084Z</time></trkpt><trkpt lat="40.04750143220937" lon="18.143321615300344"><ele>140.33333333333334</ele><time>2026-04-26T16:53:34.084Z</time></trkpt><trkpt lat="40.04760816157783" lon="18.143557274838198"><ele>141.66666666666666</ele><time>2026-04-26T16:53:35.084Z</time></trkpt><trkpt lat="40.047728729299976" lon="18.143746314741417"><ele>143.0</ele><time>2026-04-26T16:53:36.084Z</time></trkpt><trkpt lat="40.04782090087208" lon="18.14393257633156"><ele>144.0</ele><time>2026-04-26T16:53:37.084Z</time></trkpt><trkpt lat="40.0479091369628" lon="18.144104525773916"><ele>145.0</ele><time>2026-04-26T16:53:38.084Z</time></trkpt><trkpt lat="40.047988986495696" lon="18.144252310305816"><ele>146.0</ele><time>2026-04-26T16:53:39.084Z</time></trkpt><trkpt lat="40.048031312562394" lon="18.144388167456434"><ele>147.0</ele><time>2026-04-26T16:53:40.084Z</time></trkpt><trkpt lat="40.04809131921953" lon="18.144492043462716"><ele>147.0</ele><time>2026-04-26T16:53:41.083Z</time></trkpt><trkpt lat="40.04811294558279" lon="18.144612031781826"><ele>147.0</ele><time>2026-04-26T16:53:42.083Z</time></trkpt><trkpt lat="40.04813269215631" lon="18.144744557296672"><ele>147.0</ele><time>2026-04-26T16:53:43.083Z</time></trkpt><trkpt lat="40.04816090259783" lon="18.144879681336203"><ele>147.0</ele><time>2026-04-26T16:53:44.083Z</time></trkpt><trkpt lat="40.048010738093346" lon="18.145046488030225"><ele>147.66666666666666</ele><time>2026-04-26T16:53:45.083Z</time></trkpt><trkpt lat="40.04792909096995" lon="18.145191987167916"><ele>148.33333333333331</ele><time>2026-04-26T16:53:46.083Z</time></trkpt><trkpt lat="40.04781593011697" lon="18.1453491315077"><ele>149.0</ele><time>2026-04-26T16:53:47.083Z</time></trkpt><trkpt lat="40.04769115629392" lon="18.14553245623535"><ele>149.0</ele><time>2026-04-26T16:53:48.083Z</time></trkpt><trkpt lat="40.04754537560845" lon="18.14570944687951"><ele>149.0</ele><time>2026-04-26T16:53:49.084Z</time></trkpt><trkpt lat="40.047380631632294" lon="18.145890464560484"><ele>149.0</ele><time>2026-04-26T16:53:50.083Z</time></trkpt><trkpt lat="40.04721131602614" lon="18.146082057217956"><ele>148.5</ele><time>2026-04-26T16:53:51.083Z</time></trkpt><trkpt lat="40.047033190646786" lon="18.146277851653508"><ele>148.0</ele><time>2026-04-26T16:53:52.084Z</time></trkpt><trkpt lat="40.046848237905735" lon="18.146476596743963"><ele>150.0</ele><time>2026-04-26T16:53:53.083Z</time></trkpt><trkpt lat="40.04666169496453" lon="18.146676671965324"><ele>152.0</ele><time>2026-04-26T16:53:54.083Z</time></trkpt><trkpt lat="40.04647503922822" lon="18.146876870872845"><ele>152.0</ele><time>2026-04-26T16:53:55.083Z</time></trkpt><trkpt lat="40.0462861450185" lon="18.147081785318903"><ele>152.0</ele><time>2026-04-26T16:53:56.083Z</time></trkpt><trkpt lat="40.04609531621853" lon="18.14728579314994"><ele>153.0</ele><time>2026-04-26T16:53:57.083Z</time></trkpt><trkpt lat="40.04590434089443" lon="18.14749453344365"><ele>154.0</ele><time>2026-04-26T16:53:58.083Z</time></trkpt><trkpt lat="40.045706988835434" lon="18.147706320747446"><ele>154.0</ele><time>2026-04-26T16:53:59.083Z</time></trkpt><trkpt lat="40.04551036790503" lon="18.147916512126496"><ele>154.0</ele><time>2026-04-26T16:54:00.083Z</time></trkpt><trkpt lat="40.04531391097212" lon="18.148130873329283"><ele>155.0</ele><time>2026-04-26T16:54:01.083Z</time></trkpt><trkpt lat="40.04512234944543" lon="18.148343445207054"><ele>156.0</ele><time>2026-04-26T16:54:02.083Z</time></trkpt><trkpt lat="40.044930547921005" lon="18.14855768234016"><ele>156.0</ele><time>2026-04-26T16:54:03.083Z</time></trkpt><trkpt lat="40.04473472975864" lon="18.14876692605321"><ele>156.0</ele><time>2026-04-26T16:54:04.083Z</time></trkpt><trkpt lat="40.04453840132447" lon="18.148975466357076"><ele>157.0</ele><time>2026-04-26T16:54:05.083Z</time></trkpt><trkpt lat="40.04434078263355" lon="18.149187480765715"><ele>158.0</ele><time>2026-04-26T16:54:06.083Z</time></trkpt><trkpt lat="40.0441452915948" lon="18.149396587835998"><ele>158.0</ele><time>2026-04-26T16:54:07.083Z</time></trkpt><trkpt lat="40.04394814244077" lon="18.149602879606505"><ele>158.0</ele><time>2026-04-26T16:54:08.083Z</time></trkpt><trkpt lat="40.04374718822339" lon="18.149811942604675"><ele>158.0</ele><time>2026-04-26T16:54:09.083Z</time></trkpt><trkpt lat="40.04354544592628" lon="18.150015598979717"><ele>158.0</ele><time>2026-04-26T16:54:10.083Z</time></trkpt><trkpt lat="40.043341752424986" lon="18.15021637062701"><ele>157.5</ele><time>2026-04-26T16:54:11.083Z</time></trkpt><trkpt lat="40.04313780865604" lon="18.150416749248713"><ele>157.0</ele><time>2026-04-26T16:54:12.083Z</time></trkpt><trkpt lat="40.04293348140298" lon="18.150616285931015"><ele>157.0</ele><time>2026-04-26T16:54:13.083Z</time></trkpt><trkpt lat="40.04273338757686" lon="18.150813370387265"><ele>157.0</ele><time>2026-04-26T16:54:14.083Z</time></trkpt><trkpt lat="40.042532282853486" lon="18.15100943042121"><ele>157.0</ele><time>2026-04-26T16:54:15.083Z</time></trkpt><trkpt lat="40.042328321080795" lon="18.1512075684486"><ele>157.0</ele><time>2026-04-26T16:54:16.083Z</time></trkpt><trkpt lat="40.04212445918178" lon="18.15140343305867"><ele>157.5</ele><time>2026-04-26T16:54:17.083Z</time></trkpt><trkpt lat="40.041922774886906" lon="18.151604968879525"><ele>158.0</ele><time>2026-04-26T16:54:18.083Z</time></trkpt><trkpt lat="40.041721634361416" lon="18.15180600800114"><ele>157.5</ele><time>2026-04-26T16:54:19.083Z</time></trkpt><trkpt lat="40.04149970749148" lon="18.151982053064174"><ele>157.0</ele><time>2026-04-26T16:54:20.083Z</time></trkpt><trkpt lat="40.04129963370263" lon="18.15218243636625"><ele>156.0</ele><time>2026-04-26T16:54:21.083Z</time></trkpt><trkpt lat="40.041099322931075" lon="18.152378259164422"><ele>155.0</ele><time>2026-04-26T16:54:22.083Z</time></trkpt><trkpt lat="40.04090568260749" lon="18.152564723311368"><ele>155.0</ele><time>2026-04-26T16:54:23.083Z</time></trkpt><trkpt lat="40.04073113904803" lon="18.15273687572766"><ele>155.0</ele><time>2026-04-26T16:54:24.083Z</time></trkpt><trkpt lat="40.0405683706709" lon="18.152896999902207"><ele>155.0</ele><time>2026-04-26T16:54:25.083Z</time></trkpt><trkpt lat="40.04042150542294" lon="18.153042276031172"><ele>155.0</ele><time>2026-04-26T16:54:26.083Z</time></trkpt><trkpt lat="40.040285929016505" lon="18.153173516669675"><ele>155.0</ele><time>2026-04-26T16:54:27.083Z</time></trkpt><trkpt lat="40.04015849049356" lon="18.153295017024238"><ele>155.0</ele><time>2026-04-26T16:54:28.083Z</time></trkpt><trkpt lat="40.04004362742699" lon="18.153406779926442"><ele>154.4</ele><time>2026-04-26T16:54:29.083Z</time></trkpt><trkpt lat="40.03993696594122" lon="18.153499814962665"><ele>153.8</ele><time>2026-04-26T16:54:30.083Z</time></trkpt><trkpt lat="40.03983840251023" lon="18.15357203084011"><ele>153.2</ele><time>2026-04-26T16:54:31.083Z</time></trkpt><trkpt lat="40.03974272636857" lon="18.153628868847168"><ele>152.6</ele><time>2026-04-26T16:54:32.083Z</time></trkpt><trkpt lat="40.03964901363029" lon="18.15367165596941"><ele>152.0</ele><time>2026-04-26T16:54:33.083Z</time></trkpt><trkpt lat="40.03956302250817" lon="18.153683938457338"><ele>152.0</ele><time>2026-04-26T16:54:34.083Z</time></trkpt><trkpt lat="40.03949332710474" lon="18.15367900864159"><ele>152.0</ele><time>2026-04-26T16:54:35.083Z</time></trkpt><trkpt lat="40.03937798529843" lon="18.153724341236114"><ele>152.0</ele><time>2026-04-26T16:54:37.083Z</time></trkpt><trkpt lat="40.03933597998594" lon="18.153794078867527"><ele>152.0</ele><time>2026-04-26T16:54:38.083Z</time></trkpt><trkpt lat="40.039302406761884" lon="18.153903649010985"><ele>152.0</ele><time>2026-04-26T16:54:39.083Z</time></trkpt><trkpt lat="40.03927008218901" lon="18.154037897899755"><ele>152.25</ele><time>2026-04-26T16:54:40.083Z</time></trkpt><trkpt lat="40.03920810214475" lon="18.154182850580366"><ele>152.5</ele><time>2026-04-26T16:54:41.083Z</time></trkpt><trkpt lat="40.03909920633174" lon="18.154309596988103"><ele>152.75</ele><time>2026-04-26T16:54:42.083Z</time></trkpt><trkpt lat="40.03896857466751" lon="18.154460615445014"><ele>153.0</ele><time>2026-04-26T16:54:43.083Z</time></trkpt><trkpt lat="40.03882083683992" lon="18.154626761743472"><ele>153.0</ele><time>2026-04-26T16:54:44.083Z</time></trkpt><trkpt lat="40.038647980011625" lon="18.154782959303944"><ele>153.0</ele><time>2026-04-26T16:54:45.083Z</time></trkpt><trkpt lat="40.03846276653226" lon="18.154957428772725"><ele>153.0</ele><time>2026-04-26T16:54:46.083Z</time></trkpt><trkpt lat="40.03827219571449" lon="18.155140714717714"><ele>152.0</ele><time>2026-04-26T16:54:47.083Z</time></trkpt><trkpt lat="40.038074665210424" lon="18.15533183871125"><ele>151.0</ele><time>2026-04-26T16:54:48.083Z</time></trkpt><trkpt lat="40.037879337856154" lon="18.155521075526686"><ele>149.5</ele><time>2026-04-26T16:54:49.083Z</time></trkpt><trkpt lat="40.037687164606616" lon="18.155710014203915"><ele>148.0</ele><time>2026-04-26T16:54:50.083Z</time></trkpt><trkpt lat="40.03750882306481" lon="18.15588716756577"><ele>147.0</ele><time>2026-04-26T16:54:51.083Z</time></trkpt><trkpt lat="40.03734056137255" lon="18.156050473566275"><ele>146.0</ele><time>2026-04-26T16:54:52.083Z</time></trkpt><trkpt lat="40.03717897644813" lon="18.15620642308575"><ele>145.0</ele><time>2026-04-26T16:54:53.083Z</time></trkpt><trkpt lat="40.03702364021744" lon="18.156353525678615"><ele>145.0</ele><time>2026-04-26T16:54:54.083Z</time></trkpt><trkpt lat="40.036877756676596" lon="18.156494032893054"><ele>145.0</ele><time>2026-04-26T16:54:55.083Z</time></trkpt><trkpt lat="40.03673264240499" lon="18.15663339711322"><ele>145.0</ele><time>2026-04-26T16:54:56.083Z</time></trkpt><trkpt lat="40.03658812866391" lon="18.156777044245544"><ele>144.33333333333334</ele><time>2026-04-26T16:54:57.083Z</time></trkpt><trkpt lat="40.03643991741965" lon="18.156924974190567"><ele>143.66666666666666</ele><time>2026-04-26T16:54:58.083Z</time></trkpt><trkpt lat="40.03629970474654" lon="18.15706328591505"><ele>143.0</ele><time>2026-04-26T16:54:59.083Z</time></trkpt><trkpt lat="40.036163428456206" lon="18.157192557456096"><ele>143.0</ele><time>2026-04-26T16:55:00.083Z</time></trkpt><trkpt lat="40.03603218734269" lon="18.157317893095286"><ele>143.0</ele><time>2026-04-26T16:55:01.083Z</time></trkpt><trkpt lat="40.03590432786403" lon="18.157437893508405"><ele>143.0</ele><time>2026-04-26T16:55:02.083Z</time></trkpt><trkpt lat="40.035780313169646" lon="18.157556580684105"><ele>142.5</ele><time>2026-04-26T16:55:03.083Z</time></trkpt><trkpt lat="40.03566102686765" lon="18.157674779166317"><ele>142.0</ele><time>2026-04-26T16:55:04.083Z</time></trkpt><trkpt lat="40.03553915697952" lon="18.157792388352828"><ele>141.5</ele><time>2026-04-26T16:55:05.083Z</time></trkpt><trkpt lat="40.035421141213895" lon="18.157906919909664"><ele>141.0</ele><time>2026-04-26T16:55:06.083Z</time></trkpt><trkpt lat="40.03530869861767" lon="18.158017881922955"><ele>141.0</ele><time>2026-04-26T16:55:07.083Z</time></trkpt><trkpt lat="40.03519039897493" lon="18.158129579514558"><ele>141.0</ele><time>2026-04-26T16:55:08.083Z</time></trkpt><trkpt lat="40.035067500970214" lon="18.158247918439912"><ele>141.0</ele><time>2026-04-26T16:55:09.083Z</time></trkpt><trkpt lat="40.03494386731685" lon="18.158370059056367"><ele>141.33333333333334</ele><time>2026-04-26T16:55:10.083Z</time></trkpt><trkpt lat="40.03481842783404" lon="18.158493605958444"><ele>141.66666666666669</ele><time>2026-04-26T16:55:11.083Z</time></trkpt><trkpt lat="40.03469889313247" lon="18.158611517737206"><ele>142.0</ele><time>2026-04-26T16:55:12.083Z</time></trkpt><trkpt lat="40.034578119690934" lon="18.15872385983172"><ele>142.0</ele><time>2026-04-26T16:55:13.083Z</time></trkpt><trkpt lat="40.03445987390992" lon="18.15883757575386"><ele>142.0</ele><time>2026-04-26T16:55:14.083Z</time></trkpt><trkpt lat="40.034336824283436" lon="18.158956360063673"><ele>142.0</ele><time>2026-04-26T16:55:15.083Z</time></trkpt><trkpt lat="40.034211558992446" lon="18.159083058700634"><ele>142.0</ele><time>2026-04-26T16:55:16.083Z</time></trkpt><trkpt lat="40.03408672361939" lon="18.15920462670029"><ele>142.0</ele><time>2026-04-26T16:55:17.083Z</time></trkpt><trkpt lat="40.03396303566406" lon="18.15932920524012"><ele>142.0</ele><time>2026-04-26T16:55:18.083Z</time></trkpt><trkpt lat="40.03383661998594" lon="18.159456189331856"><ele>142.0</ele><time>2026-04-26T16:55:19.083Z</time></trkpt><trkpt lat="40.03371100657451" lon="18.159576024071367"><ele>142.0</ele><time>2026-04-26T16:55:20.083Z</time></trkpt><trkpt lat="40.033588588500834" lon="18.159694078487234"><ele>142.0</ele><time>2026-04-26T16:55:21.083Z</time></trkpt><trkpt lat="40.033468115750914" lon="18.159814306480452"><ele>143.0</ele><time>2026-04-26T16:55:22.083Z</time></trkpt><trkpt lat="40.033344298529855" lon="18.15994142093516"><ele>144.0</ele><time>2026-04-26T16:55:23.083Z</time></trkpt><trkpt lat="40.03321981685502" lon="18.160064809399962"><ele>145.0</ele><time>2026-04-26T16:55:24.083Z</time></trkpt><trkpt lat="40.033097577713086" lon="18.160189814179343"><ele>145.0</ele><time>2026-04-26T16:55:25.083Z</time></trkpt><trkpt lat="40.032977475296065" lon="18.160316063657245"><ele>145.0</ele><time>2026-04-26T16:55:26.083Z</time></trkpt><trkpt lat="40.032848438029475" lon="18.16045256025258"><ele>145.0</ele><time>2026-04-26T16:55:27.083Z</time></trkpt><trkpt lat="40.032720070728956" lon="18.160586871561225"><ele>144.66666666666669</ele><time>2026-04-26T16:55:28.083Z</time></trkpt><trkpt lat="40.032591281375055" lon="18.160726953614112"><ele>144.33333333333334</ele><time>2026-04-26T16:55:29.083Z</time></trkpt><trkpt lat="40.032464902027826" lon="18.160870449126342"><ele>144.0</ele><time>2026-04-26T16:55:30.083Z</time></trkpt><trkpt lat="40.032321136586226" lon="18.16103269266216"><ele>144.0</ele><time>2026-04-26T16:55:31.083Z</time></trkpt><trkpt lat="40.03217018272982" lon="18.1612137320352"><ele>144.0</ele><time>2026-04-26T16:55:32.083Z</time></trkpt><trkpt lat="40.03199338495606" lon="18.1613986784521"><ele>144.0</ele><time>2026-04-26T16:55:33.083Z</time></trkpt><trkpt lat="40.0318124297197" lon="18.161603788445245"><ele>144.0</ele><time>2026-04-26T16:55:34.083Z</time></trkpt><trkpt lat="40.03162888245956" lon="18.16181183661"><ele>144.0</ele><time>2026-04-26T16:55:35.083Z</time></trkpt><trkpt lat="40.031455333312216" lon="18.162025486607764"><ele>144.0</ele><time>2026-04-26T16:55:36.083Z</time></trkpt><trkpt lat="40.03128986642086" lon="18.16220844710717"><ele>144.0</ele><time>2026-04-26T16:55:37.083Z</time></trkpt><trkpt lat="40.0311424792481" lon="18.162374060401696"><ele>144.0</ele><time>2026-04-26T16:55:38.083Z</time></trkpt><trkpt lat="40.03100963269012" lon="18.16252532719225"><ele>144.0</ele><time>2026-04-26T16:55:39.083Z</time></trkpt><trkpt lat="40.030883059201095" lon="18.16266213856425"><ele>144.0</ele><time>2026-04-26T16:55:40.083Z</time></trkpt><trkpt lat="40.030773216891" lon="18.162792259888754"><ele>144.0</ele><time>2026-04-26T16:55:41.083Z</time></trkpt><trkpt lat="40.030675815427706" lon="18.162886175544138"><ele>144.0</ele><time>2026-04-26T16:55:42.083Z</time></trkpt><trkpt lat="40.03058227762723" lon="18.162945117623376"><ele>144.0</ele><time>2026-04-26T16:55:43.083Z</time></trkpt><trkpt lat="40.03048164545188" lon="18.162987254150302"><ele>144.0</ele><time>2026-04-26T16:55:44.083Z</time></trkpt><trkpt lat="40.03038794736339" lon="18.163012469985986"><ele>144.0</ele><time>2026-04-26T16:55:45.083Z</time></trkpt><trkpt lat="40.030306883673234" lon="18.16305044993361"><ele>144.0</ele><time>2026-04-26T16:55:46.083Z</time></trkpt><trkpt lat="40.030234235125604" lon="18.163118772267183"><ele>144.0</ele><time>2026-04-26T16:55:47.082Z</time></trkpt><trkpt lat="40.03020278706408" lon="18.163254844663342"><ele>144.25</ele><time>2026-04-26T16:55:48.082Z</time></trkpt><trkpt lat="40.03019629132846" lon="18.16339722899322"><ele>144.5</ele><time>2026-04-26T16:55:49.083Z</time></trkpt><trkpt lat="40.030115566288494" lon="18.163529465930107"><ele>144.75</ele><time>2026-04-26T16:55:50.082Z</time></trkpt><trkpt lat="40.03001343757059" lon="18.163643004870497"><ele>145.0</ele><time>2026-04-26T16:55:51.082Z</time></trkpt><trkpt lat="40.029883358113814" lon="18.163790507226928"><ele>145.0</ele><time>2026-04-26T16:55:52.082Z</time></trkpt><trkpt lat="40.02973247278045" lon="18.163962844698908"><ele>145.0</ele><time>2026-04-26T16:55:53.082Z</time></trkpt><trkpt lat="40.02956514677291" lon="18.164152884333795"><ele>145.0</ele><time>2026-04-26T16:55:54.082Z</time></trkpt><trkpt lat="40.029402830261574" lon="18.164362888517786"><ele>145.0</ele><time>2026-04-26T16:55:55.082Z</time></trkpt><trkpt lat="40.02921322618093" lon="18.164567207093086"><ele>145.0</ele><time>2026-04-26T16:55:56.082Z</time></trkpt><trkpt lat="40.029013893775634" lon="18.164793995398536"><ele>145.5</ele><time>2026-04-26T16:55:57.082Z</time></trkpt><trkpt lat="40.02880836171517" lon="18.165030804719244"><ele>146.0</ele><time>2026-04-26T16:55:58.083Z</time></trkpt><trkpt lat="40.02859369394561" lon="18.165277586939556"><ele>146.0</ele><time>2026-04-26T16:55:59.082Z</time></trkpt><trkpt lat="40.02837181120159" lon="18.165525517084877"><ele>146.0</ele><time>2026-04-26T16:56:00.082Z</time></trkpt><trkpt lat="40.02817366510003" lon="18.165748923794123"><ele>145.66666666666666</ele><time>2026-04-26T16:56:01.082Z</time></trkpt><trkpt lat="40.02799800745084" lon="18.165944393212442"><ele>145.33333333333334</ele><time>2026-04-26T16:56:02.082Z</time></trkpt><trkpt lat="40.027831191657086" lon="18.166118870038826"><ele>145.0</ele><time>2026-04-26T16:56:03.082Z</time></trkpt><trkpt lat="40.027684553674824" lon="18.1662878999823"><ele>145.0</ele><time>2026-04-26T16:56:04.082Z</time></trkpt><trkpt lat="40.027571122007906" lon="18.166414441571543"><ele>145.0</ele><time>2026-04-26T16:56:05.082Z</time></trkpt><trkpt lat="40.027495501556274" lon="18.166502604494575"><ele>145.0</ele><time>2026-04-26T16:56:06.082Z</time></trkpt><trkpt lat="40.027436805375814" lon="18.166556121077125"><ele>145.0</ele><time>2026-04-26T16:56:07.082Z</time></trkpt><trkpt lat="40.02733084701379" lon="18.16666978958608"><ele>145.2</ele><time>2026-04-26T16:56:08.082Z</time></trkpt><trkpt lat="40.02726252710117" lon="18.166681801349057"><ele>145.4</ele><time>2026-04-26T16:56:10.082Z</time></trkpt><trkpt lat="40.027195342774974" lon="18.166765841518192"><ele>145.6</ele><time>2026-04-26T16:56:12.082Z</time></trkpt><trkpt lat="40.027091431775595" lon="18.166898241253087"><ele>145.8</ele><time>2026-04-26T16:56:14.082Z</time></trkpt><trkpt lat="40.02704033503461" lon="18.167000632760413"><ele>146.0</ele><time>2026-04-26T16:56:15.082Z</time></trkpt><trkpt lat="40.02697041289298" lon="18.16710357854235"><ele>146.0</ele><time>2026-04-26T16:56:16.082Z</time></trkpt><trkpt lat="40.0268679766767" lon="18.167217052765388"><ele>146.0</ele><time>2026-04-26T16:56:17.082Z</time></trkpt><trkpt lat="40.026765472534" lon="18.167331268858348"><ele>146.0</ele><time>2026-04-26T16:56:18.082Z</time></trkpt><trkpt lat="40.026665035680665" lon="18.167444075997427"><ele>146.0</ele><time>2026-04-26T16:56:19.082Z</time></trkpt><trkpt lat="40.026560139280285" lon="18.167565470602838"><ele>146.0</ele><time>2026-04-26T16:56:20.082Z</time></trkpt><trkpt lat="40.02644750791254" lon="18.167693975322805"><ele>146.0</ele><time>2026-04-26T16:56:21.082Z</time></trkpt><trkpt lat="40.026336133112565" lon="18.167820612041368"><ele>146.0</ele><time>2026-04-26T16:56:22.082Z</time></trkpt><trkpt lat="40.02621880746746" lon="18.167951433584527"><ele>146.0</ele><time>2026-04-26T16:56:23.082Z</time></trkpt><trkpt lat="40.02610026402207" lon="18.168087633360518"><ele>146.0</ele><time>2026-04-26T16:56:24.082Z</time></trkpt><trkpt lat="40.02598168543558" lon="18.168228039852544"><ele>146.0</ele><time>2026-04-26T16:56:25.082Z</time></trkpt><trkpt lat="40.02586072900432" lon="18.168361414599147"><ele>146.0</ele><time>2026-04-26T16:56:26.082Z</time></trkpt><trkpt lat="40.02575383274561" lon="18.16848068685707"><ele>146.0</ele><time>2026-04-26T16:56:27.082Z</time></trkpt><trkpt lat="40.02565238928638" lon="18.168596083070184"><ele>146.0</ele><time>2026-04-26T16:56:28.082Z</time></trkpt><trkpt lat="40.025556041870345" lon="18.168706035786347"><ele>146.0</ele><time>2026-04-26T16:56:29.082Z</time></trkpt><trkpt lat="40.02545948773374" lon="18.16881681251692"><ele>146.0</ele><time>2026-04-26T16:56:30.082Z</time></trkpt><trkpt lat="40.02534844400123" lon="18.168932010305035"><ele>146.0</ele><time>2026-04-26T16:56:31.082Z</time></trkpt><trkpt lat="40.025239799363504" lon="18.169053727610585"><ele>146.0</ele><time>2026-04-26T16:56:32.082Z</time></trkpt><trkpt lat="40.025123959111234" lon="18.169190490348285"><ele>146.0</ele><time>2026-04-26T16:56:33.082Z</time></trkpt><trkpt lat="40.02499697193634" lon="18.16933582631136"><ele>145.33333333333331</ele><time>2026-04-26T16:56:34.082Z</time></trkpt><trkpt lat="40.02485453180646" lon="18.169485873620868"><ele>144.66666666666666</ele><time>2026-04-26T16:56:35.082Z</time></trkpt><trkpt lat="40.02471857740211" lon="18.169636946038093"><ele>144.0</ele><time>2026-04-26T16:56:36.082Z</time></trkpt><trkpt lat="40.02461459289322" lon="18.169763864229182"><ele>145.0</ele><time>2026-04-26T16:56:37.082Z</time></trkpt><trkpt lat="40.02452007651431" lon="18.16987444283638"><ele>146.0</ele><time>2026-04-26T16:56:38.082Z</time></trkpt><trkpt lat="40.02443147956818" lon="18.169973223347444"><ele>147.0</ele><time>2026-04-26T16:56:39.082Z</time></trkpt><trkpt lat="40.02434576241615" lon="18.170057854482103"><ele>148.0</ele><time>2026-04-26T16:56:40.082Z</time></trkpt><trkpt lat="40.02427672675814" lon="18.170137920142782"><ele>149.0</ele><time>2026-04-26T16:56:41.082Z</time></trkpt><trkpt lat="40.024215843205354" lon="18.170215258325687"><ele>149.0</ele><time>2026-04-26T16:56:42.082Z</time></trkpt><trkpt lat="40.0241553311929" lon="18.170292080034525"><ele>149.0</ele><time>2026-04-26T16:56:43.082Z</time></trkpt><trkpt lat="40.024077907224836" lon="18.170383799598305"><ele>149.0</ele><time>2026-04-26T16:56:44.082Z</time></trkpt><trkpt lat="40.023971447265296" lon="18.170493762062307"><ele>149.0</ele><time>2026-04-26T16:56:45.083Z</time></trkpt><trkpt lat="40.02385174944341" lon="18.17062506037965"><ele>149.66666666666666</ele><time>2026-04-26T16:56:46.083Z</time></trkpt><trkpt lat="40.02372027332058" lon="18.170777649471916"><ele>150.33333333333334</ele><time>2026-04-26T16:56:47.083Z</time></trkpt><trkpt lat="40.02357970736176" lon="18.170943247129994"><ele>151.0</ele><time>2026-04-26T16:56:48.083Z</time></trkpt><trkpt lat="40.02342988354801" lon="18.171118621668608"><ele>148.0</ele><time>2026-04-26T16:56:49.083Z</time></trkpt><trkpt lat="40.02325740801635" lon="18.171296745670816"><ele>145.0</ele><time>2026-04-26T16:56:50.083Z</time></trkpt><trkpt lat="40.02307862567089" lon="18.171493485285414"><ele>148.0</ele><time>2026-04-26T16:56:51.083Z</time></trkpt><trkpt lat="40.02290199144949" lon="18.17171880593002"><ele>151.0</ele><time>2026-04-26T16:56:52.083Z</time></trkpt><trkpt lat="40.02270813949737" lon="18.17191219862877"><ele>151.0</ele><time>2026-04-26T16:56:53.083Z</time></trkpt><trkpt lat="40.02251292725348" lon="18.172114536989053"><ele>151.0</ele><time>2026-04-26T16:56:54.083Z</time></trkpt><trkpt lat="40.02232519213951" lon="18.17234343847175"><ele>151.0</ele><time>2026-04-26T16:56:55.083Z</time></trkpt><trkpt lat="40.0221354475466" lon="18.172565625670384"><ele>151.0</ele><time>2026-04-26T16:56:56.083Z</time></trkpt><trkpt lat="40.021953638736434" lon="18.17279442242126"><ele>151.0</ele><time>2026-04-26T16:56:57.083Z</time></trkpt><trkpt lat="40.02174844472118" lon="18.173001518576346"><ele>151.0</ele><time>2026-04-26T16:56:58.083Z</time></trkpt><trkpt lat="40.02154366295427" lon="18.17323318196598"><ele>152.0</ele><time>2026-04-26T16:56:59.083Z</time></trkpt><trkpt lat="40.02134948206562" lon="18.173473176515888"><ele>153.0</ele><time>2026-04-26T16:57:00.083Z</time></trkpt><trkpt lat="40.02114767238155" lon="18.173696366370997"><ele>153.0</ele><time>2026-04-26T16:57:01.083Z</time></trkpt><trkpt lat="40.02094868418048" lon="18.173925058191738"><ele>153.0</ele><time>2026-04-26T16:57:02.083Z</time></trkpt><trkpt lat="40.02074803420112" lon="18.174146719527638"><ele>151.5</ele><time>2026-04-26T16:57:03.083Z</time></trkpt><trkpt lat="40.02055050178266" lon="18.174347016600443"><ele>150.0</ele><time>2026-04-26T16:57:04.083Z</time></trkpt><trkpt lat="40.020379997479175" lon="18.174554780410602"><ele>150.0</ele><time>2026-04-26T16:57:05.083Z</time></trkpt><trkpt lat="40.02021222385362" lon="18.174707067613273"><ele>150.0</ele><time>2026-04-26T16:57:06.083Z</time></trkpt><trkpt lat="40.020052349979004" lon="18.174857759795998"><ele>150.0</ele><time>2026-04-26T16:57:07.083Z</time></trkpt><trkpt lat="40.019900321476" lon="18.175014744350154"><ele>149.33333333333334</ele><time>2026-04-26T16:57:08.083Z</time></trkpt><trkpt lat="40.0197450335564" lon="18.175146149265007"><ele>148.66666666666669</ele><time>2026-04-26T16:57:09.083Z</time></trkpt><trkpt lat="40.019597124994405" lon="18.175268557326554"><ele>148.0</ele><time>2026-04-26T16:57:10.083Z</time></trkpt><trkpt lat="40.01945688121552" lon="18.175389373992214"><ele>148.0</ele><time>2026-04-26T16:57:11.083Z</time></trkpt><trkpt lat="40.01931949312796" lon="18.175504267617693"><ele>148.0</ele><time>2026-04-26T16:57:12.083Z</time></trkpt><trkpt lat="40.01918497392806" lon="18.175605211904685"><ele>148.0</ele><time>2026-04-26T16:57:13.083Z</time></trkpt><trkpt lat="40.01906280518066" lon="18.17569000489831"><ele>148.0</ele><time>2026-04-26T16:57:14.083Z</time></trkpt><trkpt lat="40.018961873136305" lon="18.175763649226127"><ele>148.0</ele><time>2026-04-26T16:57:15.083Z</time></trkpt><trkpt lat="40.01888400828065" lon="18.175826825701474"><ele>148.0</ele><time>2026-04-26T16:57:16.083Z</time></trkpt><trkpt lat="40.01881427216823" lon="18.17588830425947"><ele>148.0</ele><time>2026-04-26T16:57:17.083Z</time></trkpt><trkpt lat="40.01873631081738" lon="18.175937876490604"><ele>148.0</ele><time>2026-04-26T16:57:18.083Z</time></trkpt><trkpt lat="40.01864372979701" lon="18.176001196244727"><ele>148.0</ele><time>2026-04-26T16:57:19.083Z</time></trkpt><trkpt lat="40.01854356737876" lon="18.176073431236965"><ele>148.0</ele><time>2026-04-26T16:57:20.083Z</time></trkpt><trkpt lat="40.01842321038373" lon="18.176165222232207"><ele>148.0</ele><time>2026-04-26T16:57:21.083Z</time></trkpt><trkpt lat="40.018284758894964" lon="18.176268518080214"><ele>148.0</ele><time>2026-04-26T16:57:22.083Z</time></trkpt><trkpt lat="40.01812856795925" lon="18.17637715928745"><ele>148.33333333333334</ele><time>2026-04-26T16:57:23.083Z</time></trkpt><trkpt lat="40.017960571986116" lon="18.17650002555969"><ele>148.66666666666666</ele><time>2026-04-26T16:57:24.083Z</time></trkpt><trkpt lat="40.017776069985686" lon="18.176638162477552"><ele>149.0</ele><time>2026-04-26T16:57:25.083Z</time></trkpt><trkpt lat="40.017577785689525" lon="18.17678608266759"><ele>148.5</ele><time>2026-04-26T16:57:26.083Z</time></trkpt><trkpt lat="40.01737562309671" lon="18.176936237511136"><ele>148.0</ele><time>2026-04-26T16:57:27.083Z</time></trkpt><trkpt lat="40.01717110304403" lon="18.17708520862337"><ele>148.0</ele><time>2026-04-26T16:57:28.083Z</time></trkpt><trkpt lat="40.01696634909612" lon="18.177228660110828"><ele>148.0</ele><time>2026-04-26T16:57:29.083Z</time></trkpt><trkpt lat="40.01676842157072" lon="18.177372605516297"><ele>146.33333333333334</ele><time>2026-04-26T16:57:30.083Z</time></trkpt><trkpt lat="40.016573660570366" lon="18.177517395999516"><ele>144.66666666666666</ele><time>2026-04-26T16:57:31.083Z</time></trkpt><trkpt lat="40.01637980386531" lon="18.17766294456052"><ele>143.0</ele><time>2026-04-26T16:57:32.083Z</time></trkpt><trkpt lat="40.016188909417934" lon="18.17780627984185"><ele>143.0</ele><time>2026-04-26T16:57:33.083Z</time></trkpt><trkpt lat="40.01600079364509" lon="18.177943401090662"><ele>143.0</ele><time>2026-04-26T16:57:34.083Z</time></trkpt><trkpt lat="40.015811746554554" lon="18.17807782217959"><ele>143.0</ele><time>2026-04-26T16:57:35.083Z</time></trkpt><trkpt lat="40.015623649149546" lon="18.178212878502773"><ele>142.66666666666666</ele><time>2026-04-26T16:57:36.083Z</time></trkpt><trkpt lat="40.01543908934637" lon="18.178349217369377"><ele>142.33333333333334</ele><time>2026-04-26T16:57:37.083Z</time></trkpt><trkpt lat="40.0152524328066" lon="18.17848940461631"><ele>142.0</ele><time>2026-04-26T16:57:38.083Z</time></trkpt><trkpt lat="40.0150662539416" lon="18.178630484481438"><ele>141.0</ele><time>2026-04-26T16:57:39.083Z</time></trkpt><trkpt lat="40.014876230720276" lon="18.178772934241763"><ele>140.0</ele><time>2026-04-26T16:57:40.083Z</time></trkpt><trkpt lat="40.01469045981354" lon="18.178918554663817"><ele>139.0</ele><time>2026-04-26T16:57:41.083Z</time></trkpt><trkpt lat="40.01451833780462" lon="18.179052806209427"><ele>139.0</ele><time>2026-04-26T16:57:42.083Z</time></trkpt><trkpt lat="40.01435761234379" lon="18.179182840519026"><ele>139.0</ele><time>2026-04-26T16:57:43.083Z</time></trkpt><trkpt lat="40.014205919777964" lon="18.179300412187594"><ele>139.0</ele><time>2026-04-26T16:57:44.083Z</time></trkpt><trkpt lat="40.014070977416694" lon="18.179407810117517"><ele>139.25</ele><time>2026-04-26T16:57:45.083Z</time></trkpt><trkpt lat="40.01395181606727" lon="18.179504712478632"><ele>139.5</ele><time>2026-04-26T16:57:46.083Z</time></trkpt><trkpt lat="40.013841106985495" lon="18.179590001434192"><ele>139.75</ele><time>2026-04-26T16:57:47.083Z</time></trkpt><trkpt lat="40.013742374363524" lon="18.179667089448575"><ele>140.0</ele><time>2026-04-26T16:57:48.083Z</time></trkpt><trkpt lat="40.01365748269658" lon="18.179732289273453"><ele>140.0</ele><time>2026-04-26T16:57:49.083Z</time></trkpt><trkpt lat="40.01358457770963" lon="18.179786406288805"><ele>140.0</ele><time>2026-04-26T16:57:50.083Z</time></trkpt><trkpt lat="40.01352113958292" lon="18.179819996398724"><ele>140.0</ele><time>2026-04-26T16:57:51.083Z</time></trkpt><trkpt lat="40.01341716682542" lon="18.179802509404375"><ele>140.0</ele><time>2026-04-26T16:57:53.082Z</time></trkpt><trkpt lat="40.01334548234967" lon="18.179722884888452"><ele>140.0</ele><time>2026-04-26T16:57:55.082Z</time></trkpt><trkpt lat="40.0132846239387" lon="18.17955944715897"><ele>140.25</ele><time>2026-04-26T16:57:57.082Z</time></trkpt><trkpt lat="40.01324816314998" lon="18.179440234822145"><ele>140.5</ele><time>2026-04-26T16:57:58.082Z</time></trkpt><trkpt lat="40.0132072980193" lon="18.179289111118276"><ele>140.75</ele><time>2026-04-26T16:57:59.082Z</time></trkpt><trkpt lat="40.013161058427876" lon="18.179115492100006"><ele>141.0</ele><time>2026-04-26T16:58:00.082Z</time></trkpt><trkpt lat="40.01310849611101" lon="18.17893570403935"><ele>141.33333333333334</ele><time>2026-04-26T16:58:01.082Z</time></trkpt><trkpt lat="40.013044230880105" lon="18.178724314513786"><ele>141.66666666666669</ele><time>2026-04-26T16:58:02.082Z</time></trkpt><trkpt lat="40.012969248204406" lon="18.178512706322884"><ele>142.0</ele><time>2026-04-26T16:58:03.082Z</time></trkpt><trkpt lat="40.01290166504763" lon="18.178273267130344"><ele>142.33333333333334</ele><time>2026-04-26T16:58:04.083Z</time></trkpt><trkpt lat="40.01283496913836" lon="18.178046609884444"><ele>142.66666666666666</ele><time>2026-04-26T16:58:05.082Z</time></trkpt><trkpt lat="40.01277461906662" lon="18.177862019222154"><ele>143.0</ele><time>2026-04-26T16:58:06.082Z</time></trkpt><trkpt lat="40.0127283727871" lon="18.17771211789167"><ele>143.0</ele><time>2026-04-26T16:58:07.082Z</time></trkpt><trkpt lat="40.01268548097799" lon="18.177579284765976"><ele>143.0</ele><time>2026-04-26T16:58:08.082Z</time></trkpt><trkpt lat="40.01265037888926" lon="18.177459258103266"><ele>143.0</ele><time>2026-04-26T16:58:09.082Z</time></trkpt><trkpt lat="40.01261862552085" lon="18.177368153838366"><ele>143.0</ele><time>2026-04-26T16:58:10.082Z</time></trkpt><trkpt lat="40.012577529961035" lon="18.1772572422607"><ele>143.0</ele><time>2026-04-26T16:58:12.082Z</time></trkpt><trkpt lat="40.012384687024294" lon="18.17731396121843"><ele>143.16666666666666</ele><time>2026-04-26T16:58:16.082Z</time></trkpt><trkpt lat="40.01229436310682" lon="18.177356925115173"><ele>143.33333333333331</ele><time>2026-04-26T16:58:17.082Z</time></trkpt><trkpt lat="40.01220746332935" lon="18.177389937950366"><ele>143.5</ele><time>2026-04-26T16:58:18.082Z</time></trkpt><trkpt lat="40.01211201549218" lon="18.177422229014006"><ele>143.66666666666666</ele><time>2026-04-26T16:58:20.082Z</time></trkpt><trkpt lat="40.01209990040234" lon="18.17752288320835"><ele>143.83333333333334</ele><time>2026-04-26T16:58:23.082Z</time></trkpt><trkpt lat="40.012129463779424" lon="18.177622928620046"><ele>144.0</ele><time>2026-04-26T16:58:24.082Z</time></trkpt><trkpt lat="40.01217705200561" lon="18.177702319010805"><ele>144.0</ele><time>2026-04-26T16:58:25.082Z</time></trkpt><trkpt lat="40.01222536190602" lon="18.17780713299666"><ele>144.0</ele><time>2026-04-26T16:58:27.082Z</time></trkpt><trkpt lat="40.012166698400634" lon="18.17786972898615"><ele>144.0</ele><time>2026-04-26T16:58:31.082Z</time></trkpt></trkseg></trk></gpx>